
Distance (Route):
Temperature : 1.8°C
Humidity : 85.7%
Pressure : 0hPa| Receiver | Frames | First received | Last received |
|---|---|---|---|
| IW2NTF | 1130 | 2026-08-31 11:02:41 | 2026-08-31 13:55:25 |
| DO3MHA-11 | 209 | 2026-08-31 12:40:53 | 2026-08-31 13:37:44 |
| S52SK | 146 | 2026-08-31 12:21:31 | 2026-08-31 13:12:06 |
| OE5DRO-10 | 103 | 2026-08-31 12:32:02 | 2026-08-31 13:17:04 |
| PG1ADW-2 | 73 | 2026-08-31 12:30:24 | 2026-08-31 13:07:36 |
| BAUMI2-15 | 72 | 2026-08-31 12:43:14 | 2026-08-31 13:12:41 |
| DB0UT-7 | 49 | 2026-08-31 12:18:29 | 2026-08-31 13:30:07 |
| NBG1-10 | 41 | 2026-08-31 12:21:38 | 2026-08-31 13:30:31 |
| IN3HCDX | 29 | 2026-08-31 12:50:00 | 2026-08-31 13:05:05 |
| OE5DXL-15 | 22 | 2026-08-31 12:47:29 | 2026-08-31 13:17:11 |
| DL9SK-14 | 18 | 2026-08-31 13:07:03 | 2026-08-31 13:18:57 |
| IN3HCDX1 | 10 | 2026-08-31 12:58:04 | 2026-08-31 13:03:14 |
| OE3JTB-15 | 5 | 2026-08-31 12:40:07 | 2026-08-31 12:46:13 |
| DK5PH-5 | 5 | 2026-08-31 12:40:30 | 2026-08-31 13:07:56 |
| DL1ZP-14 | 1 | 2026-08-31 12:37:05 | 2026-08-31 12:37:05 |
| Receiver | Date | Latitude | Longitude | Direction | Speed | Altitude | Climb | Temperature | Humidity | Pressure | Voltage | Killtimer | Uptime | BKT | XDATA |
|---|---|---|---|---|---|---|---|---|---|---|---|---|---|---|---|
| IW2NTF | 2026-08-31 13:55:25 | 46.03705 | 10.67284 | 61° | 22km/h | 3751m | -5.2m/s | 1.8°C | 85.7% | 0hPa | 2.7V | 07:38:12 | 03:20:43 | 00:00:00 | |
| IW2NTF | 2026-08-31 13:55:19 | 46.03695 | 10.67251 | 72° | 15km/h | 3783m | -5.2m/s | 1.6°C | 86% | 0hPa | 2.7V | 07:38:18 | 03:20:37 | 00:00:00 | |
| IW2NTF | 2026-08-31 13:55:13 | 46.03690 | 10.67221 | 85° | 15km/h | 3813m | -5.3m/s | 1.2°C | 87.9% | 0hPa | 2.6V | 07:38:24 | 03:20:31 | 00:00:00 | |
| IW2NTF | 2026-08-31 13:55:08 | 46.03693 | 10.67186 | 105° | 22km/h | 3844m | -5.1m/s | 0.9°C | 89.2% | 0hPa | 2.7V | 07:38:30 | 03:20:25 | 00:00:00 | |
| IW2NTF | 2026-08-31 13:55:01 | 46.03701 | 10.67130 | 96° | 31km/h | 3875m | -5.2m/s | 0.6°C | 90.8% | 0hPa | 2.7V | 07:38:36 | 03:20:19 | 00:00:00 | |
| IW2NTF | 2026-08-31 13:54:55 | 46.03702 | 10.67059 | 83° | 35km/h | 3906m | -5.2m/s | 0.3°C | 92.2% | 0hPa | 2.7V | 07:38:42 | 03:20:13 | 00:00:00 | |
| IW2NTF | 2026-08-31 13:54:49 | 46.03689 | 10.66988 | 67° | 33km/h | 3937m | -4.9m/s | 0.1°C | 92.8% | 0hPa | 2.6V | 07:38:48 | 03:20:07 | 00:00:00 | |
| IW2NTF | 2026-08-31 13:54:43 | 46.03675 | 10.66936 | 85° | 18km/h | 3965m | -5m/s | -0.1°C | 93.5% | 0hPa | 2.7V | 07:38:54 | 03:20:01 | 00:00:00 | |
| IW2NTF | 2026-08-31 13:54:37 | 46.03679 | 10.66891 | 102° | 24km/h | 3994m | -4.7m/s | -0.3°C | 91.8% | 0hPa | 2.7V | 07:39:00 | 03:19:55 | 00:00:00 | |
| IW2NTF | 2026-08-31 13:54:31 | 46.03690 | 10.66834 | 105° | 31km/h | 4022m | -4.6m/s | -0.6°C | 92.7% | 0hPa | 2.7V | 07:39:06 | 03:19:49 | 00:00:00 | |
| IW2NTF | 2026-08-31 13:54:25 | 46.03704 | 10.66767 | 103° | 35km/h | 4050m | -4.8m/s | -0.8°C | 92.4% | 0hPa | 2.6V | 07:39:12 | 03:19:43 | 00:00:00 | |
| IW2NTF | 2026-08-31 13:54:19 | 46.03706 | 10.66683 | 79° | 38km/h | 4078m | -5.4m/s | -0.8°C | 88.9% | 0hPa | 2.7V | 07:39:18 | 03:19:37 | 00:00:00 | |
| IW2NTF | 2026-08-31 13:54:13 | 46.03693 | 10.66612 | 77° | 29km/h | 4107m | -4.6m/s | -1°C | 89.3% | 0hPa | 2.7V | 07:39:24 | 03:19:31 | 00:00:00 | |
| IW2NTF | 2026-08-31 13:54:07 | 46.03684 | 10.66552 | 80° | 27km/h | 4136m | -4.9m/s | -1°C | 84.2% | 0hPa | 2.7V | 07:39:30 | 03:19:25 | 00:00:00 | |
| IW2NTF | 2026-08-31 13:54:01 | 46.03685 | 10.66491 | 100° | 31km/h | 4164m | -4.5m/s | -1°C | 80.5% | 0hPa | 2.7V | 07:39:36 | 03:19:19 | 00:00:00 | |
| IW2NTF | 2026-08-31 13:53:56 | 46.03697 | 10.66416 | 103° | 38km/h | 4191m | -4.8m/s | -1.2°C | 80.5% | 0hPa | 2.6V | 07:39:42 | 03:19:13 | 00:00:00 | |
| IW2NTF | 2026-08-31 13:53:49 | 46.03709 | 10.66326 | 95° | 47km/h | 4219m | -4.8m/s | -1°C | 70.1% | 0hPa | 2.7V | 07:39:48 | 03:19:07 | 00:00:00 | |
| IW2NTF | 2026-08-31 13:53:39 | 46.03713 | 10.66214 | 92° | 53km/h | 4247m | -3.9m/s | -1.1°C | 66.9% | 0hPa | 2.7V | 07:39:54 | 03:19:01 | 00:00:00 | |
| IW2NTF | 2026-08-31 13:53:39 | 46.03714 | 10.66118 | 87° | 53km/h | 4265m | -3.5m/s | -1.2°C | 67.5% | 0hPa | 2.7V | 07:39:59 | 03:18:56 | 00:00:00 | |
| IW2NTF | 2026-08-31 13:53:13 | 46.03692 | 10.65667 | 82° | 53km/h | 4361m | -3.7m/s | -1.1°C | 45.4% | 0hPa | 2.7V | 07:40:24 | 03:18:31 | 00:00:00 | |
| IW2NTF | 2026-08-31 13:53:07 | 46.03686 | 10.65571 | 95° | 37km/h | 4382m | -4m/s | -1.3°C | 45.7% | 0hPa | 2.7V | 07:40:30 | 03:18:25 | 00:00:00 | |
| IW2NTF | 2026-08-31 13:53:01 | 46.03695 | 10.65490 | 101° | 38km/h | 4406m | -3.7m/s | -1.4°C | 45.4% | 0hPa | 2.7V | 07:40:36 | 03:18:19 | 00:00:00 | |
| IW2NTF | 2026-08-31 13:52:53 | 46.03714 | 10.65364 | 101° | 47km/h | 4434m | -3.4m/s | -1.7°C | 46.8% | 0hPa | 2.7V | 07:40:44 | 03:18:11 | 00:00:00 | |
| IW2NTF | 2026-08-31 13:52:46 | 46.03732 | 10.65247 | 103° | 47km/h | 4458m | -3.5m/s | -1.9°C | 46.3% | 0hPa | 2.7V | 07:40:51 | 03:18:04 | 00:00:00 | |
| IW2NTF | 2026-08-31 13:52:30 | 46.03755 | 10.64927 | 87° | 64km/h | 4516m | -4m/s | -2.4°C | 50.3% | 0hPa | 2.6V | 07:41:07 | 03:17:48 | 00:00:00 | |
| IW2NTF | 2026-08-31 13:52:22 | 46.03735 | 10.64759 | 77° | 47km/h | 4545m | -3.4m/s | -2.4°C | 50.8% | 0hPa | 2.6V | 07:41:15 | 03:17:40 | 00:00:00 | |
| IW2NTF | 2026-08-31 13:52:16 | 46.03728 | 10.64662 | 88° | 46km/h | 4566m | -3.3m/s | -2.3°C | 46.4% | 0hPa | 2.6V | 07:41:21 | 03:17:34 | 00:00:00 | |
| IW2NTF | 2026-08-31 13:52:08 | 46.03732 | 10.64522 | 93° | 51km/h | 4592m | -3.3m/s | -2.3°C | 45.4% | 0hPa | 2.7V | 07:41:29 | 03:17:26 | 00:00:00 | |
| IW2NTF | 2026-08-31 13:52:02 | 46.03737 | 10.64409 | 94° | 55km/h | 4610m | -3.1m/s | -2.4°C | 43.9% | 0hPa | 2.6V | 07:41:35 | 03:17:20 | 00:00:00 | |
| IW2NTF | 2026-08-31 13:51:56 | 46.03739 | 10.64278 | 89° | 62km/h | 4630m | -3.8m/s | -2.5°C | 41.7% | 0hPa | 2.6V | 07:41:41 | 03:17:14 | 00:00:00 | |
| IW2NTF | 2026-08-31 13:51:50 | 46.03733 | 10.64139 | 84° | 64km/h | 4651m | -3.5m/s | -2.6°C | 40.4% | 0hPa | 2.6V | 07:41:47 | 03:17:08 | 00:00:00 | |
| IW2NTF | 2026-08-31 13:51:44 | 46.03719 | 10.64003 | 77° | 62km/h | 4672m | -3.3m/s | -2.8°C | 39.8% | 0hPa | 2.7V | 07:41:53 | 03:17:02 | 00:00:00 | |
| IW2NTF | 2026-08-31 13:51:38 | 46.03697 | 10.63885 | 75° | 51km/h | 4694m | -3.5m/s | -2.9°C | 40.3% | 0hPa | 2.7V | 07:41:59 | 03:16:56 | 00:00:00 | |
| IW2NTF | 2026-08-31 13:51:32 | 46.03681 | 10.63784 | 80° | 46km/h | 4715m | -3.7m/s | -3°C | 38% | 0hPa | 2.7V | 07:42:05 | 03:16:50 | 00:00:00 | |
| IW2NTF | 2026-08-31 13:51:26 | 46.03674 | 10.63683 | 88° | 53km/h | 4737m | -3.1m/s | -3.1°C | 37.8% | 0hPa | 2.7V | 07:42:11 | 03:16:44 | 00:00:00 | |
| IW2NTF | 2026-08-31 13:51:20 | 46.03666 | 10.63547 | 83° | 66km/h | 4762m | -4.2m/s | -3.1°C | 31.6% | 0hPa | 2.7V | 07:42:17 | 03:16:38 | 00:00:00 | |
| IW2NTF | 2026-08-31 13:51:14 | 46.03657 | 10.63407 | 85° | 64km/h | 4790m | -5.5m/s | -3.3°C | 31.9% | 0hPa | 2.7V | 07:42:23 | 03:16:32 | 00:00:00 | |
| IW2NTF | 2026-08-31 13:51:08 | 46.03645 | 10.63266 | 79° | 64km/h | 4822m | -5.2m/s | -3.6°C | 31.4% | 0hPa | 2.7V | 07:42:29 | 03:16:26 | 00:00:00 | |
| IW2NTF | 2026-08-31 13:51:02 | 46.03622 | 10.63138 | 74° | 55km/h | 4853m | -4.5m/s | -3.8°C | 31.1% | 0hPa | 2.7V | 07:42:35 | 03:16:20 | 00:00:00 | |
| IW2NTF | 2026-08-31 13:50:56 | 46.03611 | 10.63035 | 87° | 46km/h | 4882m | -4.8m/s | -4°C | 31.4% | 0hPa | 2.7V | 07:42:41 | 03:16:14 | 00:00:00 | |
| IW2NTF | 2026-08-31 13:50:50 | 46.03606 | 10.62938 | 83° | 44km/h | 4909m | -4.3m/s | -4.3°C | 31% | 0hPa | 2.7V | 07:42:47 | 03:16:08 | 00:00:00 | |
| IW2NTF | 2026-08-31 13:50:44 | 46.03596 | 10.62842 | 76° | 44km/h | 4935m | -4.7m/s | -4.5°C | 32.8% | 0hPa | 2.7V | 07:42:53 | 03:16:02 | 00:00:00 | |
| IW2NTF | 2026-08-31 13:50:38 | 46.03580 | 10.62752 | 77° | 42km/h | 4962m | -4.7m/s | -4.7°C | 32.7% | 0hPa | 2.7V | 07:42:59 | 03:15:56 | 00:00:00 | |
| IW2NTF | 2026-08-31 13:50:32 | 46.03577 | 10.62660 | 92° | 44km/h | 4990m | -4.9m/s | -5°C | 32.5% | 0hPa | 2.7V | 07:43:05 | 03:15:50 | 00:00:00 | |
| IW2NTF | 2026-08-31 13:50:26 | 46.03582 | 10.62555 | 94° | 53km/h | 5019m | -4.9m/s | -5.2°C | 32.3% | 0hPa | 2.7V | 07:43:11 | 03:15:44 | 00:00:00 | |
| IW2NTF | 2026-08-31 13:50:16 | 46.03572 | 10.62338 | 82° | 62km/h | 5069m | -4.7m/s | -5.8°C | 33.4% | 0hPa | 2.6V | 07:43:21 | 03:15:34 | 00:00:00 | |
| IW2NTF | 2026-08-31 13:50:06 | 46.03549 | 10.62123 | 87° | 58km/h | 5118m | -5.6m/s | -6.3°C | 35% | 0hPa | 2.7V | 07:43:31 | 03:15:24 | 00:00:00 | |
| IW2NTF | 2026-08-31 13:49:56 | 46.03530 | 10.61921 | 72° | 47km/h | 5173m | -5.2m/s | -6.6°C | 32.1% | 0hPa | 2.7V | 07:43:41 | 03:15:14 | 00:00:00 | |
| IW2NTF | 2026-08-31 13:49:46 | 46.03491 | 10.61764 | 70° | 49km/h | 5227m | -5.5m/s | -7.1°C | 29.6% | 0hPa | 2.6V | 07:43:51 | 03:15:04 | 00:00:00 | |
| IW2NTF | 2026-08-31 13:49:36 | 46.03445 | 10.61592 | 68° | 47km/h | 5281m | -5.9m/s | -7.6°C | 27.2% | 0hPa | 2.7V | 07:44:01 | 03:14:54 | 00:00:00 | |
| IW2NTF | 2026-08-31 13:49:26 | 46.03398 | 10.61422 | 68° | 53km/h | 5338m | -5.2m/s | -8.1°C | 23.6% | 0hPa | 2.7V | 07:44:11 | 03:14:44 | 00:00:00 | |
| IW2NTF | 2026-08-31 13:49:16 | 46.03350 | 10.61251 | 66° | 42km/h | 5393m | -5.4m/s | -8.4°C | 15.6% | 0hPa | 2.6V | 07:44:21 | 03:14:34 | 00:00:00 | |
| IW2NTF | 2026-08-31 13:49:06 | 46.03323 | 10.61122 | 81° | 38km/h | 5446m | -5.4m/s | -8.8°C | 20.2% | 0hPa | 2.6V | 07:44:31 | 03:14:24 | 00:00:00 | |
| IW2NTF | 2026-08-31 13:48:56 | 46.03314 | 10.60978 | 86° | 40km/h | 5498m | -5.1m/s | -9.3°C | 19.5% | 0hPa | 2.7V | 07:44:41 | 03:14:14 | 00:00:00 | |
| IW2NTF | 2026-08-31 13:48:46 | 46.03312 | 10.60805 | 89° | 51km/h | 5545m | -5m/s | -9.8°C | 18.2% | 0hPa | 2.7V | 07:44:51 | 03:14:04 | 00:00:00 | |
| IW2NTF | 2026-08-31 13:48:36 | 46.03286 | 10.60607 | 74° | 58km/h | 5596m | -5m/s | -10.4°C | 19.1% | 0hPa | 2.7V | 07:45:01 | 03:13:54 | 00:00:00 | |
| IW2NTF | 2026-08-31 13:48:26 | 46.03250 | 10.60403 | 77° | 60km/h | 5648m | -5.6m/s | -10.7°C | 15% | 0hPa | 2.6V | 07:45:11 | 03:13:44 | 00:00:00 | |
| IW2NTF | 2026-08-31 13:48:16 | 46.03205 | 10.60206 | 65° | 53km/h | 5701m | -5.8m/s | -11.2°C | 10.7% | 0hPa | 2.6V | 07:45:21 | 03:13:34 | 00:00:00 | |
| IW2NTF | 2026-08-31 13:48:06 | 46.03172 | 10.60052 | 79° | 42km/h | 5752m | -5.3m/s | -11.6°C | 13.2% | 0hPa | 2.7V | 07:45:31 | 03:13:24 | 00:00:00 | |
| IW2NTF | 2026-08-31 13:47:56 | 46.03159 | 10.59882 | 85° | 55km/h | 5802m | -4.6m/s | -12°C | 11.3% | 0hPa | 2.7V | 07:45:41 | 03:13:14 | 00:00:00 | |
| IW2NTF | 2026-08-31 13:47:46 | 46.03144 | 10.59669 | 84° | 62km/h | 5850m | -4.6m/s | -12.5°C | 11.8% | 0hPa | 2.7V | 07:45:51 | 03:13:04 | 00:00:00 | |
| IW2NTF | 2026-08-31 13:47:37 | 46.03116 | 10.59439 | 78° | 68km/h | 5898m | -4.3m/s | -12.9°C | 12.3% | 0hPa | 2.6V | 07:46:01 | 03:12:54 | 00:00:00 | |
| IW2NTF | 2026-08-31 13:47:26 | 46.03081 | 10.59196 | 78° | 69km/h | 5948m | -5.4m/s | -13.3°C | 14.5% | 0hPa | 2.7V | 07:46:11 | 03:12:44 | 00:00:00 | |
| IW2NTF | 2026-08-31 13:47:16 | 46.03039 | 10.58953 | 74° | 71km/h | 6003m | -5.4m/s | -13.7°C | 17.8% | 0hPa | 2.7V | 07:46:21 | 03:12:34 | 00:00:00 | |
| IW2NTF | 2026-08-31 13:47:06 | 46.02994 | 10.58696 | 74° | 73km/h | 6056m | -5.6m/s | -14.2°C | 44.2% | 0hPa | 2.7V | 07:46:31 | 03:12:24 | 00:00:00 | |
| IW2NTF | 2026-08-31 13:46:56 | 46.02950 | 10.58479 | 80° | 57km/h | 6108m | -5.6m/s | -14.5°C | 44.9% | 0hPa | 2.6V | 07:46:41 | 03:12:14 | 00:00:00 | |
| IW2NTF | 2026-08-31 13:46:46 | 46.02937 | 10.58267 | 85° | 60km/h | 6168m | -5.8m/s | -14.9°C | 61.8% | 0hPa | 2.7V | 07:46:51 | 03:12:04 | 00:00:00 | |
| IW2NTF | 2026-08-31 13:46:36 | 46.02930 | 10.58019 | 87° | 75km/h | 6221m | -5.2m/s | -15.7°C | 53.8% | 0hPa | 2.7V | 07:47:01 | 03:11:54 | 00:00:00 | |
| IW2NTF | 2026-08-31 13:46:26 | 46.02920 | 10.57744 | 84° | 77km/h | 6270m | -4.8m/s | -15.5°C | 57.3% | 0hPa | 2.7V | 07:47:11 | 03:11:44 | 00:00:00 | |
| IW2NTF | 2026-08-31 13:46:16 | 46.02890 | 10.57459 | 80° | 82km/h | 6316m | -4.4m/s | -15.8°C | 54.1% | 0hPa | 2.7V | 07:47:21 | 03:11:34 | 00:00:00 | |
| IW2NTF | 2026-08-31 13:46:06 | 46.02855 | 10.57165 | 78° | 82km/h | 6363m | -4.8m/s | -16.4°C | 60.9% | 0hPa | 2.7V | 07:47:31 | 03:11:24 | 00:00:00 | |
| IW2NTF | 2026-08-31 13:45:56 | 46.02805 | 10.56884 | 74° | 80km/h | 6411m | -4.9m/s | -16.6°C | 38.6% | 0hPa | 2.7V | 07:47:41 | 03:11:14 | 00:00:00 | |
| IW2NTF | 2026-08-31 13:45:46 | 46.02748 | 10.56602 | 71° | 78km/h | 6458m | -4.1m/s | -16.9°C | 21.2% | 0hPa | 2.7V | 07:47:51 | 03:11:04 | 00:00:00 | |
| IW2NTF | 2026-08-31 13:45:36 | 46.02693 | 10.56341 | 73° | 78km/h | 6503m | -4m/s | -17.3°C | 16.3% | 0hPa | 2.7V | 07:48:01 | 03:10:54 | 00:00:00 | |
| IW2NTF | 2026-08-31 13:45:26 | 46.02641 | 10.56060 | 75° | 75km/h | 6551m | -5.2m/s | -17.9°C | 22.6% | 0hPa | 2.7V | 07:48:11 | 03:10:44 | 00:00:00 | |
| IW2NTF | 2026-08-31 13:45:16 | 46.02594 | 10.55792 | 76° | 78km/h | 6604m | -5.3m/s | -18.4°C | 18.6% | 0hPa | 2.7V | 07:48:21 | 03:10:34 | 00:00:00 | |
| IW2NTF | 2026-08-31 13:45:06 | 46.02554 | 10.55530 | 80° | 71km/h | 6658m | -6.3m/s | -18.7°C | 13.6% | 0hPa | 2.6V | 07:48:31 | 03:10:24 | 00:00:00 | |
| IW2NTF | 2026-08-31 13:44:56 | 46.02513 | 10.55272 | 76° | 73km/h | 6717m | -5.6m/s | -19.1°C | 8.8% | 0hPa | 2.6V | 07:48:41 | 03:10:14 | 00:00:00 | |
| IW2NTF | 2026-08-31 13:44:46 | 46.02472 | 10.55017 | 78° | 69km/h | 6773m | -5.1m/s | -19.5°C | 7.7% | 0hPa | 2.6V | 07:48:51 | 03:10:04 | 00:00:00 | |
| IW2NTF | 2026-08-31 13:44:36 | 46.02418 | 10.54750 | 71° | 84km/h | 6824m | -5m/s | -19.8°C | 7.1% | 0hPa | 2.6V | 07:49:01 | 03:09:54 | 00:00:00 | |
| IW2NTF | 2026-08-31 13:44:26 | 46.02346 | 10.54471 | 67° | 80km/h | 6868m | -4.5m/s | -19.9°C | 6.4% | 0hPa | 2.6V | 07:49:11 | 03:09:44 | 00:00:00 | |
| IW2NTF | 2026-08-31 13:44:16 | 46.02269 | 10.54216 | 68° | 71km/h | 6911m | -4m/s | -20.2°C | 6.1% | 0hPa | 2.6V | 07:49:21 | 03:09:34 | 00:00:00 | |
| IW2NTF | 2026-08-31 13:44:06 | 46.02201 | 10.53974 | 67° | 73km/h | 6951m | -3.8m/s | -20.5°C | 5.5% | 0hPa | 2.6V | 07:49:31 | 03:09:24 | 00:00:00 | |
| IW2NTF | 2026-08-31 13:43:56 | 46.02137 | 10.53727 | 70° | 73km/h | 6988m | -3.6m/s | -20.7°C | 5.4% | 0hPa | 2.6V | 07:49:41 | 03:09:14 | 00:00:00 | |
| IW2NTF | 2026-08-31 13:43:46 | 46.02079 | 10.53477 | 72° | 73km/h | 7026m | -3.7m/s | -20.9°C | 5% | 0hPa | 2.6V | 07:49:51 | 03:09:04 | 00:00:00 | |
| IW2NTF | 2026-08-31 13:43:36 | 46.02024 | 10.53224 | 72° | 73km/h | 7063m | -3.6m/s | -21.1°C | 4.8% | 0hPa | 2.6V | 07:50:01 | 03:08:54 | 00:00:00 | |
| IW2NTF | 2026-08-31 13:43:26 | 46.01980 | 10.52967 | 81° | 77km/h | 7099m | -3.4m/s | -21.4°C | 4.6% | 0hPa | 2.6V | 07:50:11 | 03:08:44 | 00:00:00 | |
| IW2NTF | 2026-08-31 13:43:16 | 46.01954 | 10.52676 | 82° | 84km/h | 7135m | -3.5m/s | -21.6°C | 5.3% | 0hPa | 2.6V | 07:50:21 | 03:08:34 | 00:00:00 | |
| IW2NTF | 2026-08-31 13:43:06 | 46.01929 | 10.52375 | 83° | 86km/h | 7172m | -3.6m/s | -21.9°C | 11.4% | 0hPa | 2.6V | 07:50:31 | 03:08:24 | 00:00:00 | |
| IW2NTF | 2026-08-31 13:42:57 | 46.01901 | 10.52058 | 81° | 91km/h | 7211m | -3.8m/s | -22.2°C | 10.5% | 0hPa | 2.6V | 07:50:41 | 03:08:14 | 00:00:00 | |
| IW2NTF | 2026-08-31 13:42:46 | 46.01844 | 10.51736 | 71° | 89km/h | 7249m | -3.9m/s | -22.5°C | 13.5% | 0hPa | 2.6V | 07:50:51 | 03:08:04 | 00:00:00 | |
| IW2NTF | 2026-08-31 13:42:36 | 46.01774 | 10.51450 | 70° | 78km/h | 7287m | -3.9m/s | -22.9°C | 14% | 0hPa | 2.5V | 07:51:01 | 03:07:54 | 00:00:00 | |
| IW2NTF | 2026-08-31 13:42:27 | 46.01720 | 10.51188 | 78° | 71km/h | 7326m | -3.9m/s | -23.2°C | 13.4% | 0hPa | 2.6V | 07:51:11 | 03:07:44 | 00:00:00 | |
| IW2NTF | 2026-08-31 13:42:16 | 46.01694 | 10.50923 | 83° | 77km/h | 7365m | -3.8m/s | -23.5°C | 17.5% | 0hPa | 2.6V | 07:51:21 | 03:07:34 | 00:00:00 | |
| IW2NTF | 2026-08-31 13:42:06 | 46.01675 | 10.50632 | 85° | 84km/h | 7403m | -4.1m/s | -23.5°C | 15.3% | 0hPa | 2.5V | 07:51:31 | 03:07:24 | 00:00:00 | |
| IW2NTF | 2026-08-31 13:41:54 | 46.01653 | 10.50255 | 84° | 88km/h | 7451m | -3.9m/s | -23.6°C | 15.3% | 0hPa | 2.6V | 07:51:43 | 03:07:12 | 00:00:00 | |
| IW2NTF | 2026-08-31 13:41:44 | 46.01624 | 10.49922 | 80° | 97km/h | 7490m | -4.1m/s | -23.7°C | 12.6% | 0hPa | 2.5V | 07:51:53 | 03:07:02 | 00:00:00 | |
| IW2NTF | 2026-08-31 13:41:34 | 46.01583 | 10.49575 | 78° | 99km/h | 7528m | -3.9m/s | -23.7°C | 9.9% | 0hPa | 2.5V | 07:52:03 | 03:06:52 | 00:00:00 | |
| IW2NTF | 2026-08-31 13:41:24 | 46.01526 | 10.49224 | 74° | 99km/h | 7567m | -4.1m/s | -23.9°C | 9% | 0hPa | 2.6V | 07:52:13 | 03:06:42 | 00:00:00 | |
| IW2NTF | 2026-08-31 13:41:13 | 46.01443 | 10.48849 | 69° | 95km/h | 7611m | -4m/s | -24.1°C | 9% | 0hPa | 2.5V | 07:52:24 | 03:06:31 | 00:00:00 | |
| IW2NTF | 2026-08-31 13:41:02 | 46.01355 | 10.48510 | 71° | 86km/h | 7654m | -4m/s | -24.2°C | 9.2% | 0hPa | 2.6V | 07:52:35 | 03:06:20 | 00:00:00 | |
| IW2NTF | 2026-08-31 13:40:51 | 46.01289 | 10.48189 | 74° | 84km/h | 7697m | -4.2m/s | -24.4°C | 8% | 0hPa | 2.6V | 07:52:46 | 03:06:09 | 00:00:00 | |
| IW2NTF | 2026-08-31 13:40:41 | 46.01235 | 10.47891 | 75° | 86km/h | 7737m | -4.3m/s | -24.6°C | 8.9% | 0hPa | 2.6V | 07:52:56 | 03:05:59 | 00:00:00 | |
| IW2NTF | 2026-08-31 13:40:31 | 46.01189 | 10.47577 | 82° | 95km/h | 7778m | -4m/s | -24.7°C | 8.5% | 0hPa | 2.5V | 07:53:06 | 03:05:49 | 00:00:00 | |
| IW2NTF | 2026-08-31 13:40:21 | 46.01159 | 10.47213 | 83° | 104km/h | 7821m | -3.9m/s | -24.7°C | 7.5% | 0hPa | 2.5V | 07:53:16 | 03:05:39 | 00:00:00 | |
| IW2NTF | 2026-08-31 13:40:11 | 46.01128 | 10.46832 | 83° | 104km/h | 7864m | -4.8m/s | -24.7°C | 6.5% | 0hPa | 2.5V | 07:53:26 | 03:05:29 | 00:00:00 | |
| IW2NTF | 2026-08-31 13:40:01 | 46.01100 | 10.46454 | 83° | 104km/h | 7909m | -4.6m/s | -24.9°C | 5.9% | 0hPa | 2.5V | 07:53:36 | 03:05:19 | 00:00:00 | |
| IW2NTF | 2026-08-31 13:39:51 | 46.01065 | 10.46083 | 83° | 106km/h | 7954m | -4.6m/s | -25.1°C | 6.3% | 0hPa | 2.6V | 07:53:46 | 03:05:09 | 00:00:00 | |
| IW2NTF | 2026-08-31 13:39:41 | 46.01031 | 10.45704 | 82° | 104km/h | 7999m | -4.5m/s | -25.5°C | 8.4% | 0hPa | 2.6V | 07:53:56 | 03:04:59 | 00:00:00 | |
| IW2NTF | 2026-08-31 13:39:31 | 46.00998 | 10.45309 | 83° | 111km/h | 8045m | -4.5m/s | -25.8°C | 12.6% | 0hPa | 2.5V | 07:54:06 | 03:04:49 | 00:00:00 | |
| IW2NTF | 2026-08-31 13:39:21 | 46.00963 | 10.44909 | 81° | 119km/h | 8090m | -4.8m/s | -26.2°C | 13.1% | 0hPa | 2.6V | 07:54:16 | 03:04:39 | 00:00:00 | |
| IW2NTF | 2026-08-31 13:39:11 | 46.00914 | 10.44478 | 80° | 119km/h | 8135m | -4.7m/s | -26.6°C | 13.2% | 0hPa | 2.5V | 07:54:26 | 03:04:29 | 00:00:00 | |
| IW2NTF | 2026-08-31 13:39:01 | 46.00850 | 10.44044 | 77° | 122km/h | 8181m | -4.8m/s | -27°C | 13.6% | 0hPa | 2.6V | 07:54:36 | 03:04:19 | 00:00:00 | |
| IW2NTF | 2026-08-31 13:38:51 | 46.00772 | 10.43611 | 75° | 122km/h | 8228m | -4.7m/s | -27.4°C | 19.2% | 0hPa | 2.5V | 07:54:46 | 03:04:09 | 00:00:00 | |
| IW2NTF | 2026-08-31 13:38:41 | 46.00695 | 10.43176 | 75° | 124km/h | 8275m | -4.9m/s | -27.7°C | 19.4% | 0hPa | 2.6V | 07:54:56 | 03:03:59 | 00:00:00 | |
| IW2NTF | 2026-08-31 13:38:31 | 46.00629 | 10.42741 | 79° | 119km/h | 8323m | -5.2m/s | -28.1°C | 20.7% | 0hPa | 2.5V | 07:55:06 | 03:03:49 | 00:00:00 | |
| IW2NTF | 2026-08-31 13:38:21 | 46.00570 | 10.42308 | 77° | 124km/h | 8372m | -5.1m/s | -28.6°C | 20.3% | 0hPa | 2.6V | 07:55:16 | 03:03:39 | 00:00:00 | |
| IW2NTF | 2026-08-31 13:38:11 | 46.00485 | 10.41872 | 72° | 124km/h | 8421m | -5.3m/s | -29°C | 20.6% | 0hPa | 2.6V | 07:55:26 | 03:03:29 | 00:00:00 | |
| IW2NTF | 2026-08-31 13:38:01 | 46.00387 | 10.41453 | 71° | 122km/h | 8473m | -5.4m/s | -29.4°C | 24.4% | 0hPa | 2.6V | 07:55:36 | 03:03:19 | 00:00:00 | |
| IW2NTF | 2026-08-31 13:37:51 | 46.00286 | 10.41043 | 69° | 117km/h | 8524m | -5m/s | -29.9°C | 29.1% | 0hPa | 2.6V | 07:55:46 | 03:03:09 | 00:00:00 | |
| DO3MHA-11 | 2026-08-31 13:37:44 | 46.00266 | 10.40962 | 71° | 120km/h | 8534m | -5.4m/s | -30.0°C | 29.8% | 0hPa | 2.5V | 00:00:00 | 03:03:07 | 00:00:00 | |
| IW2NTF | 2026-08-31 13:37:41 | 46.00185 | 10.40629 | 69° | 119km/h | 8576m | -5.7m/s | -30.3°C | 33.3% | 0hPa | 2.5V | 07:55:56 | 03:02:59 | 00:00:00 | |
| DO3MHA-11 | 2026-08-31 13:37:32 | 46.00144 | 10.40468 | 71° | 119km/h | 8597m | -5.4m/s | -30.4°C | 32.2% | 0hPa | 2.5V | 00:00:00 | 03:02:55 | 00:00:00 | |
| IW2NTF | 2026-08-31 13:37:31 | 46.00082 | 10.40227 | 69° | 119km/h | 8631m | -5.8m/s | -30.7°C | 36% | 0hPa | 2.6V | 07:56:06 | 03:02:49 | 00:00:00 | |
| DO3MHA-11 | 2026-08-31 13:37:22 | 46.00039 | 10.40062 | 70° | 119km/h | 8653m | -6.0m/s | -30.9°C | 36.0% | 0hPa | 2.5V | 00:00:00 | 03:02:45 | 00:00:00 | |
| IW2NTF | 2026-08-31 13:37:21 | 45.99973 | 10.39820 | 68° | 119km/h | 8687m | -5.7m/s | -31.2°C | 36.8% | 0hPa | 2.5V | 07:56:16 | 03:02:39 | 00:00:00 | |
| DO3MHA-11 | 2026-08-31 13:37:12 | 45.99930 | 10.39661 | 69° | 113km/h | 8709m | -5.3m/s | -31.3°C | 41.9% | 0hPa | 2.5V | 00:00:00 | 03:02:35 | 00:00:00 | |
| IW2NTF | 2026-08-31 13:37:11 | 45.99866 | 10.39431 | 68° | 111km/h | 8741m | -5.9m/s | -31.6°C | 45.2% | 0hPa | 2.5V | 07:56:26 | 03:02:29 | 00:00:00 | |
| DO3MHA-11 | 2026-08-31 13:37:02 | 45.99827 | 10.39280 | 71° | 111km/h | 8764m | -5.6m/s | -31.7°C | 44.0% | 0hPa | 2.6V | 00:00:00 | 03:02:25 | 00:00:00 | |
| IW2NTF | 2026-08-31 13:37:01 | 45.99768 | 10.39052 | 69° | 111km/h | 8798m | -5.9m/s | -32°C | 44.7% | 0hPa | 2.6V | 07:56:36 | 03:02:19 | 00:00:00 | |
| DO3MHA-11 | 2026-08-31 13:36:52 | 45.99728 | 10.38899 | 69° | 117km/h | 8821m | -5.8m/s | -32.2°C | 42.8% | 0hPa | 2.6V | 00:00:00 | 03:02:15 | 00:00:00 | |
| IW2NTF | 2026-08-31 13:36:51 | 45.99664 | 10.38665 | 67° | 119km/h | 8855m | -6.3m/s | -32.4°C | 42.9% | 0hPa | 2.6V | 07:56:46 | 03:02:09 | 00:00:00 | |
| DO3MHA-11 | 2026-08-31 13:36:42 | 45.99617 | 10.38505 | 67° | 120km/h | 8879m | -6.0m/s | -32.5°C | 43.8% | 0hPa | 2.6V | 00:00:00 | 03:02:05 | 00:00:00 | |
| IW2NTF | 2026-08-31 13:36:41 | 45.99546 | 10.38262 | 67° | 122km/h | 8914m | -6.3m/s | -32.8°C | 44.4% | 0hPa | 2.6V | 07:56:56 | 03:01:59 | 00:00:00 | |
| DO3MHA-11 | 2026-08-31 13:36:32 | 45.99500 | 10.38101 | 70° | 117km/h | 8938m | -6.0m/s | -33.0°C | 43.1% | 0hPa | 2.5V | 07:57:00 | 03:01:55 | 00:00:00 | |
| IW2NTF | 2026-08-31 13:36:31 | 45.99440 | 10.37859 | 72° | 117km/h | 8974m | -6.2m/s | -33.2°C | 39.7% | 0hPa | 2.6V | 07:57:06 | 03:01:49 | 00:00:00 | |
| DO3MHA-11 | 2026-08-31 13:36:22 | 45.99403 | 10.37697 | 72° | 119km/h | 8998m | -6.2m/s | -33.3°C | 39.4% | 0hPa | 2.5V | 00:00:00 | 03:01:45 | 00:00:00 | |
| IW2NTF | 2026-08-31 13:36:21 | 45.99343 | 10.37453 | 69° | 119km/h | 9035m | -6.1m/s | -33.7°C | 40.5% | 0hPa | 2.5V | 07:57:16 | 03:01:39 | 00:00:00 | |
| DO3MHA-11 | 2026-08-31 13:36:12 | 45.99300 | 10.37289 | 69° | 122km/h | 9059m | -6.0m/s | -33.8°C | 40.6% | 0hPa | 2.5V | 00:00:00 | 03:01:35 | 00:00:00 | |
| IW2NTF | 2026-08-31 13:36:11 | 45.99231 | 10.37041 | 67° | 122km/h | 9096m | -6.2m/s | -34.2°C | 38.6% | 0hPa | 2.5V | 07:57:26 | 03:01:29 | 00:00:00 | |
| DO3MHA-11 | 2026-08-31 13:36:02 | 45.99184 | 10.36875 | 69° | 122km/h | 9121m | -6.2m/s | -34.3°C | 37.4% | 0hPa | 2.6V | 00:00:00 | 03:01:25 | 00:00:00 | |
| IW2NTF | 2026-08-31 13:36:01 | 45.99113 | 10.36627 | 67° | 124km/h | 9158m | -6.5m/s | -34.6°C | 38.7% | 0hPa | 2.5V | 07:57:36 | 03:01:19 | 00:00:00 | |
| DO3MHA-11 | 2026-08-31 13:35:52 | 45.99066 | 10.36461 | 68° | 124km/h | 9182m | -6.3m/s | -34.7°C | 37.7% | 0hPa | 2.6V | 00:00:00 | 03:01:15 | 00:00:00 | |
| IW2NTF | 2026-08-31 13:35:51 | 45.98994 | 10.36212 | 67° | 124km/h | 9219m | -5.8m/s | -35°C | 35.5% | 0hPa | 2.6V | 07:57:46 | 03:01:09 | 00:00:00 | |
| DO3MHA-11 | 2026-08-31 13:35:42 | 45.98946 | 10.36045 | 68° | 128km/h | 9243m | -6.5m/s | -35.1°C | 35.8% | 0hPa | 2.5V | 00:00:00 | 03:01:05 | 00:00:00 | |
| IW2NTF | 2026-08-31 13:35:41 | 45.98872 | 10.35789 | 67° | 128km/h | 9281m | -6.2m/s | -35.5°C | 37.9% | 0hPa | 2.5V | 07:57:56 | 03:00:59 | 00:00:00 | |
| IW2NTF | 2026-08-31 13:35:32 | 45.98745 | 10.35346 | 68° | 137km/h | 9341m | -5.9m/s | -35.9°C | 36.8% | 0hPa | 2.6V | 07:58:06 | 03:00:49 | 00:00:00 | |
| DO3MHA-11 | 2026-08-31 13:35:32 | 45.98822 | 10.35615 | 68° | 135km/h | 9306m | -6.5m/s | -35.6°C | 37.5% | 0hPa | 2.5V | 00:00:00 | 03:00:55 | 00:00:00 | |
| DO3MHA-11 | 2026-08-31 13:35:22 | 45.98695 | 10.35157 | 70° | 137km/h | 9366m | -6.3m/s | -36.1°C | 37.2% | 0hPa | 2.6V | 00:00:00 | 03:00:45 | 00:00:00 | |
| IW2NTF | 2026-08-31 13:35:21 | 45.98619 | 10.34881 | 68° | 135km/h | 9403m | -5.8m/s | -36.5°C | 38.1% | 0hPa | 2.6V | 07:58:16 | 03:00:39 | 00:00:00 | |
| DO3MHA-11 | 2026-08-31 13:35:12 | 45.98569 | 10.34694 | 70° | 141km/h | 9427m | -5.9m/s | -36.6°C | 38.1% | 0hPa | 2.5V | 07:58:00 | 03:00:35 | 00:00:00 | |
| IW2NTF | 2026-08-31 13:35:11 | 45.98496 | 10.34407 | 69° | 141km/h | 9464m | -6.4m/s | -37°C | 37.9% | 0hPa | 2.5V | 07:58:26 | 03:00:29 | 00:00:00 | |
| DO3MHA-11 | 2026-08-31 13:35:02 | 45.98447 | 10.34217 | 69° | 130km/h | 9490m | -6.3m/s | -37.2°C | 36.8% | 0hPa | 2.6V | 00:00:00 | 03:00:25 | 00:00:00 | |
| IW2NTF | 2026-08-31 13:35:01 | 45.98379 | 10.33949 | 71° | 128km/h | 9526m | -6.2m/s | -37.5°C | 34% | 0hPa | 2.6V | 07:58:36 | 03:00:19 | 00:00:00 | |
| DO3MHA-11 | 2026-08-31 13:34:52 | 45.98340 | 10.33776 | 73° | 126km/h | 9551m | -6.3m/s | -37.6°C | 33.7% | 0hPa | 2.5V | 00:00:00 | 03:00:15 | 00:00:00 | |
| IW2NTF | 2026-08-31 13:34:51 | 45.98288 | 10.33512 | 76° | 128km/h | 9588m | -5.9m/s | -38°C | 34% | 0hPa | 2.5V | 07:58:46 | 03:00:09 | 00:00:00 | |
| DO3MHA-11 | 2026-08-31 13:34:42 | 45.98258 | 10.33330 | 77° | 130km/h | 9613m | -6.3m/s | -38.1°C | 35.7% | 0hPa | 2.6V | 00:00:00 | 03:00:05 | 00:00:00 | |
| IW2NTF | 2026-08-31 13:34:41 | 45.98214 | 10.33057 | 76° | 131km/h | 9650m | -6.2m/s | -38.4°C | 35.2% | 0hPa | 2.6V | 07:58:56 | 02:59:59 | 00:00:00 | |
| DO3MHA-11 | 2026-08-31 13:34:32 | 45.98185 | 10.32871 | 78° | 128km/h | 9676m | -6.2m/s | -38.5°C | 34.6% | 0hPa | 2.5V | 00:00:00 | 02:59:55 | 00:00:00 | |
| IW2NTF | 2026-08-31 13:34:31 | 45.98139 | 10.32599 | 75° | 128km/h | 9714m | -6.5m/s | -38.8°C | 34.6% | 0hPa | 2.5V | 07:59:06 | 02:59:49 | 00:00:00 | |
| DO3MHA-11 | 2026-08-31 13:34:22 | 45.98106 | 10.32421 | 75° | 128km/h | 9740m | -6.6m/s | -39.0°C | 36.8% | 0hPa | 2.6V | 00:00:00 | 02:59:45 | 00:00:00 | |
| IW2NTF | 2026-08-31 13:34:21 | 45.98058 | 10.32152 | 75° | 126km/h | 9778m | -6.3m/s | -39.3°C | 35.9% | 0hPa | 2.6V | 07:59:16 | 02:59:39 | 00:00:00 | |
| DO3MHA-11 | 2026-08-31 13:34:12 | 45.98027 | 10.31972 | 78° | 133km/h | 9804m | -6.3m/s | -39.4°C | 37.4% | 0hPa | 2.5V | 00:00:00 | 02:59:35 | 00:00:00 | |
| IW2NTF | 2026-08-31 13:34:11 | 45.97987 | 10.31688 | 78° | 133km/h | 9840m | -6.5m/s | -39.8°C | 36.9% | 0hPa | 2.5V | 07:59:26 | 02:59:29 | 00:00:00 | |
| DO3MHA-11 | 2026-08-31 13:34:02 | 45.97958 | 10.31497 | 79° | 139km/h | 9866m | -6.0m/s | -40.0°C | 37.4% | 0hPa | 2.6V | 00:00:00 | 02:59:25 | 00:00:00 | |
| IW2NTF | 2026-08-31 13:34:01 | 45.97916 | 10.31205 | 78° | 139km/h | 9903m | -6.2m/s | -40.4°C | 37.6% | 0hPa | 2.6V | 07:59:36 | 02:59:19 | 00:00:00 | |
| IW2NTF | 2026-08-31 13:33:52 | 45.97841 | 10.30704 | 77° | 142km/h | 9966m | -6.2m/s | -40.8°C | 37.7% | 0hPa | 2.5V | 07:59:46 | 02:59:09 | 00:00:00 | |
| DO3MHA-11 | 2026-08-31 13:33:42 | 45.97810 | 10.30502 | 78° | 142km/h | 9992m | -6.2m/s | -41.0°C | 38.3% | 0hPa | 2.5V | 00:00:00 | 02:59:05 | 00:00:00 | |
| IW2NTF | 2026-08-31 13:33:32 | 45.97723 | 10.29948 | 76° | 146km/h | 10061m | -6.2m/s | -41.6°C | 42.8% | 0hPa | 2.5V | 08:00:01 | 02:58:54 | 00:00:00 | |
| DO3MHA-11 | 2026-08-31 13:33:32 | 45.97731 | 10.29999 | 77° | 146km/h | 10054m | -6.3m/s | -41.5°C | 42.2% | 0hPa | 2.5V | 08:00:00 | 02:58:55 | 00:00:00 | |
| IW2NTF | 2026-08-31 13:33:22 | 45.97637 | 10.29434 | 76° | 146km/h | 10123m | -6m/s | -42.2°C | 44.3% | 0hPa | 2.5V | 08:00:11 | 02:58:44 | 00:00:00 | |
| DO3MHA-11 | 2026-08-31 13:33:22 | 45.97646 | 10.29485 | 77° | 148km/h | 10117m | -6.3m/s | -42.1°C | 44.2% | 0hPa | 2.5V | 00:00:00 | 02:58:45 | 00:00:00 | |
| DO3MHA-11 | 2026-08-31 13:33:12 | 45.97553 | 10.28967 | 77° | 144km/h | 10179m | -6.2m/s | -42.6°C | 44.3% | 0hPa | 2.5V | 00:00:00 | 02:58:35 | 00:00:00 | |
| DO3MHA-11 | 2026-08-31 13:33:02 | 45.97465 | 10.28455 | 77° | 148km/h | 10241m | -6.2m/s | -43.2°C | 46.2% | 0hPa | 2.5V | 00:00:00 | 02:58:25 | 00:00:00 | |
| DO3MHA-11 | 2026-08-31 13:32:52 | 45.97374 | 10.27932 | 75° | 151km/h | 10303m | -6.2m/s | -43.8°C | 48.3% | 0hPa | 2.5V | 00:00:00 | 02:58:15 | 00:00:00 | |
| IW2NTF | 2026-08-31 13:32:42 | 45.97258 | 10.27292 | 74° | 153km/h | 10378m | -6.3m/s | -44.4°C | 47.7% | 0hPa | 2.5V | 08:00:52 | 02:58:03 | 00:00:00 | |
| DO3MHA-11 | 2026-08-31 13:32:42 | 45.97277 | 10.27399 | 76° | 153km/h | 10366m | -6.2m/s | -44.2°C | 47.2% | 0hPa | 2.6V | 00:00:00 | 02:58:05 | 00:00:00 | |
| IW2NTF | 2026-08-31 13:32:32 | 45.97150 | 10.26755 | 73° | 153km/h | 10440m | -6.3m/s | -44.9°C | 49.6% | 0hPa | 2.6V | 08:01:02 | 02:57:53 | 00:00:00 | |
| DO3MHA-11 | 2026-08-31 13:32:32 | 45.97172 | 10.26863 | 75° | 153km/h | 10428m | -6.4m/s | -44.7°C | 49.2% | 0hPa | 2.5V | 00:00:00 | 02:57:55 | 00:00:00 | |
| IW2NTF | 2026-08-31 13:32:22 | 45.97033 | 10.26223 | 71° | 153km/h | 10502m | -6.2m/s | -45.4°C | 51.4% | 0hPa | 2.6V | 08:01:12 | 02:57:43 | 00:00:00 | |
| DO3MHA-11 | 2026-08-31 13:32:22 | 45.97057 | 10.26329 | 72° | 153km/h | 10490m | -6.3m/s | -45.3°C | 51.0% | 0hPa | 2.5V | 00:00:00 | 02:57:45 | 00:00:00 | |
| IW2NTF | 2026-08-31 13:32:12 | 45.96917 | 10.25691 | 73° | 155km/h | 10564m | -6.1m/s | -46°C | 53.7% | 0hPa | 2.5V | 08:01:22 | 02:57:33 | 00:00:00 | |
| DO3MHA-11 | 2026-08-31 13:32:12 | 45.96938 | 10.25798 | 74° | 153km/h | 10552m | -6.1m/s | -45.8°C | 53.6% | 0hPa | 2.5V | 00:00:00 | 02:57:35 | 00:00:00 | |
| IW2NTF | 2026-08-31 13:32:02 | 45.96800 | 10.25156 | 72° | 155km/h | 10627m | -6m/s | -46.5°C | 53.6% | 0hPa | 2.5V | 08:01:32 | 02:57:23 | 00:00:00 | |
| DO3MHA-11 | 2026-08-31 13:32:02 | 45.96823 | 10.25263 | 73° | 155km/h | 10614m | -6.4m/s | -46.4°C | 53.7% | 0hPa | 2.5V | 08:01:00 | 02:57:25 | 00:00:00 | |
| IW2NTF | 2026-08-31 13:31:52 | 45.96674 | 10.24625 | 68° | 150km/h | 10690m | -6.3m/s | -47°C | 50.5% | 0hPa | 2.5V | 08:01:42 | 02:57:13 | 00:00:00 | |
| DO3MHA-11 | 2026-08-31 13:31:52 | 45.96702 | 10.24727 | 70° | 150km/h | 10677m | -6.1m/s | -46.9°C | 51.4% | 0hPa | 2.5V | 00:00:00 | 02:57:15 | 00:00:00 | |
| IW2NTF | 2026-08-31 13:31:42 | 45.96535 | 10.24115 | 70° | 157km/h | 10752m | -6.1m/s | -47.4°C | 45.1% | 0hPa | 2.5V | 08:01:52 | 02:57:03 | 00:00:00 | |
| DO3MHA-11 | 2026-08-31 13:31:42 | 45.96562 | 10.24220 | 70° | 155km/h | 10740m | -6.0m/s | -47.3°C | 46.4% | 0hPa | 2.5V | 00:00:00 | 02:57:05 | 00:00:00 | |
| IW2NTF | 2026-08-31 13:31:32 | 45.96405 | 10.23576 | 71° | 159km/h | 10814m | -6.2m/s | -47.9°C | 41.2% | 0hPa | 2.5V | 08:02:02 | 02:56:53 | 00:00:00 | |
| DO3MHA-11 | 2026-08-31 13:31:32 | 45.96431 | 10.23685 | 71° | 159km/h | 10802m | -6.1m/s | -47.7°C | 41.7% | 0hPa | 2.6V | 00:00:00 | 02:56:55 | 00:00:00 | |
| IW2NTF | 2026-08-31 13:31:22 | 45.96283 | 10.23024 | 73° | 161km/h | 10877m | -6.1m/s | -48.2°C | 39.1% | 0hPa | 2.5V | 08:02:12 | 02:56:43 | 00:00:00 | |
| DO3MHA-11 | 2026-08-31 13:31:22 | 45.96307 | 10.23136 | 73° | 162km/h | 10865m | -6.1m/s | -48.0°C | 39.0% | 0hPa | 2.5V | 00:00:00 | 02:56:45 | 00:00:00 | |
| IW2NTF | 2026-08-31 13:31:12 | 45.96162 | 10.22454 | 72° | 166km/h | 10939m | -6.2m/s | -48.5°C | 36.2% | 0hPa | 2.5V | 08:02:22 | 02:56:33 | 00:00:00 | |
| DO3MHA-11 | 2026-08-31 13:31:12 | 45.96187 | 10.22570 | 73° | 168km/h | 10927m | -6.2m/s | -48.4°C | 37.3% | 0hPa | 2.5V | 00:00:00 | 02:56:35 | 00:00:00 | |
| IW2NTF | 2026-08-31 13:31:02 | 45.96037 | 10.21873 | 75° | 166km/h | 11000m | -6.2m/s | -48.1°C | 31.4% | 0hPa | 2.5V | 08:02:32 | 02:56:23 | 00:00:00 | |
| DO3MHA-11 | 2026-08-31 13:31:02 | 45.96059 | 10.21991 | 75° | 168km/h | 10988m | -6.2m/s | -48.4°C | 32.1% | 0hPa | 2.6V | 00:00:00 | 02:56:25 | 00:00:00 | |
| IW2NTF | 2026-08-31 13:30:52 | 45.95932 | 10.21285 | 75° | 170km/h | 11062m | -6.3m/s | -48.6°C | 30.6% | 0hPa | 2.5V | 08:02:42 | 02:56:13 | 00:00:00 | |
| DO3MHA-11 | 2026-08-31 13:30:52 | 45.95953 | 10.21403 | 76° | 172km/h | 11050m | -6.3m/s | -48.4°C | 31.1% | 0hPa | 2.5V | 00:00:00 | 02:56:15 | 00:00:00 | |
| IW2NTF | 2026-08-31 13:30:42 | 45.95820 | 10.20678 | 75° | 175km/h | 11125m | -6.5m/s | -48.6°C | 24.3% | 0hPa | 2.5V | 08:02:52 | 02:56:03 | 00:00:00 | |
| DO3MHA-11 | 2026-08-31 13:30:42 | 45.95842 | 10.20801 | 76° | 173km/h | 11112m | -6.3m/s | -48.6°C | 25.2% | 0hPa | 2.5V | 00:00:00 | 02:56:05 | 00:00:00 | |
| IW2NTF | 2026-08-31 13:30:32 | 45.95720 | 10.20065 | 77° | 175km/h | 11187m | -6.2m/s | -48.8°C | 22% | 0hPa | 2.5V | 08:03:02 | 02:55:53 | 00:00:00 | |
| DO3MHA-11 | 2026-08-31 13:30:32 | 45.95738 | 10.20188 | 78° | 177km/h | 11175m | -6.3m/s | -48.7°C | 22.4% | 0hPa | 2.6V | 08:03:00 | 02:55:55 | 00:00:00 | |
| NBG1-10 | 2026-08-31 13:30:31 | 45.95729 | 10.20127 | 78° | 177km/h | 11181m | -6.4m/s | -48.7°C | 22.2% | 0hPa | 2.5V | 00:00:00 | 02:55:54 | 00:00:00 | |
| IW2NTF | 2026-08-31 13:30:22 | 45.95602 | 10.19436 | 73° | 181km/h | 11247m | -6.5m/s | -49.1°C | 20.3% | 0hPa | 2.5V | 08:03:12 | 02:55:43 | 00:00:00 | |
| DO3MHA-11 | 2026-08-31 13:30:22 | 45.95629 | 10.19562 | 74° | 181km/h | 11235m | -6.1m/s | -49.1°C | 20.5% | 0hPa | 2.5V | 00:00:00 | 02:55:45 | 00:00:00 | |
| IW2NTF | 2026-08-31 13:30:12 | 45.95466 | 10.18810 | 71° | 181km/h | 11309m | -6.4m/s | -49.4°C | 19.5% | 0hPa | 2.5V | 08:03:22 | 02:55:33 | 00:00:00 | |
| DO3MHA-11 | 2026-08-31 13:30:12 | 45.95495 | 10.18934 | 73° | 177km/h | 11297m | -6.0m/s | -49.4°C | 19.9% | 0hPa | 2.5V | 00:00:00 | 02:55:35 | 00:00:00 | |
| DB0UT-7 | 2026-08-31 13:30:07 | 45.95422 | 10.18625 | 71° | 179km/h | 11329m | -6.5m/s | -49.3°C | 19.0% | 0hPa | 2.5V | 00:00:00 | 02:55:30 | 00:00:00 | |
| IW2NTF | 2026-08-31 13:30:02 | 45.95314 | 10.18213 | 68° | 172km/h | 11373m | -6.4m/s | -49.5°C | 18.7% | 0hPa | 2.5V | 08:03:32 | 02:55:23 | 00:00:00 | |
| NBG1-10 | 2026-08-31 13:29:58 | 45.95282 | 10.18096 | 69° | 181km/h | 11386m | -6.3m/s | -49.5°C | 18.7% | 0hPa | 2.5V | 08:03:00 | 02:55:21 | 00:00:00 | |
| IW2NTF | 2026-08-31 13:29:52 | 45.95158 | 10.17609 | 70° | 181km/h | 11435m | -6.3m/s | -49.8°C | 18.5% | 0hPa | 2.5V | 08:03:42 | 02:55:13 | 00:00:00 | |
| DO3MHA-11 | 2026-08-31 13:29:52 | 45.95188 | 10.17734 | 71° | 181km/h | 11423m | -6.4m/s | -49.7°C | 18.7% | 0hPa | 2.5V | 00:00:00 | 02:55:15 | 00:00:00 | |
| IW2NTF | 2026-08-31 13:29:42 | 45.94998 | 10.16992 | 68° | 181km/h | 11499m | -6.2m/s | -50.3°C | 18.7% | 0hPa | 2.5V | 08:03:52 | 02:55:03 | 00:00:00 | |
| DO3MHA-11 | 2026-08-31 13:29:42 | 45.95032 | 10.17114 | 69° | 181km/h | 11486m | -6.2m/s | -50.1°C | 18.6% | 0hPa | 2.6V | 00:00:00 | 02:55:05 | 00:00:00 | |
| DB0UT-7 | 2026-08-31 13:29:37 | 45.94950 | 10.16806 | 71° | 181km/h | 11518m | -6.1m/s | -50.4°C | 18.8% | 0hPa | 2.6V | 00:00:00 | 00:00:00 | 00:00:00 | |
| IW2NTF | 2026-08-31 13:29:32 | 45.94847 | 10.16372 | 70° | 181km/h | 11561m | -6.1m/s | -50.8°C | 19% | 0hPa | 2.5V | 08:04:02 | 02:54:53 | 00:00:00 | |
| DO3MHA-11 | 2026-08-31 13:29:32 | 45.94877 | 10.16495 | 72° | 181km/h | 11549m | -6.4m/s | -50.7°C | 19.0% | 0hPa | 2.6V | 00:00:00 | 02:54:55 | 00:00:00 | |
| NBG1-10 | 2026-08-31 13:29:25 | 45.94765 | 10.16065 | 69° | 173km/h | 11593m | -6.5m/s | -51.0°C | 18.9% | 0hPa | 2.5V | 00:00:00 | 02:54:48 | 00:00:00 | |
| IW2NTF | 2026-08-31 13:29:22 | 45.94680 | 10.15758 | 68° | 181km/h | 11625m | -6.5m/s | -51.2°C | 19.1% | 0hPa | 2.5V | 08:04:12 | 02:54:43 | 00:00:00 | |
| DO3MHA-11 | 2026-08-31 13:29:22 | 45.94714 | 10.15881 | 69° | 181km/h | 11612m | -6.4m/s | -51.1°C | 19.0% | 0hPa | 2.6V | 00:00:00 | 02:54:45 | 00:00:00 | |
| IW2NTF | 2026-08-31 13:29:12 | 45.94511 | 10.15152 | 66° | 173km/h | 11690m | -6.5m/s | -51.6°C | 19.9% | 0hPa | 2.6V | 08:04:22 | 02:54:33 | 00:00:00 | |
| DO3MHA-11 | 2026-08-31 13:29:12 | 45.94546 | 10.15269 | 68° | 173km/h | 11677m | -6.2m/s | -51.5°C | 19.7% | 0hPa | 2.5V | 00:00:00 | 02:54:35 | 00:00:00 | |
| DB0UT-7 | 2026-08-31 13:29:07 | 45.94458 | 10.14980 | 66° | 161km/h | 11710m | -6.8m/s | -51.7°C | 19.9% | 0hPa | 2.5V | 00:00:00 | 02:54:30 | 00:00:00 | |
| IW2NTF | 2026-08-31 13:29:02 | 45.94335 | 10.14586 | 66° | 166km/h | 11757m | -6.7m/s | -52.1°C | 20.2% | 0hPa | 2.5V | 08:04:32 | 02:54:23 | 00:00:00 | |
| DO3MHA-11 | 2026-08-31 13:29:02 | 45.94370 | 10.14697 | 66° | 162km/h | 11744m | -6.5m/s | -52.0°C | 20.1% | 0hPa | 2.5V | 08:04:00 | 02:54:25 | 00:00:00 | |
| IW2NTF | 2026-08-31 13:28:52 | 45.94191 | 10.14045 | 71° | 159km/h | 11823m | -6.8m/s | -52.7°C | 20.4% | 0hPa | 2.5V | 08:04:42 | 02:54:13 | 00:00:00 | |
| DO3MHA-11 | 2026-08-31 13:28:52 | 45.94216 | 10.14153 | 72° | 159km/h | 11810m | -6.6m/s | -52.6°C | 20.5% | 0hPa | 2.5V | 00:00:00 | 02:54:15 | 00:00:00 | |
| IW2NTF | 2026-08-31 13:28:42 | 45.94053 | 10.13507 | 70° | 155km/h | 11890m | -6.5m/s | -52.7°C | 18.4% | 0hPa | 2.5V | 08:04:52 | 02:54:03 | 00:00:00 | |
| DO3MHA-11 | 2026-08-31 13:28:42 | 45.94080 | 10.13614 | 70° | 155km/h | 11877m | -6.6m/s | -52.9°C | 19.3% | 0hPa | 2.5V | 00:00:00 | 02:54:05 | 00:00:00 | |
| DB0UT-7 | 2026-08-31 13:28:37 | 45.94016 | 10.13346 | 73° | 155km/h | 11910m | -6.7m/s | -52.8°C | 18.6% | 0hPa | 2.5V | 00:00:00 | 00:00:00 | 00:00:00 | |
| IW2NTF | 2026-08-31 13:28:32 | 45.93937 | 10.12969 | 73° | 155km/h | 11957m | -6.8m/s | -53.1°C | 18.6% | 0hPa | 2.5V | 08:05:02 | 02:53:53 | 00:00:00 | |
| DO3MHA-11 | 2026-08-31 13:28:32 | 45.93958 | 10.13077 | 75° | 155km/h | 11943m | -6.7m/s | -53.0°C | 18.8% | 0hPa | 2.5V | 00:00:00 | 02:53:55 | 00:00:00 | |
| IW2NTF | 2026-08-31 13:28:22 | 45.93832 | 10.12428 | 74° | 155km/h | 12023m | -6.8m/s | -53.5°C | 18.4% | 0hPa | 2.5V | 08:05:12 | 02:53:43 | 00:00:00 | |
| DO3MHA-11 | 2026-08-31 13:28:22 | 45.93852 | 10.12537 | 75° | 155km/h | 12010m | -6.7m/s | -53.4°C | 18.4% | 0hPa | 2.6V | 00:00:00 | 02:53:45 | 00:00:00 | |
| NBG1-10 | 2026-08-31 13:28:19 | 45.93821 | 10.12374 | 75° | 164km/h | 12030m | -6.6m/s | -53.5°C | 18.4% | 0hPa | 2.6V | 00:00:00 | 02:53:42 | 00:00:00 | |
| IW2NTF | 2026-08-31 13:28:12 | 45.93727 | 10.11882 | 75° | 157km/h | 12091m | -6.6m/s | -53.8°C | 17.7% | 0hPa | 2.5V | 08:05:22 | 02:53:33 | 00:00:00 | |
| DO3MHA-11 | 2026-08-31 13:28:12 | 45.93748 | 10.11992 | 75° | 161km/h | 12077m | -6.6m/s | -53.7°C | 18.0% | 0hPa | 2.5V | 00:00:00 | 02:53:35 | 00:00:00 | |
| DB0UT-7 | 2026-08-31 13:28:07 | 45.93697 | 10.11715 | 76° | 170km/h | 12111m | -6.7m/s | -53.7°C | 17.4% | 0hPa | 2.5V | 00:00:00 | 02:53:30 | 00:00:00 | |
| IW2NTF | 2026-08-31 13:28:02 | 45.93623 | 10.11313 | 74° | 170km/h | 12159m | -6.8m/s | -54°C | 17.2% | 0hPa | 2.6V | 08:05:32 | 02:53:23 | 00:00:00 | |
| DO3MHA-11 | 2026-08-31 13:28:02 | 45.93645 | 10.11430 | 76° | 170km/h | 12145m | -6.6m/s | -53.9°C | 17.2% | 0hPa | 2.5V | 00:00:00 | 02:53:25 | 00:00:00 | |
| IW2NTF | 2026-08-31 13:27:56 | 45.93511 | 10.10718 | 75° | 170km/h | 12226m | -6.6m/s | -54.3°C | 17.5% | 0hPa | 2.6V | 08:05:42 | 02:53:13 | 00:00:00 | |
| DO3MHA-11 | 2026-08-31 13:27:52 | 45.93533 | 10.10836 | 75° | 172km/h | 12213m | -6.8m/s | -54.2°C | 17.4% | 0hPa | 2.5V | 00:00:00 | 02:53:15 | 00:00:00 | |
| NBG1-10 | 2026-08-31 13:27:46 | 45.93465 | 10.10478 | 75° | 175km/h | 12253m | -6.8m/s | -54.4°C | 17.6% | 0hPa | 2.5V | 00:00:00 | 02:53:09 | 00:00:00 | |
| IW2NTF | 2026-08-31 13:27:43 | 45.93364 | 10.09994 | 73° | 175km/h | 12307m | -6.8m/s | -54.9°C | 17.4% | 0hPa | 2.5V | 08:05:54 | 02:53:01 | 00:00:00 | |
| DO3MHA-11 | 2026-08-31 13:27:42 | 45.93415 | 10.10236 | 74° | 175km/h | 12280m | -6.8m/s | -54.7°C | 17.5% | 0hPa | 2.5V | 00:00:00 | 02:53:05 | 00:00:00 | |
| DB0UT-7 | 2026-08-31 13:27:37 | 45.93351 | 10.09933 | 73° | 173km/h | 12314m | -6.6m/s | -54.9°C | 17.5% | 0hPa | 2.5V | 00:00:00 | 00:00:00 | 00:00:00 | |
| IW2NTF | 2026-08-31 13:27:33 | 45.93229 | 10.09386 | 71° | 177km/h | 12375m | -7.1m/s | -55.4°C | 17.4% | 0hPa | 2.5V | 08:06:04 | 02:52:51 | 00:00:00 | |
| DO3MHA-11 | 2026-08-31 13:27:32 | 45.93284 | 10.09629 | 72° | 177km/h | 12348m | -6.6m/s | -55.2°C | 17.4% | 0hPa | 2.5V | 08:06:00 | 02:52:55 | 00:00:00 | |
| IW2NTF | 2026-08-31 13:27:23 | 45.93083 | 10.08780 | 69° | 173km/h | 12445m | -6.9m/s | -55.5°C | 17.2% | 0hPa | 2.6V | 08:06:14 | 02:52:41 | 00:00:00 | |
| DO3MHA-11 | 2026-08-31 13:27:22 | 45.93143 | 10.09020 | 71° | 173km/h | 12418m | -6.8m/s | -55.6°C | 17.3% | 0hPa | 2.6V | 00:00:00 | 02:52:45 | 00:00:00 | |
| IW2NTF | 2026-08-31 13:27:13 | 45.92923 | 10.08209 | 67° | 170km/h | 12514m | -6.9m/s | -55.8°C | 17.7% | 0hPa | 2.6V | 08:06:24 | 02:52:31 | 00:00:00 | |
| NBG1-10 | 2026-08-31 13:27:13 | 45.93003 | 10.08493 | 68° | 159km/h | 12479m | -7.0m/s | -55.6°C | 17.3% | 0hPa | 2.6V | 00:00:00 | 02:52:36 | 00:00:00 | |
| DO3MHA-11 | 2026-08-31 13:27:12 | 45.92987 | 10.08436 | 69° | 168km/h | 12487m | -7.0m/s | -55.6°C | 17.4% | 0hPa | 2.6V | 00:00:00 | 02:52:35 | 00:00:00 | |
| DB0UT-7 | 2026-08-31 13:27:07 | 45.92907 | 10.08153 | 68° | 155km/h | 12521m | -6.9m/s | -55.8°C | 17.8% | 0hPa | 2.6V | 00:00:00 | 02:52:30 | 00:00:00 | |
| IW2NTF | 2026-08-31 13:27:03 | 45.92762 | 10.07661 | 67° | 157km/h | 12584m | -7.3m/s | -56.2°C | 16.9% | 0hPa | 2.6V | 08:06:34 | 02:52:21 | 00:00:00 | |
| DO3MHA-11 | 2026-08-31 13:27:02 | 45.92825 | 10.07876 | 67° | 157km/h | 12556m | -6.8m/s | -55.9°C | 16.9% | 0hPa | 2.6V | 00:00:00 | 02:52:25 | 00:00:00 | |
| IW2NTF | 2026-08-31 13:26:54 | 45.92633 | 10.07138 | 72° | 150km/h | 12654m | -7.1m/s | -56.5°C | 17.5% | 0hPa | 2.6V | 08:06:44 | 02:52:11 | 00:00:00 | |
| DO3MHA-11 | 2026-08-31 13:26:52 | 45.92680 | 10.07347 | 72° | 151km/h | 12627m | -6.5m/s | -56.4°C | 17.3% | 0hPa | 2.6V | 00:00:00 | 02:52:15 | 00:00:00 | |
| IW2NTF | 2026-08-31 13:26:43 | 45.92509 | 10.06625 | 71° | 148km/h | 12728m | -7.4m/s | -56.8°C | 17.6% | 0hPa | 2.6V | 08:06:54 | 02:52:01 | 00:00:00 | |
| DO3MHA-11 | 2026-08-31 13:26:42 | 45.92559 | 10.06830 | 71° | 148km/h | 12699m | -7.5m/s | -56.8°C | 17.5% | 0hPa | 2.5V | 00:00:00 | 02:52:05 | 00:00:00 | |
| NBG1-10 | 2026-08-31 13:26:40 | 45.92534 | 10.06727 | 71° | 144km/h | 12714m | -7.7m/s | -56.8°C | 17.4% | 0hPa | 2.5V | 00:00:00 | 02:52:03 | 00:00:00 | |
| DB0UT-7 | 2026-08-31 13:26:37 | 45.92497 | 10.06573 | 73° | 142km/h | 12736m | -7.4m/s | -56.7°C | 17.6% | 0hPa | 2.6V | 08:06:00 | 00:00:00 | 00:00:00 | |
| IW2NTF | 2026-08-31 13:26:33 | 45.92402 | 10.06121 | 72° | 142km/h | 12801m | -7.2m/s | -56.8°C | 16.7% | 0hPa | 2.6V | 08:07:04 | 02:51:51 | 00:00:00 | |
| DO3MHA-11 | 2026-08-31 13:26:32 | 45.92443 | 10.06321 | 74° | 144km/h | 12772m | -7.1m/s | -56.6°C | 16.9% | 0hPa | 2.6V | 00:00:00 | 02:51:55 | 00:00:00 | |
| IW2NTF | 2026-08-31 13:26:23 | 45.92295 | 10.05628 | 74° | 141km/h | 12874m | -7.2m/s | -56.7°C | 15.9% | 0hPa | 2.6V | 08:07:14 | 02:51:41 | 00:00:00 | |
| DO3MHA-11 | 2026-08-31 13:26:22 | 45.92335 | 10.05824 | 74° | 141km/h | 12845m | -7.3m/s | -56.6°C | 16.1% | 0hPa | 2.6V | 00:00:00 | 02:51:45 | 00:00:00 | |
| IW2NTF | 2026-08-31 13:26:13 | 45.92216 | 10.05137 | 78° | 139km/h | 12948m | -7.3m/s | -56.9°C | 15.7% | 0hPa | 2.6V | 08:07:24 | 02:51:31 | 00:00:00 | |
| DO3MHA-11 | 2026-08-31 13:26:12 | 45.92245 | 10.05334 | 78° | 139km/h | 12919m | -7.4m/s | -56.8°C | 15.8% | 0hPa | 2.6V | 00:00:00 | 02:51:35 | 00:00:00 | |
| DB0UT-7 | 2026-08-31 13:26:07 | 45.92209 | 10.05087 | 79° | 139km/h | 12956m | -7.2m/s | -56.8°C | 15.5% | 0hPa | 2.6V | 00:00:00 | 02:51:30 | 00:00:00 | |
| IW2NTF | 2026-08-31 13:26:03 | 45.92143 | 10.04647 | 77° | 135km/h | 13023m | -7.7m/s | -57.2°C | 15.2% | 0hPa | 2.6V | 08:07:34 | 02:51:21 | 00:00:00 | |
| DO3MHA-11 | 2026-08-31 13:26:02 | 45.92174 | 10.04840 | 78° | 137km/h | 12992m | -7.3m/s | -56.9°C | 15.3% | 0hPa | 2.6V | 08:07:00 | 02:51:25 | 00:00:00 | |
| IW2NTF | 2026-08-31 13:25:53 | 45.92084 | 10.04154 | 81° | 139km/h | 13095m | -7.3m/s | -57.4°C | 15.1% | 0hPa | 2.6V | 08:07:44 | 02:51:11 | 00:00:00 | |
| DO3MHA-11 | 2026-08-31 13:25:52 | 45.92104 | 10.04354 | 82° | 139km/h | 13067m | -6.9m/s | -57.2°C | 15.2% | 0hPa | 2.6V | 00:00:00 | 02:51:15 | 00:00:00 | |
| IW2NTF | 2026-08-31 13:25:43 | 45.92027 | 10.03652 | 80° | 146km/h | 13169m | -7.2m/s | -57.6°C | 15.1% | 0hPa | 2.6V | 08:07:54 | 02:51:01 | 00:00:00 | |
| DO3MHA-11 | 2026-08-31 13:25:42 | 45.92051 | 10.03856 | 81° | 144km/h | 13140m | -7.4m/s | -57.5°C | 15.1% | 0hPa | 2.6V | 00:00:00 | 02:51:05 | 00:00:00 | |
| DB0UT-7 | 2026-08-31 13:25:37 | 45.92021 | 10.03599 | 81° | 146km/h | 13177m | -7.2m/s | -57.6°C | 15.1% | 0hPa | 2.6V | 00:00:00 | 00:00:00 | 00:00:00 | |
| NBG1-10 | 2026-08-31 13:25:34 | 45.92003 | 10.03442 | 81° | 146km/h | 13199m | -7.7m/s | -57.7°C | 15.1% | 0hPa | 2.6V | 00:00:00 | 02:50:57 | 00:00:00 | |
| IW2NTF | 2026-08-31 13:25:33 | 45.91967 | 10.03131 | 80° | 146km/h | 13244m | -7.4m/s | -57.9°C | 15.5% | 0hPa | 2.6V | 08:08:04 | 02:50:51 | 00:00:00 | |
| DO3MHA-11 | 2026-08-31 13:25:32 | 45.91991 | 10.03339 | 81° | 144km/h | 13215m | -7.5m/s | -57.8°C | 15.2% | 0hPa | 2.6V | 00:00:00 | 02:50:55 | 00:00:00 | |
| IW2NTF | 2026-08-31 13:25:23 | 45.91908 | 10.02611 | 81° | 146km/h | 13320m | -7.6m/s | -58.3°C | 15.8% | 0hPa | 2.6V | 08:08:14 | 02:50:41 | 00:00:00 | |
| DO3MHA-11 | 2026-08-31 13:25:22 | 45.91931 | 10.02820 | 82° | 146km/h | 13290m | -7.7m/s | -58.0°C | 15.6% | 0hPa | 2.6V | 00:00:00 | 02:50:45 | 00:00:00 | |
| IW2NTF | 2026-08-31 13:25:13 | 45.91849 | 10.02086 | 80° | 148km/h | 13396m | -7.5m/s | -58.9°C | 16.4% | 0hPa | 2.6V | 08:08:24 | 02:50:31 | 00:00:00 | |
| DO3MHA-11 | 2026-08-31 13:25:12 | 45.91874 | 10.02296 | 81° | 148km/h | 13366m | -7.4m/s | -58.6°C | 16.3% | 0hPa | 2.6V | 00:00:00 | 02:50:35 | 00:00:00 | |
| DB0UT-7 | 2026-08-31 13:25:07 | 45.91842 | 10.02033 | 81° | 141km/h | 13404m | -7.7m/s | -58.9°C | 16.4% | 0hPa | 2.6V | 00:00:00 | 02:50:30 | 00:00:00 | |
| IW2NTF | 2026-08-31 13:25:03 | 45.91791 | 10.01567 | 81° | 141km/h | 13472m | -7.4m/s | -59.1°C | 15.9% | 0hPa | 2.6V | 08:08:34 | 02:50:21 | 00:00:00 | |
| DO3MHA-11 | 2026-08-31 13:25:02 | 45.91812 | 10.01770 | 82° | 141km/h | 13443m | -7.4m/s | -59.0°C | 16.3% | 0hPa | 2.6V | 00:00:00 | 02:50:25 | 00:00:00 | |
| IW2NTF | 2026-08-31 13:24:53 | 45.91741 | 10.01059 | 81° | 142km/h | 13548m | -7.6m/s | -59.6°C | 15% | 0hPa | 2.6V | 08:08:44 | 02:50:11 | 00:00:00 | |
| DO3MHA-11 | 2026-08-31 13:24:52 | 45.91761 | 10.01264 | 82° | 141km/h | 13518m | -7.6m/s | -59.4°C | 15.4% | 0hPa | 2.6V | 00:00:00 | 02:50:15 | 00:00:00 | |
| IW2NTF | 2026-08-31 13:24:43 | 45.91692 | 10.00576 | 83° | 133km/h | 13625m | -7.8m/s | -59.7°C | 14% | 0hPa | 2.6V | 08:08:54 | 02:50:01 | 00:00:00 | |
| DO3MHA-11 | 2026-08-31 13:24:42 | 45.91710 | 10.00764 | 82° | 135km/h | 13594m | -7.9m/s | -59.7°C | 14.3% | 0hPa | 2.6V | 00:00:00 | 02:50:05 | 00:00:00 | |
| DB0UT-7 | 2026-08-31 13:24:37 | 45.91688 | 10.00527 | 84° | 126km/h | 13633m | -7.6m/s | -59.6°C | 13.9% | 0hPa | 2.6V | 00:00:00 | 00:00:00 | 00:00:00 | |
| IW2NTF | 2026-08-31 13:24:33 | 45.91656 | 10.00090 | 84° | 126km/h | 13702m | -7.7m/s | -58.9°C | 11.4% | 0hPa | 2.6V | 08:09:04 | 02:49:51 | 00:00:00 | |
| DO3MHA-11 | 2026-08-31 13:24:32 | 45.91669 | 10.00279 | 85° | 128km/h | 13671m | -7.5m/s | -59.1°C | 12.5% | 0hPa | 2.6V | 08:09:00 | 02:49:55 | 00:00:00 | |
| NBG1-10 | 2026-08-31 13:24:27 | 45.91653 | 10.00045 | 85° | 117km/h | 13710m | -7.7m/s | -58.7°C | 11.1% | 0hPa | 2.6V | 08:09:00 | 02:49:50 | 00:00:00 | |
| IW2NTF | 2026-08-31 13:24:23 | 45.91629 | 9.99639 | 84° | 122km/h | 13779m | -7.6m/s | -58.6°C | 10.8% | 0hPa | 2.6V | 08:09:14 | 02:49:41 | 00:00:00 | |
| DO3MHA-11 | 2026-08-31 13:24:22 | 45.91638 | 9.99820 | 86° | 122km/h | 13749m | -7.7m/s | -58.6°C | 11.0% | 0hPa | 2.6V | 00:00:00 | 02:49:45 | 00:00:00 | |
| IW2NTF | 2026-08-31 13:24:13 | 45.91579 | 9.99216 | 78° | 117km/h | 13857m | -8.1m/s | -58.9°C | 9.9% | 0hPa | 2.6V | 08:09:24 | 02:49:31 | 00:00:00 | |
| DO3MHA-11 | 2026-08-31 13:24:12 | 45.91601 | 9.99382 | 80° | 117km/h | 13825m | -7.8m/s | -58.9°C | 10.4% | 0hPa | 2.6V | 00:00:00 | 02:49:35 | 00:00:00 | |
| DB0UT-7 | 2026-08-31 13:24:07 | 45.91573 | 9.99174 | 79° | 108km/h | 13865m | -7.9m/s | -58.9°C | 9.9% | 0hPa | 2.6V | 00:00:00 | 02:49:30 | 00:00:00 | |
| IW2NTF | 2026-08-31 13:24:03 | 45.91519 | 9.98812 | 78° | 108km/h | 13936m | -7.6m/s | -58.8°C | 9.7% | 0hPa | 2.6V | 08:09:34 | 02:49:21 | 00:00:00 | |
| DO3MHA-11 | 2026-08-31 13:24:02 | 45.91542 | 9.98969 | 78° | 108km/h | 13905m | -7.8m/s | -58.9°C | 9.9% | 0hPa | 2.6V | 00:00:00 | 02:49:25 | 00:00:00 | |
| IW2NTF | 2026-08-31 13:23:53 | 45.91453 | 9.98443 | 72° | 104km/h | 14014m | -7.7m/s | -58.2°C | 8.4% | 0hPa | 2.6V | 08:09:44 | 02:49:11 | 00:00:00 | |
| NBG1-10 | 2026-08-31 13:23:53 | 45.91489 | 9.98625 | 76° | 102km/h | 13975m | -7.7m/s | -58.4°C | 9.0% | 0hPa | 2.6V | 00:00:00 | 02:49:16 | 00:00:00 | |
| DO3MHA-11 | 2026-08-31 13:23:52 | 45.91482 | 9.98589 | 75° | 106km/h | 13983m | -7.9m/s | -58.3°C | 8.9% | 0hPa | 2.6V | 00:00:00 | 02:49:15 | 00:00:00 | |
| IW2NTF | 2026-08-31 13:23:43 | 45.91370 | 9.98084 | 70° | 102km/h | 14093m | -8.1m/s | -58.2°C | 7.8% | 0hPa | 2.6V | 08:09:54 | 02:49:01 | 00:00:00 | |
| DO3MHA-11 | 2026-08-31 13:23:42 | 45.91404 | 9.98225 | 72° | 102km/h | 14061m | -7.9m/s | -58.1°C | 8.0% | 0hPa | 2.6V | 00:00:00 | 02:49:05 | 00:00:00 | |
| DB0UT-7 | 2026-08-31 13:23:37 | 45.91362 | 9.98049 | 72° | 97km/h | 14101m | -8.1m/s | -58.2°C | 7.8% | 0hPa | 2.6V | 00:00:00 | 00:00:00 | 00:00:00 | |
| IW2NTF | 2026-08-31 13:23:33 | 45.91282 | 9.97739 | 68° | 99km/h | 14174m | -8.1m/s | -58.8°C | 7.9% | 0hPa | 2.6V | 08:10:04 | 02:48:51 | 00:00:00 | |
| DO3MHA-11 | 2026-08-31 13:23:32 | 45.91319 | 9.97875 | 70° | 99km/h | 14142m | -8.0m/s | -58.6°C | 7.9% | 0hPa | 2.6V | 00:00:00 | 02:48:55 | 00:00:00 | |
| IW2NTF | 2026-08-31 13:23:23 | 45.91179 | 9.97424 | 61° | 97km/h | 14255m | -8.1m/s | -58.4°C | 7.4% | 0hPa | 2.5V | 08:10:14 | 02:48:41 | 00:00:00 | |
| DO3MHA-11 | 2026-08-31 13:23:22 | 45.91223 | 9.97548 | 64° | 97km/h | 14223m | -8.2m/s | -58.6°C | 7.5% | 0hPa | 2.5V | 00:00:00 | 02:48:45 | 00:00:00 | |
| NBG1-10 | 2026-08-31 13:23:20 | 45.91201 | 9.97486 | 63° | 91km/h | 14239m | -8.1m/s | -58.5°C | 7.5% | 0hPa | 2.5V | 00:00:00 | 02:48:43 | 00:00:00 | |
| IW2NTF | 2026-08-31 13:23:13 | 45.91063 | 9.97124 | 61° | 88km/h | 14337m | -8.1m/s | -58.5°C | 7.4% | 0hPa | 2.5V | 08:10:24 | 02:48:31 | 00:00:00 | |
| DB0UT-7 | 2026-08-31 13:23:07 | 45.91052 | 9.97096 | 63° | 89km/h | 14346m | -7.9m/s | -58.5°C | 7.5% | 0hPa | 2.5V | 00:00:00 | 02:48:30 | 00:00:00 | |
| IW2NTF | 2026-08-31 13:23:03 | 45.90963 | 9.96839 | 64° | 88km/h | 14419m | -8.1m/s | -58.8°C | 7.6% | 0hPa | 2.5V | 08:10:34 | 02:48:21 | 00:00:00 | |
| DO3MHA-11 | 2026-08-31 13:23:02 | 45.91003 | 9.96954 | 63° | 89km/h | 14386m | -8.2m/s | -58.7°C | 7.7% | 0hPa | 2.5V | 08:10:00 | 02:48:25 | 00:00:00 | |
| IW2NTF | 2026-08-31 13:22:53 | 45.90873 | 9.96543 | 68° | 89km/h | 14499m | -7.9m/s | -58.8°C | 7.5% | 0hPa | 2.6V | 08:10:44 | 02:48:11 | 00:00:00 | |
| DO3MHA-11 | 2026-08-31 13:22:52 | 45.90908 | 9.96662 | 67° | 89km/h | 14468m | -8.1m/s | -58.6°C | 7.4% | 0hPa | 2.5V | 00:00:00 | 02:48:15 | 00:00:00 | |
| NBG1-10 | 2026-08-31 13:22:47 | 45.90865 | 9.96512 | 69° | 88km/h | 14508m | -8.3m/s | -58.5°C | 7.3% | 0hPa | 2.5V | 00:00:00 | 02:48:10 | 00:00:00 | |
| IW2NTF | 2026-08-31 13:22:43 | 45.90793 | 9.96237 | 69° | 91km/h | 14581m | -8.1m/s | -58°C | 6.8% | 0hPa | 2.6V | 08:10:54 | 02:48:01 | 00:00:00 | |
| DO3MHA-11 | 2026-08-31 13:22:42 | 45.90825 | 9.96360 | 70° | 91km/h | 14548m | -8.0m/s | -58.3°C | 7.1% | 0hPa | 2.6V | 00:00:00 | 02:48:05 | 00:00:00 | |
| DB0UT-7 | 2026-08-31 13:22:37 | 45.90786 | 9.96206 | 71° | 88km/h | 14589m | -7.9m/s | -58.0°C | 6.8% | 0hPa | 2.6V | 00:00:00 | 00:00:00 | 00:00:00 | |
| IW2NTF | 2026-08-31 13:22:33 | 45.90733 | 9.95919 | 77° | 91km/h | 14662m | -8.3m/s | -57.7°C | 6.7% | 0hPa | 2.6V | 08:11:04 | 02:47:51 | 00:00:00 | |
| DO3MHA-11 | 2026-08-31 13:22:32 | 45.90753 | 9.96049 | 77° | 89km/h | 14630m | -8.3m/s | -57.8°C | 6.7% | 0hPa | 2.6V | 00:00:00 | 02:47:55 | 00:00:00 | |
| IW2NTF | 2026-08-31 13:22:23 | 45.90679 | 9.95614 | 74° | 84km/h | 14747m | -8.3m/s | -58°C | 6.9% | 0hPa | 2.6V | 08:11:14 | 02:47:41 | 00:00:00 | |
| DO3MHA-11 | 2026-08-31 13:22:22 | 45.90701 | 9.95733 | 76° | 84km/h | 14713m | -8.3m/s | -57.7°C | 6.7% | 0hPa | 2.5V | 00:00:00 | 02:47:45 | 00:00:00 | |
| NBG1-10 | 2026-08-31 13:22:14 | 45.90654 | 9.95497 | 72° | 88km/h | 14780m | -8.3m/s | -58.1°C | 6.9% | 0hPa | 2.5V | 00:00:00 | 02:47:37 | 00:00:00 | |
| IW2NTF | 2026-08-31 13:22:13 | 45.90610 | 9.95327 | 67° | 84km/h | 14830m | -8.4m/s | -58.1°C | 6.8% | 0hPa | 2.5V | 08:11:24 | 02:47:31 | 00:00:00 | |
| DO3MHA-11 | 2026-08-31 13:22:12 | 45.90641 | 9.95440 | 71° | 84km/h | 14797m | -8.3m/s | -58.1°C | 6.9% | 0hPa | 2.6V | 00:00:00 | 02:47:35 | 00:00:00 | |
| DB0UT-7 | 2026-08-31 13:22:07 | 45.90601 | 9.95298 | 67° | 89km/h | 14839m | -8.6m/s | -58.0°C | 6.8% | 0hPa | 2.6V | 08:11:00 | 02:47:30 | 00:00:00 | |
| IW2NTF | 2026-08-31 13:22:03 | 45.90520 | 9.95044 | 64° | 89km/h | 14916m | -8.5m/s | -58.1°C | 6.7% | 0hPa | 2.5V | 08:11:34 | 02:47:21 | 00:00:00 | |
| DO3MHA-11 | 2026-08-31 13:22:02 | 45.90558 | 9.95158 | 66° | 88km/h | 14882m | -8.3m/s | -58.0°C | 6.7% | 0hPa | 2.5V | 00:00:00 | 02:47:25 | 00:00:00 | |
| IW2NTF | 2026-08-31 13:21:53 | 45.90420 | 9.94752 | 63° | 89km/h | 14999m | -8.1m/s | -58.4°C | 6.6% | 0hPa | 2.6V | 08:11:44 | 02:47:11 | 00:00:00 | |
| DO3MHA-11 | 2026-08-31 13:21:52 | 45.90460 | 9.94869 | 65° | 89km/h | 14966m | -8.1m/s | -58.1°C | 6.6% | 0hPa | 2.5V | 00:00:00 | 02:47:15 | 00:00:00 | |
| IW2NTF | 2026-08-31 13:21:43 | 45.90318 | 9.94457 | 65° | 95km/h | 15084m | -8.6m/s | -58.3°C | 6.4% | 0hPa | 2.5V | 08:11:54 | 02:47:01 | 00:00:00 | |
| DO3MHA-11 | 2026-08-31 13:21:42 | 45.90358 | 9.94578 | 64° | 95km/h | 15050m | -8.4m/s | -58.3°C | 6.5% | 0hPa | 2.6V | 00:00:00 | 02:47:05 | 00:00:00 | |
| NBG1-10 | 2026-08-31 13:21:40 | 45.90338 | 9.94518 | 65° | 91km/h | 15067m | -8.4m/s | -58.3°C | 6.5% | 0hPa | 2.6V | 00:00:00 | 02:47:03 | 00:00:00 | |
| DB0UT-7 | 2026-08-31 13:21:37 | 45.90308 | 9.94425 | 67° | 91km/h | 15092m | -8.4m/s | -58.3°C | 6.4% | 0hPa | 2.6V | 00:00:00 | 00:00:00 | 00:00:00 | |
| IW2NTF | 2026-08-31 13:21:33 | 45.90231 | 9.94131 | 69° | 95km/h | 15170m | -8.8m/s | -58.5°C | 6.4% | 0hPa | 2.6V | 08:12:04 | 02:46:51 | 00:00:00 | |
| DO3MHA-11 | 2026-08-31 13:21:32 | 45.90264 | 9.94261 | 70° | 91km/h | 15135m | -8.6m/s | -58.4°C | 6.5% | 0hPa | 2.6V | 08:12:00 | 02:46:55 | 00:00:00 | |
| IW2NTF | 2026-08-31 13:21:23 | 45.90153 | 9.93821 | 72° | 89km/h | 15258m | -8.3m/s | -58.3°C | 6.2% | 0hPa | 2.6V | 08:12:14 | 02:46:41 | 00:00:00 | |
| DO3MHA-11 | 2026-08-31 13:21:19 | 45.90160 | 9.93852 | 72° | 88km/h | 15249m | -8.6m/s | -58.3°C | 6.2% | 0hPa | 2.6V | 00:00:00 | 02:46:42 | 00:00:00 | |
| IW2NTF | 2026-08-31 13:21:13 | 45.90092 | 9.93520 | 76° | 86km/h | 15346m | -8.5m/s | -58.6°C | 6.2% | 0hPa | 2.6V | 08:12:24 | 02:46:31 | 00:00:00 | |
| DO3MHA-11 | 2026-08-31 13:21:09 | 45.90097 | 9.93550 | 75° | 86km/h | 15337m | -9.0m/s | -58.5°C | 6.2% | 0hPa | 2.6V | 00:00:00 | 02:46:32 | 00:00:00 | |
| DB0UT-7 | 2026-08-31 13:21:07 | 45.90086 | 9.93489 | 78° | 78km/h | 15355m | -8.7m/s | -58.5°C | 6.2% | 0hPa | 2.6V | 00:00:00 | 02:46:30 | 00:00:00 | |
| NBG1-10 | 2026-08-31 13:21:06 | 45.90082 | 9.93459 | 80° | 78km/h | 15363m | -8.4m/s | -58.5°C | 6.2% | 0hPa | 2.6V | 00:00:00 | 02:46:29 | 00:00:00 | |
| IW2NTF | 2026-08-31 13:21:04 | 45.90061 | 9.93214 | 85° | 82km/h | 15434m | -8.6m/s | -58.5°C | 6.1% | 0hPa | 2.6V | 08:12:34 | 02:46:21 | 00:00:00 | |
| DO3MHA-11 | 2026-08-31 13:20:59 | 45.90062 | 9.93243 | 86° | 80km/h | 15425m | -8.6m/s | -58.5°C | 6.1% | 0hPa | 2.6V | 00:00:00 | 02:46:22 | 00:00:00 | |
| IW2NTF | 2026-08-31 13:20:53 | 45.90042 | 9.92930 | 84° | 75km/h | 15523m | -9.2m/s | -58.3°C | 5.9% | 0hPa | 2.6V | 08:12:44 | 02:46:11 | 00:00:00 | |
| DO3MHA-11 | 2026-08-31 13:20:49 | 45.90043 | 9.92957 | 86° | 75km/h | 15515m | -9.1m/s | -58.4°C | 6.0% | 0hPa | 2.6V | 00:00:00 | 02:46:12 | 00:00:00 | |
| IW2NTF | 2026-08-31 13:20:44 | 45.90006 | 9.92668 | 73° | 73km/h | 15614m | -9.4m/s | -58.5°C | 5.7% | 0hPa | 2.6V | 08:12:54 | 02:46:01 | 00:00:00 | |
| DO3MHA-11 | 2026-08-31 13:20:39 | 45.90011 | 9.92693 | 75° | 71km/h | 15605m | -9.0m/s | -58.4°C | 5.8% | 0hPa | 2.6V | 00:00:00 | 02:46:02 | 00:00:00 | |
| DB0UT-7 | 2026-08-31 13:20:38 | 45.90001 | 9.92642 | 74° | 68km/h | 15624m | -9.4m/s | -58.5°C | 5.8% | 0hPa | 2.6V | 00:00:00 | 00:00:00 | 00:00:00 | |
| NBG1-10 | 2026-08-31 13:20:34 | 45.89976 | 9.92543 | 66° | 66km/h | 15661m | -9.1m/s | -58.8°C | 5.9% | 0hPa | 2.6V | 00:00:00 | 02:45:56 | 00:00:00 | |
| IW2NTF | 2026-08-31 13:20:29 | 45.89919 | 9.92403 | 57° | 64km/h | 15725m | -9m/s | -59.1°C | 6.1% | 0hPa | 2.6V | 08:13:06 | 02:45:49 | 00:00:00 | |
| DO3MHA-11 | 2026-08-31 13:20:19 | 45.89857 | 9.92261 | 58° | 69km/h | 15788m | -9.0m/s | -59.4°C | 6.4% | 0hPa | 2.6V | 00:00:00 | 02:45:42 | 00:00:00 | |
| IW2NTF | 2026-08-31 13:20:18 | 45.89830 | 9.92198 | 58° | 69km/h | 15816m | -9.3m/s | -59.5°C | 6.5% | 0hPa | 2.6V | 08:13:16 | 02:45:39 | 00:00:00 | |
| DO3MHA-11 | 2026-08-31 13:20:12 | 45.89762 | 9.92050 | 53° | 60km/h | 15881m | -9.3m/s | -59.0°C | 6.2% | 0hPa | 2.6V | 00:00:00 | 02:45:32 | 00:00:00 | |
| IW2NTF | 2026-08-31 13:20:08 | 45.89731 | 9.91997 | 46° | 60km/h | 15908m | -9.3m/s | -58.8°C | 6.1% | 0hPa | 2.6V | 08:13:26 | 02:45:29 | 00:00:00 | |
| DB0UT-7 | 2026-08-31 13:20:07 | 45.89741 | 9.92014 | 50° | 68km/h | 15899m | -8.9m/s | -58.8°C | 6.1% | 0hPa | 2.6V | 00:00:00 | 02:45:30 | 00:00:00 | |
| NBG1-10 | 2026-08-31 13:20:00 | 45.89667 | 9.91909 | 42° | 71km/h | 15965m | -9.4m/s | -58.3°C | 5.8% | 0hPa | 2.6V | 00:00:00 | 02:45:23 | 00:00:00 | |
| DO3MHA-11 | 2026-08-31 13:19:59 | 45.89656 | 9.91894 | 42° | 66km/h | 15974m | -9.2m/s | -58.2°C | 5.8% | 0hPa | 2.6V | 08:13:00 | 02:45:22 | 00:00:00 | |
| IW2NTF | 2026-08-31 13:19:58 | 45.89621 | 9.91848 | 43° | 66km/h | 16002m | -9.2m/s | -58.2°C | 5.7% | 0hPa | 2.6V | 08:13:36 | 02:45:19 | 00:00:00 | |
| DO3MHA-11 | 2026-08-31 13:19:49 | 45.89535 | 9.91724 | 44° | 71km/h | 16067m | -9.4m/s | -58.1°C | 5.6% | 0hPa | 2.6V | 00:00:00 | 02:45:12 | 00:00:00 | |
| IW2NTF | 2026-08-31 13:19:48 | 45.89495 | 9.91672 | 42° | 69km/h | 16095m | -9.1m/s | -58.3°C | 5.6% | 0hPa | 2.6V | 08:13:46 | 02:45:09 | 00:00:00 | |
| DO3MHA-11 | 2026-08-31 13:19:39 | 45.89403 | 9.91547 | 42° | 75km/h | 16160m | -9.4m/s | -58.4°C | 5.5% | 0hPa | 2.6V | 00:00:00 | 02:45:02 | 00:00:00 | |
| IW2NTF | 2026-08-31 13:19:38 | 45.89360 | 9.91493 | 41° | 75km/h | 16189m | -9.2m/s | -58.6°C | 5.5% | 0hPa | 2.6V | 08:13:56 | 02:44:59 | 00:00:00 | |
| DB0UT-7 | 2026-08-31 13:19:37 | 45.89374 | 9.91511 | 42° | 78km/h | 16179m | -9.4m/s | -58.5°C | 5.5% | 0hPa | 2.6V | 00:00:00 | 00:00:00 | 00:00:00 | |
| DO3MHA-11 | 2026-08-31 13:19:29 | 45.89267 | 9.91360 | 46° | 80km/h | 16254m | -9.4m/s | -58.9°C | 5.6% | 0hPa | 2.6V | 00:00:00 | 02:44:52 | 00:00:00 | |
| IW2NTF | 2026-08-31 13:19:28 | 45.89224 | 9.91302 | 39° | 80km/h | 16282m | -8.9m/s | -58.6°C | 5.4% | 0hPa | 2.6V | 08:14:06 | 02:44:49 | 00:00:00 | |
| NBG1-10 | 2026-08-31 13:19:27 | 45.89239 | 9.91321 | 43° | 80km/h | 16273m | -9.2m/s | -58.6°C | 5.5% | 0hPa | 2.6V | 08:14:00 | 02:44:50 | 00:00:00 | |
| DO3MHA-11 | 2026-08-31 13:19:19 | 45.89111 | 9.91173 | 44° | 80km/h | 16348m | -9.4m/s | -58.9°C | 5.4% | 0hPa | 2.6V | 00:00:00 | 02:44:42 | 00:00:00 | |
| IW2NTF | 2026-08-31 13:19:18 | 45.89070 | 9.91110 | 50° | 77km/h | 16376m | -9.2m/s | -59.1°C | 5.7% | 0hPa | 2.6V | 08:14:16 | 02:44:39 | 00:00:00 | |
| DO3MHA-11 | 2026-08-31 13:19:09 | 45.88982 | 9.90953 | 52° | 80km/h | 16441m | -9.5m/s | -59.4°C | 5.5% | 0hPa | 2.6V | 00:00:00 | 02:44:32 | 00:00:00 | |
| IW2NTF | 2026-08-31 13:19:08 | 45.88944 | 9.90883 | 54° | 80km/h | 16469m | -9.4m/s | -59.6°C | 5.6% | 0hPa | 2.6V | 08:14:26 | 02:44:29 | 00:00:00 | |
| DB0UT-7 | 2026-08-31 13:19:07 | 45.88956 | 9.90907 | 53° | 71km/h | 16460m | -9.3m/s | -59.5°C | 5.5% | 0hPa | 2.6V | 00:00:00 | 02:44:30 | 00:00:00 | |
| DO3MHA-11 | 2026-08-31 13:18:59 | 45.88873 | 9.90713 | 64° | 73km/h | 16536m | -9.4m/s | -59.6°C | 5.6% | 0hPa | 2.6V | 00:00:00 | 02:44:22 | 00:00:00 | |
| IW2NTF | 2026-08-31 13:18:58 | 45.88849 | 9.90638 | 66° | 73km/h | 16564m | -9.5m/s | -59.6°C | 5.6% | 0hPa | 2.7V | 08:14:36 | 02:44:19 | 00:00:00 | |
| DL9SK-14 | 2026-08-31 13:18:57 | 45.88807 | 9.90471 | 73° | 68km/h | 16631m | -9.5m/s | -59.2°C | 2.0% | -1.0hPa | 2.6V | 00:00:00 | 00:00:00 | 00:00:00 | |
| NBG1-10 | 2026-08-31 13:18:54 | 45.88835 | 9.90590 | 70° | 58km/h | 16583m | -9.5m/s | -59.4°C | 5.6% | 0hPa | 2.6V | 00:00:00 | 02:44:17 | 00:00:00 | |
| DO3MHA-11 | 2026-08-31 13:18:49 | 45.88807 | 9.90471 | 74° | 66km/h | 16631m | -9.4m/s | -59.1°C | 5.6% | 0hPa | 2.6V | 00:00:00 | 02:44:12 | 00:00:00 | |
| IW2NTF | 2026-08-31 13:18:48 | 45.88794 | 9.90400 | 75° | 66km/h | 16659m | -9.5m/s | -59.2°C | 5.6% | 0hPa | 2.6V | 08:14:46 | 02:44:09 | 00:00:00 | |
| DO3MHA-11 | 2026-08-31 13:18:39 | 45.88773 | 9.90241 | 84° | 57km/h | 16727m | -9.7m/s | -59.0°C | 5.6% | 0hPa | 2.7V | 00:00:00 | 02:44:02 | 00:00:00 | |
| IW2NTF | 2026-08-31 13:18:38 | 45.88768 | 9.90176 | 82° | 58km/h | 16756m | -9.7m/s | -58.7°C | 5.4% | 0hPa | 2.7V | 08:14:56 | 02:43:59 | 00:00:00 | |
| DB0UT-7 | 2026-08-31 13:18:37 | 45.88770 | 9.90197 | 84° | 47km/h | 16746m | -9.8m/s | -58.8°C | 5.5% | 0hPa | 2.6V | 00:00:00 | 00:00:00 | 00:00:00 | |
| DO3MHA-11 | 2026-08-31 13:18:29 | 45.88747 | 9.90038 | 77° | 51km/h | 16823m | -9.5m/s | -58.2°C | 5.2% | 0hPa | 2.6V | 08:15:00 | 02:43:52 | 00:00:00 | |
| IW2NTF | 2026-08-31 13:18:28 | 45.88738 | 9.89980 | 77° | 53km/h | 16853m | -10m/s | -57.9°C | 5% | 0hPa | 2.6V | 08:15:06 | 02:43:49 | 00:00:00 | |
| DL9SK-14 | 2026-08-31 13:18:26 | 45.88735 | 9.89961 | 78° | 51km/h | 16863m | -9.9m/s | -57.8°C | 1.7% | -1.0hPa | 2.6V | 00:00:00 | 00:00:00 | 00:00:00 | |
| NBG1-10 | 2026-08-31 13:18:20 | 45.88725 | 9.89872 | 83° | 27km/h | 16913m | -9.9m/s | -57.5°C | 5.1% | 0hPa | 2.6V | 00:00:00 | 02:43:43 | 00:00:00 | |
| DO3MHA-11 | 2026-08-31 13:18:19 | 45.88723 | 9.89856 | 84° | 40km/h | 16923m | -9.8m/s | -57.4°C | 5.0% | 0hPa | 2.6V | 00:00:00 | 02:43:42 | 00:00:00 | |
| IW2NTF | 2026-08-31 13:18:18 | 45.88721 | 9.89810 | 89° | 40km/h | 16953m | -9.9m/s | -56.7°C | 4.7% | 0hPa | 2.6V | 08:15:16 | 02:43:39 | 00:00:00 | |
| IW2NTF | 2026-08-31 13:18:09 | 45.88740 | 9.89673 | 111° | 37km/h | 17051m | -9.9m/s | -56.8°C | 4.8% | 0hPa | 2.7V | 08:15:26 | 02:43:29 | 00:00:00 | |
| DB0UT-7 | 2026-08-31 13:18:07 | 45.88736 | 9.89686 | 111° | 15km/h | 17042m | -9.9m/s | -56.8°C | 4.8% | 0hPa | 2.7V | 00:00:00 | 02:43:30 | 00:00:00 | |
| DO3MHA-11 | 2026-08-31 13:17:59 | 45.88760 | 9.89608 | 114° | 11km/h | 17121m | -9.8m/s | -56.3°C | 4.7% | 0hPa | 2.7V | 00:00:00 | 02:43:22 | 00:00:00 | |
| IW2NTF | 2026-08-31 13:17:58 | 45.88764 | 9.89595 | 106° | 11km/h | 17150m | -9.9m/s | -56.2°C | 4.5% | 0hPa | 2.6V | 08:15:36 | 02:43:19 | 00:00:00 | |
| DL9SK-14 | 2026-08-31 13:17:55 | 45.88766 | 9.89586 | 115° | 7km/h | 17180m | -10.1m/s | -56.2°C | 1.5% | -1.0hPa | 2.6V | 00:00:00 | 00:00:00 | 00:00:00 | |
| DO3MHA-11 | 2026-08-31 13:17:49 | 45.88771 | 9.89579 | 158° | 7km/h | 17222m | -10.4m/s | -56.1°C | 4.6% | 0hPa | 2.6V | 00:00:00 | 02:43:12 | 00:00:00 | |
| IW2NTF | 2026-08-31 13:17:48 | 45.88775 | 9.89578 | 207° | 4km/h | 17253m | -10.6m/s | -55.9°C | 4.6% | 0hPa | 2.6V | 08:15:46 | 02:43:09 | 00:00:00 | |
| NBG1-10 | 2026-08-31 13:17:47 | 45.88773 | 9.89578 | 186° | 24km/h | 17243m | -10.3m/s | -55.9°C | 4.7% | 0hPa | 2.6V | 00:00:00 | 02:43:10 | 00:00:00 | |
| DO3MHA-11 | 2026-08-31 13:17:39 | 45.88765 | 9.89595 | 325° | 20km/h | 17323m | -9.9m/s | -55.4°C | 4.5% | 0hPa | 2.7V | 00:00:00 | 02:43:02 | 00:00:00 | |
| IW2NTF | 2026-08-31 13:17:38 | 45.88753 | 9.89608 | 319° | 20km/h | 17353m | -10m/s | -55.3°C | 4.3% | 0hPa | 2.7V | 08:15:56 | 02:42:59 | 00:00:00 | |
| DB0UT-7 | 2026-08-31 13:17:37 | 45.88757 | 9.89603 | 323° | 33km/h | 17343m | -10.0m/s | -55.3°C | 4.3% | 0hPa | 2.6V | 08:15:00 | 00:00:00 | 00:00:00 | |
| DO3MHA-11 | 2026-08-31 13:17:29 | 45.88725 | 9.89646 | 329° | 29km/h | 17425m | -10.5m/s | -55.2°C | 4.3% | 0hPa | 2.7V | 00:00:00 | 02:42:52 | 00:00:00 | |
| IW2NTF | 2026-08-31 13:17:28 | 45.88708 | 9.89657 | 341° | 27km/h | 17456m | -10.4m/s | -55°C | 4.3% | 0hPa | 2.6V | 08:16:06 | 02:42:49 | 00:00:00 | |
| DL9SK-14 | 2026-08-31 13:17:24 | 45.88686 | 9.89665 | 347° | 31km/h | 17488m | -10.6m/s | -55.0°C | 1.4% | -1.0hPa | 2.7V | 00:00:00 | 00:00:00 | 00:00:00 | |
| DO3MHA-11 | 2026-08-31 13:17:19 | 45.88651 | 9.89673 | 355° | 47km/h | 17531m | -10.6m/s | -54.7°C | 4.0% | 0hPa | 2.7V | 00:00:00 | 02:42:42 | 00:00:00 | |
| IW2NTF | 2026-08-31 13:17:18 | 45.88620 | 9.89674 | 4° | 44km/h | 17562m | -10.3m/s | -54.9°C | 4% | 0hPa | 2.7V | 08:16:16 | 02:42:39 | 00:00:00 | |
| NBG1-10 | 2026-08-31 13:17:14 | 45.88596 | 9.89670 | 12° | 57km/h | 17583m | -10.3m/s | -54.9°C | 4.0% | 0hPa | 2.6V | 00:00:00 | 02:42:37 | 00:00:00 | |
| OE5DXL-15 | 2026-08-31 13:17:11 | 45.88558 | 9.89656 | 16° | 46km/h | 17615m | -10.6m/s | -55.1°C | 4.1% | 0hPa | 2.6V | 00:00:00 | 00:00:00 | 00:00:00 | |
| DO3MHA-11 | 2026-08-31 13:17:09 | 45.88532 | 9.89645 | 17° | 55km/h | 17636m | -10.7m/s | -55.2°C | 4.2% | 0hPa | 2.6V | 00:00:00 | 02:42:32 | 00:00:00 | |
| IW2NTF | 2026-08-31 13:17:08 | 45.88481 | 9.89615 | 27° | 55km/h | 17679m | -10.6m/s | -55.6°C | 4.3% | 0hPa | 2.6V | 08:16:27 | 02:42:28 | 00:00:00 | |
| DB0UT-7 | 2026-08-31 13:17:07 | 45.88506 | 9.89632 | 23° | 57km/h | 17658m | -10.6m/s | -55.4°C | 4.2% | 0hPa | 2.6V | 00:00:00 | 02:42:30 | 00:00:00 | |
| OE5DRO-10 | 2026-08-31 13:17:04 | 45.88468 | 9.89606 | 29° | 57km/h | 17690m | -10.5m/s | -55.6°C | 4.3% | 0hPa | 2.6V | 00:00:00 | 00:00:00 | 00:00:00 | |
| DO3MHA-11 | 2026-08-31 13:16:59 | 45.88406 | 9.89556 | 32° | 57km/h | 17743m | -10.5m/s | -55.7°C | 4.3% | 0hPa | 2.6V | 08:16:00 | 02:42:22 | 00:00:00 | |
| IW2NTF | 2026-08-31 13:16:58 | 45.88361 | 9.89510 | 38° | 55km/h | 17785m | -10.6m/s | -55.9°C | 4.4% | 0hPa | 2.6V | 08:16:37 | 02:42:18 | 00:00:00 | |
| DL9SK-14 | 2026-08-31 13:16:53 | 45.88318 | 9.89458 | 42° | 57km/h | 17828m | -10.8m/s | -56.0°C | 1.4% | -1.0hPa | 2.7V | 00:00:00 | 00:00:00 | 00:00:00 | |
| DO3MHA-11 | 2026-08-31 13:16:49 | 45.88296 | 9.89429 | 45° | 58km/h | 17850m | -10.7m/s | -56.0°C | 4.5% | 0hPa | 2.7V | 00:00:00 | 02:42:12 | 00:00:00 | |
| IW2NTF | 2026-08-31 13:16:48 | 45.88256 | 9.89368 | 48° | 60km/h | 17893m | -10.8m/s | -56.2°C | 4.6% | 0hPa | 2.7V | 08:16:47 | 02:42:08 | 00:00:00 | |
| OE5DRO-10 | 2026-08-31 13:16:45 | 45.88256 | 9.89368 | 49° | 53km/h | 17893m | -10.7m/s | -56.2°C | 4.6% | 0hPa | 2.7V | 08:16:00 | 00:00:00 | 00:00:00 | |
| NBG1-10 | 2026-08-31 13:16:41 | 45.88217 | 9.89299 | 56° | 44km/h | 17937m | -10.8m/s | -56.0°C | 4.5% | 0hPa | 2.7V | 00:00:00 | 02:42:04 | 00:00:00 | |
| IW2NTF | 2026-08-31 13:16:38 | 45.88176 | 9.89191 | 68° | 55km/h | 18002m | -10.8m/s | -56.1°C | 4.6% | 0hPa | 2.7V | 08:16:57 | 02:41:58 | 00:00:00 | |
| DB0UT-7 | 2026-08-31 13:16:37 | 45.88188 | 9.89228 | 64° | 40km/h | 17980m | -10.9m/s | -56.1°C | 4.5% | 0hPa | 2.6V | 00:00:00 | 00:00:00 | 00:00:00 | |
| IW2NTF | 2026-08-31 13:16:28 | 45.88147 | 9.89022 | 84° | 40km/h | 18109m | -10.8m/s | -55.7°C | 4.5% | 0hPa | 2.6V | 08:17:07 | 02:41:48 | 00:00:00 | |
| DO3MHA-11 | 2026-08-31 13:16:27 | 45.88149 | 9.89052 | 82° | 40km/h | 18088m | -10.6m/s | -55.9°C | 4.6% | 0hPa | 2.7V | 00:00:00 | 02:41:50 | 00:00:00 | |
| OE5DRO-10 | 2026-08-31 13:16:26 | 45.88148 | 9.89037 | 84° | 35km/h | 18099m | -10.8m/s | -55.7°C | 4.5% | 0hPa | 2.6V | 00:00:00 | 00:00:00 | 00:00:00 | |
| IW2NTF | 2026-08-31 13:16:18 | 45.88154 | 9.88879 | 103° | 35km/h | 18220m | -11.1m/s | -55.5°C | 4.6% | 0hPa | 2.6V | 08:17:17 | 02:41:38 | 00:00:00 | |
| DO3MHA-11 | 2026-08-31 13:16:17 | 45.88150 | 9.88906 | 102° | 29km/h | 18198m | -11.1m/s | -55.4°C | 4.5% | 0hPa | 2.6V | 00:00:00 | 02:41:40 | 00:00:00 | |
| IW2NTF | 2026-08-31 13:16:08 | 45.88174 | 9.88792 | 110° | 16km/h | 18330m | -11.2m/s | -54.2°C | 4.1% | 0hPa | 2.6V | 08:17:27 | 02:41:28 | 00:00:00 | |
| NBG1-10 | 2026-08-31 13:16:08 | 45.88168 | 9.88812 | 113° | 11km/h | 18297m | -11.1m/s | -54.8°C | 4.3% | 0hPa | 2.7V | 00:00:00 | 02:41:31 | 00:00:00 | |
| IW2NTF | 2026-08-31 13:15:59 | 45.88182 | 9.88755 | 48° | 7km/h | 18442m | -11.2m/s | -53.9°C | 4% | 0hPa | 2.6V | 08:17:37 | 02:41:18 | 00:00:00 | |
| DL9SK-14 | 2026-08-31 13:15:50 | 45.88167 | 9.88744 | 17° | 11km/h | 18522m | -11.6m/s | -54.1°C | 1.2% | -1.0hPa | 2.7V | 00:00:00 | 00:00:00 | 00:00:00 | |
| IW2NTF | 2026-08-31 13:15:48 | 45.88156 | 9.88739 | 12° | 16km/h | 18557m | -11.5m/s | -54.2°C | 4.1% | 0hPa | 2.7V | 08:17:47 | 02:41:08 | 00:00:00 | |
| OE5DRO-10 | 2026-08-31 13:15:48 | 45.88167 | 9.88744 | 18° | 11km/h | 18522m | -11.5m/s | -54.1°C | 4.1% | 0hPa | 2.6V | 00:00:00 | 00:00:00 | 00:00:00 | |
| DO3MHA-11 | 2026-08-31 13:15:47 | 45.88164 | 9.88742 | 16° | 13km/h | 18534m | -11.6m/s | -54.1°C | 4.1% | 0hPa | 2.6V | 00:00:00 | 02:41:10 | 00:00:00 | |
| IW2NTF | 2026-08-31 13:15:38 | 45.88132 | 9.88738 | 345° | 7km/h | 18672m | -11.6m/s | -54.3°C | 4.1% | 0hPa | 2.6V | 08:17:57 | 02:40:58 | 00:00:00 | |
| DO3MHA-11 | 2026-08-31 13:15:37 | 45.88134 | 9.88737 | 340° | 18km/h | 18649m | -11.9m/s | -54.2°C | 4.1% | 0hPa | 2.6V | 00:00:00 | 02:41:00 | 00:00:00 | |
| OE5DRO-10 | 2026-08-31 13:15:29 | 45.88110 | 9.88743 | 347° | 24km/h | 18742m | -11.5m/s | -54.0°C | 4.1% | 0hPa | 2.6V | 00:00:00 | 00:00:00 | 00:00:00 | |
| IW2NTF | 2026-08-31 13:15:28 | 45.88090 | 9.88752 | 335° | 22km/h | 18788m | -11.6m/s | -53.9°C | 4% | 0hPa | 2.6V | 08:18:07 | 02:40:48 | 00:00:00 | |
| DO3MHA-11 | 2026-08-31 13:15:23 | 45.88080 | 9.88760 | 332° | 24km/h | 18812m | -11.5m/s | -53.5°C | 3.8% | 0hPa | 2.7V | 08:18:00 | 02:40:46 | 00:00:00 | |
| DL9SK-14 | 2026-08-31 13:15:20 | 45.88059 | 9.88778 | 323° | 24km/h | 18858m | -11.6m/s | -53.7°C | 1.2% | -1.0hPa | 2.6V | 00:00:00 | 00:00:00 | 00:00:00 | |
| IW2NTF | 2026-08-31 13:15:18 | 45.88040 | 9.88801 | 321° | 26km/h | 18904m | -11.8m/s | -53.9°C | 3.8% | 0hPa | 2.6V | 08:18:17 | 02:40:38 | 00:00:00 | |
| DO3MHA-11 | 2026-08-31 13:15:13 | 45.88029 | 9.88812 | 327° | 37km/h | 18928m | -11.7m/s | -54.0°C | 3.8% | 0hPa | 2.7V | 00:00:00 | 02:40:36 | 00:00:00 | |
| OE5DRO-10 | 2026-08-31 13:15:10 | 45.88011 | 9.88828 | 334° | 37km/h | 18964m | -11.8m/s | -54.2°C | 3.9% | 0hPa | 2.7V | 00:00:00 | 00:00:00 | 00:00:00 | |
| IW2NTF | 2026-08-31 13:15:08 | 45.87972 | 9.88839 | 358° | 35km/h | 19023m | -12.1m/s | -54.7°C | 4.1% | 0hPa | 2.7V | 08:18:27 | 02:40:28 | 00:00:00 | |
| DB0UT-7 | 2026-08-31 13:15:07 | 45.87989 | 9.88837 | 352° | 42km/h | 18999m | -11.8m/s | -54.6°C | 4.0% | 0hPa | 2.7V | 00:00:00 | 02:40:30 | 00:00:00 | |
| NBG1-10 | 2026-08-31 13:15:02 | 45.87945 | 9.88837 | 7° | 42km/h | 19059m | -11.8m/s | -54.9°C | 4.1% | 0hPa | 2.7V | 00:00:00 | 02:40:25 | 00:00:00 | |
| IW2NTF | 2026-08-31 13:14:58 | 45.87882 | 9.88802 | 38° | 44km/h | 19143m | -11.9m/s | -55.4°C | 4.2% | 0hPa | 2.7V | 08:18:37 | 02:40:18 | 00:00:00 | |
| DO3MHA-11 | 2026-08-31 13:14:55 | 45.87882 | 9.88802 | 39° | 47km/h | 19143m | -11.9m/s | -55.3°C | 4.2% | 0hPa | 2.6V | 00:00:00 | 02:40:18 | 00:00:00 | |
| OE5DRO-10 | 2026-08-31 13:14:51 | 45.87850 | 9.88754 | 53° | 44km/h | 19191m | -11.8m/s | -55.6°C | 4.4% | 0hPa | 2.6V | 00:00:00 | 00:00:00 | 00:00:00 | |
| OE5DXL-15 | 2026-08-31 13:14:49 | 45.87836 | 9.88726 | 59° | 42km/h | 19215m | -12.0m/s | -55.8°C | 4.4% | 0hPa | 2.7V | 00:00:00 | 00:00:00 | 00:00:00 | |
| IW2NTF | 2026-08-31 13:14:48 | 45.87815 | 9.88661 | 73° | 49km/h | 19263m | -12.1m/s | -55.8°C | 4.4% | 0hPa | 2.6V | 08:18:47 | 02:40:08 | 00:00:00 | |
| DO3MHA-11 | 2026-08-31 13:14:45 | 45.87815 | 9.88661 | 74° | 33km/h | 19263m | -12.1m/s | -55.8°C | 4.4% | 0hPa | 2.6V | 00:00:00 | 02:40:08 | 00:00:00 | |
| IW2NTF | 2026-08-31 13:14:38 | 45.87821 | 9.88510 | 109° | 37km/h | 19383m | -12.1m/s | -56°C | 4.6% | 0hPa | 2.6V | 08:18:57 | 02:39:58 | 00:00:00 | |
| DB0UT-7 | 2026-08-31 13:14:37 | 45.87815 | 9.88536 | 106° | 24km/h | 19359m | -12.0m/s | -55.8°C | 4.5% | 0hPa | 2.7V | 00:00:00 | 00:00:00 | 00:00:00 | |
| OE5DRO-10 | 2026-08-31 13:14:32 | 45.87832 | 9.88475 | 119° | 18km/h | 19420m | -12.2m/s | -56.1°C | 4.6% | 0hPa | 2.6V | 00:00:00 | 00:00:00 | 00:00:00 | |
| NBG1-10 | 2026-08-31 13:14:29 | 45.87843 | 9.88449 | 129° | 26km/h | 19457m | -12.2m/s | -56.1°C | 4.6% | 0hPa | 2.6V | 08:19:00 | 02:39:52 | 00:00:00 | |
| IW2NTF | 2026-08-31 13:14:28 | 45.87857 | 9.88430 | 146° | 13km/h | 19506m | -12.5m/s | -55.8°C | 4.5% | 0hPa | 2.6V | 08:19:07 | 02:39:48 | 00:00:00 | |
| DO3MHA-11 | 2026-08-31 13:14:27 | 45.87851 | 9.88437 | 138° | 11km/h | 19481m | -12.2m/s | -56.2°C | 4.7% | 0hPa | 2.7V | 00:00:00 | 02:39:50 | 00:00:00 | |
| IW2NTF | 2026-08-31 13:14:18 | 45.87835 | 9.88399 | 41° | 26km/h | 19639m | -12.2m/s | -55.1°C | 4.3% | 0hPa | 2.7V | 08:19:18 | 02:39:37 | 00:00:00 | |
| DO3MHA-11 | 2026-08-31 13:14:17 | 45.87849 | 9.88414 | 34° | 26km/h | 19603m | -11.7m/s | -55.1°C | 4.3% | 0hPa | 2.6V | 00:00:00 | 02:39:40 | 00:00:00 | |
| OE5DRO-10 | 2026-08-31 13:14:13 | 45.87830 | 9.88393 | 42° | 31km/h | 19652m | -12.1m/s | -55.0°C | 4.3% | 0hPa | 2.6V | 00:00:00 | 00:00:00 | 00:00:00 | |
| IW2NTF | 2026-08-31 13:14:08 | 45.87786 | 9.88318 | 63° | 33km/h | 19763m | -12.6m/s | -54.5°C | 4.1% | 0hPa | 2.6V | 08:19:28 | 02:39:27 | 00:00:00 | |
| DB0UT-7 | 2026-08-31 13:14:07 | 45.87800 | 9.88347 | 51° | 20km/h | 19726m | -12.4m/s | -54.7°C | 4.2% | 0hPa | 2.7V | 00:00:00 | 02:39:30 | 00:00:00 | |
| IW2NTF | 2026-08-31 13:13:58 | 45.87782 | 9.88204 | 109° | 20km/h | 19890m | -12.2m/s | -54.7°C | 4.2% | 0hPa | 2.7V | 08:19:38 | 02:39:17 | 00:00:00 | |
| DO3MHA-11 | 2026-08-31 13:13:57 | 45.87777 | 9.88232 | 98° | 15km/h | 19853m | -12.6m/s | -54.4°C | 4.1% | 0hPa | 2.7V | 00:00:00 | 02:39:20 | 00:00:00 | |
| OE5DRO-10 | 2026-08-31 13:13:54 | 45.87782 | 9.88204 | 110° | 13km/h | 19890m | -12.1m/s | -54.6°C | 4.2% | 0hPa | 2.7V | 08:19:00 | 00:00:00 | 00:00:00 | |
| IW2NTF | 2026-08-31 13:13:48 | 45.87791 | 9.88193 | 288° | 5km/h | 20016m | -12.8m/s | -55.2°C | 4.3% | 0hPa | 2.6V | 08:19:48 | 02:39:07 | 00:00:00 | |
| DL9SK-14 | 2026-08-31 13:13:46 | 45.87791 | 9.88190 | 242° | 2km/h | 19990m | -12.8m/s | -55.2°C | 1.3% | -1.0hPa | 2.7V | 00:00:00 | 00:00:00 | 00:00:00 | |
| IW2NTF | 2026-08-31 13:13:38 | 45.87746 | 9.88201 | 18° | 35km/h | 20144m | -13.1m/s | -54.8°C | 4.4% | 0hPa | 2.7V | 08:19:58 | 02:38:57 | 00:00:00 | |
| DO3MHA-11 | 2026-08-31 13:13:37 | 45.87769 | 9.88208 | 3° | 31km/h | 20106m | -12.3m/s | -54.8°C | 4.3% | 0hPa | 2.6V | 08:19:00 | 02:39:00 | 00:00:00 | |
| OE5DRO-10 | 2026-08-31 13:13:35 | 45.87754 | 9.88204 | 16° | 24km/h | 20131m | -13.1m/s | -54.8°C | 4.3% | 0hPa | 2.7V | 00:00:00 | 00:00:00 | 00:00:00 | |
| IW2NTF | 2026-08-31 13:13:28 | 45.87703 | 9.88117 | 92° | 20km/h | 20285m | -12.9m/s | -54.2°C | 4.3% | 0hPa | 2.7V | 08:20:09 | 02:38:46 | 00:00:00 | |
| DO3MHA-11 | 2026-08-31 13:13:27 | 45.87705 | 9.88149 | 75° | 18km/h | 20234m | -12.5m/s | -54.4°C | 4.3% | 0hPa | 2.6V | 00:00:00 | 02:38:50 | 00:00:00 | |
| NBG1-10 | 2026-08-31 13:13:23 | 45.87703 | 9.88117 | 93° | 26km/h | 20286m | -12.9m/s | -54.2°C | 4.3% | 0hPa | 2.6V | 00:00:00 | 02:38:46 | 00:00:00 | |
| IW2NTF | 2026-08-31 13:13:18 | 45.87717 | 9.88086 | 219° | 11km/h | 20417m | -13.3m/s | -53.8°C | 4% | 0hPa | 2.6V | 08:20:19 | 02:38:36 | 00:00:00 | |
| DO3MHA-11 | 2026-08-31 13:13:17 | 45.87708 | 9.88086 | 137° | 15km/h | 20365m | -13.3m/s | -53.9°C | 4.1% | 0hPa | 2.6V | 00:00:00 | 02:38:40 | 00:00:00 | |
| OE5DRO-10 | 2026-08-31 13:13:16 | 45.87710 | 9.88084 | 151° | 24km/h | 20378m | -13.3m/s | -53.9°C | 4.1% | 0hPa | 2.6V | 00:00:00 | 00:00:00 | 00:00:00 | |
| DL9SK-14 | 2026-08-31 13:13:15 | 45.87712 | 9.88084 | 175° | 7km/h | 20391m | -13.2m/s | -54.0°C | 1.2% | -1.0hPa | 2.6V | 00:00:00 | 00:00:00 | 00:00:00 | |
| IW2NTF | 2026-08-31 13:13:08 | 45.87704 | 9.88162 | 318° | 35km/h | 20551m | -13.1m/s | -53.9°C | 4.1% | 0hPa | 2.6V | 08:20:29 | 02:38:26 | 00:00:00 | |
| DB0UT-7 | 2026-08-31 13:13:07 | 45.87720 | 9.88124 | 285° | 38km/h | 20498m | -13.3m/s | -53.9°C | 4.1% | 0hPa | 2.6V | 08:20:00 | 02:38:30 | 00:00:00 | |
| IW2NTF | 2026-08-31 13:12:58 | 45.87609 | 9.88187 | 0° | 38km/h | 20682m | -13.2m/s | -53.5°C | 4.1% | 0hPa | 2.7V | 08:20:39 | 02:38:16 | 00:00:00 | |
| DO3MHA-11 | 2026-08-31 13:12:57 | 45.87650 | 9.88186 | 356° | 40km/h | 20629m | -13.3m/s | -53.8°C | 4.2% | 0hPa | 2.6V | 00:00:00 | 02:38:20 | 00:00:00 | |
| NBG1-10 | 2026-08-31 13:12:50 | 45.87580 | 9.88187 | 2° | 37km/h | 20723m | -13.6m/s | -53.3°C | 4.0% | 0hPa | 2.6V | 00:00:00 | 02:38:13 | 00:00:00 | |
| IW2NTF | 2026-08-31 13:12:48 | 45.87511 | 9.88164 | 24° | 44km/h | 20817m | -13.4m/s | -53.1°C | 3.9% | 0hPa | 2.7V | 08:20:49 | 02:38:06 | 00:00:00 | |
| DL9SK-14 | 2026-08-31 13:12:44 | 45.87522 | 9.88171 | 21° | 42km/h | 20804m | -13.3m/s | -53.2°C | 1.2% | -1.0hPa | 2.6V | 00:00:00 | 00:00:00 | 00:00:00 | |
| BAUMI2-15 | 2026-08-31 13:12:41 | 45.87492 | 9.88151 | 29° | 40km/h | 20845m | -13.8m/s | -53.1°C | 3.9% | 0hPa | 2.6V | 00:00:00 | 02:38:04 | 00:00:00 | |
| IW2NTF | 2026-08-31 13:12:38 | 45.87429 | 9.88082 | 54° | 35km/h | 20956m | -13.9m/s | -53.2°C | 3.9% | 0hPa | 2.6V | 08:20:59 | 02:37:56 | 00:00:00 | |
| OE5DRO-10 | 2026-08-31 13:12:38 | 45.87465 | 9.88127 | 35° | 33km/h | 20886m | -13.9m/s | -53.1°C | 3.8% | 0hPa | 2.7V | 00:00:00 | 00:00:00 | 00:00:00 | |
| DO3MHA-11 | 2026-08-31 13:12:37 | 45.87457 | 9.88119 | 37° | 35km/h | 20900m | -14.0m/s | -53.1°C | 3.8% | 0hPa | 2.7V | 00:00:00 | 02:38:00 | 00:00:00 | |
| BAUMI2-15 | 2026-08-31 13:12:35 | 45.87442 | 9.88101 | 44° | 33km/h | 20928m | -14.2m/s | -53.1°C | 3.8% | 0hPa | 2.6V | 00:00:00 | 02:37:58 | 00:00:00 | |
| OE5DXL-15 | 2026-08-31 13:12:30 | 45.87419 | 9.88050 | 82° | 35km/h | 20998m | -13.6m/s | -53.2°C | 3.9% | 0hPa | 2.6V | 00:00:00 | 00:00:00 | 00:00:00 | |
| IW2NTF | 2026-08-31 13:12:28 | 45.87440 | 9.87989 | 145° | 29km/h | 21096m | -14.5m/s | -53.8°C | 4% | 0hPa | 2.6V | 08:21:09 | 02:37:46 | 00:00:00 | |
| DO3MHA-11 | 2026-08-31 13:12:27 | 45.87422 | 9.88019 | 114° | 27km/h | 21039m | -13.9m/s | -53.3°C | 4.0% | 0hPa | 2.7V | 00:00:00 | 02:37:50 | 00:00:00 | |
| BAUMI2-15 | 2026-08-31 13:12:26 | 45.87425 | 9.88011 | 122° | 29km/h | 21053m | -14.1m/s | -53.4°C | 4.0% | 0hPa | 2.7V | 00:00:00 | 02:37:49 | 08:30:00 | |
| BAUMI2-15 | 2026-08-31 13:12:21 | 45.87453 | 9.87980 | 169° | 31km/h | 21125m | -14.5m/s | -53.8°C | 3.9% | 0hPa | 2.6V | 00:00:00 | 02:37:44 | 00:00:00 | |
| OE5DRO-10 | 2026-08-31 13:12:19 | 45.87468 | 9.87981 | 196° | 37km/h | 21154m | -14.4m/s | -53.8°C | 3.9% | 0hPa | 2.6V | 00:00:00 | 00:00:00 | 00:00:00 | |
| IW2NTF | 2026-08-31 13:12:18 | 45.87495 | 9.88045 | 272° | 42km/h | 21240m | -14.4m/s | -54.2°C | 4.1% | 0hPa | 2.6V | 08:21:19 | 02:37:36 | 00:00:00 | |
| BAUMI2-15 | 2026-08-31 13:12:16 | 45.87488 | 9.88003 | 238° | 46km/h | 21197m | -14.1m/s | -54.0°C | 4.0% | 0hPa | 2.6V | 00:00:00 | 02:37:39 | 00:00:00 | |
| DO3MHA-11 | 2026-08-31 13:12:15 | 45.87492 | 9.88015 | 251° | 44km/h | 21212m | -14.3m/s | -54.1°C | 4.0% | 0hPa | 2.6V | 00:00:00 | 02:37:38 | 00:00:00 | |
| DL9SK-14 | 2026-08-31 13:12:13 | 45.87490 | 9.88075 | 294° | 44km/h | 21269m | -13.6m/s | -54.3°C | 1.2% | -1.0hPa | 2.6V | 00:00:00 | 00:00:00 | 00:00:00 | |
| IW2NTF | 2026-08-31 13:12:08 | 45.87412 | 9.88133 | 4° | 42km/h | 21382m | -14.6m/s | -54.5°C | 4.4% | 0hPa | 2.6V | 08:21:29 | 02:37:26 | 00:00:00 | |
| DB0UT-7 | 2026-08-31 13:12:07 | 45.87456 | 9.88120 | 336° | 37km/h | 21324m | -14.3m/s | -54.3°C | 4.2% | 0hPa | 2.7V | 00:00:00 | 02:37:30 | 00:00:00 | |
| S52SK | 2026-08-31 13:12:06 | 45.87456 | 9.88120 | 336° | 47km/h | 21324m | -14.3m/s | -54.3°C | 1.4% | 0hPa | 2.7V | 00:00:00 | 00:00:00 | 00:00:00 | |
| DO3MHA-11 | 2026-08-31 13:12:05 | 45.87434 | 9.88131 | 349° | 31km/h | 21352m | -14.6m/s | -54.3°C | 4.2% | 0hPa | 2.7V | 08:21:00 | 02:37:28 | 00:00:00 | |
| NBG1-10 | 2026-08-31 13:12:03 | 45.87412 | 9.88133 | 5° | 35km/h | 21382m | -14.5m/s | -54.5°C | 4.4% | 0hPa | 2.6V | 00:00:00 | 02:37:26 | 00:00:00 | |
| OE5DXL-15 | 2026-08-31 13:12:00 | 45.87387 | 9.88120 | 41° | 35km/h | 21425m | -13.9m/s | -54.3°C | 4.3% | 0hPa | 2.6V | 00:00:00 | 00:00:00 | 00:00:00 | |
| IW2NTF | 2026-08-31 13:11:58 | 45.87387 | 9.88092 | 224° | 13km/h | 21524m | -13.9m/s | -54.2°C | 4.1% | 0hPa | 2.6V | 08:21:39 | 02:37:16 | 00:00:00 | |
| DO3MHA-11 | 2026-08-31 13:11:55 | 45.87382 | 9.88091 | 148° | 22km/h | 21496m | -14.1m/s | -54.0°C | 4.1% | 0hPa | 2.6V | 00:00:00 | 02:37:18 | 00:00:00 | |
| IW2NTF | 2026-08-31 13:11:49 | 45.87339 | 9.88153 | 2° | 51km/h | 21672m | -15.1m/s | -54.1°C | 4.1% | 0hPa | 2.6V | 08:21:49 | 02:37:06 | 00:00:00 | |
| DO3MHA-11 | 2026-08-31 13:11:45 | 45.87364 | 9.88149 | 345° | 55km/h | 21643m | -14.5m/s | -54.1°C | 4.1% | 0hPa | 2.7V | 00:00:00 | 02:37:08 | 00:00:00 | |
| DL9SK-14 | 2026-08-31 13:11:42 | 45.87326 | 9.88151 | 9° | 55km/h | 21687m | -15.2m/s | -54.0°C | 1.2% | -1.0hPa | 2.7V | 00:00:00 | 00:00:00 | 00:00:00 | |
| S52SK | 2026-08-31 13:11:40 | 45.87312 | 9.88146 | 18° | 57km/h | 21703m | -15.2m/s | -54.0°C | 1.3% | 0hPa | 2.7V | 00:00:00 | 00:00:00 | 00:00:00 | |
| IW2NTF | 2026-08-31 13:11:37 | 45.87254 | 9.88031 | 122° | 26km/h | 21839m | -14.7m/s | -54.4°C | 4.1% | 0hPa | 2.7V | 08:22:00 | 02:36:55 | 00:00:00 | |
| DB0UT-7 | 2026-08-31 13:11:37 | 45.87264 | 9.88100 | 53° | 37km/h | 21764m | -15.6m/s | -54.2°C | 4.2% | 0hPa | 2.6V | 00:00:00 | 00:00:00 | 00:00:00 | |
| DO3MHA-11 | 2026-08-31 13:11:35 | 45.87252 | 9.88068 | 74° | 27km/h | 21795m | -14.9m/s | -54.2°C | 4.1% | 0hPa | 2.7V | 00:00:00 | 02:36:58 | 00:00:00 | |
| OE5DXL-15 | 2026-08-31 13:11:30 | 45.87262 | 9.88022 | 178° | 33km/h | 21869m | -15.1m/s | -54.4°C | 4.1% | 0hPa | 2.6V | 08:22:00 | 00:00:00 | 00:00:00 | |
| S52SK | 2026-08-31 13:11:29 | 45.87263 | 9.88022 | 179° | 18km/h | 21869m | -15.2m/s | -54.5°C | 1.3% | 0hPa | 2.6V | 00:00:00 | 00:00:00 | 00:00:00 | |
| IW2NTF | 2026-08-31 13:11:28 | 45.87247 | 9.88089 | 334° | 47km/h | 21991m | -15.2m/s | -54.7°C | 4.3% | 0hPa | 2.6V | 08:22:10 | 02:36:45 | 00:00:00 | |
| DO3MHA-11 | 2026-08-31 13:11:25 | 45.87269 | 9.88058 | 295° | 44km/h | 21946m | -15.0m/s | -54.5°C | 4.2% | 0hPa | 2.6V | 00:00:00 | 02:36:48 | 00:00:00 | |
| S52SK | 2026-08-31 13:11:23 | 45.87264 | 9.88070 | 310° | 40km/h | 21961m | -15.2m/s | -54.6°C | 1.3% | 0hPa | 2.6V | 00:00:00 | 00:00:00 | 00:00:00 | |
| IW2NTF | 2026-08-31 13:11:17 | 45.87183 | 9.88009 | 113° | 35km/h | 22144m | -15.5m/s | -54.8°C | 4.4% | 0hPa | 2.6V | 08:22:20 | 02:36:35 | 00:00:00 | |
| DO3MHA-11 | 2026-08-31 13:11:15 | 45.87181 | 9.88051 | 74° | 29km/h | 22098m | -15.0m/s | -54.6°C | 4.3% | 0hPa | 2.7V | 00:00:00 | 02:36:38 | 00:00:00 | |
| DL9SK-14 | 2026-08-31 13:11:11 | 45.87187 | 9.87998 | 127° | 31km/h | 22160m | -15.5m/s | -54.8°C | 1.3% | -1.0hPa | 2.7V | 00:00:00 | 00:00:00 | 00:00:00 | |
| OE5DRO-10 | 2026-08-31 13:11:09 | 45.87197 | 9.87987 | 164° | 42km/h | 22190m | -15.1m/s | -54.8°C | 4.3% | 0hPa | 2.7V | 00:00:00 | 00:00:00 | 00:00:00 | |
| IW2NTF | 2026-08-31 13:11:07 | 45.87189 | 9.88012 | 352° | 35km/h | 22297m | -15.8m/s | -54.6°C | 4.4% | 0hPa | 2.7V | 08:22:30 | 02:36:25 | 00:00:00 | |
| DB0UT-7 | 2026-08-31 13:11:07 | 45.87206 | 9.87989 | 227° | 37km/h | 22221m | -15.1m/s | -54.8°C | 4.4% | 0hPa | 2.6V | 00:00:00 | 02:36:30 | 00:00:00 | |
| DO3MHA-11 | 2026-08-31 13:11:05 | 45.87206 | 9.87999 | 299° | 38km/h | 22251m | -15.2m/s | -54.9°C | 4.4% | 0hPa | 2.6V | 00:00:00 | 02:36:28 | 00:00:00 | |
| OE5DXL-15 | 2026-08-31 13:11:00 | 45.87169 | 9.88009 | 17° | 47km/h | 22330m | -16.2m/s | -54.3°C | 4.4% | 0hPa | 2.6V | 00:00:00 | 00:00:00 | 00:00:00 | |
| IW2NTF | 2026-08-31 13:10:57 | 45.87132 | 9.87892 | 113° | 47km/h | 22459m | -15.7m/s | -53.9°C | 4.1% | 0hPa | 2.6V | 08:22:40 | 02:36:15 | 00:00:00 | |
| NBG1-10 | 2026-08-31 13:10:57 | 45.87140 | 9.87980 | 52° | 44km/h | 22378m | -15.8m/s | -54.1°C | 4.4% | 0hPa | 2.6V | 00:00:00 | 02:36:20 | 00:00:00 | |
| DO3MHA-11 | 2026-08-31 13:10:55 | 45.87129 | 9.87946 | 77° | 44km/h | 22410m | -16.4m/s | -53.8°C | 4.3% | 0hPa | 2.6V | 00:00:00 | 02:36:18 | 00:00:00 | |
| OE5DRO-10 | 2026-08-31 13:10:50 | 45.87146 | 9.87867 | 145° | 40km/h | 22490m | -15.3m/s | -53.9°C | 4.2% | 0hPa | 2.6V | 00:00:00 | 00:00:00 | 00:00:00 | |
| IW2NTF | 2026-08-31 13:10:47 | 45.87188 | 9.87901 | 302° | 29km/h | 22620m | -16.2m/s | -53.5°C | 4.2% | 0hPa | 2.6V | 08:22:50 | 02:36:05 | 00:00:00 | |
| DO3MHA-11 | 2026-08-31 13:10:45 | 45.87186 | 9.87872 | 234° | 35km/h | 22571m | -16.4m/s | -53.7°C | 4.1% | 0hPa | 2.7V | 00:00:00 | 02:36:08 | 00:00:00 | |
| DL9SK-14 | 2026-08-31 13:10:40 | 45.87175 | 9.87913 | 347° | 33km/h | 22652m | -16.2m/s | -53.5°C | 1.2% | -1.0hPa | 2.7V | 00:00:00 | 00:00:00 | 00:00:00 | |
| IW2NTF | 2026-08-31 13:10:37 | 45.87135 | 9.87825 | 117° | 44km/h | 22786m | -16.6m/s | -53.2°C | 4% | 0hPa | 2.7V | 08:23:00 | 02:35:55 | 00:00:00 | |
| DB0UT-7 | 2026-08-31 13:10:37 | 45.87148 | 9.87900 | 42° | 38km/h | 22702m | -16.7m/s | -53.5°C | 4.2% | 0hPa | 2.6V | 00:00:00 | 00:00:00 | 00:00:00 | |
| DO3MHA-11 | 2026-08-31 13:10:35 | 45.87134 | 9.87873 | 68° | 44km/h | 22735m | -17.0m/s | -53.3°C | 4.2% | 0hPa | 2.6V | 08:22:00 | 02:35:58 | 00:00:00 | |
| OE5DRO-10 | 2026-08-31 13:10:31 | 45.87142 | 9.87812 | 137° | 35km/h | 22803m | -16.4m/s | -53.2°C | 4.0% | 0hPa | 2.7V | 00:00:00 | 00:00:00 | 00:00:00 | |
| OE5DXL-15 | 2026-08-31 13:10:30 | 45.87151 | 9.87804 | 158° | 22km/h | 22819m | -16.4m/s | -53.2°C | 4.0% | 0hPa | 2.7V | 00:00:00 | 00:00:00 | 00:00:00 | |
| IW2NTF | 2026-08-31 13:10:26 | 45.87182 | 9.87882 | 323° | 35km/h | 22966m | -16.6m/s | -52.8°C | 4% | 0hPa | 2.7V | 08:23:11 | 02:35:44 | 00:00:00 | |
| DO3MHA-11 | 2026-08-31 13:10:25 | 45.87193 | 9.87833 | 253° | 33km/h | 22901m | -15.8m/s | -53.1°C | 4.0% | 0hPa | 2.7V | 00:00:00 | 02:35:48 | 00:00:00 | |
| NBG1-10 | 2026-08-31 13:10:24 | 45.87195 | 9.87847 | 272° | 44km/h | 22917m | -15.7m/s | -53.1°C | 4.0% | 0hPa | 2.7V | 00:00:00 | 02:35:47 | 00:00:00 | |
| S52SK | 2026-08-31 13:10:20 | 45.87182 | 9.87882 | 325° | 35km/h | 22966m | -16.6m/s | -52.8°C | 1.3% | 0hPa | 2.7V | 08:23:00 | 00:00:00 | 00:00:00 | |
| IW2NTF | 2026-08-31 13:10:15 | 45.87181 | 9.87860 | 215° | 44km/h | 23153m | -17m/s | -52.8°C | 3.8% | 0hPa | 2.7V | 08:23:22 | 02:35:33 | 00:00:00 | |
| DO3MHA-11 | 2026-08-31 13:10:15 | 45.87150 | 9.87868 | 94° | 42km/h | 23067m | -17.3m/s | -52.5°C | 3.8% | 0hPa | 2.6V | 00:00:00 | 02:35:38 | 00:00:00 | |
| OE5DRO-10 | 2026-08-31 13:10:12 | 45.87164 | 9.87851 | 177° | 42km/h | 23119m | -17.3m/s | -52.6°C | 3.8% | 0hPa | 2.6V | 08:23:00 | 00:00:00 | 00:00:00 | |
| DL9SK-14 | 2026-08-31 13:10:09 | 45.87189 | 9.87872 | 232° | 49km/h | 23171m | -17.2m/s | 0°C | -1.0% | -1.0hPa | 2.6V | 00:00:00 | 00:00:00 | 00:00:00 | |
| DB0UT-7 | 2026-08-31 13:10:07 | 45.87200 | 9.87909 | 260° | 49km/h | 23205m | -17.4m/s | -53.0°C | 3.8% | 0hPa | 2.6V | 00:00:00 | 02:35:30 | 00:00:00 | |
| IW2NTF | 2026-08-31 13:10:05 | 45.87143 | 9.88048 | 341° | 68km/h | 23329m | -18.1m/s | -53.2°C | 4.1% | 0hPa | 2.6V | 08:23:32 | 02:35:23 | 00:00:00 | |
| DO3MHA-11 | 2026-08-31 13:10:05 | 45.87199 | 9.87956 | 284° | 62km/h | 23241m | -17.5m/s | -53.1°C | 3.9% | 0hPa | 2.6V | 00:00:00 | 02:35:28 | 00:00:00 | |
| S52SK | 2026-08-31 13:10:03 | 45.87194 | 9.87980 | 296° | 71km/h | 23258m | -17.5m/s | -53.1°C | 1.2% | 0hPa | 2.6V | 00:00:00 | 00:00:00 | 00:00:00 | |
| DO3MHA-11 | 2026-08-31 13:09:55 | 45.87085 | 9.88032 | 62° | 31km/h | 23415m | -16.5m/s | -53.1°C | 4.0% | 0hPa | 2.6V | 00:00:00 | 02:35:18 | 00:00:00 | |
| IW2NTF | 2026-08-31 13:09:54 | 45.87104 | 9.88008 | 221° | 31km/h | 23520m | -17.3m/s | -53.5°C | 4% | 0hPa | 2.6V | 08:23:43 | 02:35:12 | 00:00:00 | |
| OE5DRO-10 | 2026-08-31 13:09:53 | 45.87083 | 9.88012 | 109° | 31km/h | 23449m | -17.4m/s | -53.1°C | 3.9% | 0hPa | 2.7V | 00:00:00 | 00:00:00 | 00:00:00 | |
| NBG1-10 | 2026-08-31 13:09:51 | 45.87091 | 9.88002 | 169° | 46km/h | 23485m | -17.8m/s | -53.2°C | 3.9% | 0hPa | 2.7V | 00:00:00 | 02:35:14 | 00:00:00 | |
| DO3MHA-11 | 2026-08-31 13:09:45 | 45.87108 | 9.88064 | 296° | 49km/h | 23590m | -17.2m/s | -53.4°C | 4.1% | 0hPa | 2.7V | 00:00:00 | 02:35:08 | 00:00:00 | |
| IW2NTF | 2026-08-31 13:09:44 | 45.87039 | 9.88107 | 18° | 49km/h | 23695m | -17.7m/s | -53.1°C | 4.2% | 0hPa | 2.7V | 08:23:53 | 02:35:02 | 00:00:00 | |
| DL9SK-14 | 2026-08-31 13:09:38 | 45.87029 | 9.88100 | 33° | 42km/h | 23713m | -17.9m/s | 0°C | -1.0% | -1.0hPa | 2.6V | 00:00:00 | 00:00:00 | 00:00:00 | |
| DB0UT-7 | 2026-08-31 13:09:37 | 45.87021 | 9.88090 | 50° | 44km/h | 23731m | -17.7m/s | -53.0°C | 4.2% | 0hPa | 2.6V | 00:00:00 | 00:00:00 | 00:00:00 | |
| DO3MHA-11 | 2026-08-31 13:09:35 | 45.87015 | 9.88069 | 92° | 38km/h | 23766m | -17.2m/s | -53.0°C | 4.1% | 0hPa | 2.6V | 00:00:00 | 02:34:58 | 00:00:00 | |
| IW2NTF | 2026-08-31 13:09:34 | 45.87047 | 9.88074 | 241° | 44km/h | 23874m | -18.8m/s | -53°C | 4% | 0hPa | 2.6V | 08:24:03 | 02:34:52 | 00:00:00 | |
| OE5DRO-10 | 2026-08-31 13:09:34 | 45.87017 | 9.88060 | 123° | 40km/h | 23783m | -17.2m/s | -53.0°C | 4.0% | 0hPa | 2.6V | 00:00:00 | 00:00:00 | 00:00:00 | |
| S52SK | 2026-08-31 13:09:33 | 45.87017 | 9.88060 | 124° | 24km/h | 23783m | -17.3m/s | -53.0°C | 1.2% | 0hPa | 2.6V | 00:00:00 | 00:00:00 | 00:00:00 | |
| S52SK | 2026-08-31 13:09:27 | 45.87051 | 9.88090 | 258° | 49km/h | 23894m | -18.8m/s | -53.0°C | 1.3% | 0hPa | 2.6V | 00:00:00 | 00:00:00 | 00:00:00 | |
| DO3MHA-11 | 2026-08-31 13:09:25 | 45.87044 | 9.88151 | 299° | 64km/h | 23950m | -18.1m/s | -52.6°C | 4.1% | 0hPa | 2.6V | 00:00:00 | 02:34:48 | 00:00:00 | |
| IW2NTF | 2026-08-31 13:09:24 | 45.86955 | 9.88205 | 14° | 64km/h | 24058m | -18.9m/s | -52.3°C | 4% | 0hPa | 2.6V | 08:24:13 | 02:34:42 | 00:00:00 | |
| NBG1-10 | 2026-08-31 13:09:18 | 45.86940 | 9.88197 | 28° | 40km/h | 24078m | -18.8m/s | -52.2°C | 4.0% | 0hPa | 2.6V | 08:24:00 | 02:34:41 | 00:00:00 | |
| DO3MHA-11 | 2026-08-31 13:09:15 | 45.86916 | 9.88160 | 75° | 35km/h | 24134m | -18.0m/s | -52.2°C | 3.9% | 0hPa | 2.7V | 00:00:00 | 02:34:38 | 00:00:00 | |
| IW2NTF | 2026-08-31 13:09:14 | 45.86933 | 9.88160 | 266° | 37km/h | 24240m | -20.5m/s | -51.8°C | 3.8% | 0hPa | 2.7V | 08:24:23 | 02:34:32 | 00:00:00 | |
| OE5DRO-10 | 2026-08-31 13:09:11 | 45.86927 | 9.88140 | 220° | 40km/h | 24202m | -17.8m/s | -52.0°C | 3.8% | 0hPa | 2.6V | 00:00:00 | 00:00:00 | 00:00:00 | |
| DB0UT-7 | 2026-08-31 13:09:07 | 45.86928 | 9.88188 | 296° | 47km/h | 24280m | -18.8m/s | -51.7°C | 3.8% | 0hPa | 2.6V | 00:00:00 | 02:34:30 | 00:00:00 | |
| DO3MHA-11 | 2026-08-31 13:09:05 | 45.86912 | 9.88214 | 329° | 57km/h | 24317m | -17.4m/s | -51.6°C | 3.8% | 0hPa | 2.6V | 08:24:00 | 02:34:28 | 00:00:00 | |
| IW2NTF | 2026-08-31 13:09:04 | 45.86834 | 9.88184 | 59° | 55km/h | 24427m | -19m/s | -51.4°C | 3.8% | 0hPa | 2.6V | 08:24:33 | 02:34:22 | 00:00:00 | |
| S52SK | 2026-08-31 13:08:58 | 45.86834 | 9.88184 | 61° | 55km/h | 24427m | -19.0m/s | -51.4°C | 1.2% | 0hPa | 2.6V | 00:00:00 | 00:00:00 | 00:00:00 | |
| IW2NTF | 2026-08-31 13:08:55 | 45.86876 | 9.88104 | 256° | 31km/h | 24612m | -17.3m/s | -51.7°C | 3.8% | 0hPa | 2.6V | 08:24:43 | 02:34:12 | 00:00:00 | |
| DO3MHA-11 | 2026-08-31 13:08:55 | 45.86832 | 9.88113 | 120° | 38km/h | 24503m | -18.7m/s | -51.5°C | 3.7% | 0hPa | 2.7V | 00:00:00 | 02:34:18 | 00:00:00 | |
| S52SK | 2026-08-31 13:08:52 | 45.86848 | 9.88091 | 156° | 40km/h | 24541m | -19.1m/s | -51.5°C | 1.1% | 0hPa | 2.7V | 00:00:00 | 00:00:00 | 00:00:00 | |
| DO3MHA-11 | 2026-08-31 13:08:45 | 45.86855 | 9.88147 | 336° | 49km/h | 24687m | -18.4m/s | -51.6°C | 3.9% | 0hPa | 2.7V | 00:00:00 | 02:34:08 | 00:00:00 | |
| IW2NTF | 2026-08-31 13:08:44 | 45.86792 | 9.88110 | 67° | 49km/h | 24800m | -19.2m/s | -51.3°C | 3.8% | 0hPa | 2.7V | 08:24:53 | 02:34:02 | 00:00:00 | |
| BAUMI2-15 | 2026-08-31 13:08:40 | 45.86798 | 9.88125 | 52° | 49km/h | 24781m | -19.2m/s | -51.4°C | 3.9% | 0hPa | 2.7V | 00:00:00 | 02:34:03 | 00:00:00 | |
| DB0UT-7 | 2026-08-31 13:08:37 | 45.86789 | 9.88077 | 105° | 47km/h | 24838m | -19.1m/s | -51.3°C | 3.8% | 0hPa | 2.6V | 08:24:00 | 00:00:00 | 00:00:00 | |
| DO3MHA-11 | 2026-08-31 13:08:35 | 45.86802 | 9.88051 | 147° | 55km/h | 24876m | -18.7m/s | -51.3°C | 3.7% | 0hPa | 2.7V | 00:00:00 | 02:33:58 | 00:00:00 | |
| IW2NTF | 2026-08-31 13:08:34 | 45.86856 | 9.88097 | 259° | 57km/h | 24994m | -18.2m/s | -51.5°C | 3.8% | 0hPa | 2.6V | 08:25:03 | 02:33:52 | 00:00:00 | |
| OE5DRO-10 | 2026-08-31 13:08:26 | 45.86843 | 9.88160 | 311° | 47km/h | 25050m | -20.8m/s | -51.0°C | 3.7% | 0hPa | 2.7V | 00:00:00 | 00:00:00 | 00:00:00 | |
| DO3MHA-11 | 2026-08-31 13:08:25 | 45.86832 | 9.88177 | 321° | 57km/h | 25071m | -20.2m/s | -50.9°C | 3.7% | 0hPa | 2.7V | 00:00:00 | 02:33:48 | 00:00:00 | |
| IW2NTF | 2026-08-31 13:08:24 | 45.86745 | 9.88179 | 44° | 53km/h | 25186m | -19.7m/s | -51°C | 3.8% | 0hPa | 2.7V | 08:25:13 | 02:33:42 | 00:00:00 | |
| DO3MHA-11 | 2026-08-31 13:08:15 | 45.86734 | 9.88123 | 118° | 31km/h | 25261m | -18.3m/s | -50.7°C | 3.7% | 0hPa | 2.7V | 00:00:00 | 02:33:38 | 00:00:00 | |
| IW2NTF | 2026-08-31 13:08:14 | 45.86769 | 9.88131 | 248° | 35km/h | 25371m | -18.6m/s | -50.8°C | 3.7% | 0hPa | 2.7V | 08:25:23 | 02:33:32 | 00:00:00 | |
| NBG1-10 | 2026-08-31 13:08:12 | 45.86752 | 9.88110 | 190° | 27km/h | 25317m | -18.3m/s | -50.6°C | 3.6% | 0hPa | 2.6V | 00:00:00 | 02:33:35 | 00:00:00 | |
| DB0UT-7 | 2026-08-31 13:08:07 | 45.86771 | 9.88155 | 280° | 29km/h | 25410m | -19.3m/s | -50.6°C | 3.7% | 0hPa | 2.6V | 00:00:00 | 02:33:30 | 00:00:00 | |
| DO3MHA-11 | 2026-08-31 13:08:05 | 45.86764 | 9.88176 | 313° | 37km/h | 25447m | -18.3m/s | -50.4°C | 3.6% | 0hPa | 2.6V | 00:00:00 | 02:33:28 | 00:00:00 | |
| IW2NTF | 2026-08-31 13:08:04 | 45.86715 | 9.88171 | 37° | 38km/h | 25554m | -18.8m/s | -50°C | 3.6% | 0hPa | 2.7V | 08:25:33 | 02:33:22 | 00:00:00 | |
| BAUMI2-15 | 2026-08-31 13:07:57 | 45.86702 | 9.88151 | 57° | 37km/h | 25591m | -18.3m/s | -49.9°C | 3.6% | 0hPa | 2.7V | 00:00:00 | 02:33:20 | 00:00:00 | |
| DK5PH-5 | 2026-08-31 13:07:56 | 45.86698 | 9.88140 | 70° | 29km/h | 25609m | -18.0m/s | -49.9°C | 3.6% | 0hPa | 2.7V | 00:00:00 | 02:33:19 | 00:00:00 | |
| DO3MHA-11 | 2026-08-31 13:07:55 | 45.86696 | 9.88129 | 86° | 24km/h | 25627m | -17.7m/s | -49.9°C | 3.6% | 0hPa | 2.7V | 00:00:00 | 02:33:18 | 00:00:00 | |
| IW2NTF | 2026-08-31 13:07:54 | 45.86719 | 9.88097 | 190° | 22km/h | 25735m | -17.8m/s | -49.9°C | 3.5% | 0hPa | 2.7V | 08:25:43 | 02:33:12 | 00:00:00 | |
| BAUMI2-15 | 2026-08-31 13:07:52 | 45.86703 | 9.88102 | 142° | 26km/h | 25680m | -18.5m/s | -50.0°C | 3.6% | 0hPa | 2.7V | 00:00:00 | 02:33:15 | 00:00:00 | |
| OE5DRO-10 | 2026-08-31 13:07:48 | 45.86724 | 9.88099 | 209° | 27km/h | 25754m | -18.6m/s | -49.8°C | 3.5% | 0hPa | 2.7V | 00:00:00 | 00:00:00 | 00:00:00 | |
| S52SK | 2026-08-31 13:07:47 | 45.86724 | 9.88100 | 209° | 20km/h | 25754m | -18.7m/s | -49.8°C | 1.1% | 0hPa | 2.7V | 00:00:00 | 00:00:00 | 00:00:00 | |
| DO3MHA-11 | 2026-08-31 13:07:45 | 45.86732 | 9.88115 | 258° | 27km/h | 25808m | -17.4m/s | -49.9°C | 3.6% | 0hPa | 2.7V | 00:00:00 | 02:33:08 | 00:00:00 | |
| IW2NTF | 2026-08-31 13:07:44 | 45.86715 | 9.88164 | 317° | 33km/h | 25916m | -19m/s | -49.7°C | 3.4% | 0hPa | 2.7V | 08:25:53 | 02:33:02 | 00:00:00 | |
| S52SK | 2026-08-31 13:07:41 | 45.86729 | 9.88138 | 298° | 27km/h | 25861m | -18.3m/s | -49.9°C | 1.1% | 0hPa | 2.7V | 00:00:00 | 00:00:00 | 00:00:00 | |
| DB0UT-7 | 2026-08-31 13:07:37 | 45.86702 | 9.88176 | 341° | 47km/h | 25955m | -18.9m/s | 0°C | 0% | 0hPa | 2.7V | 00:00:00 | 00:00:00 | 00:00:00 | |
| PG1ADW-2 | 2026-08-31 13:07:36 | 45.86695 | 9.88178 | 358° | 47km/h | 25974m | -18.9m/s | 0°C | 0% | 0hPa | 2.7V | 00:00:00 | 02:32:59 | 00:00:00 | |
| DO3MHA-11 | 2026-08-31 13:07:35 | 45.86688 | 9.88177 | 16° | 38km/h | 25993m | -19.1m/s | -49.3°C | 3.4% | 0hPa | 2.7V | 08:25:00 | 02:32:58 | 00:00:00 | |
| IW2NTF | 2026-08-31 13:07:34 | 45.86667 | 9.88120 | 90° | 42km/h | 26105m | -18.4m/s | -49.4°C | 3.4% | 0hPa | 2.7V | 08:26:03 | 02:32:52 | 00:00:00 | |
| DL9SK-14 | 2026-08-31 13:07:34 | 45.86676 | 9.88166 | 48° | 27km/h | 26031m | -18.6m/s | 0°C | -1.0% | -1.0hPa | 2.6V | 00:00:00 | 00:00:00 | 00:00:00 | |
| NBG1-10 | 2026-08-31 13:07:32 | 45.86672 | 9.88158 | 65° | 51km/h | 26049m | -18.5m/s | -49.3°C | 3.4% | 0hPa | 2.6V | 00:00:00 | 02:32:55 | 00:00:00 | |
| OE5DRO-10 | 2026-08-31 13:07:29 | 45.86667 | 9.88120 | 91° | 55km/h | 26105m | -18.3m/s | -49.3°C | 3.4% | 0hPa | 2.6V | 00:00:00 | 00:00:00 | 00:00:00 | |
| DK5PH-5 | 2026-08-31 13:07:26 | 45.86672 | 9.88067 | 105° | 53km/h | 26162m | -19.8m/s | -49.4°C | 3.4% | 0hPa | 2.6V | 00:00:00 | 02:32:49 | 00:00:00 | |
| DO3MHA-11 | 2026-08-31 13:07:25 | 45.86677 | 9.88047 | 110° | 58km/h | 26181m | -19.8m/s | -49.4°C | 3.4% | 0hPa | 2.6V | 00:00:00 | 02:32:48 | 00:00:00 | |
| IW2NTF | 2026-08-31 13:07:24 | 45.86738 | 9.87959 | 168° | 57km/h | 26306m | -19.8m/s | -49.9°C | 3.5% | 0hPa | 2.6V | 08:26:13 | 02:32:42 | 00:00:00 | |
| PG1ADW-2 | 2026-08-31 13:07:16 | 45.86777 | 9.87968 | 209° | 53km/h | 26365m | -19.6m/s | 0°C | 0% | 0hPa | 2.6V | 00:00:00 | 00:00:00 | 00:00:00 | |
| IW2NTF | 2026-08-31 13:07:15 | 45.86826 | 9.88078 | 268° | 51km/h | 26511m | -21.1m/s | -50.5°C | 3.7% | 0hPa | 2.6V | 08:26:23 | 02:32:32 | 00:00:00 | |
| S52SK | 2026-08-31 13:07:12 | 45.86808 | 9.88006 | 234° | 55km/h | 26426m | -21.2m/s | -50.6°C | 1.1% | 0hPa | 2.6V | 00:00:00 | 00:00:00 | 00:00:00 | |
| OE5DRO-10 | 2026-08-31 13:07:10 | 45.86825 | 9.88060 | 259° | 47km/h | 26490m | -21.0m/s | -50.4°C | 3.7% | 0hPa | 2.6V | 08:26:00 | 00:00:00 | 00:00:00 | |
| DB0UT-7 | 2026-08-31 13:07:07 | 45.86822 | 9.88114 | 291° | 44km/h | 26552m | -20.3m/s | 0°C | 0% | 0hPa | 2.6V | 00:00:00 | 02:32:30 | 00:00:00 | |
| DO3MHA-11 | 2026-08-31 13:07:05 | 45.86809 | 9.88141 | 320° | 49km/h | 26593m | -20.0m/s | -50.2°C | 3.8% | 0hPa | 2.6V | 00:00:00 | 02:32:28 | 00:00:00 | |
| IW2NTF | 2026-08-31 13:07:04 | 45.86737 | 9.88143 | 33° | 53km/h | 26712m | -20.4m/s | -49.8°C | 3.6% | 0hPa | 2.6V | 08:26:33 | 02:32:22 | 00:00:00 | |
| DL9SK-14 | 2026-08-31 13:07:03 | 45.86775 | 9.88159 | 359° | 51km/h | 26652m | -19.9m/s | 0°C | -1.0% | -1.0hPa | 2.6V | 00:00:00 | 00:00:00 | 00:00:00 | |
| NBG1-10 | 2026-08-31 13:06:59 | 45.86737 | 9.88143 | 34° | 44km/h | 26713m | -20.4m/s | 0°C | 0% | 0hPa | 2.6V | 00:00:00 | 02:32:22 | 00:00:00 | |
| PG1ADW-2 | 2026-08-31 13:06:56 | 45.86716 | 9.88102 | 77° | 42km/h | 26774m | -20.4m/s | 0°C | 0% | 0hPa | 2.6V | 00:00:00 | 00:00:00 | 00:00:00 | |
| DO3MHA-11 | 2026-08-31 13:06:55 | 45.86715 | 9.88086 | 93° | 35km/h | 26794m | -20.4m/s | -49.7°C | 3.6% | 0hPa | 2.6V | 00:00:00 | 02:32:18 | 00:00:00 | |
| IW2NTF | 2026-08-31 13:06:53 | 45.86754 | 9.88060 | 239° | 31km/h | 26938m | -20.4m/s | -49°C | 3.4% | 0hPa | 2.6V | 08:26:44 | 02:32:11 | 00:00:00 | |
| OE5DRO-10 | 2026-08-31 13:06:51 | 45.86735 | 9.88047 | 170° | 40km/h | 26876m | -20.7m/s | -49.2°C | 3.4% | 0hPa | 2.6V | 00:00:00 | 00:00:00 | 00:00:00 | |
| DO3MHA-11 | 2026-08-31 13:06:45 | 45.86753 | 9.88095 | 299° | 46km/h | 26999m | -19.6m/s | -49.0°C | 3.5% | 0hPa | 2.6V | 00:00:00 | 02:32:08 | 00:00:00 | |
| IW2NTF | 2026-08-31 13:06:43 | 45.86683 | 9.88112 | 43° | 44km/h | 27148m | -22.6m/s | -48.6°C | 3.3% | 0hPa | 2.6V | 08:26:54 | 02:32:01 | 00:00:00 | |
| DB0UT-7 | 2026-08-31 13:06:37 | 45.86676 | 9.88099 | 57° | 35km/h | 27170m | -21.9m/s | 0°C | 0% | 0hPa | 2.7V | 00:00:00 | 00:00:00 | 00:00:00 | |
| DO3MHA-11 | 2026-08-31 13:06:35 | 45.86669 | 9.88070 | 88° | 42km/h | 27214m | -21.7m/s | -48.9°C | 3.3% | 0hPa | 2.7V | 00:00:00 | 02:31:58 | 00:00:00 | |
| OE5DRO-10 | 2026-08-31 13:06:32 | 45.86681 | 9.88029 | 141° | 51km/h | 27280m | -22.1m/s | -49.0°C | 3.4% | 0hPa | 2.6V | 00:00:00 | 00:00:00 | 00:00:00 | |
| IW2NTF | 2026-08-31 13:06:26 | 45.86715 | 9.88128 | 323° | 58km/h | 27532m | -22.4m/s | -49.1°C | 3.5% | 0hPa | 2.6V | 08:27:11 | 02:31:44 | 00:00:00 | |
| PG1ADW-2 | 2026-08-31 13:06:26 | 45.86734 | 9.88047 | 246° | 49km/h | 27420m | -23.0m/s | 0°C | 0% | 0hPa | 2.7V | 00:00:00 | 00:00:00 | 00:00:00 | |
| DO3MHA-11 | 2026-08-31 13:06:25 | 45.86737 | 9.88063 | 264° | 57km/h | 27442m | -22.9m/s | -49.0°C | 3.4% | 0hPa | 2.7V | 00:00:00 | 02:31:48 | 00:00:00 | |
| NBG1-10 | 2026-08-31 13:06:21 | 45.86715 | 9.88128 | 324° | 60km/h | 27533m | -22.4m/s | 0°C | 0% | 0hPa | 2.7V | 00:00:00 | 02:31:44 | 00:00:00 | |
| DO3MHA-11 | 2026-08-31 13:06:15 | 45.86630 | 9.88112 | 43° | 40km/h | 27676m | -25.9m/s | -49.0°C | 3.5% | 0hPa | 2.7V | 00:00:00 | 02:31:38 | 00:00:00 | |
| OE5DRO-10 | 2026-08-31 13:06:13 | 45.86612 | 9.88082 | 60° | 38km/h | 27727m | -24.6m/s | -49.3°C | 3.6% | 0hPa | 2.7V | 00:00:00 | 00:00:00 | 00:00:00 | |
| S52SK | 2026-08-31 13:06:09 | 45.86604 | 9.88036 | 101° | 35km/h | 27796m | -21.7m/s | -49.5°C | 1.1% | 0hPa | 2.7V | 00:00:00 | 00:00:00 | 00:00:00 | |
| PG1ADW-2 | 2026-08-31 13:06:06 | 45.86624 | 9.88013 | 190° | 33km/h | 27881m | -22.9m/s | 0°C | 0% | 0hPa | 2.7V | 00:00:00 | 02:31:29 | 00:00:00 | |
| DO3MHA-11 | 2026-08-31 13:06:05 | 45.86630 | 9.88016 | 209° | 38km/h | 27904m | -23.4m/s | -48.9°C | 3.6% | 0hPa | 2.7V | 08:27:00 | 02:31:28 | 00:00:00 | |
| S52SK | 2026-08-31 13:06:03 | 45.86636 | 9.88022 | 227° | 27km/h | 27927m | -22.8m/s | -48.7°C | 1.1% | 0hPa | 2.6V | 00:00:00 | 00:00:00 | 00:00:00 | |
| S52SK | 2026-08-31 13:05:58 | 45.86626 | 9.88076 | 323° | 42km/h | 28039m | -22.6m/s | -48.4°C | 1.1% | 0hPa | 2.6V | 00:00:00 | 00:00:00 | 00:00:00 | |
| DK5PH-5 | 2026-08-31 13:05:56 | 45.86591 | 9.88094 | 358° | 55km/h | 28108m | -24.4m/s | 0°C | 0% | 0hPa | 2.6V | 00:00:00 | 02:31:19 | 00:00:00 | |
| DO3MHA-11 | 2026-08-31 13:05:55 | 45.86578 | 9.88093 | 7° | 49km/h | 28132m | -24.1m/s | -48.0°C | 3.6% | 0hPa | 2.6V | 00:00:00 | 02:31:18 | 00:00:00 | |
| OE5DRO-10 | 2026-08-31 13:05:54 | 45.86564 | 9.88089 | 17° | 49km/h | 28156m | -23.5m/s | -48.0°C | 3.5% | 0hPa | 2.6V | 00:00:00 | 00:00:00 | 00:00:00 | |
| IW2NTF | 2026-08-31 13:05:45 | 45.86589 | 9.87993 | 266° | 40km/h | 28481m | -24m/s | -46.4°C | 3.3% | 0hPa | 2.6V | 08:27:52 | 02:31:03 | 00:00:00 | |
| DO3MHA-11 | 2026-08-31 13:05:45 | 45.86549 | 9.87969 | 148° | 42km/h | 28358m | -23.9m/s | -47.4°C | 3.4% | 0hPa | 2.7V | 00:00:00 | 02:31:08 | 00:00:00 | |
| IW2NTF | 2026-08-31 13:05:35 | 45.86485 | 9.87948 | 88° | 73km/h | 28737m | -27.7m/s | -45.1°C | 2.8% | 0hPa | 2.7V | 08:28:02 | 02:30:53 | 00:00:00 | |
| OE5DRO-10 | 2026-08-31 13:05:35 | 45.86538 | 9.88038 | 9° | 57km/h | 28602m | -26.8m/s | -45.9°C | 3.1% | 0hPa | 2.6V | 00:00:00 | 00:00:00 | 00:00:00 | |
| S52SK | 2026-08-31 13:05:28 | 45.86486 | 9.87922 | 102° | 69km/h | 28765m | -26.0m/s | -45.1°C | 0.8% | 0hPa | 2.6V | 00:00:00 | 00:00:00 | 00:00:00 | |
| DK5PH-5 | 2026-08-31 13:05:25 | 45.86523 | 9.87857 | 164° | 35km/h | 28872m | -26.7m/s | 0°C | 0% | 0hPa | 2.6V | 00:00:00 | 02:30:48 | 00:00:00 | |
| S52SK | 2026-08-31 13:05:23 | 45.86536 | 9.87854 | 177° | 47km/h | 28898m | -25.9m/s | -45.1°C | 0.8% | 0hPa | 2.6V | 00:00:00 | 00:00:00 | 00:00:00 | |
| OE5DRO-10 | 2026-08-31 13:05:16 | 45.86553 | 9.87935 | 333° | 46km/h | 29094m | -24.5m/s | -45.7°C | 3.2% | 0hPa | 2.6V | 00:00:00 | 00:00:00 | 00:00:00 | |
| IW2NTF | 2026-08-31 13:05:13 | 45.86468 | 9.87873 | 73° | 49km/h | 29295m | -26.2m/s | -45.3°C | 3.1% | 0hPa | 2.7V | 08:28:24 | 02:30:31 | 00:00:00 | |
| S52SK | 2026-08-31 13:05:11 | 45.86506 | 9.87931 | 26° | 58km/h | 29191m | -25.1m/s | -46.0°C | 0.9% | 0hPa | 2.7V | 00:00:00 | 00:00:00 | 00:00:00 | |
| IN3HCDX | 2026-08-31 13:05:05 | 45.86467 | 9.87839 | 108° | 46km/h | 29348m | -26.8m/s | -45.1°C | 0.9% | 0hPa | 2.7V | 08:28:00 | 00:00:00 | 00:00:00 | |
| DO3MHA-11 | 2026-08-31 13:04:58 | 45.86520 | 9.87841 | 264° | 57km/h | 29555m | -25.6m/s | -43.9°C | 2.8% | 0hPa | 2.7V | 00:00:00 | 02:30:21 | 00:00:00 | |
| IW2NTF | 2026-08-31 13:04:54 | 45.86443 | 9.87892 | 35° | 60km/h | 29797m | -26.7m/s | -43.5°C | 2.8% | 0hPa | 2.7V | 08:28:43 | 02:30:12 | 00:00:00 | |
| OE5DRO-10 | 2026-08-31 13:04:53 | 45.86491 | 9.87904 | 340° | 51km/h | 29691m | -28.6m/s | -43.8°C | 2.9% | 0hPa | 2.7V | 00:00:00 | 00:00:00 | 00:00:00 | |
| S52SK | 2026-08-31 13:04:43 | 45.86415 | 9.87795 | 99° | 62km/h | 29931m | -26.4m/s | -43.9°C | 0.8% | 0hPa | 2.7V | 00:00:00 | 00:00:00 | 00:00:00 | |
| DO3MHA-11 | 2026-08-31 13:04:42 | 45.86424 | 9.87753 | 117° | 44km/h | 29983m | -26.9m/s | -43.8°C | 2.9% | 0hPa | 2.7V | 00:00:00 | 02:30:05 | 00:00:00 | |
| IW2NTF | 2026-08-31 13:04:37 | 45.86467 | 9.87795 | 309° | 57km/h | 30244m | -29.5m/s | -42.4°C | 2.9% | 0hPa | 2.7V | 08:29:00 | 02:29:55 | 00:00:00 | |
| OE5DRO-10 | 2026-08-31 13:04:34 | 45.86476 | 9.87761 | 278° | 58km/h | 30190m | -27.0m/s | -42.6°C | 2.9% | 0hPa | 2.7V | 00:00:00 | 00:00:00 | 00:00:00 | |
| DO3MHA-11 | 2026-08-31 13:04:32 | 45.86467 | 9.87795 | 310° | 64km/h | 30245m | -29.4m/s | -42.3°C | 2.9% | 0hPa | 2.7V | 00:00:00 | 02:29:55 | 00:00:00 | |
| IW2NTF | 2026-08-31 13:04:26 | 45.86382 | 9.87684 | 126° | 55km/h | 30552m | -28.1m/s | -40.3°C | 2.3% | 0hPa | 2.7V | 08:29:11 | 02:29:44 | 00:00:00 | |
| DO3MHA-11 | 2026-08-31 13:04:22 | 45.86375 | 9.87702 | 111° | 55km/h | 30523m | -29.9m/s | -40.3°C | 2.4% | 0hPa | 2.7V | 00:00:00 | 02:29:45 | 00:00:00 | |
| IW2NTF | 2026-08-31 13:04:16 | 45.86497 | 9.87693 | 204° | 24km/h | 30828m | -26.4m/s | -40.2°C | 2.4% | 0hPa | 2.7V | 08:30:00 | 02:29:34 | 00:00:00 | |
| OE5DRO-10 | 2026-08-31 13:04:15 | 45.86458 | 9.87662 | 205° | 22km/h | 30714m | -27.2m/s | -40.0°C | 2.4% | 0hPa | 2.7V | 08:29:00 | 00:00:00 | 00:00:00 | |
| DO3MHA-11 | 2026-08-31 13:04:12 | 45.86490 | 9.87688 | 208° | 18km/h | 30802m | -28.0m/s | -40.1°C | 2.4% | 0hPa | 2.7V | 00:00:00 | 02:29:35 | 00:00:00 | |
| BAUMI2-15 | 2026-08-31 13:04:07 | 45.86504 | 9.87685 | 71° | 15km/h | 30934m | -30.9m/s | -40.2°C | 2.4% | 0hPa | 2.7V | 00:00:00 | 02:29:30 | 00:00:00 | |
| IW2NTF | 2026-08-31 13:04:05 | 45.86521 | 9.87680 | 200° | 13km/h | 31176m | -36.1m/s | -40.4°C | 2.6% | 0hPa | 2.7V | 08:30:00 | 02:29:23 | 00:00:00 | |
| DO3MHA-11 | 2026-08-31 13:04:02 | 45.86513 | 9.87675 | 207° | 15km/h | 31107m | -34.8m/s | -40.3°C | 2.5% | 0hPa | 2.6V | 00:00:00 | 02:29:25 | 00:00:00 | |
| IW2NTF | 2026-08-31 13:03:56 | 45.86510 | 9.87662 | 324° | 5km/h | 31551m | -58.9m/s | -39.1°C | 2.4% | 0hPa | 2.6V | 08:30:00 | 02:29:13 | 00:00:00 | |
| BAUMI2-15 | 2026-08-31 13:03:53 | 45.86514 | 9.87663 | 52° | 9km/h | 31383m | -47.3m/s | -39.7°C | 2.5% | 0hPa | 2.7V | 00:00:00 | 02:29:16 | 00:00:00 | |
| DO3MHA-11 | 2026-08-31 13:03:52 | 45.86512 | 9.87661 | 4° | 13km/h | 31436m | -57.7m/s | -39.4°C | 2.4% | 0hPa | 2.7V | 00:00:00 | 02:29:15 | 08:30:00 | |
| S52SK | 2026-08-31 13:03:51 | 45.86512 | 9.87661 | 5° | 5km/h | 31436m | -57.8m/s | -39.5°C | 0.7% | 0hPa | 2.6V | 00:00:00 | 00:00:00 | 00:00:00 | |
| BAUMI2-15 | 2026-08-31 13:03:48 | 45.86506 | 9.87667 | 315° | 16km/h | 31667m | -57.6m/s | -38.9°C | 2.4% | 0hPa | 2.6V | 00:00:00 | 02:29:11 | 08:30:00 | |
| IW2NTF | 2026-08-31 13:03:45 | 45.86467 | 9.87672 | 28° | 37km/h | 32133m | -59.5m/s | -38°C | 2.4% | 0hPa | 2.6V | 08:30:00 | 02:29:03 | 00:00:00 | |
| BAUMI2-15 | 2026-08-31 13:03:43 | 45.86487 | 9.87679 | 358° | 31km/h | 31958m | -58.3m/s | -37.7°C | 2.3% | 0hPa | 2.7V | 00:00:00 | 02:29:06 | 00:00:00 | |
| DO3MHA-11 | 2026-08-31 13:03:42 | 45.86481 | 9.87679 | 10° | 35km/h | 32016m | -58.3m/s | -37.8°C | 2.3% | 0hPa | 2.7V | 00:00:00 | 02:29:05 | 00:00:00 | |
| IN3HCDX | 2026-08-31 13:03:38 | 45.86458 | 9.87665 | 38° | 40km/h | 32193m | -60.0m/s | -37.9°C | 0.6% | 0hPa | 2.7V | 00:00:00 | 00:00:00 | 00:00:00 | |
| OE5DRO-10 | 2026-08-31 13:03:37 | 45.86444 | 9.87646 | 48° | 18km/h | 32312m | -59.7m/s | -37.6°C | 2.3% | 0hPa | 2.7V | 00:00:00 | 00:00:00 | 00:00:00 | |
| IW2NTF | 2026-08-31 13:03:35 | 45.86413 | 9.87603 | 347° | 11km/h | 32751m | -65.3m/s | -35.2°C | 2% | 0hPa | 2.7V | 08:30:00 | 02:28:53 | 00:00:00 | |
| BAUMI2-15 | 2026-08-31 13:03:34 | 45.86426 | 9.87617 | 51° | 27km/h | 32497m | -63.2m/s | -37.5°C | 2.3% | 0hPa | 2.6V | 00:00:00 | 02:28:57 | 00:00:00 | |
| BAUMI2-15 | 2026-08-31 13:03:29 | 45.86411 | 9.87606 | 314° | 15km/h | 32817m | -65.1m/s | -34.7°C | 1.9% | 0hPa | 2.6V | 00:00:00 | 02:28:52 | 00:00:00 | |
| IW2NTF | 2026-08-31 13:03:25 | 45.86415 | 9.87624 | 138° | 18km/h | 33366m | -53.9m/s | -35.1°C | 1.9% | 0hPa | 2.6V | 08:30:00 | 02:28:43 | 00:00:00 | |
| DO3MHA-11 | 2026-08-31 13:03:22 | 45.86410 | 9.87630 | 163° | 26km/h | 33253m | -59.6m/s | -34.6°C | 1.8% | 0hPa | 2.7V | 00:00:00 | 02:28:45 | 00:00:00 | |
| OE5DRO-10 | 2026-08-31 13:03:18 | 45.86420 | 9.87606 | 105° | 26km/h | 33477m | -55.9m/s | -34.8°C | 1.8% | 0hPa | 2.6V | 00:00:00 | 00:00:00 | 00:00:00 | |
| S52SK | 2026-08-31 13:03:16 | 45.86422 | 9.87594 | 103° | 37km/h | 33534m | -57.3m/s | -34.7°C | 0.5% | 0hPa | 2.6V | 00:00:00 | 00:00:00 | 00:00:00 | |
| IW2NTF | 2026-08-31 13:03:15 | 45.86408 | 9.87535 | 16° | 13km/h | 33981m | -58.1m/s | -33.9°C | 1.7% | 0hPa | 2.6V | 08:30:00 | 02:28:33 | 00:00:00 | |
| IN3HCDX1 | 2026-08-31 13:03:14 | 45.86423 | 9.87568 | 71° | 27km/h | 33654m | -69.2m/s | -34.0°C | 0.4% | 0hPa | 2.7V | 00:00:00 | 00:00:00 | 00:00:00 | |
| DO3MHA-11 | 2026-08-31 13:03:12 | 45.86414 | 9.87544 | 57° | 22km/h | 33859m | -64.4m/s | -33.4°C | 1.6% | 0hPa | 2.7V | 00:00:00 | 02:28:35 | 00:00:00 | |
| S52SK | 2026-08-31 13:03:10 | 45.86411 | 9.87538 | 47° | 18km/h | 33921m | -61.6m/s | -33.6°C | 0.4% | 0hPa | 2.7V | 00:00:00 | 00:00:00 | 00:00:00 | |
| IW2NTF | 2026-08-31 13:03:05 | 45.86380 | 9.87614 | 275° | 16km/h | 34214m | 4.9m/s | -34.4°C | 1.9% | 0hPa | 2.7V | 08:30:00 | 02:28:23 | 00:00:00 | |
| PG1ADW-2 | 2026-08-31 13:03:03 | 45.86388 | 9.87584 | 293° | 16km/h | 34230m | -6.7m/s | 0°C | 0% | 0hPa | 2.6V | 00:00:00 | 00:00:00 | 00:00:00 | |
| DO3MHA-11 | 2026-08-31 13:03:02 | 45.86385 | 9.87595 | 292° | 15km/h | 34232m | 3.1m/s | -34.3°C | 1.9% | 0hPa | 2.6V | 00:00:00 | 02:28:25 | 00:00:00 | |
| OE5DRO-10 | 2026-08-31 13:02:59 | 45.86380 | 9.87618 | 249° | 13km/h | 34210m | 5.5m/s | -34.4°C | 1.9% | 0hPa | 2.6V | 00:00:00 | 00:00:00 | 00:00:00 | |
| IW2NTF | 2026-08-31 13:02:55 | 45.86376 | 9.87597 | 300° | 13km/h | 34160m | 5m/s | -34.6°C | 2% | 0hPa | 2.6V | 08:30:00 | 02:28:13 | 00:00:00 | |
| IN3HCDX1 | 2026-08-31 13:02:54 | 45.86382 | 9.87602 | 86° | 18km/h | 34187m | 4.9m/s | -34.8°C | 0.5% | 0hPa | 2.7V | 00:00:00 | 00:00:00 | 00:00:00 | |
| DO3MHA-11 | 2026-08-31 13:02:51 | 45.86377 | 9.87594 | 308° | 15km/h | 34166m | 5.6m/s | -34.6°C | 2.0% | 0hPa | 2.7V | 00:00:00 | 02:28:14 | 00:00:00 | |
| IW2NTF | 2026-08-31 13:02:45 | 45.86356 | 9.87581 | 240° | 4km/h | 34105m | 6.4m/s | -34.6°C | 2% | 0hPa | 2.7V | 08:30:00 | 02:28:03 | 00:00:00 | |
| S52SK | 2026-08-31 13:02:44 | 45.86363 | 9.87600 | 51° | 18km/h | 34132m | 5.6m/s | -34.7°C | 0.5% | 0hPa | 2.6V | 00:00:00 | 00:00:00 | 00:00:00 | |
| DO3MHA-11 | 2026-08-31 13:02:41 | 45.86356 | 9.87581 | 82° | 11km/h | 34112m | 6.2m/s | -34.5°C | 2.0% | 0hPa | 2.6V | 00:00:00 | 02:28:04 | 00:00:00 | |
| OE5DRO-10 | 2026-08-31 13:02:40 | 45.86356 | 9.87581 | 241° | 11km/h | 34106m | 6.4m/s | -34.5°C | 2.0% | 0hPa | 2.6V | 00:00:00 | 00:00:00 | 00:00:00 | |
| S52SK | 2026-08-31 13:02:38 | 45.86357 | 9.87583 | 249° | 11km/h | 34100m | 5.5m/s | -34.6°C | 0.5% | 0hPa | 2.6V | 00:00:00 | 00:00:00 | 00:00:00 | |
| IW2NTF | 2026-08-31 13:02:35 | 45.86351 | 9.87563 | 74° | 11km/h | 34053m | 5.5m/s | -34.5°C | 1.9% | 0hPa | 2.6V | 08:30:00 | 02:27:53 | 00:00:00 | |
| IN3HCDX1 | 2026-08-31 13:02:34 | 45.86358 | 9.87591 | 60° | 7km/h | 34079m | 6.1m/s | -34.6°C | 0.5% | 0hPa | 2.6V | 00:00:00 | 00:00:00 | 00:00:00 | |
| DO3MHA-11 | 2026-08-31 13:02:31 | 45.86351 | 9.87568 | 72° | 11km/h | 34059m | 4.3m/s | -34.4°C | 1.9% | 0hPa | 2.6V | 00:00:00 | 02:27:54 | 00:00:00 | |
| IW2NTF | 2026-08-31 13:02:25 | 45.86339 | 9.87550 | 52° | 31km/h | 33999m | 4.1m/s | -34.2°C | 1.9% | 0hPa | 2.6V | 08:30:00 | 02:27:43 | 00:00:00 | |
| DO3MHA-11 | 2026-08-31 13:02:21 | 45.86343 | 9.87559 | 52° | 15km/h | 34004m | 5.4m/s | -34.3°C | 1.9% | 0hPa | 2.6V | 00:00:00 | 02:27:44 | 08:30:00 | |
| IW2NTF | 2026-08-31 13:02:15 | 45.86333 | 9.87535 | 71° | 13km/h | 33944m | 5m/s | -34.3°C | 1.8% | 0hPa | 2.6V | 08:30:00 | 02:27:33 | 00:00:00 | |
| DO3MHA-11 | 2026-08-31 13:02:11 | 45.86333 | 9.87539 | 95° | 13km/h | 33950m | 5.3m/s | -34.2°C | 1.8% | 0hPa | 2.7V | 00:00:00 | 02:27:34 | 00:00:00 | |
| IW2NTF | 2026-08-31 13:02:05 | 45.86307 | 9.87508 | 70° | 15km/h | 33892m | 6.3m/s | -34.7°C | 1.9% | 0hPa | 2.7V | 08:30:00 | 02:27:23 | 00:00:00 | |
| OE5DRO-10 | 2026-08-31 13:02:02 | 45.86310 | 9.87514 | 27° | 18km/h | 33904m | 4.3m/s | -34.4°C | 1.8% | 0hPa | 2.7V | 00:00:00 | 00:00:00 | 00:00:00 | |
| DO3MHA-11 | 2026-08-31 13:02:01 | 45.86308 | 9.87512 | 55° | 15km/h | 33899m | 5.5m/s | -34.5°C | 1.8% | 0hPa | 2.7V | 00:00:00 | 02:27:24 | 00:00:00 | |
| S52SK | 2026-08-31 13:01:59 | 45.86307 | 9.87508 | 72° | 15km/h | 33893m | 6.3m/s | -34.7°C | 0.5% | 0hPa | 2.7V | 00:00:00 | 00:00:00 | 00:00:00 | |
| DB0UT-7 | 2026-08-31 13:01:56 | 45.86303 | 9.87487 | 61° | 16km/h | 33873m | 4.4m/s | 0°C | 0% | 0hPa | 2.7V | 00:00:00 | 02:27:19 | 00:00:00 | |
| IW2NTF | 2026-08-31 13:01:55 | 45.86290 | 9.87514 | 326° | 22km/h | 33842m | 4m/s | -34.5°C | 1.8% | 0hPa | 2.7V | 08:30:00 | 02:27:13 | 00:00:00 | |
| DO3MHA-11 | 2026-08-31 13:01:51 | 45.86294 | 9.87508 | 308° | 20km/h | 33846m | 3.4m/s | -34.4°C | 1.8% | 0hPa | 2.6V | 00:00:00 | 02:27:14 | 00:00:00 | |
| IW2NTF | 2026-08-31 13:01:45 | 45.86268 | 9.87499 | 262° | 24km/h | 33788m | 4.8m/s | -35.3°C | 1.9% | 0hPa | 2.7V | 08:30:00 | 02:27:03 | 00:00:00 | |
| OE5DRO-10 | 2026-08-31 13:01:43 | 45.86264 | 9.87486 | 121° | 16km/h | 33805m | 5.8m/s | -35.0°C | 1.9% | 0hPa | 2.6V | 00:00:00 | 00:00:00 | 00:00:00 | |
| DO3MHA-11 | 2026-08-31 13:01:41 | 45.86267 | 9.87492 | 251° | 22km/h | 33794m | 5.2m/s | -35.3°C | 1.9% | 0hPa | 2.6V | 00:00:00 | 02:27:04 | 00:00:00 | |
| IN3HCDX | 2026-08-31 13:01:39 | 45.86268 | 9.87499 | 264° | 24km/h | 33789m | 4.8m/s | -35.3°C | 0.5% | 0hPa | 2.6V | 00:00:00 | 00:00:00 | 00:00:00 | |
| IW2NTF | 2026-08-31 13:01:35 | 45.86229 | 9.87530 | 290° | 13km/h | 33736m | 5.6m/s | -35.6°C | 2% | 0hPa | 2.6V | 08:30:00 | 02:26:53 | 00:00:00 | |
| IN3HCDX1 | 2026-08-31 13:01:32 | 45.86240 | 9.87525 | 5° | 24km/h | 33752m | 4.5m/s | -35.5°C | 0.5% | 0hPa | 2.7V | 00:00:00 | 00:00:00 | 00:00:00 | |
| DO3MHA-11 | 2026-08-31 13:01:31 | 45.86231 | 9.87527 | 334° | 11km/h | 33742m | 5.5m/s | -35.6°C | 2.0% | 0hPa | 2.7V | 00:00:00 | 02:26:54 | 00:00:00 | |
| S52SK | 2026-08-31 13:01:30 | 45.86231 | 9.87527 | 334° | 13km/h | 33742m | 5.6m/s | -35.7°C | 0.5% | 0hPa | 2.7V | 00:00:00 | 00:00:00 | 00:00:00 | |
| IW2NTF | 2026-08-31 13:01:25 | 45.86227 | 9.87558 | 314° | 18km/h | 33682m | 6m/s | -35.5°C | 1.9% | 0hPa | 2.7V | 08:30:00 | 02:26:43 | 00:00:00 | |
| OE5DRO-10 | 2026-08-31 13:01:24 | 45.86236 | 9.87551 | 240° | 16km/h | 33703m | 5.4m/s | -35.5°C | 1.9% | 0hPa | 2.7V | 00:00:00 | 00:00:00 | 08:30:00 | |
| DO3MHA-11 | 2026-08-31 13:01:21 | 45.86231 | 9.87554 | 328° | 15km/h | 33688m | 5.4m/s | -35.5°C | 1.9% | 0hPa | 2.6V | 00:00:00 | 02:26:44 | 00:00:00 | |
| IN3HCDX | 2026-08-31 13:01:16 | 45.86218 | 9.87578 | 300° | 22km/h | 33667m | 4.4m/s | -35.7°C | 0.5% | 0hPa | 2.6V | 00:00:00 | 00:00:00 | 00:00:00 | |
| IW2NTF | 2026-08-31 13:01:15 | 45.86226 | 9.87583 | 173° | 24km/h | 33629m | 5.7m/s | -35.9°C | 2% | 0hPa | 2.6V | 08:30:00 | 02:26:33 | 00:00:00 | |
| IN3HCDX1 | 2026-08-31 13:01:12 | 45.86214 | 9.87590 | 145° | 7km/h | 33645m | 5.5m/s | -35.8°C | 0.5% | 0hPa | 2.6V | 00:00:00 | 00:00:00 | 00:00:00 | |
| DO3MHA-11 | 2026-08-31 13:01:11 | 45.86221 | 9.87585 | 161° | 20km/h | 33635m | 5.0m/s | -35.8°C | 2.0% | 0hPa | 2.6V | 00:00:00 | 02:26:34 | 00:00:00 | |
| IW2NTF | 2026-08-31 13:01:05 | 45.86233 | 9.87601 | 91° | 7km/h | 33578m | 4m/s | -36°C | 2% | 0hPa | 2.6V | 08:30:00 | 02:26:23 | 00:00:00 | |
| OE5DRO-10 | 2026-08-31 13:01:05 | 45.86247 | 9.87601 | 281° | 22km/h | 33604m | 6.3m/s | -36.0°C | 2.0% | 0hPa | 2.6V | 00:00:00 | 00:00:00 | 00:00:00 | |
| BAUMI2-15 | 2026-08-31 13:01:03 | 45.86241 | 9.87607 | 356° | 15km/h | 33590m | 5.9m/s | -35.9°C | 2.0% | 0hPa | 2.6V | 00:00:00 | 02:26:26 | 00:00:00 | |
| OE5DXL-15 | 2026-08-31 13:01:01 | 45.86234 | 9.87604 | 40° | 26km/h | 33582m | 3.1m/s | -36.1°C | 2.0% | 0hPa | 2.6V | 00:00:00 | 00:00:00 | 00:00:00 | |
| BAUMI2-15 | 2026-08-31 13:00:58 | 45.86239 | 9.87597 | 173° | 38km/h | 33566m | 7.4m/s | -36.0°C | 2.0% | 0hPa | 2.6V | 00:00:00 | 02:26:21 | 00:00:00 | |
| S52SK | 2026-08-31 13:00:57 | 45.86239 | 9.87597 | 174° | 26km/h | 33566m | 7.5m/s | -36.1°C | 0.5% | 0hPa | 2.6V | 00:00:00 | 00:00:00 | 00:00:00 | |
| IN3HCDX | 2026-08-31 13:00:56 | 45.86257 | 9.87597 | 184° | 44km/h | 33553m | 5.2m/s | -35.8°C | 0.5% | 0hPa | 2.6V | 00:00:00 | 00:00:00 | 00:00:00 | |
| IW2NTF | 2026-08-31 13:00:55 | 45.86297 | 9.87584 | 71° | 15km/h | 33522m | 6.1m/s | -35.8°C | 2% | 0hPa | 2.6V | 08:30:00 | 02:26:13 | 00:00:00 | |
| BAUMI2-15 | 2026-08-31 13:00:53 | 45.86288 | 9.87596 | 169° | 31km/h | 33541m | 4.9m/s | -35.8°C | 2.0% | 0hPa | 2.7V | 00:00:00 | 02:26:16 | 00:00:00 | |
| DO3MHA-11 | 2026-08-31 13:00:51 | 45.86297 | 9.87589 | 114° | 16km/h | 33529m | 6.6m/s | -35.7°C | 2.0% | 0hPa | 2.7V | 00:00:00 | 02:26:14 | 08:30:00 | |
| BAUMI2-15 | 2026-08-31 13:00:48 | 45.86292 | 9.87576 | 39° | 7km/h | 33512m | 5.4m/s | -35.7°C | 2.0% | 0hPa | 2.6V | 00:00:00 | 02:26:11 | 00:00:00 | |
| OE5DRO-10 | 2026-08-31 13:00:47 | 45.86291 | 9.87573 | 168° | 18km/h | 33501m | 5.0m/s | -35.8°C | 2.0% | 0hPa | 2.6V | 00:00:00 | 00:00:00 | 00:00:00 | |
| IW2NTF | 2026-08-31 13:00:45 | 45.86321 | 9.87555 | 139° | 27km/h | 33466m | 5.2m/s | -35.8°C | 2.1% | 0hPa | 2.6V | 08:30:00 | 02:26:03 | 00:00:00 | |
| DO3MHA-11 | 2026-08-31 13:00:41 | 45.86316 | 9.87561 | 147° | 13km/h | 33472m | 5.5m/s | -35.7°C | 2.0% | 0hPa | 2.7V | 00:00:00 | 02:26:04 | 00:00:00 | |
| IW2NTF | 2026-08-31 13:00:35 | 45.86334 | 9.87520 | 103° | 29km/h | 33411m | 6.2m/s | -35.9°C | 2.1% | 0hPa | 2.7V | 08:30:00 | 02:25:53 | 00:00:00 | |
| BAUMI2-15 | 2026-08-31 13:00:35 | 45.86332 | 9.87539 | 287° | 7km/h | 33439m | 5.3m/s | -35.8°C | 2.1% | 0hPa | 2.7V | 00:00:00 | 02:25:58 | 00:00:00 | |
| DO3MHA-11 | 2026-08-31 13:00:31 | 45.86332 | 9.87529 | 101° | 18km/h | 33418m | 6.9m/s | -35.9°C | 2.1% | 0hPa | 2.7V | 00:00:00 | 02:25:54 | 00:00:00 | |
| BAUMI2-15 | 2026-08-31 13:00:30 | 45.86334 | 9.87520 | 104° | 29km/h | 33411m | 6.2m/s | -35.9°C | 2.1% | 0hPa | 2.7V | 00:00:00 | 02:25:53 | 08:30:00 | |
| IN3HCDX | 2026-08-31 13:00:29 | 45.86336 | 9.87509 | 106° | 33km/h | 33406m | 4.7m/s | -35.8°C | 0.6% | 0hPa | 2.6V | 00:00:00 | 00:00:00 | 00:00:00 | |
| OE5DRO-10 | 2026-08-31 13:00:27 | 45.86340 | 9.87488 | 107° | 16km/h | 33397m | 5.0m/s | -35.9°C | 2.1% | 0hPa | 2.6V | 00:00:00 | 00:00:00 | 00:00:00 | |
| IW2NTF | 2026-08-31 13:00:25 | 45.86336 | 9.87477 | 61° | 11km/h | 33355m | 6.2m/s | -35.5°C | 2% | 0hPa | 2.7V | 08:30:00 | 02:25:43 | 00:00:00 | |
| DO3MHA-11 | 2026-08-31 13:00:21 | 45.86338 | 9.87479 | 21° | 18km/h | 33362m | 5.9m/s | -35.5°C | 0% | 0hPa | 2.7V | 00:00:00 | 02:25:44 | 00:00:00 | |
| BAUMI2-15 | 2026-08-31 13:00:18 | 45.86333 | 9.87455 | 84° | 22km/h | 33338m | 5.2m/s | -35.4°C | 2.0% | 0hPa | 2.7V | 00:00:00 | 02:25:40 | 00:00:00 | |
| IW2NTF | 2026-08-31 13:00:16 | 45.86319 | 9.87413 | 49° | 16km/h | 33298m | 6.5m/s | -35.2°C | 2% | 0hPa | 2.7V | 08:30:00 | 02:25:33 | 00:00:00 | |
| BAUMI2-15 | 2026-08-31 13:00:12 | 45.86324 | 9.87421 | 45° | 16km/h | 33310m | 5.3m/s | -35.3°C | 2.0% | 0hPa | 2.6V | 00:00:00 | 02:25:35 | 00:00:00 | |
| DO3MHA-11 | 2026-08-31 13:00:11 | 45.86321 | 9.87417 | 45° | 9km/h | 33304m | 6.0m/s | 0°C | 0% | 0hPa | 2.6V | 00:00:00 | 02:25:34 | 00:00:00 | |
| IN3HCDX1 | 2026-08-31 13:00:10 | 45.86319 | 9.87413 | 50° | 16km/h | 33298m | 6.5m/s | -35.2°C | 0.5% | 0hPa | 2.6V | 00:00:00 | 00:00:00 | 00:00:00 | |
| IN3HCDX | 2026-08-31 13:00:08 | 45.86314 | 9.87404 | 69° | 15km/h | 33286m | 5.5m/s | -35.2°C | 0.5% | 0hPa | 2.6V | 00:00:00 | 00:00:00 | 00:00:00 | |
| PG1ADW-2 | 2026-08-31 13:00:07 | 45.86313 | 9.87399 | 74° | 11km/h | 33281m | 5.0m/s | -35.1°C | 1.9% | 0hPa | 2.6V | 00:00:00 | 00:00:00 | 08:30:00 | |
| IW2NTF | 2026-08-31 13:00:06 | 45.86311 | 9.87389 | 89° | 15km/h | 33241m | 6.8m/s | -35.1°C | 1.9% | 0hPa | 2.6V | 08:30:00 | 02:25:23 | 00:00:00 | |
| DO3MHA-11 | 2026-08-31 13:00:01 | 45.86312 | 9.87392 | 87° | 16km/h | 33248m | 4.9m/s | 0°C | 0% | 0hPa | 2.7V | 00:00:00 | 02:25:24 | 00:00:00 | |
| IW2NTF | 2026-08-31 12:59:54 | 45.86297 | 9.87358 | 336° | 4km/h | 33177m | 5.8m/s | -34.7°C | 1.9% | 0hPa | 2.7V | 08:30:00 | 02:25:12 | 00:00:00 | |
| S52SK | 2026-08-31 12:59:52 | 45.86305 | 9.87345 | 333° | 11km/h | 33201m | 6.7m/s | -34.9°C | 0.5% | 0hPa | 2.7V | 00:00:00 | 00:00:00 | 00:00:00 | |
| DO3MHA-11 | 2026-08-31 12:59:51 | 45.86300 | 9.87353 | 305° | 9km/h | 33189m | 5.3m/s | 0°C | 0% | 0hPa | 2.7V | 00:00:00 | 02:25:14 | 00:00:00 | |
| OE5DRO-10 | 2026-08-31 12:59:49 | 45.86297 | 9.87358 | 337° | 11km/h | 33177m | 5.7m/s | -34.7°C | 1.9% | 0hPa | 2.7V | 00:00:00 | 00:00:00 | 00:00:00 | |
| IN3HCDX1 | 2026-08-31 12:59:48 | 45.86297 | 9.87358 | 337° | 4km/h | 33177m | 5.8m/s | -34.7°C | 0.5% | 0hPa | 2.7V | 00:00:00 | 00:00:00 | 00:00:00 | |
| IN3HCDX | 2026-08-31 12:59:46 | 45.86296 | 9.87355 | 83° | 9km/h | 33167m | 5.6m/s | -34.7°C | 0.5% | 0hPa | 2.7V | 00:00:00 | 00:00:00 | 00:00:00 | |
| IW2NTF | 2026-08-31 12:59:44 | 45.86288 | 9.87326 | 55° | 11km/h | 33119m | 6.6m/s | -34.6°C | 1.8% | 0hPa | 2.7V | 08:30:00 | 02:25:02 | 00:00:00 | |
| DO3MHA-11 | 2026-08-31 12:59:41 | 45.86291 | 9.87332 | 53° | 11km/h | 33131m | 5.5m/s | 0°C | 0% | 0hPa | 2.6V | 00:00:00 | 02:25:04 | 00:00:00 | |
| S52SK | 2026-08-31 12:59:35 | 45.86284 | 9.87319 | 349° | 4km/h | 33103m | 4.8m/s | -34.7°C | 0.5% | 0hPa | 2.6V | 00:00:00 | 00:00:00 | 00:00:00 | |
| IW2NTF | 2026-08-31 12:59:34 | 45.86279 | 9.87344 | 65° | 7km/h | 33064m | 6.4m/s | -35°C | 1.9% | 0hPa | 2.6V | 08:30:00 | 02:24:52 | 00:00:00 | |
| DO3MHA-11 | 2026-08-31 12:59:31 | 45.86280 | 9.87342 | 281° | 18km/h | 33074m | 3.7m/s | 0°C | 0% | 0hPa | 2.6V | 00:00:00 | 02:24:54 | 00:00:00 | |
| OE5DRO-10 | 2026-08-31 12:59:30 | 45.86280 | 9.87345 | 295° | 20km/h | 33070m | 4.5m/s | -34.9°C | 1.8% | 0hPa | 2.6V | 00:00:00 | 00:00:00 | 00:00:00 | |
| IN3HCDX1 | 2026-08-31 12:59:25 | 45.86275 | 9.87324 | 69° | 27km/h | 33046m | 4.3m/s | -35.0°C | 0.5% | 0hPa | 2.7V | 00:00:00 | 00:00:00 | 00:00:00 | |
| IW2NTF | 2026-08-31 12:59:24 | 45.86244 | 9.87338 | 297° | 29km/h | 33006m | 5.4m/s | -35.3°C | 1.9% | 0hPa | 2.7V | 08:30:00 | 02:24:42 | 00:00:00 | |
| IW2NTF | 2026-08-31 12:59:14 | 45.86208 | 9.87335 | 10° | 22km/h | 32949m | 5.2m/s | -35.2°C | 1.8% | 0hPa | 2.6V | 08:30:00 | 02:24:32 | 00:00:00 | |
| OE5DRO-10 | 2026-08-31 12:59:11 | 45.86219 | 9.87339 | 19° | 18km/h | 32960m | 5.3m/s | -35.1°C | 1.9% | 0hPa | 2.7V | 00:00:00 | 00:00:00 | 00:00:00 | |
| S52SK | 2026-08-31 12:59:08 | 45.86208 | 9.87335 | 11° | 22km/h | 32950m | 5.2m/s | -35.2°C | 0.5% | 0hPa | 2.7V | 00:00:00 | 00:00:00 | 00:00:00 | |
| IN3HCDX1 | 2026-08-31 12:59:05 | 45.86197 | 9.87333 | 7° | 5km/h | 32932m | 5.7m/s | -35.2°C | 0.5% | 0hPa | 2.7V | 00:00:00 | 00:00:00 | 00:00:00 | |
| IW2NTF | 2026-08-31 12:59:04 | 45.86203 | 9.87348 | 57° | 5km/h | 32896m | 3.6m/s | -35.2°C | 1.9% | 0hPa | 2.7V | 08:30:00 | 02:24:22 | 00:00:00 | |
| S52SK | 2026-08-31 12:59:03 | 45.86197 | 9.87334 | 234° | 7km/h | 32921m | 5.5m/s | -35.2°C | 0.5% | 0hPa | 2.7V | 00:00:00 | 00:00:00 | 00:00:00 | |
| S52SK | 2026-08-31 12:58:57 | 45.86202 | 9.87345 | 63° | 16km/h | 32892m | 5.6m/s | -35.4°C | 0.5% | 0hPa | 2.7V | 00:00:00 | 00:00:00 | 00:00:00 | |
| IW2NTF | 2026-08-31 12:58:54 | 45.86164 | 9.87286 | 280° | 15km/h | 32839m | 4.8m/s | -35.7°C | 1.9% | 0hPa | 2.7V | 08:30:00 | 02:24:12 | 00:00:00 | |
| S52SK | 2026-08-31 12:58:53 | 45.86179 | 9.87290 | 49° | 35km/h | 32862m | 4.2m/s | -35.7°C | 0.5% | 0hPa | 2.6V | 00:00:00 | 00:00:00 | 00:00:00 | |
| OE5DRO-10 | 2026-08-31 12:58:52 | 45.86174 | 9.87283 | 35° | 22km/h | 32857m | 5.7m/s | -35.6°C | 1.9% | 0hPa | 2.6V | 00:00:00 | 00:00:00 | 00:00:00 | |
| PG1ADW-2 | 2026-08-31 12:58:50 | 45.86166 | 9.87281 | 317° | 24km/h | 32845m | 5.9m/s | -35.6°C | 1.9% | 0hPa | 2.6V | 00:00:00 | 00:00:00 | 00:00:00 | |
| S52SK | 2026-08-31 12:58:46 | 45.86166 | 9.87294 | 215° | 9km/h | 32830m | 4.8m/s | -35.7°C | 0.5% | 0hPa | 2.6V | 00:00:00 | 00:00:00 | 00:00:00 | |
| IW2NTF | 2026-08-31 12:58:44 | 45.86146 | 9.87225 | 24° | 35km/h | 32787m | 5.3m/s | -36.3°C | 1.9% | 0hPa | 2.6V | 08:30:00 | 02:24:02 | 00:00:00 | |
| IN3HCDX | 2026-08-31 12:58:43 | 45.86171 | 9.87280 | 91° | 31km/h | 32814m | 5.3m/s | -35.9°C | 0.5% | 0hPa | 2.7V | 00:00:00 | 00:00:00 | 00:00:00 | |
| IW2NTF | 2026-08-31 12:58:34 | 45.86115 | 9.87186 | 53° | 24km/h | 32734m | 5.8m/s | -36.7°C | 2% | 0hPa | 2.7V | 08:30:00 | 02:23:52 | 00:00:00 | |
| OE5DRO-10 | 2026-08-31 12:58:33 | 45.86122 | 9.87216 | 83° | 20km/h | 32756m | 5.2m/s | -36.3°C | 2.0% | 0hPa | 2.6V | 00:00:00 | 00:00:00 | 08:30:00 | |
| PG1ADW-2 | 2026-08-31 12:58:27 | 45.86106 | 9.87174 | 34° | 18km/h | 32724m | 5.1m/s | -36.9°C | 2.0% | 0hPa | 2.6V | 00:00:00 | 02:23:50 | 00:00:00 | |
| IW2NTF | 2026-08-31 12:58:24 | 45.86069 | 9.87126 | 49° | 16km/h | 32682m | 5.6m/s | -37.3°C | 2% | 0hPa | 2.6V | 08:30:00 | 02:23:42 | 00:00:00 | |
| IN3HCDX | 2026-08-31 12:58:24 | 45.86090 | 9.87159 | 38° | 27km/h | 32708m | 5.3m/s | -37.1°C | 0.6% | 0hPa | 2.6V | 00:00:00 | 00:00:00 | 00:00:00 | |
| S52SK | 2026-08-31 12:58:17 | 45.86067 | 9.87123 | 42° | 11km/h | 32677m | 6.2m/s | -37.4°C | 0.5% | 0hPa | 2.6V | 00:00:00 | 00:00:00 | 00:00:00 | |
| OE5DRO-10 | 2026-08-31 12:58:14 | 45.86064 | 9.87116 | 94° | 26km/h | 32657m | 5.3m/s | -37.7°C | 2.1% | 0hPa | 2.6V | 00:00:00 | 00:00:00 | 00:00:00 | |
| IW2NTF | 2026-08-31 12:58:12 | 45.86045 | 9.87057 | 23° | 29km/h | 32619m | 5.7m/s | -37.9°C | 2.1% | 0hPa | 2.6V | 08:30:00 | 02:23:30 | 00:00:00 | |
| S52SK | 2026-08-31 12:58:11 | 45.86064 | 9.87102 | 86° | 26km/h | 32646m | 5.5m/s | -37.7°C | 0.6% | 0hPa | 2.6V | 00:00:00 | 00:00:00 | 00:00:00 | |
| PG1ADW-2 | 2026-08-31 12:58:07 | 45.86045 | 9.87057 | 24° | 26km/h | 32620m | 5.6m/s | -37.9°C | 2.1% | 0hPa | 2.6V | 00:00:00 | 00:00:00 | 00:00:00 | |
| IN3HCDX1 | 2026-08-31 12:58:04 | 45.86023 | 9.87048 | 21° | 29km/h | 32605m | 5.3m/s | 0°C | 0% | 0hPa | 2.6V | 00:00:00 | 00:00:00 | 00:00:00 | |
| IN3HCDX | 2026-08-31 12:58:02 | 45.86017 | 9.87043 | 33° | 27km/h | 32600m | 5.7m/s | -38.2°C | 0.6% | 0hPa | 2.6V | 00:00:00 | 00:00:00 | 00:00:00 | |
| IW2NTF | 2026-08-31 12:58:01 | 45.85994 | 9.86999 | 22° | 13km/h | 32564m | 5.4m/s | -38.7°C | 2.1% | 0hPa | 2.6V | 08:30:00 | 02:23:19 | 00:00:00 | |
| OE5DRO-10 | 2026-08-31 12:57:55 | 45.85990 | 9.86997 | 7° | 35km/h | 32559m | 4.7m/s | -38.7°C | 2.2% | 0hPa | 2.6V | 00:00:00 | 00:00:00 | 00:00:00 | |
| IW2NTF | 2026-08-31 12:57:51 | 45.85909 | 9.86965 | 7° | 44km/h | 32512m | 4.3m/s | -39.1°C | 2.3% | 0hPa | 2.6V | 08:30:00 | 02:23:09 | 00:00:00 | |
| PG1ADW-2 | 2026-08-31 12:57:42 | 45.85875 | 9.86953 | 24° | 31km/h | 32492m | 5.1m/s | -38.8°C | 2.3% | 0hPa | 2.6V | 00:00:00 | 00:00:00 | 00:00:00 | |
| IN3HCDX | 2026-08-31 12:57:41 | 45.85875 | 9.86953 | 24° | 27km/h | 32492m | 5.1m/s | -38.9°C | 0.6% | 0hPa | 2.6V | 00:00:00 | 00:00:00 | 00:00:00 | |
| IW2NTF | 2026-08-31 12:57:36 | 45.85786 | 9.86932 | 26° | 40km/h | 32441m | 4.5m/s | -39.2°C | 2.3% | 0hPa | 2.6V | 08:30:00 | 02:22:55 | 00:00:00 | |
| OE5DRO-10 | 2026-08-31 12:57:36 | 45.85827 | 9.86946 | 360° | 35km/h | 32463m | 3.7m/s | -38.9°C | 2.2% | 0hPa | 2.7V | 00:00:00 | 00:00:00 | 00:00:00 | |
| IW2NTF | 2026-08-31 12:57:26 | 45.85696 | 9.86923 | 30° | 35km/h | 32387m | 4.9m/s | -38.7°C | 2.2% | 0hPa | 2.6V | 08:30:00 | 02:22:44 | 00:00:00 | |
| IN3HCDX | 2026-08-31 12:57:20 | 45.85696 | 9.86923 | 31° | 35km/h | 32387m | 4.9m/s | -38.7°C | 0.6% | 0hPa | 2.7V | 00:00:00 | 00:00:00 | 00:00:00 | |
| IW2NTF | 2026-08-31 12:57:16 | 45.85632 | 9.86907 | 12° | 29km/h | 32335m | 4.7m/s | -39°C | 2.3% | 0hPa | 2.7V | 08:30:00 | 02:22:34 | 00:00:00 | |
| PG1ADW-2 | 2026-08-31 12:57:13 | 45.85646 | 9.86909 | 357° | 20km/h | 32347m | 6.0m/s | -39.0°C | 2.3% | 0hPa | 2.6V | 00:00:00 | 00:00:00 | 00:00:00 | |
| OE5DXL-15 | 2026-08-31 12:57:12 | 45.85639 | 9.86909 | 7° | 18km/h | 32341m | 5.5m/s | -39.0°C | 2.3% | 0hPa | 2.6V | 00:00:00 | 00:00:00 | 00:00:00 | |
| S52SK | 2026-08-31 12:57:07 | 45.85613 | 9.86901 | 3° | 20km/h | 32323m | 5.3m/s | -38.9°C | 0.6% | 0hPa | 2.6V | 00:00:00 | 00:00:00 | 00:00:00 | |
| IW2NTF | 2026-08-31 12:57:06 | 45.85590 | 9.86916 | 11° | 18km/h | 32283m | 5.4m/s | -38.9°C | 2.3% | 0hPa | 2.6V | 08:30:00 | 02:22:24 | 00:00:00 | |
| BAUMI2-15 | 2026-08-31 12:57:01 | 45.85590 | 9.86916 | 12° | 22km/h | 32284m | 5.4m/s | -38.9°C | 2.3% | 0hPa | 2.6V | 00:00:00 | 02:22:24 | 00:00:00 | |
| IN3HCDX | 2026-08-31 12:56:59 | 45.85585 | 9.86914 | 14° | 22km/h | 32279m | 5.0m/s | -39.0°C | 0.6% | 0hPa | 2.7V | 00:00:00 | 00:00:00 | 00:00:00 | |
| OE5DRO-10 | 2026-08-31 12:56:58 | 45.85573 | 9.86913 | 356° | 18km/h | 32269m | 5.7m/s | -39.1°C | 2.3% | 0hPa | 2.7V | 00:00:00 | 00:00:00 | 00:00:00 | |
| BAUMI2-15 | 2026-08-31 12:56:56 | 45.85562 | 9.86918 | 327° | 16km/h | 32257m | 4.9m/s | -39.2°C | 2.4% | 0hPa | 2.7V | 00:00:00 | 02:22:19 | 00:00:00 | |
| IW2NTF | 2026-08-31 12:56:55 | 45.85546 | 9.86937 | 354° | 7km/h | 32230m | 5.5m/s | -39°C | 2.4% | 0hPa | 2.7V | 08:30:00 | 02:22:14 | 00:00:00 | |
| S52SK | 2026-08-31 12:56:54 | 45.85558 | 9.86923 | 320° | 22km/h | 32252m | 4.3m/s | -39.1°C | 0.7% | 0hPa | 2.6V | 00:00:00 | 00:00:00 | 00:00:00 | |
| PG1ADW-2 | 2026-08-31 12:56:53 | 45.85551 | 9.86933 | 319° | 15km/h | 32243m | 6.0m/s | -39.0°C | 2.4% | 0hPa | 2.6V | 00:00:00 | 02:22:16 | 00:00:00 | |
| BAUMI2-15 | 2026-08-31 12:56:50 | 45.85544 | 9.86937 | 9° | 9km/h | 32226m | 4.5m/s | -39.0°C | 2.4% | 0hPa | 2.6V | 00:00:00 | 02:22:13 | 00:00:00 | |
| IW2NTF | 2026-08-31 12:56:45 | 45.85519 | 9.86976 | 340° | 20km/h | 32177m | 5.6m/s | -39°C | 2.3% | 0hPa | 2.6V | 08:30:00 | 02:22:04 | 00:00:00 | |
| BAUMI2-15 | 2026-08-31 12:56:45 | 45.85535 | 9.86953 | 299° | 18km/h | 32199m | 4.8m/s | -39.2°C | 2.4% | 0hPa | 2.7V | 00:00:00 | 02:22:08 | 00:00:00 | |
| OE5DXL-15 | 2026-08-31 12:56:42 | 45.85523 | 9.86973 | 327° | 15km/h | 32184m | 6.2m/s | -39.1°C | 2.3% | 0hPa | 2.7V | 00:00:00 | 00:00:00 | 00:00:00 | |
| OE5DRO-10 | 2026-08-31 12:56:39 | 45.85510 | 9.86979 | 347° | 15km/h | 32167m | 4.7m/s | -38.9°C | 2.3% | 0hPa | 2.7V | 00:00:00 | 00:00:00 | 00:00:00 | |
| BAUMI2-15 | 2026-08-31 12:56:38 | 45.85508 | 9.86981 | 325° | 15km/h | 32162m | 5.8m/s | -39.0°C | 2.3% | 0hPa | 2.6V | 00:00:00 | 02:22:01 | 00:00:00 | |
| IW2NTF | 2026-08-31 12:56:35 | 45.85494 | 9.87009 | 355° | 22km/h | 32123m | 5.9m/s | -38.9°C | 2.2% | 0hPa | 2.6V | 08:30:00 | 02:21:54 | 00:00:00 | |
| PG1ADW-2 | 2026-08-31 12:56:33 | 45.85502 | 9.87004 | 314° | 13km/h | 32135m | 5.8m/s | -38.9°C | 2.2% | 0hPa | 2.7V | 00:00:00 | 00:00:00 | 00:00:00 | |
| BAUMI2-15 | 2026-08-31 12:56:31 | 45.85494 | 9.87008 | 356° | 20km/h | 32123m | 5.9m/s | -38.9°C | 2.2% | 0hPa | 2.7V | 00:00:00 | 02:21:54 | 00:00:00 | |
| S52SK | 2026-08-31 12:56:30 | 45.85494 | 9.87009 | 357° | 22km/h | 32123m | 5.9m/s | -38.9°C | 0.6% | 0hPa | 2.7V | 00:00:00 | 00:00:00 | 00:00:00 | |
| BAUMI2-15 | 2026-08-31 12:56:26 | 45.85471 | 9.87011 | 311° | 11km/h | 32097m | 5.9m/s | -39.0°C | 2.3% | 0hPa | 2.7V | 00:00:00 | 02:21:49 | 08:30:00 | |
| IW2NTF | 2026-08-31 12:56:25 | 45.85465 | 9.87025 | 9° | 11km/h | 32069m | 6m/s | -39°C | 2.2% | 0hPa | 2.7V | 08:30:00 | 02:21:44 | 00:00:00 | |
| S52SK | 2026-08-31 12:56:24 | 45.85469 | 9.87015 | 286° | 11km/h | 32091m | 5.3m/s | -39.0°C | 0.6% | 0hPa | 2.6V | 00:00:00 | 00:00:00 | 00:00:00 | |
| BAUMI2-15 | 2026-08-31 12:56:21 | 45.85465 | 9.87025 | 10° | 15km/h | 32069m | 6.0m/s | -38.9°C | 2.2% | 0hPa | 2.6V | 00:00:00 | 02:21:44 | 00:00:00 | |
| OE5DRO-10 | 2026-08-31 12:56:20 | 45.85462 | 9.87023 | 25° | 15km/h | 32063m | 5.2m/s | -38.9°C | 2.2% | 0hPa | 2.6V | 00:00:00 | 00:00:00 | 00:00:00 | |
| S52SK | 2026-08-31 12:56:19 | 45.85462 | 9.87023 | 25° | 15km/h | 32063m | 5.3m/s | -39.0°C | 0.6% | 0hPa | 2.6V | 00:00:00 | 00:00:00 | 00:00:00 | |
| IN3HCDX | 2026-08-31 12:56:18 | 45.85458 | 9.87020 | 32° | 16km/h | 32058m | 5.1m/s | -38.8°C | 0.6% | 0hPa | 2.6V | 00:00:00 | 00:00:00 | 00:00:00 | |
| BAUMI2-15 | 2026-08-31 12:56:16 | 45.85449 | 9.87012 | 43° | 9km/h | 32041m | 6.1m/s | -38.9°C | 2.2% | 0hPa | 2.6V | 00:00:00 | 02:21:39 | 00:00:00 | |
| IW2NTF | 2026-08-31 12:56:15 | 45.85439 | 9.87000 | 32° | 18km/h | 32012m | 6.3m/s | -39.2°C | 2.2% | 0hPa | 2.6V | 08:30:00 | 02:21:34 | 00:00:00 | |
| OE5DXL-15 | 2026-08-31 12:56:12 | 45.85442 | 9.87003 | 35° | 24km/h | 32019m | 6.6m/s | -39.1°C | 2.2% | 0hPa | 2.6V | 00:00:00 | 00:00:00 | 00:00:00 | |
| BAUMI2-15 | 2026-08-31 12:56:11 | 45.85439 | 9.87000 | 33° | 18km/h | 32012m | 6.2m/s | -39.1°C | 2.2% | 0hPa | 2.6V | 00:00:00 | 02:21:34 | 00:00:00 | |
| BAUMI2-15 | 2026-08-31 12:56:06 | 45.85418 | 9.86990 | 1° | 15km/h | 31984m | 5.6m/s | -39.2°C | 2.2% | 0hPa | 2.6V | 00:00:00 | 02:21:29 | 00:00:00 | |
| IW2NTF | 2026-08-31 12:56:05 | 45.85400 | 9.86978 | 38° | 29km/h | 31956m | 6.6m/s | -39.5°C | 2.2% | 0hPa | 2.6V | 08:30:00 | 02:21:24 | 00:00:00 | |
| BAUMI2-15 | 2026-08-31 12:56:02 | 45.85400 | 9.86978 | 39° | 29km/h | 31956m | 6.6m/s | -39.4°C | 2.2% | 0hPa | 2.7V | 00:00:00 | 02:21:24 | 00:00:00 | |
| IN3HCDX | 2026-08-31 12:55:57 | 45.85381 | 9.86957 | 34° | 29km/h | 31940m | 5.4m/s | -39.8°C | 0.7% | 0hPa | 2.7V | 00:00:00 | 00:00:00 | 00:00:00 | |
| BAUMI2-15 | 2026-08-31 12:55:56 | 45.85370 | 9.86950 | 5° | 22km/h | 31928m | 6.1m/s | -39.7°C | 2.3% | 0hPa | 2.7V | 00:00:00 | 02:21:19 | 00:00:00 | |
| IW2NTF | 2026-08-31 12:55:55 | 45.85342 | 9.86959 | 1° | 31km/h | 31898m | 6m/s | -39.8°C | 2.3% | 0hPa | 2.7V | 08:30:00 | 02:21:14 | 00:00:00 | |
| BAUMI2-15 | 2026-08-31 12:55:51 | 45.85342 | 9.86959 | 2° | 33km/h | 31899m | 5.9m/s | -39.8°C | 2.3% | 0hPa | 2.6V | 00:00:00 | 02:21:14 | 00:00:00 | |
| PG1ADW-2 | 2026-08-31 12:55:49 | 45.85325 | 9.86954 | 21° | 33km/h | 31887m | 5.4m/s | -39.9°C | 2.3% | 0hPa | 2.6V | 00:00:00 | 00:00:00 | 08:30:00 | |
| BAUMI2-15 | 2026-08-31 12:55:46 | 45.85305 | 9.86938 | 35° | 26km/h | 31869m | 6.1m/s | -39.8°C | 2.3% | 0hPa | 2.6V | 00:00:00 | 02:21:09 | 00:00:00 | |
| IW2NTF | 2026-08-31 12:55:45 | 45.85273 | 9.86921 | 359° | 33km/h | 31839m | 5.5m/s | -39.8°C | 2.3% | 0hPa | 2.6V | 08:30:00 | 02:21:04 | 00:00:00 | |
| OE5DXL-15 | 2026-08-31 12:55:42 | 45.85281 | 9.86922 | 12° | 35km/h | 31845m | 5.7m/s | -39.7°C | 2.3% | 0hPa | 2.6V | 00:00:00 | 00:00:00 | 00:00:00 | |
| BAUMI2-15 | 2026-08-31 12:55:41 | 45.85273 | 9.86921 | 360° | 37km/h | 31839m | 5.5m/s | -39.8°C | 2.3% | 0hPa | 2.6V | 00:00:00 | 02:21:04 | 00:00:00 | |
| S52SK | 2026-08-31 12:55:40 | 45.85273 | 9.86921 | 360° | 33km/h | 31839m | 5.5m/s | -39.8°C | 0.7% | 0hPa | 2.6V | 00:00:00 | 00:00:00 | 00:00:00 | |
| BAUMI2-15 | 2026-08-31 12:55:36 | 45.85230 | 9.86942 | 343° | 35km/h | 31810m | 4.2m/s | -40.0°C | 2.4% | 0hPa | 2.6V | 00:00:00 | 02:20:59 | 00:00:00 | |
| IW2NTF | 2026-08-31 12:55:35 | 45.85191 | 9.86923 | 48° | 35km/h | 31780m | 5m/s | -40.2°C | 2.4% | 0hPa | 2.6V | 08:30:00 | 02:20:54 | 00:00:00 | |
| BAUMI2-15 | 2026-08-31 12:55:31 | 45.85191 | 9.86923 | 49° | 22km/h | 31780m | 5.0m/s | -40.2°C | 2.4% | 0hPa | 2.7V | 00:00:00 | 02:20:54 | 00:00:00 | |
| PG1ADW-2 | 2026-08-31 12:55:29 | 45.85182 | 9.86908 | 43° | 22km/h | 31769m | 5.8m/s | -40.0°C | 2.4% | 0hPa | 2.7V | 00:00:00 | 02:20:52 | 00:00:00 | |
| BAUMI2-15 | 2026-08-31 12:55:26 | 45.85171 | 9.86911 | 324° | 35km/h | 31752m | 5.9m/s | -40.3°C | 2.4% | 0hPa | 2.7V | 00:00:00 | 02:20:49 | 00:00:00 | |
| IW2NTF | 2026-08-31 12:55:25 | 45.85130 | 9.86934 | 354° | 35km/h | 31722m | 4.9m/s | -40.5°C | 2.4% | 0hPa | 2.7V | 08:30:00 | 02:20:44 | 00:00:00 | |
| OE5DRO-10 | 2026-08-31 12:55:23 | 45.85149 | 9.86928 | 341° | 22km/h | 31733m | 5.5m/s | -40.2°C | 2.4% | 0hPa | 2.6V | 00:00:00 | 00:00:00 | 00:00:00 | |
| BAUMI2-15 | 2026-08-31 12:55:21 | 45.85130 | 9.86934 | 355° | 22km/h | 31723m | 4.8m/s | -40.4°C | 2.4% | 0hPa | 2.6V | 00:00:00 | 02:20:44 | 00:00:00 | |
| BAUMI2-15 | 2026-08-31 12:55:16 | 45.85106 | 9.86935 | 353° | 16km/h | 31693m | 5.2m/s | -40.2°C | 2.4% | 0hPa | 2.6V | 00:00:00 | 02:20:39 | 00:00:00 | |
| IN3HCDX | 2026-08-31 12:55:15 | 45.85106 | 9.86935 | 354° | 9km/h | 31693m | 5.2m/s | -40.2°C | 0.7% | 0hPa | 2.6V | 00:00:00 | 00:00:00 | 00:00:00 | |
| BAUMI2-15 | 2026-08-31 12:55:11 | 45.85084 | 9.86937 | 352° | 20km/h | 31667m | 4.1m/s | -40.2°C | 2.3% | 0hPa | 2.6V | 00:00:00 | 02:20:34 | 00:00:00 | |
| PG1ADW-2 | 2026-08-31 12:55:09 | 45.85074 | 9.86942 | 329° | 20km/h | 31656m | 6.6m/s | -40.3°C | 2.4% | 0hPa | 2.7V | 00:00:00 | 00:00:00 | 00:00:00 | |
| IW2NTF | 2026-08-31 12:55:05 | 45.85046 | 9.86977 | 358° | 24km/h | 31614m | 5m/s | -40.5°C | 2.4% | 0hPa | 2.7V | 08:30:00 | 02:20:25 | 00:00:00 | |
| IW2NTF | 2026-08-31 12:54:55 | 45.85017 | 9.86998 | 303° | 35km/h | 31556m | 5.2m/s | -40.7°C | 2.4% | 0hPa | 2.7V | 08:30:00 | 02:20:15 | 00:00:00 | |
| IN3HCDX | 2026-08-31 12:54:54 | 45.85028 | 9.86973 | 300° | 16km/h | 31576m | 6.6m/s | -40.9°C | 0.7% | 0hPa | 2.6V | 00:00:00 | 00:00:00 | 00:00:00 | |
| PG1ADW-2 | 2026-08-31 12:54:49 | 45.85006 | 9.87025 | 297° | 15km/h | 31540m | 5.5m/s | -40.7°C | 2.4% | 0hPa | 2.6V | 00:00:00 | 00:00:00 | 00:00:00 | |
| IW2NTF | 2026-08-31 12:54:45 | 45.84997 | 9.87036 | 254° | 7km/h | 31500m | 6.1m/s | -40.9°C | 2.4% | 0hPa | 2.6V | 08:30:00 | 02:20:05 | 00:00:00 | |
| OE5DRO-10 | 2026-08-31 12:54:45 | 45.85000 | 9.87033 | 9° | 16km/h | 31516m | 5.7m/s | -40.8°C | 2.5% | 0hPa | 2.7V | 00:00:00 | 00:00:00 | 00:00:00 | |
| S52SK | 2026-08-31 12:54:44 | 45.85000 | 9.87033 | 9° | 7km/h | 31516m | 5.8m/s | -40.9°C | 0.7% | 0hPa | 2.7V | 00:00:00 | 00:00:00 | 00:00:00 | |
| IW2NTF | 2026-08-31 12:54:35 | 45.84989 | 9.87099 | 303° | 2km/h | 31442m | 6.9m/s | -41°C | 2.5% | 0hPa | 2.7V | 08:30:00 | 02:19:55 | 00:00:00 | |
| IN3HCDX | 2026-08-31 12:54:33 | 45.84993 | 9.87094 | 316° | 20km/h | 31454m | 4.3m/s | -40.8°C | 0.7% | 0hPa | 2.7V | 00:00:00 | 00:00:00 | 00:00:00 | |
| PG1ADW-2 | 2026-08-31 12:54:29 | 45.84998 | 9.87095 | 167° | 15km/h | 31425m | 4.7m/s | -40.7°C | 2.4% | 0hPa | 2.7V | 00:00:00 | 00:00:00 | 00:00:00 | |
| OE5DRO-10 | 2026-08-31 12:54:26 | 45.85010 | 9.87098 | 237° | 15km/h | 31408m | 5.9m/s | -40.7°C | 2.5% | 0hPa | 2.7V | 00:00:00 | 00:00:00 | 00:00:00 | |
| IW2NTF | 2026-08-31 12:54:25 | 45.85013 | 9.87128 | 263° | 22km/h | 31384m | 5.9m/s | -40.6°C | 2.4% | 0hPa | 2.7V | 08:30:00 | 02:19:45 | 00:00:00 | |
| IW2NTF | 2026-08-31 12:54:15 | 45.85034 | 9.87135 | 178° | 20km/h | 31328m | 6m/s | -40.6°C | 2.5% | 0hPa | 2.6V | 08:30:00 | 02:19:35 | 00:00:00 | |
| IN3HCDX | 2026-08-31 12:54:12 | 45.85029 | 9.87136 | 174° | 16km/h | 31334m | 6.6m/s | -40.8°C | 0.7% | 0hPa | 2.7V | 00:00:00 | 00:00:00 | 00:00:00 | |
| PG1ADW-2 | 2026-08-31 12:54:09 | 45.85046 | 9.87139 | 218° | 9km/h | 31312m | 6.0m/s | -40.5°C | 2.5% | 0hPa | 2.7V | 00:00:00 | 02:19:32 | 00:00:00 | |
| S52SK | 2026-08-31 12:54:08 | 45.85046 | 9.87139 | 218° | 13km/h | 31312m | 6.0m/s | -40.5°C | 0.7% | 0hPa | 2.7V | 00:00:00 | 00:00:00 | 00:00:00 | |
| OE5DRO-10 | 2026-08-31 12:54:07 | 45.85048 | 9.87145 | 292° | 9km/h | 31300m | 5.3m/s | -40.4°C | 2.4% | 0hPa | 2.7V | 00:00:00 | 00:00:00 | 00:00:00 | |
| IW2NTF | 2026-08-31 12:54:06 | 45.85051 | 9.87141 | 144° | 18km/h | 31272m | 5m/s | -40.6°C | 2.4% | 0hPa | 2.7V | 08:30:00 | 02:19:25 | 00:00:00 | |
| S52SK | 2026-08-31 12:54:03 | 45.85047 | 9.87147 | 132° | 5km/h | 31284m | 6.4m/s | -40.5°C | 0.7% | 0hPa | 2.7V | 00:00:00 | 00:00:00 | 00:00:00 | |
| IW2NTF | 2026-08-31 12:53:56 | 45.85070 | 9.87139 | 216° | 9km/h | 31215m | 4.5m/s | -40.9°C | 2.5% | 0hPa | 2.7V | 08:30:00 | 02:19:15 | 00:00:00 | |
| IN3HCDX | 2026-08-31 12:53:51 | 45.85070 | 9.87139 | 217° | 9km/h | 31215m | 4.5m/s | -40.9°C | 0.7% | 0hPa | 2.6V | 00:00:00 | 00:00:00 | 00:00:00 | |
| PG1ADW-2 | 2026-08-31 12:53:49 | 45.85071 | 9.87142 | 354° | 7km/h | 31199m | 6.3m/s | -40.9°C | 2.5% | 0hPa | 2.6V | 00:00:00 | 00:00:00 | 00:00:00 | |
| OE5DRO-10 | 2026-08-31 12:53:48 | 45.85070 | 9.87142 | 16° | 7km/h | 31194m | 5.2m/s | -40.8°C | 2.5% | 0hPa | 2.6V | 00:00:00 | 00:00:00 | 00:00:00 | |
| IW2NTF | 2026-08-31 12:53:45 | 45.85069 | 9.87127 | 126° | 11km/h | 31161m | 4.6m/s | -40.6°C | 2.5% | 0hPa | 2.6V | 08:30:00 | 02:19:05 | 00:00:00 | |
| S52SK | 2026-08-31 12:53:36 | 45.85067 | 9.87123 | 334° | 5km/h | 31133m | 5.4m/s | -40.7°C | 0.7% | 0hPa | 2.7V | 00:00:00 | 00:00:00 | 00:00:00 | |
| IW2NTF | 2026-08-31 12:53:35 | 45.85069 | 9.87119 | 103° | 9km/h | 31107m | 5.5m/s | -40.5°C | 2.5% | 0hPa | 2.7V | 08:30:00 | 02:18:55 | 00:00:00 | |
| IN3HCDX | 2026-08-31 12:53:31 | 45.85069 | 9.87116 | 83° | 11km/h | 31101m | 6.3m/s | -40.6°C | 0.7% | 0hPa | 2.7V | 00:00:00 | 00:00:00 | 00:00:00 | |
| PG1ADW-2 | 2026-08-31 12:53:29 | 45.85067 | 9.87107 | 69° | 18km/h | 31090m | 4.6m/s | -40.6°C | 2.5% | 0hPa | 2.7V | 00:00:00 | 00:00:00 | 00:00:00 | |
| IW2NTF | 2026-08-31 12:53:25 | 45.85082 | 9.87078 | 131° | 13km/h | 31054m | 5.5m/s | -40.6°C | 2.5% | 0hPa | 2.7V | 08:30:00 | 02:18:45 | 00:00:00 | |
| IW2NTF | 2026-08-31 12:53:15 | 45.85085 | 9.87016 | 128° | 18km/h | 31002m | 4.8m/s | -40.6°C | 2.4% | 0hPa | 2.6V | 08:30:00 | 02:18:35 | 00:00:00 | |
| OE5DRO-10 | 2026-08-31 12:53:10 | 45.85088 | 9.87006 | 92° | 18km/h | 30992m | 5.2m/s | -40.7°C | 2.4% | 0hPa | 2.7V | 00:00:00 | 00:00:00 | 00:00:00 | |
| PG1ADW-2 | 2026-08-31 12:53:09 | 45.85087 | 9.87000 | 74° | 18km/h | 30987m | 5.1m/s | -40.8°C | 2.4% | 0hPa | 2.7V | 00:00:00 | 00:00:00 | 00:00:00 | |
| BAUMI2-15 | 2026-08-31 12:53:06 | 45.85083 | 9.86977 | 87° | 18km/h | 30973m | 4.7m/s | -40.7°C | 2.4% | 0hPa | 2.7V | 00:00:00 | 02:18:29 | 00:00:00 | |
| IW2NTF | 2026-08-31 12:53:05 | 45.85092 | 9.86957 | 161° | 13km/h | 30951m | 4.7m/s | -40.7°C | 2.4% | 0hPa | 2.7V | 08:30:00 | 02:18:25 | 00:00:00 | |
| S52SK | 2026-08-31 12:53:04 | 45.85084 | 9.86970 | 103° | 20km/h | 30968m | 5.5m/s | -40.7°C | 0.7% | 0hPa | 2.7V | 00:00:00 | 00:00:00 | 00:00:00 | |
| BAUMI2-15 | 2026-08-31 12:53:02 | 45.85094 | 9.86956 | 173° | 11km/h | 30947m | 4.6m/s | -40.7°C | 2.4% | 0hPa | 2.7V | 00:00:00 | 02:18:24 | 00:00:00 | |
| S52SK | 2026-08-31 12:52:59 | 45.85095 | 9.86954 | 50° | 7km/h | 30938m | 4.6m/s | -40.8°C | 0.7% | 0hPa | 2.7V | 00:00:00 | 00:00:00 | 00:00:00 | |
| BAUMI2-15 | 2026-08-31 12:52:56 | 45.85089 | 9.86938 | 73° | 24km/h | 30922m | 5.7m/s | -40.7°C | 2.5% | 0hPa | 2.7V | 00:00:00 | 02:18:19 | 00:00:00 | |
| IW2NTF | 2026-08-31 12:52:55 | 45.85091 | 9.86903 | 118° | 20km/h | 30902m | 5.5m/s | -40.5°C | 2.4% | 0hPa | 2.7V | 08:30:00 | 02:18:15 | 00:00:00 | |
| S52SK | 2026-08-31 12:52:53 | 45.85088 | 9.86919 | 97° | 27km/h | 30912m | 4.2m/s | -40.5°C | 0.7% | 0hPa | 2.6V | 00:00:00 | 00:00:00 | 00:00:00 | |
| IN3HCDX | 2026-08-31 12:52:51 | 45.85095 | 9.86895 | 144° | 9km/h | 30891m | 5.5m/s | -40.6°C | 0.7% | 0hPa | 2.6V | 00:00:00 | 00:00:00 | 00:00:00 | |
| PG1ADW-2 | 2026-08-31 12:52:50 | 45.85097 | 9.86893 | 143° | 18km/h | 30886m | 4.9m/s | -40.5°C | 2.4% | 0hPa | 2.6V | 00:00:00 | 02:18:12 | 08:30:00 | |
| BAUMI2-15 | 2026-08-31 12:52:46 | 45.85101 | 9.86886 | 122° | 22km/h | 30871m | 5.7m/s | -40.5°C | 2.4% | 0hPa | 2.6V | 00:00:00 | 02:18:09 | 00:00:00 | |
| IW2NTF | 2026-08-31 12:52:45 | 45.85112 | 9.86856 | 109° | 24km/h | 30851m | 5.3m/s | -40.9°C | 2.4% | 0hPa | 2.6V | 08:30:00 | 02:18:05 | 00:00:00 | |
| BAUMI2-15 | 2026-08-31 12:52:41 | 45.85114 | 9.86848 | 103° | 16km/h | 30846m | 5.8m/s | 0°C | 0% | 0hPa | 2.7V | 00:00:00 | 02:18:04 | 00:00:00 | |
| BAUMI2-15 | 2026-08-31 12:52:36 | 45.85118 | 9.86818 | 118° | 18km/h | 30819m | 5.9m/s | 0°C | 0% | 0hPa | 2.7V | 00:00:00 | 02:17:59 | 00:00:00 | |
| IW2NTF | 2026-08-31 12:52:35 | 45.85129 | 9.86792 | 112° | 18km/h | 30797m | 6.1m/s | -40.6°C | 2.4% | 0hPa | 2.7V | 08:30:00 | 02:17:55 | 00:00:00 | |
| OE5DRO-10 | 2026-08-31 12:52:32 | 45.85129 | 9.86792 | 113° | 18km/h | 30798m | 6.1m/s | -40.6°C | 2.4% | 0hPa | 2.6V | 00:00:00 | 00:00:00 | 00:00:00 | |
| BAUMI2-15 | 2026-08-31 12:52:30 | 45.85130 | 9.86781 | 87° | 20km/h | 30787m | 4.6m/s | 0°C | 0% | 0hPa | 2.6V | 00:00:00 | 02:17:53 | 00:00:00 | |
| PG1ADW-2 | 2026-08-31 12:52:29 | 45.85130 | 9.86775 | 85° | 18km/h | 30782m | 4.6m/s | -40.5°C | 2.4% | 0hPa | 2.6V | 00:00:00 | 00:00:00 | 00:00:00 | |
| IN3HCDX | 2026-08-31 12:52:28 | 45.85130 | 9.86775 | 86° | 18km/h | 30782m | 4.6m/s | -40.6°C | 0.7% | 0hPa | 2.6V | 00:00:00 | 00:00:00 | 00:00:00 | |
| BAUMI2-15 | 2026-08-31 12:52:25 | 45.85130 | 9.86742 | 88° | 20km/h | 30761m | 4.3m/s | 0°C | 0% | 0hPa | 2.6V | 00:00:00 | 02:17:48 | 00:00:00 | |
| S52SK | 2026-08-31 12:52:24 | 45.85130 | 9.86742 | 89° | 26km/h | 30761m | 4.3m/s | -40.5°C | 0.7% | 0hPa | 2.6V | 00:00:00 | 00:00:00 | 00:00:00 | |
| IW2NTF | 2026-08-31 12:52:23 | 45.85125 | 9.86705 | 127° | 15km/h | 30724m | 5.9m/s | -40.7°C | 2.4% | 0hPa | 2.6V | 08:30:00 | 02:17:41 | 00:00:00 | |
| BAUMI2-15 | 2026-08-31 12:52:20 | 45.85123 | 9.86712 | 75° | 15km/h | 30736m | 4.5m/s | 0°C | 0% | 0hPa | 2.7V | 00:00:00 | 02:17:43 | 00:00:00 | |
| S52SK | 2026-08-31 12:52:18 | 45.85123 | 9.86709 | 108° | 9km/h | 30731m | 6.2m/s | -40.6°C | 0.7% | 0hPa | 2.7V | 00:00:00 | 00:00:00 | 00:00:00 | |
| BAUMI2-15 | 2026-08-31 12:52:15 | 45.85132 | 9.86690 | 116° | 16km/h | 30710m | 4.6m/s | 0°C | 0% | 0hPa | 2.7V | 00:00:00 | 02:17:38 | 00:00:00 | |
| IW2NTF | 2026-08-31 12:52:13 | 45.85122 | 9.86645 | 83° | 22km/h | 30673m | 5.4m/s | -41.3°C | 2.4% | 0hPa | 2.7V | 08:30:00 | 02:17:31 | 00:00:00 | |
| OE5DRO-10 | 2026-08-31 12:52:13 | 45.85133 | 9.86678 | 74° | 15km/h | 30699m | 5.7m/s | -40.9°C | 2.4% | 0hPa | 2.6V | 00:00:00 | 00:00:00 | 00:00:00 | |
| BAUMI2-15 | 2026-08-31 12:52:10 | 45.85125 | 9.86660 | 60° | 20km/h | 30684m | 4.6m/s | 0°C | 0% | 0hPa | 2.6V | 00:00:00 | 02:17:33 | 00:00:00 | |
| PG1ADW-2 | 2026-08-31 12:52:09 | 45.85123 | 9.86652 | 70° | 11km/h | 30679m | 6.0m/s | -41.2°C | 2.4% | 0hPa | 2.6V | 00:00:00 | 00:00:00 | 00:00:00 | |
| IN3HCDX | 2026-08-31 12:52:07 | 45.85121 | 9.86645 | 84° | 22km/h | 30673m | 5.4m/s | -41.3°C | 0.7% | 0hPa | 2.6V | 00:00:00 | 00:00:00 | 00:00:00 | |
| BAUMI2-15 | 2026-08-31 12:52:05 | 45.85123 | 9.86627 | 103° | 5km/h | 30658m | 6.1m/s | 0°C | 0% | 0hPa | 2.6V | 00:00:00 | 02:17:28 | 00:00:00 | |
| IW2NTF | 2026-08-31 12:52:03 | 45.85116 | 9.86612 | 55° | 15km/h | 30621m | 4.1m/s | -41.6°C | 2.4% | 0hPa | 2.6V | 08:30:00 | 02:17:21 | 00:00:00 | |
| OE5DXL-15 | 2026-08-31 12:52:01 | 45.85121 | 9.86621 | 38° | 16km/h | 30637m | 5.1m/s | -41.4°C | 2.5% | 0hPa | 2.6V | 00:00:00 | 00:00:00 | 08:30:00 | |
| BAUMI2-15 | 2026-08-31 12:52:00 | 45.85119 | 9.86619 | 55° | 15km/h | 30631m | 6.0m/s | 0°C | 0% | 0hPa | 2.7V | 00:00:00 | 02:17:23 | 00:00:00 | |
| BAUMI2-15 | 2026-08-31 12:51:55 | 45.85105 | 9.86600 | 21° | 15km/h | 30606m | 5.9m/s | 0°C | 0% | 0hPa | 2.7V | 00:00:00 | 02:17:18 | 00:00:00 | |
| OE5DRO-10 | 2026-08-31 12:51:54 | 45.85099 | 9.86598 | 13° | 16km/h | 30600m | 5.1m/s | -41.6°C | 2.5% | 0hPa | 2.7V | 00:00:00 | 00:00:00 | 00:00:00 | |
| IW2NTF | 2026-08-31 12:51:53 | 45.85082 | 9.86586 | 51° | 7km/h | 30569m | 5.4m/s | -41.9°C | 2.5% | 0hPa | 2.7V | 08:30:00 | 02:17:11 | 00:00:00 | |
| S52SK | 2026-08-31 12:51:50 | 45.85086 | 9.86593 | 29° | 11km/h | 30585m | 6.2m/s | -41.6°C | 0.7% | 0hPa | 2.7V | 00:00:00 | 00:00:00 | 00:00:00 | |
| BAUMI2-15 | 2026-08-31 12:51:48 | 45.85082 | 9.86586 | 52° | 13km/h | 30569m | 5.4m/s | 0°C | 0% | 0hPa | 2.7V | 00:00:00 | 02:17:11 | 00:00:00 | |
| PG1ADW-2 | 2026-08-31 12:51:47 | 45.85080 | 9.86584 | 34° | 16km/h | 30564m | 5.7m/s | -41.9°C | 2.5% | 0hPa | 2.7V | 00:00:00 | 00:00:00 | 00:00:00 | |
| IN3HCDX | 2026-08-31 12:51:46 | 45.85080 | 9.86584 | 35° | 11km/h | 30564m | 5.7m/s | -41.9°C | 0.7% | 0hPa | 2.7V | 00:00:00 | 00:00:00 | 00:00:00 | |
| S52SK | 2026-08-31 12:51:45 | 45.85073 | 9.86579 | 22° | 18km/h | 30554m | 4.4m/s | -41.8°C | 0.7% | 0hPa | 2.7V | 00:00:00 | 00:00:00 | 00:00:00 | |
| BAUMI2-15 | 2026-08-31 12:51:43 | 45.85064 | 9.86574 | 24° | 18km/h | 30544m | 5.6m/s | 0°C | 0% | 0hPa | 2.7V | 00:00:00 | 02:17:06 | 00:00:00 | |
| IW2NTF | 2026-08-31 12:51:41 | 45.85031 | 9.86567 | 345° | 24km/h | 30507m | 4.9m/s | -42.6°C | 2.6% | 0hPa | 2.7V | 08:30:00 | 02:16:59 | 00:00:00 | |
| BAUMI2-15 | 2026-08-31 12:51:38 | 45.85041 | 9.86564 | 358° | 15km/h | 30519m | 5.4m/s | 0°C | 0% | 0hPa | 2.6V | 00:00:00 | 02:17:01 | 00:00:00 | |
| OE5DRO-10 | 2026-08-31 12:51:35 | 45.85025 | 9.86569 | 346° | 18km/h | 30503m | 4.1m/s | -42.5°C | 2.6% | 0hPa | 2.6V | 00:00:00 | 00:00:00 | 00:00:00 | |
| IW2NTF | 2026-08-31 12:51:31 | 45.84996 | 9.86540 | 11° | 27km/h | 30456m | 4.7m/s | -42.9°C | 2.6% | 0hPa | 2.6V | 08:30:00 | 02:16:49 | 00:00:00 | |
| OE5DXL-15 | 2026-08-31 12:51:31 | 45.85015 | 9.86564 | 77° | 18km/h | 30481m | 4.7m/s | -42.6°C | 2.6% | 0hPa | 2.6V | 00:00:00 | 00:00:00 | 00:00:00 | |
| PG1ADW-2 | 2026-08-31 12:51:27 | 45.85003 | 9.86543 | 23° | 20km/h | 30461m | 5.3m/s | -42.7°C | 2.6% | 0hPa | 2.6V | 00:00:00 | 02:16:50 | 00:00:00 | |
| IN3HCDX | 2026-08-31 12:51:25 | 45.84996 | 9.86540 | 12° | 27km/h | 30456m | 4.7m/s | 0°C | 0% | 0hPa | 2.6V | 00:00:00 | 00:00:00 | 00:00:00 | |
| IW2NTF | 2026-08-31 12:51:21 | 45.84954 | 9.86529 | 38° | 22km/h | 30404m | 4.9m/s | -43.2°C | 2.6% | 0hPa | 2.6V | 08:30:00 | 02:16:39 | 00:00:00 | |
| BAUMI2-15 | 2026-08-31 12:51:21 | 45.84972 | 9.86539 | 2° | 13km/h | 30430m | 4.6m/s | 0°C | 0% | 0hPa | 2.7V | 00:00:00 | 02:16:44 | 00:00:00 | |
| S52SK | 2026-08-31 12:51:20 | 45.84972 | 9.86539 | 3° | 9km/h | 30430m | 4.7m/s | -43.0°C | 0.8% | 0hPa | 2.7V | 00:00:00 | 00:00:00 | 00:00:00 | |
| BAUMI2-15 | 2026-08-31 12:51:16 | 45.84955 | 9.86529 | 39° | 22km/h | 30404m | 4.9m/s | 0°C | 0% | 0hPa | 2.7V | 00:00:00 | 02:16:39 | 00:00:00 | |
| S52SK | 2026-08-31 12:51:15 | 45.84951 | 9.86524 | 46° | 22km/h | 30399m | 6.4m/s | -43.1°C | 0.8% | 0hPa | 2.7V | 00:00:00 | 00:00:00 | 00:00:00 | |
| IW2NTF | 2026-08-31 12:51:11 | 45.84904 | 9.86512 | 319° | 16km/h | 30353m | 5.8m/s | -43.6°C | 2.7% | 0hPa | 2.7V | 08:30:00 | 02:16:29 | 00:00:00 | |
| BAUMI2-15 | 2026-08-31 12:51:11 | 45.84934 | 9.86504 | 21° | 27km/h | 30378m | 5.7m/s | 0°C | 0% | 0hPa | 2.7V | 00:00:00 | 02:16:34 | 00:00:00 | |
| S52SK | 2026-08-31 12:51:09 | 45.84929 | 9.86502 | 7° | 26km/h | 30372m | 6.3m/s | -43.4°C | 0.8% | 0hPa | 2.7V | 00:00:00 | 00:00:00 | 00:00:00 | |
| PG1ADW-2 | 2026-08-31 12:51:06 | 45.84904 | 9.86512 | 320° | 7km/h | 30354m | 5.8m/s | -43.6°C | 2.7% | 0hPa | 2.7V | 00:00:00 | 00:00:00 | 00:00:00 | |
| IN3HCDX | 2026-08-31 12:51:04 | 45.84902 | 9.86516 | 295° | 11km/h | 30347m | 6.6m/s | 0°C | 0% | 0hPa | 2.7V | 00:00:00 | 00:00:00 | 00:00:00 | |
| IW2NTF | 2026-08-31 12:51:01 | 45.84892 | 9.86497 | 12° | 13km/h | 30300m | 6m/s | -43.6°C | 2.6% | 0hPa | 2.7V | 08:30:00 | 02:16:19 | 00:00:00 | |
| OE5DXL-15 | 2026-08-31 12:51:01 | 45.84906 | 9.86514 | 96° | 11km/h | 30326m | 5.5m/s | -43.7°C | 2.7% | 0hPa | 2.6V | 00:00:00 | 00:00:00 | 00:00:00 | |
| OE5DRO-10 | 2026-08-31 12:50:57 | 45.84896 | 9.86498 | 22° | 9km/h | 30306m | 5.0m/s | -43.6°C | 2.6% | 0hPa | 2.6V | 00:00:00 | 00:00:00 | 00:00:00 | |
| IW2NTF | 2026-08-31 12:50:51 | 45.84886 | 9.86485 | 111° | 9km/h | 30247m | 6.1m/s | -44.1°C | 2.7% | 0hPa | 2.6V | 08:30:00 | 02:16:09 | 00:00:00 | |
| S52SK | 2026-08-31 12:50:42 | 45.84890 | 9.86473 | 91° | 11km/h | 30226m | 6.4m/s | -44.5°C | 0.8% | 0hPa | 2.7V | 00:00:00 | 00:00:00 | 00:00:00 | |
| IW2NTF | 2026-08-31 12:50:41 | 45.84894 | 9.86443 | 129° | 20km/h | 30193m | 4.6m/s | -44.5°C | 2.9% | 0hPa | 2.7V | 08:30:00 | 02:15:59 | 00:00:00 | |
| PG1ADW-2 | 2026-08-31 12:50:41 | 45.84890 | 9.86469 | 79° | 20km/h | 30220m | 5.5m/s | -44.6°C | 2.8% | 0hPa | 2.6V | 00:00:00 | 00:00:00 | 00:00:00 | |
| OE5DRO-10 | 2026-08-31 12:50:38 | 45.84889 | 9.86453 | 110° | 22km/h | 30204m | 6.4m/s | -44.5°C | 2.9% | 0hPa | 2.6V | 00:00:00 | 00:00:00 | 00:00:00 | |
| S52SK | 2026-08-31 12:50:35 | 45.84894 | 9.86443 | 130° | 20km/h | 30193m | 4.6m/s | -44.5°C | 0.8% | 0hPa | 2.6V | 00:00:00 | 00:00:00 | 00:00:00 | |
| IW2NTF | 2026-08-31 12:50:31 | 45.84904 | 9.86375 | 91° | 24km/h | 30138m | 5.7m/s | -44.5°C | 2.8% | 0hPa | 2.6V | 08:30:00 | 02:15:49 | 00:00:00 | |
| OE5DXL-15 | 2026-08-31 12:50:29 | 45.84902 | 9.86396 | 101° | 22km/h | 30154m | 5.6m/s | -44.5°C | 2.8% | 0hPa | 2.6V | 00:00:00 | 00:00:00 | 00:00:00 | |
| IW2NTF | 2026-08-31 12:50:21 | 45.84916 | 9.86295 | 65° | 13km/h | 30084m | 6.5m/s | -44.8°C | 2.9% | 0hPa | 2.6V | 08:30:00 | 02:15:39 | 00:00:00 | |
| PG1ADW-2 | 2026-08-31 12:50:21 | 45.84906 | 9.86322 | 109° | 20km/h | 30112m | 6.3m/s | -44.7°C | 2.9% | 0hPa | 2.7V | 00:00:00 | 00:00:00 | 00:00:00 | |
| OE5DRO-10 | 2026-08-31 12:50:19 | 45.84912 | 9.86307 | 131° | 20km/h | 30101m | 4.8m/s | -44.6°C | 2.9% | 0hPa | 2.7V | 00:00:00 | 00:00:00 | 00:00:00 | |
| IW2NTF | 2026-08-31 12:50:11 | 45.84900 | 9.86207 | 85° | 20km/h | 30022m | 5.3m/s | -44.8°C | 3% | 0hPa | 2.7V | 08:30:00 | 02:15:28 | 00:00:00 | |
| S52SK | 2026-08-31 12:50:06 | 45.84900 | 9.86224 | 89° | 27km/h | 30033m | 6.0m/s | -44.7°C | 0.9% | 0hPa | 2.7V | 00:00:00 | 00:00:00 | 00:00:00 | |
| S52SK | 2026-08-31 12:50:01 | 45.84899 | 9.86192 | 82° | 7km/h | 30005m | 4.7m/s | -44.8°C | 0.9% | 0hPa | 2.7V | 00:00:00 | 00:00:00 | 00:00:00 | |
| IW2NTF | 2026-08-31 12:50:00 | 45.84880 | 9.86150 | 81° | 26km/h | 29967m | 6.5m/s | -44.4°C | 3% | 0hPa | 2.7V | 08:30:00 | 02:15:18 | 00:00:00 | |
| IN3HCDX | 2026-08-31 12:50:00 | 45.84898 | 9.86189 | 58° | 9km/h | 30001m | 4.5m/s | 0°C | 0% | 0hPa | 2.7V | 00:00:00 | 00:00:00 | 00:00:00 | |
| OE5DRO-10 | 2026-08-31 12:50:00 | 45.84896 | 9.86186 | 47° | 20km/h | 29995m | 6.3m/s | -44.8°C | 3.0% | 0hPa | 2.7V | 00:00:00 | 00:00:00 | 08:30:00 | |
| OE5DXL-15 | 2026-08-31 12:49:59 | 45.84893 | 9.86182 | 45° | 20km/h | 29989m | 6.3m/s | -44.8°C | 3.0% | 0hPa | 2.6V | 00:00:00 | 00:00:00 | 00:00:00 | |
| S52SK | 2026-08-31 12:49:55 | 45.84882 | 9.86159 | 69° | 27km/h | 29973m | 5.4m/s | -44.6°C | 0.9% | 0hPa | 2.6V | 00:00:00 | 00:00:00 | 00:00:00 | |
| IW2NTF | 2026-08-31 12:49:50 | 45.84878 | 9.86084 | 89° | 16km/h | 29911m | 5.9m/s | -44.2°C | 2.8% | 0hPa | 2.6V | 08:30:00 | 02:15:08 | 00:00:00 | |
| OE5DRO-10 | 2026-08-31 12:49:41 | 45.84878 | 9.86057 | 75° | 16km/h | 29889m | 6.5m/s | -44.3°C | 2.8% | 0hPa | 2.7V | 00:00:00 | 00:00:00 | 00:00:00 | |
| IW2NTF | 2026-08-31 12:49:40 | 45.84867 | 9.86014 | 78° | 15km/h | 29855m | 5m/s | -44.5°C | 2.9% | 0hPa | 2.7V | 08:30:00 | 02:14:58 | 00:00:00 | |
| PG1ADW-2 | 2026-08-31 12:49:33 | 45.84865 | 9.86004 | 54° | 13km/h | 29843m | 6.4m/s | -44.5°C | 2.9% | 0hPa | 2.6V | 00:00:00 | 02:14:56 | 00:00:00 | |
| IW2NTF | 2026-08-31 12:49:30 | 45.84858 | 9.85973 | 90° | 15km/h | 29797m | 6.5m/s | -44.6°C | 2.9% | 0hPa | 2.6V | 08:30:00 | 02:14:48 | 00:00:00 | |
| OE5DXL-15 | 2026-08-31 12:49:29 | 45.84856 | 9.85991 | 74° | 9km/h | 29821m | 6.6m/s | 0°C | 0% | 0hPa | 2.7V | 00:00:00 | 00:00:00 | 00:00:00 | |
| OE5DRO-10 | 2026-08-31 12:49:22 | 45.84855 | 9.85960 | 60° | 9km/h | 29781m | 4.9m/s | -44.4°C | 2.8% | 0hPa | 2.7V | 00:00:00 | 00:00:00 | 00:00:00 | |
| IW2NTF | 2026-08-31 12:49:20 | 45.84853 | 9.85945 | 34° | 11km/h | 29741m | 6m/s | -44.3°C | 2.8% | 0hPa | 2.7V | 08:30:00 | 02:14:38 | 00:00:00 | |
| IW2NTF | 2026-08-31 12:49:11 | 45.84842 | 9.85921 | 36° | 13km/h | 29685m | 5.2m/s | -44.4°C | 2.8% | 0hPa | 2.7V | 08:30:00 | 02:14:28 | 00:00:00 | |
| S52SK | 2026-08-31 12:49:06 | 45.84845 | 9.85925 | 53° | 5km/h | 29697m | 6.2m/s | -44.3°C | 0.8% | 0hPa | 2.7V | 00:00:00 | 00:00:00 | 00:00:00 | |
| OE5DRO-10 | 2026-08-31 12:49:03 | 45.84838 | 9.85914 | 62° | 13km/h | 29675m | 5.3m/s | -44.3°C | 2.8% | 0hPa | 2.7V | 00:00:00 | 00:00:00 | 00:00:00 | |
| PG1ADW-2 | 2026-08-31 12:49:02 | 45.84837 | 9.85911 | 85° | 13km/h | 29670m | 6.6m/s | -44.4°C | 2.8% | 0hPa | 2.6V | 00:00:00 | 00:00:00 | 08:30:00 | |
| IW2NTF | 2026-08-31 12:49:01 | 45.84830 | 9.85889 | 10° | 15km/h | 29631m | 4.3m/s | -44.5°C | 2.8% | 0hPa | 2.6V | 08:30:00 | 02:14:18 | 00:00:00 | |
| OE5DXL-15 | 2026-08-31 12:48:59 | 45.84838 | 9.85899 | 95° | 13km/h | 29653m | 5.0m/s | 0°C | 0% | 0hPa | 2.6V | 00:00:00 | 00:00:00 | 00:00:00 | |
| BAUMI2-15 | 2026-08-31 12:48:58 | 45.84838 | 9.85895 | 69° | 9km/h | 29647m | 6.2m/s | 0°C | 0% | 0hPa | 2.6V | 00:00:00 | 02:14:21 | 00:00:00 | |
| BAUMI2-15 | 2026-08-31 12:48:52 | 45.84822 | 9.85885 | 58° | 15km/h | 29614m | 5.8m/s | 0°C | 0% | 0hPa | 2.6V | 00:00:00 | 02:14:15 | 00:00:00 | |
| IW2NTF | 2026-08-31 12:48:50 | 45.84807 | 9.85852 | 33° | 20km/h | 29575m | 5.4m/s | -44.6°C | 2.8% | 0hPa | 2.6V | 08:30:00 | 02:14:08 | 00:00:00 | |
| BAUMI2-15 | 2026-08-31 12:48:46 | 45.84811 | 9.85856 | 38° | 15km/h | 29581m | 4.7m/s | 0°C | 0% | 0hPa | 2.6V | 00:00:00 | 02:14:09 | 00:00:00 | |
| OE5DRO-10 | 2026-08-31 12:48:44 | 45.84803 | 9.85849 | 30° | 11km/h | 29570m | 6.4m/s | -44.5°C | 2.8% | 0hPa | 2.6V | 00:00:00 | 00:00:00 | 00:00:00 | |
| IW2NTF | 2026-08-31 12:48:41 | 45.84774 | 9.85845 | 37° | 11km/h | 29520m | 6.6m/s | -44.9°C | 2.9% | 0hPa | 2.6V | 08:30:00 | 02:13:58 | 00:00:00 | |
| PG1ADW-2 | 2026-08-31 12:48:36 | 45.84777 | 9.85847 | 19° | 9km/h | 29526m | 5.3m/s | -44.8°C | 2.9% | 0hPa | 2.7V | 00:00:00 | 00:00:00 | 00:00:00 | |
| S52SK | 2026-08-31 12:48:32 | 45.84771 | 9.85839 | 60° | 11km/h | 29508m | 5.5m/s | -44.8°C | 0.9% | 0hPa | 2.7V | 00:00:00 | 00:00:00 | 00:00:00 | |
| IW2NTF | 2026-08-31 12:48:30 | 45.84754 | 9.85828 | 39° | 2km/h | 29463m | 4.9m/s | -45°C | 2.9% | 0hPa | 2.7V | 08:30:00 | 02:13:48 | 00:00:00 | |
| BAUMI2-15 | 2026-08-31 12:48:30 | 45.84764 | 9.85830 | 23° | 13km/h | 29491m | 4.6m/s | 0°C | 0% | 0hPa | 2.6V | 00:00:00 | 02:13:53 | 00:00:00 | |
| OE5DXL-15 | 2026-08-31 12:48:29 | 45.84760 | 9.85829 | 13° | 5km/h | 29486m | 4.3m/s | 0°C | 0% | 0hPa | 2.6V | 00:00:00 | 00:00:00 | 00:00:00 | |
| S52SK | 2026-08-31 12:48:27 | 45.84758 | 9.85828 | 8° | 9km/h | 29481m | 6.0m/s | -45.0°C | 0.9% | 0hPa | 2.6V | 00:00:00 | 00:00:00 | 00:00:00 | |
| OE5DRO-10 | 2026-08-31 12:48:25 | 45.84754 | 9.85827 | 40° | 5km/h | 29464m | 4.9m/s | -44.9°C | 2.9% | 0hPa | 2.6V | 00:00:00 | 00:00:00 | 00:00:00 | |
| BAUMI2-15 | 2026-08-31 12:48:24 | 45.84754 | 9.85827 | 49° | 11km/h | 29459m | 5.4m/s | 0°C | 0% | 0hPa | 2.6V | 00:00:00 | 02:13:47 | 00:00:00 | |
| S52SK | 2026-08-31 12:48:21 | 45.84751 | 9.85823 | 36° | 11km/h | 29446m | 5.8m/s | -45.1°C | 0.9% | 0hPa | 2.6V | 00:00:00 | 00:00:00 | 00:00:00 | |
| IW2NTF | 2026-08-31 12:48:20 | 45.84744 | 9.85814 | 165° | 2km/h | 29410m | 5.2m/s | -45.2°C | 2.9% | 0hPa | 2.6V | 08:30:00 | 02:13:38 | 00:00:00 | |
| PG1ADW-2 | 2026-08-31 12:48:16 | 45.84743 | 9.85814 | 176° | 7km/h | 29415m | 4.2m/s | -45.1°C | 2.9% | 0hPa | 2.7V | 00:00:00 | 00:00:00 | 00:00:00 | |
| IW2NTF | 2026-08-31 12:48:10 | 45.84735 | 9.85813 | 357° | 9km/h | 29353m | 6.2m/s | -45.1°C | 2.9% | 0hPa | 2.7V | 08:30:00 | 02:13:28 | 00:00:00 | |
| OE5DRO-10 | 2026-08-31 12:48:06 | 45.84736 | 9.85812 | 336° | 7km/h | 29360m | 6.3m/s | -45.1°C | 2.9% | 0hPa | 2.7V | 00:00:00 | 00:00:00 | 00:00:00 | |
| IW2NTF | 2026-08-31 12:48:00 | 45.84714 | 9.85804 | 24° | 11km/h | 29298m | 4.8m/s | -45.2°C | 2.9% | 0hPa | 2.6V | 08:30:00 | 02:13:18 | 00:00:00 | |
| OE5DXL-15 | 2026-08-31 12:47:59 | 45.84723 | 9.85810 | 27° | 9km/h | 29321m | 4.9m/s | 0°C | 0% | 0hPa | 2.7V | 00:00:00 | 02:13:22 | 00:00:00 | |
| PG1ADW-2 | 2026-08-31 12:47:56 | 45.84717 | 9.85805 | 28° | 9km/h | 29303m | 5.3m/s | -45.3°C | 2.9% | 0hPa | 2.7V | 00:00:00 | 02:13:19 | 00:00:00 | |
| IW2NTF | 2026-08-31 12:47:50 | 45.84695 | 9.85793 | 19° | 15km/h | 29243m | 5.8m/s | -45.6°C | 3% | 0hPa | 2.7V | 08:30:00 | 02:13:08 | 00:00:00 | |
| S52SK | 2026-08-31 12:47:49 | 45.84710 | 9.85802 | 27° | 2km/h | 29271m | 5.3m/s | -45.3°C | 0.9% | 0hPa | 2.6V | 00:00:00 | 00:00:00 | 00:00:00 | |
| OE5DRO-10 | 2026-08-31 12:47:47 | 45.84703 | 9.85797 | 24° | 11km/h | 29253m | 5.0m/s | -45.3°C | 2.9% | 0hPa | 2.6V | 00:00:00 | 00:00:00 | 00:00:00 | |
| S52SK | 2026-08-31 12:47:43 | 45.84692 | 9.85792 | 10° | 11km/h | 29237m | 5.9m/s | -45.5°C | 0.9% | 0hPa | 2.6V | 00:00:00 | 00:00:00 | 00:00:00 | |
| IW2NTF | 2026-08-31 12:47:40 | 45.84684 | 9.85786 | 122° | 11km/h | 29187m | 4.9m/s | -45.8°C | 3.1% | 0hPa | 2.6V | 08:30:00 | 02:12:58 | 00:00:00 | |
| S52SK | 2026-08-31 12:47:38 | 45.84683 | 9.85793 | 15° | 5km/h | 29210m | 4.9m/s | -45.8°C | 0.9% | 0hPa | 2.7V | 00:00:00 | 00:00:00 | 00:00:00 | |
| PG1ADW-2 | 2026-08-31 12:47:35 | 45.84684 | 9.85786 | 123° | 11km/h | 29187m | 4.8m/s | -45.8°C | 3.1% | 0hPa | 2.7V | 00:00:00 | 00:00:00 | 00:00:00 | |
| OE5DXL-15 | 2026-08-31 12:47:29 | 45.84680 | 9.85758 | 52° | 5km/h | 29154m | 6.4m/s | 0°C | 0% | 0hPa | 2.7V | 00:00:00 | 00:00:00 | 00:00:00 | |
| IW2NTF | 2026-08-31 12:47:28 | 45.84677 | 9.85764 | 294° | 9km/h | 29130m | 6.2m/s | -45.8°C | 3.1% | 0hPa | 2.7V | 08:30:00 | 02:12:48 | 00:00:00 | |
| OE5DRO-10 | 2026-08-31 12:47:28 | 45.84679 | 9.85757 | 349° | 11km/h | 29147m | 5.7m/s | -45.8°C | 3.1% | 0hPa | 2.6V | 00:00:00 | 00:00:00 | 00:00:00 | |
| IW2NTF | 2026-08-31 12:47:20 | 45.84682 | 9.85737 | 81° | 20km/h | 29075m | 5.1m/s | -45.4°C | 3% | 0hPa | 2.6V | 08:30:00 | 02:12:38 | 00:00:00 | |
| PG1ADW-2 | 2026-08-31 12:47:14 | 45.84681 | 9.85730 | 86° | 15km/h | 29070m | 6.2m/s | -45.3°C | 3.0% | 0hPa | 2.7V | 00:00:00 | 00:00:00 | 00:00:00 | |
| OE5DRO-10 | 2026-08-31 12:47:09 | 45.84683 | 9.85720 | 111° | 16km/h | 29041m | 5.6m/s | -45.4°C | 3.0% | 0hPa | 2.7V | 00:00:00 | 00:00:00 | 08:30:00 | |
| IW2NTF | 2026-08-31 12:47:08 | 45.84690 | 9.85708 | 132° | 22km/h | 29019m | 6m/s | -45.2°C | 3% | 0hPa | 2.6V | 08:30:00 | 02:12:28 | 00:00:00 | |
| IW2NTF | 2026-08-31 12:47:01 | 45.84703 | 9.85637 | 110° | 9km/h | 28964m | 5.7m/s | -45°C | 2.9% | 0hPa | 2.6V | 08:30:00 | 02:12:18 | 00:00:00 | |
| S52SK | 2026-08-31 12:47:00 | 45.84701 | 9.85674 | 97° | 27km/h | 28997m | 6.4m/s | -45.1°C | 0.9% | 0hPa | 2.6V | 00:00:00 | 00:00:00 | 00:00:00 | |
| S52SK | 2026-08-31 12:46:55 | 45.84703 | 9.85637 | 111° | 9km/h | 28964m | 5.7m/s | -45.0°C | 0.9% | 0hPa | 2.6V | 00:00:00 | 00:00:00 | 00:00:00 | |
| PG1ADW-2 | 2026-08-31 12:46:54 | 45.84703 | 9.85634 | 103° | 22km/h | 28958m | 6.4m/s | -45.0°C | 3.0% | 0hPa | 2.6V | 00:00:00 | 00:00:00 | 00:00:00 | |
| IW2NTF | 2026-08-31 12:46:51 | 45.84717 | 9.85567 | 75° | 27km/h | 28908m | 6.5m/s | -44.9°C | 2.9% | 0hPa | 2.6V | 08:30:00 | 02:12:08 | 00:00:00 | |
| OE5DRO-10 | 2026-08-31 12:46:51 | 45.84708 | 9.85612 | 118° | 26km/h | 28936m | 6.4m/s | -44.8°C | 2.9% | 0hPa | 2.7V | 00:00:00 | 00:00:00 | 00:00:00 | |
| IW2NTF | 2026-08-31 12:46:40 | 45.84715 | 9.85487 | 91° | 29km/h | 28855m | 5.5m/s | -44.7°C | 2.9% | 0hPa | 2.7V | 08:30:00 | 02:11:58 | 00:00:00 | |
| PG1ADW-2 | 2026-08-31 12:46:33 | 45.84714 | 9.85467 | 81° | 18km/h | 28845m | 5.1m/s | -44.7°C | 2.9% | 0hPa | 2.6V | 00:00:00 | 02:11:56 | 00:00:00 | |
| OE5DRO-10 | 2026-08-31 12:46:31 | 45.84712 | 9.85452 | 79° | 20km/h | 28833m | 5.5m/s | -44.7°C | 2.9% | 0hPa | 2.6V | 00:00:00 | 00:00:00 | 00:00:00 | |
| IW2NTF | 2026-08-31 12:46:30 | 45.84698 | 9.85417 | 68° | 24km/h | 28800m | 5.2m/s | -44.8°C | 2.9% | 0hPa | 2.6V | 08:30:00 | 02:11:48 | 00:00:00 | |
| IW2NTF | 2026-08-31 12:46:20 | 45.84685 | 9.85348 | 35° | 15km/h | 28744m | 5.9m/s | -44.8°C | 2.9% | 0hPa | 2.7V | 08:30:00 | 02:11:38 | 00:00:00 | |
| S52SK | 2026-08-31 12:46:19 | 45.84699 | 9.85376 | 87° | 22km/h | 28773m | 6.1m/s | -44.8°C | 0.9% | 0hPa | 2.6V | 00:00:00 | 00:00:00 | 00:00:00 | |
| OE3JTB-15 | 2026-08-31 12:46:13 | 45.84680 | 9.85340 | 57° | 18km/h | 28734m | 3.9m/s | 0°C | 0% | 0hPa | 2.6V | 00:00:00 | 00:00:00 | 00:00:00 | |
| OE5DRO-10 | 2026-08-31 12:46:12 | 45.84677 | 9.85336 | 59° | 24km/h | 28730m | 4.8m/s | -44.6°C | 2.9% | 0hPa | 2.6V | 00:00:00 | 00:00:00 | 00:00:00 | |
| IW2NTF | 2026-08-31 12:46:10 | 45.84655 | 9.85288 | 48° | 13km/h | 28691m | 5.3m/s | -44.8°C | 2.9% | 0hPa | 2.7V | 08:30:00 | 02:11:28 | 00:00:00 | |
| IW2NTF | 2026-08-31 12:45:57 | 45.84615 | 9.85233 | 70° | 26km/h | 28635m | 5.1m/s | -45.1°C | 2.9% | 0hPa | 2.6V | 08:30:00 | 02:11:18 | 00:00:00 | |
| OE5DRO-10 | 2026-08-31 12:45:53 | 45.84610 | 9.85215 | 62° | 20km/h | 28624m | 6.2m/s | -45.2°C | 2.9% | 0hPa | 2.6V | 00:00:00 | 00:00:00 | 00:00:00 | |
| PG1ADW-2 | 2026-08-31 12:45:51 | 45.84603 | 9.85199 | 52° | 20km/h | 28613m | 5.1m/s | -45.2°C | 2.9% | 0hPa | 2.6V | 00:00:00 | 00:00:00 | 08:30:00 | |
| IW2NTF | 2026-08-31 12:45:50 | 45.84584 | 9.85172 | 42° | 22km/h | 28580m | 6.1m/s | -45.4°C | 3% | 0hPa | 2.6V | 08:30:00 | 02:11:08 | 00:00:00 | |
| NBG1-10 | 2026-08-31 12:45:47 | 45.84591 | 9.85180 | 44° | 24km/h | 28591m | 4.2m/s | 0°C | 0% | 0hPa | 2.6V | 00:00:00 | 02:11:10 | 00:00:00 | |
| IW2NTF | 2026-08-31 12:45:35 | 45.84554 | 9.85102 | 45° | 15km/h | 28513m | 6.4m/s | -45.2°C | 2.8% | 0hPa | 2.6V | 08:30:00 | 02:10:56 | 00:00:00 | |
| OE5DRO-10 | 2026-08-31 12:45:34 | 45.84557 | 9.85106 | 44° | 16km/h | 28520m | 5.8m/s | -45.2°C | 2.8% | 0hPa | 2.7V | 00:00:00 | 00:00:00 | 00:00:00 | |
| S52SK | 2026-08-31 12:45:31 | 45.84549 | 9.85093 | 53° | 15km/h | 28502m | 5.2m/s | -45.3°C | 0.9% | 0hPa | 2.7V | 00:00:00 | 00:00:00 | 00:00:00 | |
| IW2NTF | 2026-08-31 12:45:26 | 45.84532 | 9.85052 | 78° | 13km/h | 28456m | 5.3m/s | -45.8°C | 2.9% | 0hPa | 2.7V | 08:30:00 | 02:10:46 | 00:00:00 | |
| OE3JTB-15 | 2026-08-31 12:45:23 | 45.84532 | 9.85052 | 79° | 16km/h | 28457m | 5.2m/s | 0°C | 0% | 0hPa | 2.6V | 00:00:00 | 02:10:46 | 00:00:00 | |
| IW2NTF | 2026-08-31 12:45:18 | 45.84510 | 9.84981 | 53° | 26km/h | 28390m | 4.9m/s | -46.4°C | 3% | 0hPa | 2.6V | 08:30:00 | 02:10:34 | 00:00:00 | |
| OE5DRO-10 | 2026-08-31 12:45:15 | 45.84520 | 9.85011 | 83° | 15km/h | 28413m | 4.5m/s | -46.2°C | 3.0% | 0hPa | 2.7V | 00:00:00 | 00:00:00 | 00:00:00 | |
| PG1ADW-2 | 2026-08-31 12:45:07 | 45.84499 | 9.84961 | 35° | 13km/h | 28369m | 4.9m/s | -46.4°C | 3.1% | 0hPa | 2.6V | 00:00:00 | 02:10:30 | 00:00:00 | |
| IW2NTF | 2026-08-31 12:45:05 | 45.84486 | 9.84956 | 27° | 4km/h | 28333m | 5.6m/s | -47°C | 3% | 0hPa | 2.6V | 08:30:00 | 02:10:24 | 00:00:00 | |
| OE5DRO-10 | 2026-08-31 12:44:56 | 45.84471 | 9.84943 | 32° | 16km/h | 28306m | 4.9m/s | -47.1°C | 3.2% | 0hPa | 2.7V | 00:00:00 | 00:00:00 | 00:00:00 | |
| IW2NTF | 2026-08-31 12:44:55 | 45.84455 | 9.84917 | 76° | 13km/h | 28279m | 4.8m/s | -47°C | 3.2% | 0hPa | 2.7V | 08:30:00 | 02:10:14 | 00:00:00 | |
| S52SK | 2026-08-31 12:44:50 | 45.84455 | 9.84917 | 77° | 13km/h | 28279m | 4.9m/s | -47.0°C | 0.9% | 0hPa | 2.7V | 00:00:00 | 00:00:00 | 00:00:00 | |
| PG1ADW-2 | 2026-08-31 12:44:47 | 45.84447 | 9.84904 | 23° | 15km/h | 28256m | 5.1m/s | -47.1°C | 3.2% | 0hPa | 2.7V | 00:00:00 | 00:00:00 | 00:00:00 | |
| IW2NTF | 2026-08-31 12:44:44 | 45.84416 | 9.84893 | 25° | 16km/h | 28212m | 4.7m/s | -47.3°C | 3.3% | 0hPa | 2.6V | 08:30:00 | 02:10:02 | 00:00:00 | |
| S52SK | 2026-08-31 12:44:38 | 45.84416 | 9.84893 | 27° | 16km/h | 28213m | 4.7m/s | -47.3°C | 1.0% | 0hPa | 2.7V | 00:00:00 | 00:00:00 | 00:00:00 | |
| OE5DRO-10 | 2026-08-31 12:44:37 | 45.84411 | 9.84887 | 62° | 15km/h | 28201m | 5.8m/s | -47.4°C | 3.3% | 0hPa | 2.7V | 00:00:00 | 00:00:00 | 00:00:00 | |
| IW2NTF | 2026-08-31 12:44:34 | 45.84381 | 9.84881 | 14° | 27km/h | 28158m | 6m/s | -47.3°C | 3.1% | 0hPa | 2.7V | 08:30:00 | 02:09:52 | 00:00:00 | |
| S52SK | 2026-08-31 12:44:32 | 45.84406 | 9.84883 | 359° | 15km/h | 28181m | 6.2m/s | -47.3°C | 0.9% | 0hPa | 2.7V | 00:00:00 | 00:00:00 | 00:00:00 | |
| PG1ADW-2 | 2026-08-31 12:44:27 | 45.84371 | 9.84873 | 37° | 13km/h | 28147m | 4.5m/s | -47.3°C | 3.1% | 0hPa | 2.7V | 00:00:00 | 00:00:00 | 00:00:00 | |
| S52SK | 2026-08-31 12:44:26 | 45.84371 | 9.84873 | 38° | 20km/h | 28147m | 4.6m/s | -47.4°C | 0.9% | 0hPa | 2.7V | 00:00:00 | 00:00:00 | 00:00:00 | |
| IW2NTF | 2026-08-31 12:44:25 | 45.84352 | 9.84849 | 95° | 7km/h | 28104m | 6.3m/s | -47.5°C | 3.2% | 0hPa | 2.7V | 08:30:00 | 02:09:42 | 00:00:00 | |
| OE5DRO-10 | 2026-08-31 12:44:18 | 45.84352 | 9.84847 | 101° | 13km/h | 28099m | 4.9m/s | -47.5°C | 3.2% | 0hPa | 2.7V | 00:00:00 | 00:00:00 | 08:30:00 | |
| IW2NTF | 2026-08-31 12:44:13 | 45.84327 | 9.84818 | 78° | 13km/h | 28050m | 4.8m/s | -47.8°C | 3.2% | 0hPa | 2.6V | 08:30:00 | 02:09:32 | 00:00:00 | |
| PG1ADW-2 | 2026-08-31 12:44:07 | 45.84325 | 9.84808 | 70° | 16km/h | 28039m | 6.2m/s | -47.9°C | 3.3% | 0hPa | 2.6V | 00:00:00 | 00:00:00 | 00:00:00 | |
| IW2NTF | 2026-08-31 12:44:03 | 45.84305 | 9.84800 | 5° | 26km/h | 27995m | 6.5m/s | -48.3°C | 3.2% | 0hPa | 2.6V | 08:30:00 | 02:09:22 | 00:00:00 | |
| OE5DRO-10 | 2026-08-31 12:43:59 | 45.84305 | 9.84800 | 6° | 22km/h | 27995m | 6.5m/s | -48.3°C | 3.2% | 0hPa | 2.7V | 00:00:00 | 00:00:00 | 00:00:00 | |
| IW2NTF | 2026-08-31 12:43:53 | 45.84266 | 9.84770 | 329° | 16km/h | 27939m | 5.3m/s | -48.5°C | 3.4% | 0hPa | 2.7V | 08:30:00 | 02:09:12 | 00:00:00 | |
| S52SK | 2026-08-31 12:43:49 | 45.84269 | 9.84768 | 341° | 11km/h | 27945m | 6.1m/s | -48.4°C | 1.0% | 0hPa | 2.7V | 00:00:00 | 00:00:00 | 00:00:00 | |
| S52SK | 2026-08-31 12:43:45 | 45.84247 | 9.84780 | 1° | 20km/h | 27917m | 5.5m/s | -48.9°C | 1.0% | 0hPa | 2.7V | 00:00:00 | 00:00:00 | 00:00:00 | |
| IW2NTF | 2026-08-31 12:43:41 | 45.84213 | 9.84758 | 47° | 20km/h | 27883m | 6.5m/s | -49°C | 3.4% | 0hPa | 2.7V | 08:30:00 | 02:09:02 | 00:00:00 | |
| OE5DRO-10 | 2026-08-31 12:43:40 | 45.84217 | 9.84764 | 39° | 18km/h | 27889m | 5.1m/s | -49.1°C | 3.4% | 0hPa | 2.6V | 00:00:00 | 00:00:00 | 00:00:00 | |
| S52SK | 2026-08-31 12:43:38 | 45.84213 | 9.84758 | 49° | 20km/h | 27883m | 6.5m/s | -49.0°C | 1.0% | 0hPa | 2.6V | 00:00:00 | 00:00:00 | 00:00:00 | |
| S52SK | 2026-08-31 12:43:33 | 45.84201 | 9.84748 | 349° | 18km/h | 27854m | 5.1m/s | -49.2°C | 1.1% | 0hPa | 2.6V | 00:00:00 | 00:00:00 | 00:00:00 | |
| IW2NTF | 2026-08-31 12:43:31 | 45.84176 | 9.84748 | 28° | 18km/h | 27827m | 5.2m/s | -49.4°C | 3.5% | 0hPa | 2.6V | 08:30:00 | 02:08:52 | 00:00:00 | |
| S52SK | 2026-08-31 12:43:26 | 45.84168 | 9.84740 | 34° | 20km/h | 27817m | 6.6m/s | -49.4°C | 1.1% | 0hPa | 2.6V | 00:00:00 | 00:00:00 | 00:00:00 | |
| PG1ADW-2 | 2026-08-31 12:43:25 | 45.84159 | 9.84732 | 35° | 16km/h | 27806m | 4.5m/s | -49.2°C | 3.5% | 0hPa | 2.6V | 00:00:00 | 00:00:00 | 00:00:00 | |
| IW2NTF | 2026-08-31 12:43:24 | 45.84151 | 9.84711 | 41° | 4km/h | 27772m | 6.5m/s | -49.2°C | 3.5% | 0hPa | 2.6V | 08:30:00 | 02:08:42 | 00:00:00 | |
| BAUMI2-15 | 2026-08-31 12:43:24 | 45.84156 | 9.84728 | 43° | 11km/h | 27801m | 4.9m/s | 0°C | 0% | 0hPa | 2.7V | 00:00:00 | 02:08:47 | 00:00:00 | |
| OE5DRO-10 | 2026-08-31 12:43:21 | 45.84152 | 9.84716 | 95° | 15km/h | 27783m | 5.1m/s | -49.1°C | 3.5% | 0hPa | 2.7V | 00:00:00 | 00:00:00 | 00:00:00 | |
| BAUMI2-15 | 2026-08-31 12:43:19 | 45.84151 | 9.84711 | 42° | 7km/h | 27772m | 6.5m/s | 0°C | 0% | 0hPa | 2.6V | 00:00:00 | 02:08:42 | 00:00:00 | |
| IW2NTF | 2026-08-31 12:43:14 | 45.84123 | 9.84663 | 54° | 24km/h | 27717m | 5m/s | -49.3°C | 3.5% | 0hPa | 2.6V | 08:30:00 | 02:08:32 | 00:00:00 | |
| BAUMI2-15 | 2026-08-31 12:43:14 | 45.84139 | 9.84703 | 55° | 22km/h | 27744m | 5.5m/s | 0°C | 0% | 0hPa | 2.7V | 00:00:00 | 02:08:37 | 00:00:00 | |
| PG1ADW-2 | 2026-08-31 12:43:05 | 45.84115 | 9.84644 | 54° | 15km/h | 27695m | 4.3m/s | -49.1°C | 3.5% | 0hPa | 2.7V | 00:00:00 | 00:00:00 | 00:00:00 | |
| IW2NTF | 2026-08-31 12:43:03 | 45.84096 | 9.84644 | 22° | 16km/h | 27663m | 6.2m/s | -48.9°C | 3.4% | 0hPa | 2.7V | 08:30:00 | 02:08:22 | 00:00:00 | |
| OE5DRO-10 | 2026-08-31 12:43:02 | 45.84109 | 9.84644 | 346° | 18km/h | 27679m | 5.8m/s | -48.9°C | 3.5% | 0hPa | 2.6V | 00:00:00 | 00:00:00 | 00:00:00 | |
| IW2NTF | 2026-08-31 12:42:50 | 45.84046 | 9.84611 | 355° | 18km/h | 27586m | 6m/s | -49°C | 3.5% | 0hPa | 2.6V | 08:30:00 | 02:08:08 | 00:00:00 | |
| PG1ADW-2 | 2026-08-31 12:42:45 | 45.84046 | 9.84611 | 356° | 13km/h | 27586m | 6.0m/s | -48.9°C | 3.5% | 0hPa | 2.6V | 00:00:00 | 00:00:00 | 08:30:00 | |
| OE5DRO-10 | 2026-08-31 12:42:43 | 45.84037 | 9.84611 | 4° | 13km/h | 27576m | 4.6m/s | -49.0°C | 3.5% | 0hPa | 2.6V | 00:00:00 | 00:00:00 | 00:00:00 | |
| IW2NTF | 2026-08-31 12:42:40 | 45.84008 | 9.84607 | 338° | 16km/h | 27530m | 5.2m/s | -49.1°C | 3.5% | 0hPa | 2.6V | 08:30:00 | 02:07:58 | 00:00:00 | |
| OE3JTB-15 | 2026-08-31 12:42:33 | 45.84002 | 9.84611 | 333° | 15km/h | 27519m | 5.7m/s | 0°C | 0% | 0hPa | 2.6V | 00:00:00 | 00:00:00 | 00:00:00 | |
| S52SK | 2026-08-31 12:42:31 | 45.83999 | 9.84613 | 335° | 9km/h | 27513m | 4.9m/s | -48.9°C | 1.1% | 0hPa | 2.6V | 00:00:00 | 00:00:00 | 00:00:00 | |
| S52SK | 2026-08-31 12:42:27 | 45.83986 | 9.84616 | 29° | 9km/h | 27485m | 6.9m/s | -49.2°C | 1.1% | 0hPa | 2.6V | 00:00:00 | 00:00:00 | 00:00:00 | |
| PG1ADW-2 | 2026-08-31 12:42:25 | 45.83983 | 9.84612 | 35° | 7km/h | 27474m | 4.9m/s | -49.1°C | 3.5% | 0hPa | 2.6V | 00:00:00 | 02:07:48 | 00:00:00 | |
| OE5DRO-10 | 2026-08-31 12:42:24 | 45.83980 | 9.84610 | 16° | 7km/h | 27468m | 6.3m/s | -49.0°C | 3.5% | 0hPa | 2.6V | 00:00:00 | 00:00:00 | 00:00:00 | |
| S52SK | 2026-08-31 12:42:21 | 45.83975 | 9.84612 | 332° | 13km/h | 27457m | 4.7m/s | -48.9°C | 1.1% | 0hPa | 2.7V | 00:00:00 | 00:00:00 | 00:00:00 | |
| PG1ADW-2 | 2026-08-31 12:42:05 | 45.83958 | 9.84613 | 326° | 5km/h | 27364m | 4.4m/s | -48.6°C | 3.4% | 0hPa | 2.7V | 00:00:00 | 00:00:00 | 00:00:00 | |
| S52SK | 2026-08-31 12:41:47 | 45.83952 | 9.84606 | 179° | 4km/h | 27270m | 6.4m/s | -48.8°C | 1.1% | 0hPa | 2.7V | 00:00:00 | 00:00:00 | 00:00:00 | |
| OE5DRO-10 | 2026-08-31 12:41:46 | 45.83955 | 9.84605 | 154° | 5km/h | 27259m | 4.7m/s | -48.7°C | 3.5% | 0hPa | 2.7V | 00:00:00 | 00:00:00 | 00:00:00 | |
| PG1ADW-2 | 2026-08-31 12:41:44 | 45.83958 | 9.84603 | 183° | 7km/h | 27247m | 6.0m/s | -48.8°C | 3.5% | 0hPa | 2.7V | 00:00:00 | 00:00:00 | 00:00:00 | |
| S52SK | 2026-08-31 12:41:42 | 45.83958 | 9.84604 | 251° | 2km/h | 27242m | 5.3m/s | -48.8°C | 1.1% | 0hPa | 2.7V | 00:00:00 | 00:00:00 | 00:00:00 | |
| S52SK | 2026-08-31 12:41:37 | 45.83961 | 9.84617 | 280° | 11km/h | 27209m | 6.3m/s | -48.5°C | 1.0% | 0hPa | 2.7V | 00:00:00 | 00:00:00 | 00:00:00 | |
| OE5DRO-10 | 2026-08-31 12:41:27 | 45.83964 | 9.84623 | 5° | 7km/h | 27155m | 5.6m/s | 0°C | 0% | 0hPa | 2.7V | 00:00:00 | 00:00:00 | 08:30:00 | |
| PG1ADW-2 | 2026-08-31 12:41:24 | 45.83957 | 9.84623 | 359° | 9km/h | 27139m | 6.3m/s | -48.3°C | 3.3% | 0hPa | 2.7V | 00:00:00 | 00:00:00 | 00:00:00 | |
| OE5DRO-10 | 2026-08-31 12:41:08 | 45.83935 | 9.84593 | 40° | 15km/h | 27054m | 5.4m/s | 0°C | 0% | 0hPa | 2.7V | 00:00:00 | 00:00:00 | 00:00:00 | |
| PG1ADW-2 | 2026-08-31 12:41:04 | 45.83929 | 9.84578 | 74° | 13km/h | 27031m | 6.4m/s | -48.8°C | 3.4% | 0hPa | 2.7V | 00:00:00 | 02:06:27 | 00:00:00 | |
| S52SK | 2026-08-31 12:40:59 | 45.83923 | 9.84571 | 18° | 7km/h | 27009m | 5.9m/s | -48.7°C | 1.1% | 0hPa | 2.7V | 00:00:00 | 00:00:00 | 00:00:00 | |
| S52SK | 2026-08-31 12:40:54 | 45.83910 | 9.84563 | 28° | 24km/h | 26982m | 6.5m/s | -48.7°C | 1.0% | 0hPa | 2.7V | 00:00:00 | 00:00:00 | 00:00:00 | |
| DO3MHA-11 | 2026-08-31 12:40:53 | 45.83899 | 9.84553 | 35° | 20km/h | 26972m | 4.4m/s | 0°C | 0% | 0hPa | 2.7V | 00:00:00 | 02:06:16 | 00:00:00 | |
| OE3JTB-15 | 2026-08-31 12:40:52 | 45.83893 | 9.84547 | 43° | 20km/h | 26967m | 5.5m/s | 0°C | 0% | 0hPa | 2.7V | 00:00:00 | 00:00:00 | 00:00:00 | |
| OE5DRO-10 | 2026-08-31 12:40:49 | 45.83886 | 9.84530 | 73° | 11km/h | 26950m | 4.8m/s | 0°C | 0% | 0hPa | 2.7V | 00:00:00 | 00:00:00 | 00:00:00 | |
| PG1ADW-2 | 2026-08-31 12:40:44 | 45.83879 | 9.84526 | 333° | 16km/h | 26923m | 6.3m/s | -49.0°C | 3.4% | 0hPa | 2.7V | 00:00:00 | 00:00:00 | 00:00:00 | |
| DK5PH-5 | 2026-08-31 12:40:30 | 45.83827 | 9.84514 | 324° | 13km/h | 26847m | 4.9m/s | 0°C | 0% | 0hPa | 2.7V | 00:00:00 | 02:05:53 | 00:00:00 | |
| PG1ADW-2 | 2026-08-31 12:40:24 | 45.83805 | 9.84522 | 11° | 22km/h | 26815m | 6.3m/s | -49.6°C | 3.5% | 0hPa | 2.7V | 00:00:00 | 00:00:00 | 00:00:00 | |
| S52SK | 2026-08-31 12:40:10 | 45.83742 | 9.84536 | 332° | 22km/h | 26747m | 5.5m/s | -49.5°C | 1.1% | 0hPa | 2.7V | 00:00:00 | 00:00:00 | 00:00:00 | |
| OE3JTB-15 | 2026-08-31 12:40:07 | 45.83722 | 9.84549 | 341° | 22km/h | 26726m | 4.8m/s | 0°C | 0% | 0hPa | 2.7V | 00:00:00 | 02:05:30 | 00:00:00 | |
| S52SK | 2026-08-31 12:40:05 | 45.83717 | 9.84552 | 336° | 22km/h | 26722m | 4.1m/s | -49.6°C | 1.1% | 0hPa | 2.7V | 00:00:00 | 00:00:00 | 00:00:00 | |
| PG1ADW-2 | 2026-08-31 12:40:04 | 45.83710 | 9.84559 | 311° | 20km/h | 26711m | 6.1m/s | -49.5°C | 3.5% | 0hPa | 2.7V | 00:00:00 | 00:00:00 | 00:00:00 | |
| S52SK | 2026-08-31 12:39:58 | 45.83698 | 9.84586 | 317° | 24km/h | 26685m | 5.2m/s | -49.5°C | 1.1% | 0hPa | 2.7V | 00:00:00 | 00:00:00 | 00:00:00 | |
| OE5DRO-10 | 2026-08-31 12:39:55 | 45.83680 | 9.84610 | 310° | 18km/h | 26664m | 5.3m/s | 0°C | 0% | 0hPa | 2.7V | 00:00:00 | 00:00:00 | 00:00:00 | |
| PG1ADW-2 | 2026-08-31 12:39:44 | 45.83659 | 9.84686 | 284° | 20km/h | 26608m | 5.8m/s | -49.9°C | 3.6% | 0hPa | 2.7V | 00:00:00 | 02:05:07 | 08:30:00 | |
| PG1ADW-2 | 2026-08-31 12:39:24 | 45.83658 | 9.84824 | 250° | 18km/h | 26501m | 5.6m/s | -49.9°C | 3.6% | 0hPa | 2.7V | 00:00:00 | 00:00:00 | 00:00:00 | |
| S52SK | 2026-08-31 12:39:15 | 45.83681 | 9.84864 | 219° | 24km/h | 26458m | 5.5m/s | -49.8°C | 1.1% | 0hPa | 2.7V | 00:00:00 | 00:00:00 | 00:00:00 | |
| S52SK | 2026-08-31 12:39:09 | 45.83700 | 9.84900 | 247° | 16km/h | 26426m | 5.8m/s | -49.9°C | 1.1% | 0hPa | 2.7V | 00:00:00 | 00:00:00 | 00:00:00 | |
| PG1ADW-2 | 2026-08-31 12:38:44 | 45.83787 | 9.84937 | 190° | 11km/h | 26289m | 4.8m/s | -49.7°C | 3.6% | 0hPa | 2.7V | 00:00:00 | 00:00:00 | 00:00:00 | |
| S52SK | 2026-08-31 12:38:37 | 45.83801 | 9.84926 | 137° | 16km/h | 26251m | 5.0m/s | -49.6°C | 1.1% | 0hPa | 2.6V | 00:00:00 | 00:00:00 | 00:00:00 | |
| S52SK | 2026-08-31 12:38:30 | 45.83816 | 9.84910 | 174° | 11km/h | 26220m | 6.1m/s | -49.7°C | 1.1% | 0hPa | 2.6V | 00:00:00 | 00:00:00 | 00:00:00 | |
| PG1ADW-2 | 2026-08-31 12:38:24 | 45.83830 | 9.84890 | 102° | 20km/h | 26185m | 4.3m/s | -49.7°C | 3.5% | 0hPa | 2.6V | 00:00:00 | 02:03:47 | 00:00:00 | |
| IW2NTF | 2026-08-31 12:38:09 | 45.83863 | 9.84777 | 106° | 13km/h | 26081m | 5.5m/s | -49.7°C | 3.6% | 0hPa | 2.6V | 08:30:00 | 02:03:27 | 00:00:00 | |
| IW2NTF | 2026-08-31 12:37:58 | 45.83853 | 9.84740 | 29° | 11km/h | 26031m | 4.5m/s | -49.7°C | 3.5% | 0hPa | 2.7V | 08:30:00 | 02:03:17 | 00:00:00 | |
| S52SK | 2026-08-31 12:37:49 | 45.83845 | 9.84723 | 83° | 20km/h | 26011m | 5.7m/s | -49.9°C | 1.1% | 0hPa | 2.6V | 00:00:00 | 00:00:00 | 00:00:00 | |
| IW2NTF | 2026-08-31 12:37:46 | 45.83836 | 9.84689 | 31° | 11km/h | 25981m | 5.1m/s | -50°C | 3.6% | 0hPa | 2.6V | 08:30:00 | 02:03:07 | 00:00:00 | |
| S52SK | 2026-08-31 12:37:44 | 45.83838 | 9.84692 | 39° | 13km/h | 25986m | 4.0m/s | -49.9°C | 1.1% | 0hPa | 2.7V | 00:00:00 | 00:00:00 | 00:00:00 | |
| OE5DRO-10 | 2026-08-31 12:37:41 | 45.83830 | 9.84683 | 45° | 13km/h | 25966m | 4.7m/s | 0°C | 0% | 0hPa | 2.7V | 00:00:00 | 00:00:00 | 00:00:00 | |
| PG1ADW-2 | 2026-08-31 12:37:26 | 45.83786 | 9.84650 | 53° | 13km/h | 25888m | 5.5m/s | -50.2°C | 3.7% | 0hPa | 2.7V | 00:00:00 | 00:00:00 | 00:00:00 | |
| DL1ZP-14 | 2026-08-31 12:37:05 | 45.83721 | 9.84698 | 287° | 18km/h | 25736m | 4.9m/s | 0°C | -1.0% | -1.0hPa | 2.7V | 00:00:00 | 00:00:00 | 00:00:00 | |
| PG1ADW-2 | 2026-08-31 12:36:56 | 45.83721 | 9.84698 | 288° | 18km/h | 25736m | 4.8m/s | -50.2°C | 3.7% | 0hPa | 2.7V | 00:00:00 | 00:00:00 | 00:00:00 | |
| S52SK | 2026-08-31 12:36:26 | 45.83691 | 9.84772 | 297° | 5km/h | 25590m | 5.3m/s | -50.7°C | 1.2% | 0hPa | 2.6V | 00:00:00 | 00:00:00 | 00:00:00 | |
| S52SK | 2026-08-31 12:36:20 | 45.83691 | 9.84777 | 55° | 2km/h | 25561m | 5.8m/s | -50.7°C | 1.2% | 0hPa | 2.6V | 00:00:00 | 00:00:00 | 00:00:00 | |
| IW2NTF | 2026-08-31 12:35:53 | 45.83658 | 9.84737 | 30° | 20km/h | 25411m | 4.3m/s | -51°C | 3.6% | 0hPa | 2.6V | 08:30:00 | 02:01:14 | 00:00:00 | |
| S52SK | 2026-08-31 12:35:43 | 45.83635 | 9.84733 | 332° | 13km/h | 25376m | 4.0m/s | -50.8°C | 1.2% | 0hPa | 2.6V | 00:00:00 | 00:00:00 | 00:00:00 | |
| S52SK | 2026-08-31 12:35:38 | 45.83613 | 9.84749 | 354° | 22km/h | 25351m | 6.0m/s | -50.7°C | 1.2% | 0hPa | 2.6V | 00:00:00 | 00:00:00 | 00:00:00 | |
| S52SK | 2026-08-31 12:35:32 | 45.83580 | 9.84750 | 338° | 20km/h | 25321m | 3.9m/s | -51.0°C | 1.2% | 0hPa | 2.6V | 00:00:00 | 00:00:00 | 00:00:00 | |
| PG1ADW-2 | 2026-08-31 12:35:31 | 45.83571 | 9.84756 | 338° | 27km/h | 25311m | 5.5m/s | 0°C | 0% | 0hPa | 2.6V | 00:00:00 | 00:00:00 | 00:00:00 | |
| OE5DRO-10 | 2026-08-31 12:35:20 | 45.83514 | 9.84792 | 327° | 26km/h | 25257m | 5.5m/s | 0°C | 0% | 0hPa | 2.6V | 00:00:00 | 00:00:00 | 00:00:00 | |
| PG1ADW-2 | 2026-08-31 12:35:01 | 45.83430 | 9.84907 | 300° | 24km/h | 25162m | 5.4m/s | 0°C | 0% | 0hPa | 2.6V | 00:00:00 | 02:00:24 | 00:00:00 | |
| IW2NTF | 2026-08-31 12:34:59 | 45.83408 | 9.84959 | 307° | 18km/h | 25129m | 5.8m/s | -51.4°C | 3.9% | 0hPa | 2.6V | 08:30:00 | 02:00:17 | 00:00:00 | |
| OE5DRO-10 | 2026-08-31 12:34:58 | 45.83421 | 9.84929 | 303° | 24km/h | 25148m | 5.6m/s | 0°C | 0% | 0hPa | 2.6V | 00:00:00 | 00:00:00 | 00:00:00 | |
| S52SK | 2026-08-31 12:34:50 | 45.83402 | 9.84970 | 296° | 11km/h | 25114m | 4.8m/s | -51.5°C | 1.2% | 0hPa | 2.6V | 00:00:00 | 00:00:00 | 00:00:00 | |
| IW2NTF | 2026-08-31 12:34:41 | 45.83381 | 9.85083 | 292° | 18km/h | 25045m | 4.7m/s | -51.6°C | 3.9% | 0hPa | 2.6V | 08:30:00 | 02:00:00 | 00:00:00 | |
| OE5DRO-10 | 2026-08-31 12:34:39 | 45.83384 | 9.85068 | 281° | 22km/h | 25055m | 4.7m/s | 0°C | 0% | 0hPa | 2.6V | 00:00:00 | 00:00:00 | 00:00:00 | |
| PG1ADW-2 | 2026-08-31 12:34:34 | 45.83375 | 9.85101 | 291° | 18km/h | 25030m | 5.1m/s | 0°C | 0% | 0hPa | 2.6V | 00:00:00 | 00:00:00 | 08:30:00 | |
| IW2NTF | 2026-08-31 12:34:23 | 45.83358 | 9.85193 | 275° | 9km/h | 24967m | 5.2m/s | -51.3°C | 3.8% | 0hPa | 2.6V | 08:30:00 | 01:59:44 | 00:00:00 | |
| PG1ADW-2 | 2026-08-31 12:34:14 | 45.83355 | 9.85219 | 280° | 9km/h | 24932m | 4.5m/s | 0°C | 0% | 0hPa | 2.7V | 00:00:00 | 00:00:00 | 00:00:00 | |
| S52SK | 2026-08-31 12:34:11 | 45.83355 | 9.85227 | 272° | 15km/h | 24922m | 6.0m/s | -51.3°C | 1.2% | 0hPa | 2.7V | 00:00:00 | 00:00:00 | 00:00:00 | |
| IW2NTF | 2026-08-31 12:34:10 | 45.83356 | 9.85244 | 257° | 15km/h | 24907m | 5.6m/s | -51.5°C | 3.7% | 0hPa | 2.7V | 08:30:00 | 01:59:32 | 00:00:00 | |
| IW2NTF | 2026-08-31 12:34:05 | 45.83363 | 9.85255 | 13° | 5km/h | 24857m | 4.5m/s | -51.3°C | 3.8% | 0hPa | 2.6V | 08:30:00 | 01:59:22 | 00:00:00 | |
| S52SK | 2026-08-31 12:34:00 | 45.83364 | 9.85255 | 0° | 0km/h | 24868m | 5.8m/s | -51.3°C | 1.2% | 0hPa | 2.6V | 00:00:00 | 00:00:00 | 00:00:00 | |
| PG1ADW-2 | 2026-08-31 12:33:54 | 45.83355 | 9.85260 | 344° | 7km/h | 24834m | 5.4m/s | 0°C | 0% | 0hPa | 2.6V | 00:00:00 | 00:00:00 | 00:00:00 | |
| S52SK | 2026-08-31 12:33:53 | 45.83355 | 9.85260 | 344° | 5km/h | 24834m | 5.5m/s | -51.5°C | 1.2% | 0hPa | 2.6V | 00:00:00 | 00:00:00 | 00:00:00 | |
| IW2NTF | 2026-08-31 12:33:53 | 45.83352 | 9.85256 | 194° | 2km/h | 24810m | 5.2m/s | -51.5°C | 3.8% | 0hPa | 2.6V | 08:30:00 | 01:59:12 | 00:00:00 | |
| S52SK | 2026-08-31 12:33:47 | 45.83352 | 9.85256 | 200° | 4km/h | 24806m | 4.3m/s | -51.6°C | 1.3% | 0hPa | 2.6V | 00:00:00 | 00:00:00 | 00:00:00 | |
| S52SK | 2026-08-31 12:33:42 | 45.83355 | 9.85249 | 24° | 9km/h | 24776m | 4.7m/s | -51.6°C | 1.2% | 0hPa | 2.6V | 00:00:00 | 00:00:00 | 00:00:00 | |
| IW2NTF | 2026-08-31 12:33:41 | 45.83340 | 9.85236 | 52° | 15km/h | 24752m | 4.4m/s | -51.8°C | 3.8% | 0hPa | 2.6V | 08:30:00 | 01:59:00 | 00:00:00 | |
| S52SK | 2026-08-31 12:33:36 | 45.83340 | 9.85236 | 54° | 15km/h | 24752m | 4.4m/s | -51.8°C | 1.2% | 0hPa | 2.6V | 00:00:00 | 00:00:00 | 00:00:00 | |
| PG1ADW-2 | 2026-08-31 12:33:34 | 45.83337 | 9.85229 | 36° | 11km/h | 24737m | 4.7m/s | 0°C | 0% | 0hPa | 2.6V | 00:00:00 | 01:58:57 | 00:00:00 | |
| IW2NTF | 2026-08-31 12:33:29 | 45.83326 | 9.85217 | 21° | 11km/h | 24702m | 4.2m/s | -51.8°C | 3.9% | 0hPa | 2.6V | 08:30:00 | 01:58:50 | 00:00:00 | |
| IW2NTF | 2026-08-31 12:33:22 | 45.83305 | 9.85188 | 58° | 13km/h | 24652m | 4.5m/s | -51.8°C | 3.8% | 0hPa | 2.6V | 08:30:00 | 01:58:40 | 00:00:00 | |
| IW2NTF | 2026-08-31 12:33:11 | 45.83269 | 9.85163 | 23° | 20km/h | 24603m | 5.4m/s | -52°C | 4% | 0hPa | 2.7V | 08:30:00 | 01:58:30 | 00:00:00 | |
| PG1ADW-2 | 2026-08-31 12:33:10 | 45.83283 | 9.85173 | 28° | 16km/h | 24618m | 4.7m/s | 0°C | 0% | 0hPa | 2.7V | 00:00:00 | 00:00:00 | 00:00:00 | |
| S52SK | 2026-08-31 12:33:02 | 45.83253 | 9.85149 | 45° | 16km/h | 24583m | 4.1m/s | -51.9°C | 1.2% | 0hPa | 2.7V | 00:00:00 | 00:00:00 | 00:00:00 | |
| IW2NTF | 2026-08-31 12:32:59 | 45.83235 | 9.85146 | 352° | 15km/h | 24553m | 5.6m/s | -51.8°C | 3.8% | 0hPa | 2.7V | 08:30:00 | 01:58:20 | 00:00:00 | |
| S52SK | 2026-08-31 12:32:56 | 45.83235 | 9.85145 | 353° | 15km/h | 24554m | 5.6m/s | -51.8°C | 1.2% | 0hPa | 2.6V | 00:00:00 | 00:00:00 | 00:00:00 | |
| PG1ADW-2 | 2026-08-31 12:32:50 | 45.83212 | 9.85139 | 34° | 18km/h | 24520m | 5.6m/s | 0°C | 0% | 0hPa | 2.6V | 00:00:00 | 00:00:00 | 00:00:00 | |
| IW2NTF | 2026-08-31 12:32:49 | 45.83203 | 9.85130 | 22° | 15km/h | 24506m | 4.7m/s | -51.9°C | 3.9% | 0hPa | 2.6V | 08:30:00 | 01:58:10 | 00:00:00 | |
| IW2NTF | 2026-08-31 12:32:38 | 45.83155 | 9.85131 | 19° | 13km/h | 24456m | 5.3m/s | -51.8°C | 3.7% | 0hPa | 2.6V | 08:30:00 | 01:58:00 | 00:00:00 | |
| IW2NTF | 2026-08-31 12:32:33 | 45.83111 | 9.85136 | 358° | 37km/h | 24407m | 4.3m/s | -52.4°C | 3.9% | 0hPa | 2.6V | 08:30:00 | 01:57:50 | 00:00:00 | |
| IW2NTF | 2026-08-31 12:32:21 | 45.83042 | 9.85141 | 329° | 20km/h | 24349m | 5m/s | -52.6°C | 4% | 0hPa | 2.6V | 08:30:00 | 01:57:38 | 00:00:00 | |
| S52SK | 2026-08-31 12:32:13 | 45.83037 | 9.85143 | 343° | 24km/h | 24345m | 5.2m/s | -52.6°C | 1.3% | 0hPa | 2.6V | 00:00:00 | 00:00:00 | 00:00:00 | |
| IW2NTF | 2026-08-31 12:32:09 | 45.82976 | 9.85153 | 18° | 20km/h | 24301m | 4.1m/s | -53.1°C | 4.1% | 0hPa | 2.6V | 08:30:00 | 01:57:28 | 00:00:00 | |
| S52SK | 2026-08-31 12:32:07 | 45.82992 | 9.85155 | 353° | 26km/h | 24317m | 4.6m/s | -52.9°C | 1.3% | 0hPa | 2.7V | 00:00:00 | 00:00:00 | 00:00:00 | |
| OE5DRO-10 | 2026-08-31 12:32:02 | 45.82963 | 9.85150 | 349° | 20km/h | 24287m | 5.4m/s | 0°C | 0% | 0hPa | 2.7V | 00:00:00 | 00:00:00 | 00:00:00 | |
| IW2NTF | 2026-08-31 12:31:59 | 45.82925 | 9.85168 | 344° | 26km/h | 24253m | 5.8m/s | -53°C | 3.9% | 0hPa | 2.7V | 08:30:00 | 01:57:18 | 00:00:00 | |
| IW2NTF | 2026-08-31 12:31:46 | 45.82884 | 9.85185 | 325° | 22km/h | 24204m | 4.9m/s | -53.2°C | 4.1% | 0hPa | 2.7V | 08:30:00 | 01:57:08 | 00:00:00 | |
| IW2NTF | 2026-08-31 12:31:41 | 45.82822 | 9.85212 | 327° | 16km/h | 24154m | 3.8m/s | -53°C | 4.1% | 0hPa | 2.7V | 08:30:00 | 01:56:58 | 00:00:00 | |
| S52SK | 2026-08-31 12:31:31 | 45.82812 | 9.85229 | 307° | 26km/h | 24140m | 4.8m/s | -53.2°C | 1.4% | 0hPa | 2.6V | 00:00:00 | 00:00:00 | 00:00:00 | |
| IW2NTF | 2026-08-31 12:31:29 | 45.82766 | 9.85273 | 330° | 35km/h | 24105m | 4.8m/s | -53.5°C | 4.1% | 0hPa | 2.6V | 08:30:00 | 01:56:48 | 00:00:00 | |
| PG1ADW-2 | 2026-08-31 12:31:25 | 45.82766 | 9.85273 | 331° | 26km/h | 24106m | 4.8m/s | 0°C | 0% | 0hPa | 2.6V | 00:00:00 | 00:00:00 | 00:00:00 | |
| S52SK | 2026-08-31 12:31:20 | 45.82742 | 9.85291 | 327° | 20km/h | 24087m | 4.1m/s | -53.4°C | 1.3% | 0hPa | 2.6V | 00:00:00 | 00:00:00 | 00:00:00 | |
| IW2NTF | 2026-08-31 12:31:17 | 45.82720 | 9.85335 | 313° | 26km/h | 24058m | 4.8m/s | -53.4°C | 4% | 0hPa | 2.6V | 08:30:00 | 01:56:38 | 00:00:00 | |
| IW2NTF | 2026-08-31 12:31:06 | 45.82674 | 9.85398 | 319° | 29km/h | 24010m | 4m/s | -53.8°C | 4.3% | 0hPa | 2.6V | 08:30:00 | 01:56:28 | 00:00:00 | |
| DB0UT-7 | 2026-08-31 12:31:04 | 45.82669 | 9.85405 | 316° | 18km/h | 24005m | 5.4m/s | 0°C | 0% | 0hPa | 2.7V | 00:00:00 | 00:00:00 | 00:00:00 | |
| IW2NTF | 2026-08-31 12:31:01 | 45.82638 | 9.85462 | 290° | 15km/h | 23960m | 4m/s | -53.9°C | 4.2% | 0hPa | 2.7V | 08:30:00 | 01:56:18 | 00:00:00 | |
| IW2NTF | 2026-08-31 12:30:50 | 45.82604 | 9.85520 | 320° | 20km/h | 23910m | 5m/s | -53.7°C | 4.2% | 0hPa | 2.7V | 08:30:00 | 01:56:08 | 00:00:00 | |
| S52SK | 2026-08-31 12:30:47 | 45.82616 | 9.85501 | 305° | 26km/h | 23926m | 3.9m/s | -53.6°C | 1.4% | 0hPa | 2.6V | 00:00:00 | 00:00:00 | 00:00:00 | |
| PG1ADW-2 | 2026-08-31 12:30:44 | 45.82600 | 9.85524 | 323° | 15km/h | 23906m | 4.8m/s | 0°C | 0% | 0hPa | 2.6V | 00:00:00 | 00:00:00 | 00:00:00 | |
| S52SK | 2026-08-31 12:30:41 | 45.82594 | 9.85532 | 315° | 15km/h | 23895m | 5.1m/s | -53.7°C | 1.3% | 0hPa | 2.6V | 00:00:00 | 00:00:00 | 00:00:00 | |
| IW2NTF | 2026-08-31 12:30:40 | 45.82573 | 9.85551 | 312° | 16km/h | 23860m | 5.1m/s | -53.5°C | 4.3% | 0hPa | 2.6V | 08:30:00 | 01:55:58 | 00:00:00 | |
| S52SK | 2026-08-31 12:30:36 | 45.82580 | 9.85544 | 336° | 15km/h | 23870m | 4.0m/s | -53.7°C | 1.4% | 0hPa | 2.6V | 00:00:00 | 00:00:00 | 00:00:00 | |
| DB0UT-7 | 2026-08-31 12:30:31 | 45.82562 | 9.85566 | 326° | 18km/h | 23840m | 4.8m/s | 0°C | 0% | 0hPa | 2.6V | 00:00:00 | 01:55:54 | 00:00:00 | |
| IW2NTF | 2026-08-31 12:30:29 | 45.82550 | 9.85584 | 328° | 15km/h | 23809m | 5m/s | -53.6°C | 4.2% | 0hPa | 2.6V | 08:30:00 | 01:55:48 | 00:00:00 | |
| PG1ADW-2 | 2026-08-31 12:30:24 | 45.82547 | 9.85587 | 327° | 16km/h | 23804m | 4.8m/s | 0°C | 0% | 0hPa | 2.6V | 00:00:00 | 00:00:00 | 00:00:00 | |
| IW2NTF | 2026-08-31 12:30:20 | 45.82531 | 9.85618 | 313° | 5km/h | 23759m | 5.8m/s | -53.2°C | 4% | 0hPa | 2.6V | 08:30:00 | 01:55:38 | 00:00:00 | |
| IW2NTF | 2026-08-31 12:30:10 | 45.82516 | 9.85639 | 294° | 9km/h | 23708m | 5.9m/s | -53.5°C | 4.2% | 0hPa | 2.7V | 08:30:00 | 01:55:28 | 00:00:00 | |
| IW2NTF | 2026-08-31 12:30:01 | 45.82494 | 9.85648 | 359° | 16km/h | 23657m | 5.2m/s | -53.8°C | 4.2% | 0hPa | 2.7V | 08:30:00 | 01:55:18 | 00:00:00 | |
| IW2NTF | 2026-08-31 12:29:50 | 45.82466 | 9.85648 | 14° | 11km/h | 23606m | 3.9m/s | -53.9°C | 4.4% | 0hPa | 2.7V | 08:30:00 | 01:55:08 | 00:00:00 | |
| S52SK | 2026-08-31 12:29:48 | 45.82475 | 9.85651 | 9° | 13km/h | 23627m | 4.9m/s | -54.0°C | 1.4% | 0hPa | 2.6V | 00:00:00 | 00:00:00 | 00:00:00 | |
| S52SK | 2026-08-31 12:29:42 | 45.82459 | 9.85645 | 14° | 18km/h | 23596m | 5.2m/s | -53.8°C | 1.4% | 0hPa | 2.6V | 00:00:00 | 00:00:00 | 00:00:00 | |
| IW2NTF | 2026-08-31 12:29:40 | 45.82421 | 9.85658 | 346° | 18km/h | 23555m | 4.5m/s | -53.5°C | 4.2% | 0hPa | 2.6V | 08:30:00 | 01:54:58 | 00:00:00 | |
| IW2NTF | 2026-08-31 12:29:30 | 45.82382 | 9.85678 | 318° | 24km/h | 23504m | 4.7m/s | -53.5°C | 4.2% | 0hPa | 2.6V | 08:30:00 | 01:54:48 | 00:00:00 | |
| IW2NTF | 2026-08-31 12:29:20 | 45.82343 | 9.85724 | 318° | 20km/h | 23456m | 5.1m/s | -53.3°C | 4.2% | 0hPa | 2.6V | 08:30:00 | 01:54:38 | 00:00:00 | |
| IW2NTF | 2026-08-31 12:29:10 | 45.82310 | 9.85779 | 301° | 18km/h | 23405m | 5.9m/s | -53.1°C | 4.1% | 0hPa | 2.7V | 08:30:00 | 01:54:28 | 00:00:00 | |
| S52SK | 2026-08-31 12:29:08 | 45.82323 | 9.85757 | 310° | 20km/h | 23425m | 6.0m/s | -53.3°C | 1.4% | 0hPa | 2.7V | 00:00:00 | 00:00:00 | 00:00:00 | |
| S52SK | 2026-08-31 12:29:04 | 45.82308 | 9.85784 | 295° | 18km/h | 23400m | 4.6m/s | -53.1°C | 1.3% | 0hPa | 2.7V | 00:00:00 | 00:00:00 | 00:00:00 | |
| IW2NTF | 2026-08-31 12:29:01 | 45.82283 | 9.85843 | 288° | 22km/h | 23357m | 4.4m/s | -53°C | 4.1% | 0hPa | 2.7V | 08:30:00 | 01:54:18 | 00:00:00 | |
| IW2NTF | 2026-08-31 12:28:51 | 45.82250 | 9.85917 | 306° | 29km/h | 23308m | 3.9m/s | -53.3°C | 4.2% | 0hPa | 2.6V | 08:30:00 | 01:54:08 | 00:00:00 | |
| IW2NTF | 2026-08-31 12:28:41 | 45.82232 | 9.85998 | 277° | 13km/h | 23259m | 4.3m/s | -53.2°C | 4.2% | 0hPa | 2.6V | 08:30:00 | 01:53:58 | 00:00:00 | |
| IW2NTF | 2026-08-31 12:28:30 | 45.82226 | 9.86059 | 268° | 24km/h | 23209m | 4.8m/s | -53°C | 4% | 0hPa | 2.6V | 08:30:00 | 01:53:48 | 00:00:00 | |
| S52SK | 2026-08-31 12:28:25 | 45.82226 | 9.86050 | 266° | 22km/h | 23214m | 5.7m/s | -53.0°C | 1.3% | 0hPa | 2.7V | 00:00:00 | 00:00:00 | 00:00:00 | |
| IW2NTF | 2026-08-31 12:28:21 | 45.82234 | 9.86114 | 248° | 18km/h | 23161m | 4.8m/s | -53°C | 4.1% | 0hPa | 2.7V | 08:30:00 | 01:53:38 | 00:00:00 | |
| S52SK | 2026-08-31 12:28:20 | 45.82228 | 9.86086 | 247° | 13km/h | 23189m | 4.8m/s | -53.1°C | 1.3% | 0hPa | 2.7V | 00:00:00 | 00:00:00 | 00:00:00 | |
| IW2NTF | 2026-08-31 12:28:11 | 45.82254 | 9.86156 | 215° | 16km/h | 23115m | 4.4m/s | -53°C | 4% | 0hPa | 2.7V | 08:30:00 | 01:53:28 | 00:00:00 | |
| IW2NTF | 2026-08-31 12:28:00 | 45.82289 | 9.86174 | 184° | 9km/h | 23067m | 3.7m/s | -53°C | 4% | 0hPa | 2.7V | 08:30:00 | 01:53:18 | 00:00:00 | |
| IW2NTF | 2026-08-31 12:27:50 | 45.82325 | 9.86172 | 167° | 20km/h | 23018m | 4.3m/s | -53.2°C | 4.2% | 0hPa | 2.6V | 08:30:00 | 01:53:08 | 00:00:00 | |
| S52SK | 2026-08-31 12:27:41 | 45.82336 | 9.86165 | 137° | 13km/h | 23004m | 4.7m/s | -53.3°C | 0% | 0hPa | 2.6V | 00:00:00 | 00:00:00 | 00:00:00 | |
| IW2NTF | 2026-08-31 12:27:40 | 45.82351 | 9.86129 | 120° | 16km/h | 22972m | 5.3m/s | -53.4°C | 4.2% | 0hPa | 2.6V | 08:30:00 | 01:52:58 | 00:00:00 | |
| S52SK | 2026-08-31 12:27:36 | 45.82346 | 9.86140 | 123° | 20km/h | 22981m | 4.2m/s | -53.3°C | 0% | 0hPa | 2.7V | 00:00:00 | 00:00:00 | 00:00:00 | |
| IW2NTF | 2026-08-31 12:27:31 | 45.82375 | 9.86095 | 93° | 15km/h | 22924m | 5.7m/s | -53.4°C | 4.2% | 0hPa | 2.7V | 08:30:00 | 01:52:48 | 00:00:00 | |
| S52SK | 2026-08-31 12:27:31 | 45.82361 | 9.86114 | 155° | 16km/h | 22952m | 5.4m/s | -53.4°C | 0% | 0hPa | 2.7V | 00:00:00 | 00:00:00 | 00:00:00 | |
| IW2NTF | 2026-08-31 12:27:20 | 45.82381 | 9.86050 | 148° | 13km/h | 22876m | 4.8m/s | -53.2°C | 4.2% | 0hPa | 2.7V | 08:30:00 | 01:52:38 | 00:00:00 | |
| IW2NTF | 2026-08-31 12:27:10 | 45.82381 | 9.86018 | 90° | 5km/h | 22829m | 4.1m/s | -53.1°C | 4.1% | 0hPa | 2.6V | 08:30:00 | 01:52:28 | 00:00:00 | |
| IW2NTF | 2026-08-31 12:27:01 | 45.82385 | 9.85979 | 86° | 16km/h | 22780m | 3.8m/s | -52.8°C | 4.1% | 0hPa | 2.6V | 08:30:00 | 01:52:18 | 00:00:00 | |
| S52SK | 2026-08-31 12:26:55 | 45.82386 | 9.85985 | 88° | 16km/h | 22785m | 4.6m/s | -52.9°C | 0% | 0hPa | 2.6V | 00:00:00 | 00:00:00 | 00:00:00 | |
| IW2NTF | 2026-08-31 12:26:51 | 45.82390 | 9.85934 | 96° | 16km/h | 22733m | 4.9m/s | -52.8°C | 4.1% | 0hPa | 2.6V | 08:30:00 | 01:52:08 | 00:00:00 | |
| S52SK | 2026-08-31 12:26:49 | 45.82382 | 9.85960 | 99° | 9km/h | 22757m | 5.3m/s | -52.8°C | 0% | 0hPa | 2.7V | 00:00:00 | 00:00:00 | 00:00:00 | |
| IW2NTF | 2026-08-31 12:26:40 | 45.82390 | 9.85866 | 93° | 20km/h | 22684m | 5.2m/s | -52.8°C | 4.1% | 0hPa | 2.7V | 08:30:00 | 01:51:58 | 00:00:00 | |
| IW2NTF | 2026-08-31 12:26:31 | 45.82392 | 9.85781 | 94° | 16km/h | 22635m | 5.5m/s | -52.7°C | 4.1% | 0hPa | 2.7V | 08:30:00 | 01:51:48 | 00:00:00 | |
| IW2NTF | 2026-08-31 12:26:20 | 45.82397 | 9.85704 | 92° | 22km/h | 22586m | 4.5m/s | -52.5°C | 4.1% | 0hPa | 2.6V | 08:30:00 | 01:51:38 | 00:00:00 | |
| S52SK | 2026-08-31 12:26:11 | 45.82400 | 9.85683 | 104° | 16km/h | 22571m | 4.9m/s | -52.4°C | 0% | 0hPa | 2.6V | 00:00:00 | 00:00:00 | 00:00:00 | |
| IW2NTF | 2026-08-31 12:26:10 | 45.82406 | 9.85641 | 101° | 26km/h | 22535m | 4.6m/s | -52.3°C | 4% | 0hPa | 2.6V | 08:30:00 | 01:51:28 | 00:00:00 | |
| S52SK | 2026-08-31 12:26:06 | 45.82403 | 9.85657 | 107° | 20km/h | 22545m | 5.6m/s | -52.3°C | 0% | 0hPa | 2.7V | 00:00:00 | 00:00:00 | 00:00:00 | |
| IW2NTF | 2026-08-31 12:26:00 | 45.82410 | 9.85576 | 112° | 7km/h | 22486m | 5.5m/s | -52.1°C | 3.9% | 0hPa | 2.7V | 08:30:00 | 01:51:18 | 00:00:00 | |
| IW2NTF | 2026-08-31 12:25:51 | 45.82416 | 9.85525 | 95° | 22km/h | 22437m | 4.8m/s | -52.2°C | 4% | 0hPa | 2.6V | 08:30:00 | 01:51:08 | 00:00:00 | |
| IW2NTF | 2026-08-31 12:25:41 | 45.82421 | 9.85465 | 85° | 15km/h | 22389m | 4.6m/s | -52.1°C | 3.9% | 0hPa | 2.6V | 08:30:00 | 01:50:58 | 00:00:00 | |
| IW2NTF | 2026-08-31 12:25:30 | 45.82421 | 9.85374 | 98° | 24km/h | 22339m | 4.7m/s | -52°C | 3.9% | 0hPa | 2.6V | 08:30:00 | 01:50:48 | 00:00:00 | |
| S52SK | 2026-08-31 12:25:24 | 45.82421 | 9.85374 | 99° | 24km/h | 22339m | 4.7m/s | -52.0°C | 0% | 0hPa | 2.7V | 00:00:00 | 00:00:00 | 00:00:00 | |
| IW2NTF | 2026-08-31 12:25:20 | 45.82421 | 9.85297 | 87° | 27km/h | 22292m | 3.8m/s | -52°C | 3.9% | 0hPa | 2.7V | 08:30:00 | 01:50:38 | 00:00:00 | |
| S52SK | 2026-08-31 12:25:18 | 45.82422 | 9.85334 | 95° | 22km/h | 22310m | 4.0m/s | -52.0°C | 0% | 0hPa | 2.6V | 00:00:00 | 00:00:00 | 00:00:00 | |
| S52SK | 2026-08-31 12:25:12 | 45.82421 | 9.85279 | 101° | 24km/h | 22282m | 5.2m/s | -51.9°C | 0% | 0hPa | 2.6V | 00:00:00 | 00:00:00 | 00:00:00 | |
| IW2NTF | 2026-08-31 12:25:11 | 45.82418 | 9.85216 | 84° | 22km/h | 22244m | 4.6m/s | -52°C | 3.8% | 0hPa | 2.6V | 08:30:00 | 01:50:28 | 00:00:00 | |
| S52SK | 2026-08-31 12:25:06 | 45.82420 | 9.85232 | 79° | 24km/h | 22254m | 5.2m/s | 0°C | 0% | 0hPa | 2.6V | 00:00:00 | 00:00:00 | 00:00:00 | |
| IW2NTF | 2026-08-31 12:25:00 | 45.82403 | 9.85150 | 66° | 20km/h | 22195m | 4.4m/s | -51.9°C | 3.9% | 0hPa | 2.6V | 08:30:00 | 01:50:18 | 00:00:00 | |
| IW2NTF | 2026-08-31 12:24:51 | 45.82378 | 9.85067 | 54° | 27km/h | 22147m | 4.6m/s | -51.9°C | 3.8% | 0hPa | 2.7V | 08:30:00 | 01:50:08 | 00:00:00 | |
| IW2NTF | 2026-08-31 12:24:40 | 45.82355 | 9.85007 | 60° | 27km/h | 22101m | 5m/s | -52.4°C | 3.8% | 0hPa | 2.7V | 08:30:00 | 01:49:58 | 00:00:00 | |
| IW2NTF | 2026-08-31 12:24:29 | 45.82309 | 9.84951 | 23° | 15km/h | 22048m | 4.7m/s | -52.6°C | 4.1% | 0hPa | 2.7V | 08:30:00 | 01:49:47 | 00:00:00 | |
| S52SK | 2026-08-31 12:24:21 | 45.82302 | 9.84945 | 39° | 18km/h | 22039m | 5.7m/s | 0°C | 0% | 0hPa | 2.6V | 00:00:00 | 00:00:00 | 00:00:00 | |
| IW2NTF | 2026-08-31 12:24:20 | 45.82257 | 9.84906 | 27° | 27km/h | 22000m | 4.4m/s | -52.5°C | 4.1% | 0hPa | 2.6V | 08:30:00 | 01:49:37 | 00:00:00 | |
| S52SK | 2026-08-31 12:24:15 | 45.82270 | 9.84915 | 26° | 29km/h | 22010m | 5.2m/s | 0°C | 0% | 0hPa | 2.7V | 00:00:00 | 00:00:00 | 00:00:00 | |
| IW2NTF | 2026-08-31 12:24:09 | 45.82203 | 9.84882 | 17° | 24km/h | 21949m | 4.3m/s | -52.8°C | 3.9% | 0hPa | 2.7V | 08:30:00 | 01:49:27 | 00:00:00 | |
| S52SK | 2026-08-31 12:24:07 | 45.82224 | 9.84892 | 21° | 20km/h | 21969m | 5.1m/s | 0°C | 0% | 0hPa | 2.7V | 00:00:00 | 00:00:00 | 00:00:00 | |
| IW2NTF | 2026-08-31 12:23:59 | 45.82145 | 9.84875 | 354° | 18km/h | 21900m | 3.7m/s | -52.7°C | 4% | 0hPa | 2.7V | 08:30:00 | 01:49:17 | 00:00:00 | |
| IW2NTF | 2026-08-31 12:23:49 | 45.82098 | 9.84869 | 346° | 20km/h | 21851m | 4.4m/s | -52.9°C | 4.1% | 0hPa | 2.6V | 08:30:00 | 01:49:07 | 00:00:00 | |
| IW2NTF | 2026-08-31 12:23:39 | 45.82060 | 9.84899 | 347° | 16km/h | 21802m | 5m/s | -52.9°C | 4% | 0hPa | 2.6V | 08:30:00 | 01:48:57 | 00:00:00 | |
| S52SK | 2026-08-31 12:23:31 | 45.82051 | 9.84901 | 352° | 20km/h | 21793m | 5.0m/s | 0°C | 0% | 0hPa | 2.7V | 00:00:00 | 00:00:00 | 00:00:00 | |
| IW2NTF | 2026-08-31 12:23:29 | 45.82012 | 9.84908 | 348° | 18km/h | 21754m | 5.4m/s | -52.9°C | 4.2% | 0hPa | 2.7V | 08:30:00 | 01:48:47 | 00:00:00 | |
| S52SK | 2026-08-31 12:23:25 | 45.82020 | 9.84907 | 2° | 16km/h | 21764m | 4.3m/s | 0°C | 0% | 0hPa | 2.6V | 00:00:00 | 00:00:00 | 00:00:00 | |
| S52SK | 2026-08-31 12:23:20 | 45.81998 | 9.84912 | 356° | 18km/h | 21740m | 5.3m/s | 0°C | 0% | 0hPa | 2.6V | 00:00:00 | 00:00:00 | 00:00:00 | |
| IW2NTF | 2026-08-31 12:23:19 | 45.81963 | 9.84921 | 348° | 22km/h | 21707m | 5.2m/s | -53°C | 4% | 0hPa | 2.6V | 08:30:00 | 01:48:37 | 00:00:00 | |
| IW2NTF | 2026-08-31 12:23:09 | 45.81906 | 9.84928 | 353° | 24km/h | 21658m | 5.4m/s | -53°C | 4.1% | 0hPa | 2.6V | 08:30:00 | 01:48:27 | 00:00:00 | |
| IW2NTF | 2026-08-31 12:22:59 | 45.81838 | 9.84927 | 5° | 27km/h | 21609m | 5.3m/s | -53.4°C | 4.1% | 0hPa | 2.7V | 08:30:00 | 01:48:17 | 00:00:00 | |
| IW2NTF | 2026-08-31 12:22:49 | 45.81777 | 9.84923 | 2° | 27km/h | 21562m | 4.2m/s | -53.3°C | 4.1% | 0hPa | 2.7V | 08:30:00 | 01:48:07 | 00:00:00 | |
| NBG1-10 | 2026-08-31 12:22:44 | 45.81777 | 9.84922 | 3° | 26km/h | 21562m | 4.1m/s | 0°C | 0% | 0hPa | 2.6V | 00:00:00 | 01:48:07 | 00:00:00 | |
| IW2NTF | 2026-08-31 12:22:39 | 45.81709 | 9.84930 | 352° | 26km/h | 21517m | 5.3m/s | -53.4°C | 4.1% | 0hPa | 2.6V | 08:30:00 | 01:47:57 | 00:00:00 | |
| S52SK | 2026-08-31 12:22:39 | 45.81749 | 9.84928 | 347° | 29km/h | 21544m | 3.9m/s | 0°C | 0% | 0hPa | 2.6V | 00:00:00 | 00:00:00 | 00:00:00 | |
| IW2NTF | 2026-08-31 12:22:29 | 45.81649 | 9.84962 | 338° | 18km/h | 21465m | 4.6m/s | -53.4°C | 4.1% | 0hPa | 2.6V | 08:30:00 | 01:47:46 | 00:00:00 | |
| IW2NTF | 2026-08-31 12:22:19 | 45.81608 | 9.85018 | 322° | 26km/h | 21418m | 5.7m/s | -53.7°C | 4.2% | 0hPa | 2.7V | 08:30:00 | 01:47:36 | 00:00:00 | |
| NBG1-10 | 2026-08-31 12:22:11 | 45.81597 | 9.85030 | 323° | 24km/h | 21410m | 3.5m/s | 0°C | 0% | 0hPa | 2.7V | 00:00:00 | 01:47:34 | 00:00:00 | |
| IW2NTF | 2026-08-31 12:22:08 | 45.81564 | 9.85079 | 303° | 31km/h | 21373m | 4.2m/s | -53.9°C | 4.2% | 0hPa | 2.7V | 08:30:00 | 01:47:26 | 00:00:00 | |
| S52SK | 2026-08-31 12:21:59 | 45.81552 | 9.85103 | 307° | 26km/h | 21359m | 4.6m/s | 0°C | 0% | 0hPa | 2.6V | 00:00:00 | 00:00:00 | 00:00:00 | |
| IW2NTF | 2026-08-31 12:21:58 | 45.81524 | 9.85153 | 306° | 24km/h | 21326m | 4m/s | -53.9°C | 4.3% | 0hPa | 2.6V | 08:30:00 | 01:47:16 | 00:00:00 | |
| IW2NTF | 2026-08-31 12:21:48 | 45.81496 | 9.85235 | 303° | 22km/h | 21280m | 4.1m/s | -53.6°C | 4.1% | 0hPa | 2.7V | 08:30:00 | 01:47:06 | 00:00:00 | |
| NBG1-10 | 2026-08-31 12:21:38 | 45.81481 | 9.85261 | 298° | 18km/h | 21256m | 4.8m/s | 0°C | 0% | 0hPa | 2.7V | 00:00:00 | 01:47:01 | 00:00:00 | |
| IW2NTF | 2026-08-31 12:21:35 | 45.81475 | 9.85299 | 280° | 22km/h | 21232m | 4.2m/s | -53.8°C | 4.2% | 0hPa | 2.7V | 08:30:00 | 01:46:56 | 00:00:00 | |
| S52SK | 2026-08-31 12:21:31 | 45.81473 | 9.85306 | 288° | 22km/h | 21227m | 5.5m/s | 0°C | 0% | 0hPa | 2.6V | 00:00:00 | 00:00:00 | 00:00:00 | |
| IW2NTF | 2026-08-31 12:21:25 | 45.81461 | 9.85352 | 276° | 18km/h | 21187m | 3.9m/s | -53.7°C | 4.3% | 0hPa | 2.6V | 08:30:00 | 01:46:46 | 00:00:00 | |
| IW2NTF | 2026-08-31 12:21:18 | 45.81454 | 9.85401 | 274° | 15km/h | 21141m | 5.1m/s | -53.7°C | 4.2% | 0hPa | 2.6V | 08:30:00 | 01:46:36 | 00:00:00 | |
| IW2NTF | 2026-08-31 12:21:08 | 45.81448 | 9.85427 | 198° | 4km/h | 21092m | 5.7m/s | -53.4°C | 4.3% | 0hPa | 2.7V | 08:30:00 | 01:46:26 | 00:00:00 | |
| IW2NTF | 2026-08-31 12:20:58 | 45.81458 | 9.85444 | 274° | 7km/h | 21045m | 4.5m/s | -53.2°C | 4.1% | 0hPa | 2.6V | 08:30:00 | 01:46:16 | 00:00:00 | |
| IW2NTF | 2026-08-31 12:20:48 | 45.81462 | 9.85430 | 107° | 9km/h | 20996m | 4.7m/s | -53.1°C | 4.1% | 0hPa | 2.6V | 08:30:00 | 01:46:06 | 00:00:00 | |
| IW2NTF | 2026-08-31 12:20:36 | 45.81444 | 9.85412 | 72° | 15km/h | 20939m | 5.1m/s | -53°C | 4.1% | 0hPa | 2.7V | 08:30:00 | 01:45:54 | 00:00:00 | |
| IW2NTF | 2026-08-31 12:20:26 | 45.81421 | 9.85376 | 22° | 15km/h | 20892m | 4.4m/s | -53°C | 4% | 0hPa | 2.7V | 08:30:00 | 01:45:44 | 00:00:00 | |
| IW2NTF | 2026-08-31 12:20:16 | 45.81387 | 9.85324 | 46° | 24km/h | 20846m | 4.8m/s | -52.9°C | 4% | 0hPa | 2.6V | 08:30:00 | 01:45:34 | 00:00:00 | |
| IW2NTF | 2026-08-31 12:20:07 | 45.81332 | 9.85275 | 42° | 24km/h | 20798m | 3.8m/s | -53.4°C | 4.1% | 0hPa | 2.6V | 08:30:00 | 01:45:24 | 00:00:00 | |
| IW2NTF | 2026-08-31 12:19:56 | 45.81268 | 9.85225 | 19° | 31km/h | 20753m | 4.8m/s | -53.4°C | 4.1% | 0hPa | 2.7V | 08:30:00 | 01:45:14 | 00:00:00 | |
| IW2NTF | 2026-08-31 12:19:46 | 45.81207 | 9.85192 | 3° | 29km/h | 20706m | 4.7m/s | -53.1°C | 4% | 0hPa | 2.6V | 08:30:00 | 01:45:04 | 00:00:00 | |
| IW2NTF | 2026-08-31 12:19:36 | 45.81139 | 9.85186 | 357° | 18km/h | 20662m | 4.1m/s | -53.4°C | 4.1% | 0hPa | 2.6V | 08:30:00 | 01:44:54 | 00:00:00 | |
| IW2NTF | 2026-08-31 12:19:26 | 45.81081 | 9.85174 | 2° | 31km/h | 20617m | 3.9m/s | -53.8°C | 4.2% | 0hPa | 2.7V | 08:30:00 | 01:44:44 | 00:00:00 | |
| IW2NTF | 2026-08-31 12:19:16 | 45.81025 | 9.85190 | 348° | 22km/h | 20572m | 4.8m/s | -53.6°C | 4.1% | 0hPa | 2.6V | 08:30:00 | 01:44:34 | 00:00:00 | |
| IW2NTF | 2026-08-31 12:19:06 | 45.80978 | 9.85214 | 341° | 18km/h | 20525m | 5m/s | -53.5°C | 4.3% | 0hPa | 2.7V | 08:30:00 | 01:44:24 | 00:00:00 | |
| DB0UT-7 | 2026-08-31 12:18:59 | 45.80969 | 9.85217 | 348° | 18km/h | 20516m | 3.7m/s | 0°C | 0% | 0hPa | 2.7V | 00:00:00 | 00:00:00 | 00:00:00 | |
| IW2NTF | 2026-08-31 12:18:56 | 45.80932 | 9.85240 | 328° | 15km/h | 20479m | 5.5m/s | -53.5°C | 4.1% | 0hPa | 2.7V | 08:30:00 | 01:44:14 | 00:00:00 | |
| IW2NTF | 2026-08-31 12:18:47 | 45.80891 | 9.85269 | 324° | 22km/h | 20434m | 5.3m/s | -53.4°C | 4.1% | 0hPa | 2.6V | 08:30:00 | 01:44:04 | 00:00:00 | |
| IW2NTF | 2026-08-31 12:18:36 | 45.80859 | 9.85302 | 336° | 20km/h | 20387m | 5.6m/s | -53.9°C | 4.1% | 0hPa | 2.6V | 08:30:00 | 01:43:54 | 00:00:00 | |
| DB0UT-7 | 2026-08-31 12:18:29 | 45.80849 | 9.85309 | 332° | 42km/h | 20378m | 4.6m/s | 0°C | 0% | 0hPa | 2.7V | 00:00:00 | 01:43:52 | 00:00:00 | |
| IW2NTF | 2026-08-31 12:18:26 | 45.80818 | 9.85336 | 322° | 11km/h | 20342m | 5.1m/s | -53.8°C | 4.2% | 0hPa | 2.7V | 08:30:00 | 01:43:44 | 00:00:00 | |
| IW2NTF | 2026-08-31 12:18:16 | 45.80789 | 9.85347 | 1° | 11km/h | 20295m | 4.2m/s | -53.9°C | 4.1% | 0hPa | 2.6V | 08:30:00 | 01:43:34 | 00:00:00 | |
| IW2NTF | 2026-08-31 12:18:06 | 45.80758 | 9.85344 | 30° | 18km/h | 20250m | 4.2m/s | -54.1°C | 4.3% | 0hPa | 2.6V | 08:30:00 | 01:43:24 | 00:00:00 | |
| IW2NTF | 2026-08-31 12:17:57 | 45.80733 | 9.85311 | 25° | 7km/h | 20204m | 4.6m/s | -54.1°C | 4.2% | 0hPa | 2.7V | 08:30:00 | 01:43:14 | 00:00:00 | |
| IW2NTF | 2026-08-31 12:17:46 | 45.80706 | 9.85284 | 45° | 16km/h | 20158m | 4.1m/s | -54.1°C | 4.3% | 0hPa | 2.6V | 08:30:00 | 01:43:04 | 00:00:00 | |
| IW2NTF | 2026-08-31 12:17:36 | 45.80691 | 9.85257 | 45° | 16km/h | 20112m | 5.6m/s | -54.2°C | 4.2% | 0hPa | 2.7V | 08:30:00 | 01:42:54 | 00:00:00 | |
| IW2NTF | 2026-08-31 12:17:27 | 45.80675 | 9.85215 | 90° | 13km/h | 20066m | 5.3m/s | -54.3°C | 4.2% | 0hPa | 2.7V | 08:30:00 | 01:42:44 | 00:00:00 | |
| IW2NTF | 2026-08-31 12:17:16 | 45.80659 | 9.85148 | 83° | 18km/h | 20020m | 4.8m/s | -54.9°C | 4.3% | 0hPa | 2.6V | 08:30:00 | 01:42:34 | 00:00:00 | |
| IW2NTF | 2026-08-31 12:17:06 | 45.80631 | 9.85080 | 46° | 26km/h | 19975m | 4.8m/s | -55.1°C | 4.5% | 0hPa | 2.6V | 08:30:00 | 01:42:24 | 00:00:00 | |
| IW2NTF | 2026-08-31 12:16:55 | 45.80575 | 9.85001 | 30° | 33km/h | 19924m | 5m/s | -55°C | 4.5% | 0hPa | 2.7V | 08:30:00 | 01:42:13 | 00:00:00 | |
| IW2NTF | 2026-08-31 12:16:45 | 45.80528 | 9.84960 | 37° | 18km/h | 19880m | 5.2m/s | -54.6°C | 4.4% | 0hPa | 2.6V | 08:30:00 | 01:42:03 | 00:00:00 | |
| IW2NTF | 2026-08-31 12:16:35 | 45.80480 | 9.84906 | 29° | 15km/h | 19835m | 5.1m/s | -54.5°C | 4.3% | 0hPa | 2.6V | 08:30:00 | 01:41:53 | 00:00:00 | |
| IW2NTF | 2026-08-31 12:16:24 | 45.80444 | 9.84866 | 42° | 20km/h | 19785m | 5m/s | -54.5°C | 4.2% | 0hPa | 2.7V | 08:30:00 | 01:41:42 | 00:00:00 | |
| IW2NTF | 2026-08-31 12:16:15 | 45.80419 | 9.84834 | 53° | 9km/h | 19739m | 4.6m/s | -54.7°C | 4.3% | 0hPa | 2.6V | 08:30:00 | 01:41:32 | 00:00:00 | |
| IW2NTF | 2026-08-31 12:16:04 | 45.80403 | 9.84808 | 44° | 7km/h | 19695m | 4.2m/s | -55.3°C | 4.3% | 0hPa | 2.6V | 08:30:00 | 01:41:22 | 00:00:00 | |
| IW2NTF | 2026-08-31 12:15:50 | 45.80409 | 9.84779 | 97° | 15km/h | 19648m | 3.8m/s | -55.5°C | 4.4% | 0hPa | 2.7V | 08:30:00 | 01:41:12 | 00:00:00 | |
| IW2NTF | 2026-08-31 12:15:44 | 45.80413 | 9.84715 | 109° | 22km/h | 19602m | 4.8m/s | -56.2°C | 4.6% | 0hPa | 2.6V | 08:30:00 | 01:41:02 | 00:00:00 | |
| IW2NTF | 2026-08-31 12:15:30 | 45.80414 | 9.84614 | 74° | 29km/h | 19557m | 4.7m/s | -56.4°C | 4.7% | 0hPa | 2.6V | 08:30:00 | 01:40:52 | 00:00:00 | |
| IW2NTF | 2026-08-31 12:15:24 | 45.80404 | 9.84506 | 83° | 33km/h | 19513m | 4.3m/s | -56.5°C | 4.7% | 0hPa | 2.7V | 08:30:00 | 01:40:42 | 00:00:00 | |
| IW2NTF | 2026-08-31 12:15:16 | 45.80376 | 9.84401 | 70° | 31km/h | 19469m | 4.7m/s | -56.4°C | 4.7% | 0hPa | 2.7V | 08:30:00 | 01:40:32 | 00:00:00 | |
| IW2NTF | 2026-08-31 12:15:04 | 45.80349 | 9.84303 | 58° | 31km/h | 19423m | 4.1m/s | -56.5°C | 4.7% | 0hPa | 2.6V | 08:30:00 | 01:40:22 | 00:00:00 | |
| IW2NTF | 2026-08-31 12:14:54 | 45.80315 | 9.84204 | 59° | 24km/h | 19377m | 3.9m/s | -56.7°C | 4.7% | 0hPa | 2.7V | 08:30:00 | 01:40:12 | 00:00:00 | |
| IW2NTF | 2026-08-31 12:14:44 | 45.80275 | 9.84120 | 59° | 35km/h | 19332m | 4.9m/s | -56.6°C | 4.7% | 0hPa | 2.6V | 08:30:00 | 01:40:02 | 00:00:00 | |
| IW2NTF | 2026-08-31 12:14:34 | 45.80225 | 9.84021 | 43° | 29km/h | 19287m | 4.1m/s | -56.5°C | 4.8% | 0hPa | 2.6V | 08:30:00 | 01:39:52 | 00:00:00 | |
| IW2NTF | 2026-08-31 12:14:25 | 45.80183 | 9.83953 | 49° | 22km/h | 19242m | 4.2m/s | -56.2°C | 4.7% | 0hPa | 2.7V | 08:30:00 | 01:39:42 | 00:00:00 | |
| IW2NTF | 2026-08-31 12:14:14 | 45.80146 | 9.83891 | 32° | 22km/h | 19199m | 4.7m/s | -56°C | 4.7% | 0hPa | 2.6V | 08:30:00 | 01:39:32 | 00:00:00 | |
| IW2NTF | 2026-08-31 12:14:04 | 45.80111 | 9.83841 | 70° | 20km/h | 19156m | 3.5m/s | -55.5°C | 4.6% | 0hPa | 2.6V | 08:30:00 | 01:39:22 | 00:00:00 | |
| IW2NTF | 2026-08-31 12:13:52 | 45.80064 | 9.83794 | 52° | 16km/h | 19106m | 4m/s | -55.1°C | 4.5% | 0hPa | 2.6V | 08:30:00 | 01:39:10 | 00:00:00 | |
| IW2NTF | 2026-08-31 12:13:39 | 45.80034 | 9.83768 | 37° | 13km/h | 19059m | 3.9m/s | -54.6°C | 4.5% | 0hPa | 2.7V | 08:30:00 | 01:39:00 | 00:00:00 | |
| IW2NTF | 2026-08-31 12:13:28 | 45.80013 | 9.83740 | 12° | 9km/h | 19013m | 3.8m/s | -54.3°C | 4.3% | 0hPa | 2.6V | 08:30:00 | 01:38:50 | 00:00:00 | |
| IW2NTF | 2026-08-31 12:13:22 | 45.79982 | 9.83706 | 26° | 9km/h | 18970m | 4.6m/s | -53.9°C | 4.3% | 0hPa | 2.6V | 08:30:00 | 01:38:40 | 00:00:00 | |
| IW2NTF | 2026-08-31 12:13:07 | 45.79967 | 9.83701 | 28° | 9km/h | 18923m | 4.5m/s | -53.5°C | 4.1% | 0hPa | 2.7V | 08:30:00 | 01:38:30 | 00:00:00 | |
| IW2NTF | 2026-08-31 12:12:58 | 45.79947 | 9.83682 | 341° | 4km/h | 18876m | 3.4m/s | -53.1°C | 4% | 0hPa | 2.6V | 08:30:00 | 01:38:20 | 00:00:00 | |
| IW2NTF | 2026-08-31 12:12:47 | 45.79941 | 9.83669 | 71° | 5km/h | 18831m | 4m/s | -53.3°C | 3.8% | 0hPa | 2.7V | 08:30:00 | 01:38:10 | 00:00:00 | |
| IW2NTF | 2026-08-31 12:12:37 | 45.79939 | 9.83660 | 133° | 5km/h | 18786m | 3.9m/s | -54.1°C | 4% | 0hPa | 2.6V | 08:30:00 | 01:38:00 | 00:00:00 | |
| IW2NTF | 2026-08-31 12:12:28 | 45.79951 | 9.83627 | 122° | 13km/h | 18741m | 3.6m/s | -55.4°C | 4.4% | 0hPa | 2.6V | 08:30:00 | 01:37:50 | 00:00:00 | |
| IW2NTF | 2026-08-31 12:12:22 | 45.79942 | 9.83586 | 48° | 13km/h | 18699m | 3.5m/s | -55.6°C | 4.5% | 0hPa | 2.7V | 08:30:00 | 01:37:40 | 00:00:00 | |
| IW2NTF | 2026-08-31 12:12:07 | 45.79929 | 9.83517 | 93° | 15km/h | 18646m | 3.4m/s | -55.8°C | 4.5% | 0hPa | 2.6V | 08:30:00 | 01:37:28 | 00:00:00 | |
| IW2NTF | 2026-08-31 12:11:57 | 45.79922 | 9.83452 | 83° | 20km/h | 18603m | 4.2m/s | -55.7°C | 4.5% | 0hPa | 2.6V | 08:30:00 | 01:37:18 | 00:00:00 | |
| IW2NTF | 2026-08-31 12:11:47 | 45.79914 | 9.83381 | 68° | 22km/h | 18558m | 4.4m/s | -56°C | 4.6% | 0hPa | 2.7V | 08:30:00 | 01:37:08 | 00:00:00 | |
| IW2NTF | 2026-08-31 12:11:38 | 45.79901 | 9.83296 | 75° | 27km/h | 18517m | 3.9m/s | -55.9°C | 4.6% | 0hPa | 2.6V | 08:30:00 | 01:36:58 | 00:00:00 | |
| IW2NTF | 2026-08-31 12:11:27 | 45.79877 | 9.83174 | 73° | 33km/h | 18465m | 5m/s | -56.2°C | 4.7% | 0hPa | 2.6V | 08:30:00 | 01:36:46 | 00:00:00 | |
| IW2NTF | 2026-08-31 12:11:17 | 45.79845 | 9.83035 | 68° | 38km/h | 18417m | 5m/s | -56.1°C | 4.4% | 0hPa | 2.6V | 08:30:00 | 01:36:35 | 00:00:00 | |
| IW2NTF | 2026-08-31 12:11:06 | 45.79803 | 9.82864 | 64° | 42km/h | 18365m | 4.4m/s | -56.9°C | 4.8% | 0hPa | 2.7V | 08:30:00 | 01:36:23 | 00:00:00 | |
| IW2NTF | 2026-08-31 12:10:55 | 45.79755 | 9.82713 | 60° | 46km/h | 18322m | 4.5m/s | -57.3°C | 4.7% | 0hPa | 2.6V | 08:30:00 | 01:36:13 | 00:00:00 | |
| IW2NTF | 2026-08-31 12:10:45 | 45.79691 | 9.82570 | 50° | 53km/h | 18278m | 4.9m/s | -57.6°C | 5.1% | 0hPa | 2.6V | 08:30:00 | 01:36:03 | 00:00:00 | |
| IW2NTF | 2026-08-31 12:10:35 | 45.79602 | 9.82431 | 53° | 53km/h | 18235m | 3.9m/s | -57.5°C | 5% | 0hPa | 2.7V | 08:30:00 | 01:35:53 | 00:00:00 | |
| IW2NTF | 2026-08-31 12:10:25 | 45.79498 | 9.82297 | 38° | 53km/h | 18191m | 3.8m/s | -57.3°C | 4.9% | 0hPa | 2.6V | 08:30:00 | 01:35:43 | 00:00:00 | |
| IW2NTF | 2026-08-31 12:10:15 | 45.79397 | 9.82179 | 33° | 55km/h | 18148m | 4.8m/s | -57°C | 4.8% | 0hPa | 2.7V | 08:30:00 | 01:35:33 | 00:00:00 | |
| IW2NTF | 2026-08-31 12:10:05 | 45.79282 | 9.82067 | 34° | 55km/h | 18106m | 4.5m/s | -56.8°C | 4.8% | 0hPa | 2.7V | 08:30:00 | 01:35:23 | 00:00:00 | |
| IW2NTF | 2026-08-31 12:09:55 | 45.79169 | 9.81961 | 30° | 53km/h | 18062m | 5m/s | -56.5°C | 4.7% | 0hPa | 2.6V | 08:30:00 | 01:35:13 | 00:00:00 | |
| IW2NTF | 2026-08-31 12:09:45 | 45.79057 | 9.81861 | 32° | 44km/h | 18017m | 4.3m/s | -56.9°C | 4.8% | 0hPa | 2.7V | 08:30:00 | 01:35:03 | 00:00:00 | |
| IW2NTF | 2026-08-31 12:09:32 | 45.78951 | 9.81790 | 26° | 44km/h | 17973m | 4m/s | -56.9°C | 4.8% | 0hPa | 2.6V | 08:30:00 | 01:34:53 | 00:00:00 | |
| IW2NTF | 2026-08-31 12:09:25 | 45.78857 | 9.81735 | 13° | 38km/h | 17930m | 4.2m/s | -56.7°C | 4.7% | 0hPa | 2.6V | 08:30:00 | 01:34:43 | 00:00:00 | |
| IW2NTF | 2026-08-31 12:09:16 | 45.78765 | 9.81676 | 14° | 42km/h | 17889m | 4.5m/s | -56.6°C | 4.8% | 0hPa | 2.7V | 08:30:00 | 01:34:33 | 00:00:00 | |
| IW2NTF | 2026-08-31 12:09:06 | 45.78675 | 9.81636 | 23° | 37km/h | 17847m | 4.7m/s | -56.7°C | 4.8% | 0hPa | 2.7V | 08:30:00 | 01:34:23 | 00:00:00 | |
| IW2NTF | 2026-08-31 12:08:49 | 45.78574 | 9.81599 | 11° | 31km/h | 17796m | 3.6m/s | -56.7°C | 4.8% | 0hPa | 2.6V | 08:30:00 | 01:34:11 | 00:00:00 | |
| IW2NTF | 2026-08-31 12:08:39 | 45.78505 | 9.81559 | 14° | 24km/h | 17753m | 4.9m/s | -56.5°C | 4.9% | 0hPa | 2.6V | 08:30:00 | 01:34:01 | 00:00:00 | |
| IW2NTF | 2026-08-31 12:08:29 | 45.78445 | 9.81526 | 23° | 26km/h | 17711m | 5.2m/s | -56.1°C | 4.7% | 0hPa | 2.7V | 08:30:00 | 01:33:51 | 00:00:00 | |
| IW2NTF | 2026-08-31 12:08:19 | 45.78388 | 9.81498 | 31° | 26km/h | 17667m | 4.9m/s | -55.9°C | 4.7% | 0hPa | 2.6V | 08:30:00 | 01:33:41 | 00:00:00 | |
| IW2NTF | 2026-08-31 12:08:12 | 45.78343 | 9.81441 | 29° | 22km/h | 17620m | 5.2m/s | -55.9°C | 4.5% | 0hPa | 2.6V | 08:30:00 | 01:33:30 | 00:00:00 | |
| IW2NTF | 2026-08-31 12:08:02 | 45.78298 | 9.81385 | 59° | 22km/h | 17575m | 5m/s | -56.1°C | 4.6% | 0hPa | 2.7V | 08:30:00 | 01:33:20 | 00:00:00 | |
| IW2NTF | 2026-08-31 12:07:52 | 45.78280 | 9.81330 | 66° | 16km/h | 17532m | 5m/s | -56.1°C | 4.6% | 0hPa | 2.6V | 08:30:00 | 01:33:10 | 00:00:00 | |
| IW2NTF | 2026-08-31 12:07:42 | 45.78263 | 9.81291 | 196° | 2km/h | 17489m | 4.7m/s | -56.3°C | 4.7% | 0hPa | 2.6V | 08:30:00 | 01:33:00 | 00:00:00 | |
| IW2NTF | 2026-08-31 12:07:27 | 45.78268 | 9.81259 | 81° | 7km/h | 17439m | 4.9m/s | -56.8°C | 4.8% | 0hPa | 2.7V | 08:30:00 | 01:32:50 | 00:00:00 | |
| IW2NTF | 2026-08-31 12:07:17 | 45.78286 | 9.81202 | 118° | 31km/h | 17392m | 5.5m/s | -56.7°C | 4.8% | 0hPa | 2.6V | 08:30:00 | 01:32:40 | 00:00:00 | |
| IW2NTF | 2026-08-31 12:07:07 | 45.78317 | 9.81127 | 117° | 22km/h | 17350m | 3.6m/s | -56.3°C | 4.8% | 0hPa | 2.7V | 08:30:00 | 01:32:30 | 00:00:00 | |
| IW2NTF | 2026-08-31 12:06:58 | 45.78342 | 9.81037 | 114° | 26km/h | 17309m | 4m/s | -56.7°C | 4.7% | 0hPa | 2.6V | 08:30:00 | 01:32:20 | 00:00:00 | |
| IW2NTF | 2026-08-31 12:06:47 | 45.78366 | 9.80936 | 107° | 33km/h | 17268m | 3.2m/s | -57°C | 4.8% | 0hPa | 2.6V | 08:30:00 | 01:32:10 | 00:00:00 | |
| IW2NTF | 2026-08-31 12:06:37 | 45.78383 | 9.80818 | 93° | 40km/h | 17225m | 3.6m/s | -57.5°C | 5.1% | 0hPa | 2.7V | 08:30:00 | 01:32:00 | 00:00:00 | |
| IW2NTF | 2026-08-31 12:06:27 | 45.78387 | 9.80679 | 90° | 35km/h | 17183m | 3.5m/s | -57.6°C | 5% | 0hPa | 2.6V | 08:30:00 | 01:31:50 | 00:00:00 | |
| IW2NTF | 2026-08-31 12:06:22 | 45.78392 | 9.80524 | 95° | 44km/h | 17140m | 4.5m/s | -57.5°C | 5.1% | 0hPa | 2.7V | 08:30:00 | 01:31:40 | 00:00:00 | |
| IW2NTF | 2026-08-31 12:06:12 | 45.78392 | 9.80360 | 90° | 47km/h | 17099m | 4.7m/s | -57.5°C | 5.1% | 0hPa | 2.7V | 08:30:00 | 01:31:30 | 00:00:00 | |
| IW2NTF | 2026-08-31 12:06:02 | 45.78397 | 9.80160 | 85° | 55km/h | 17055m | 4.7m/s | -57.4°C | 5.1% | 0hPa | 2.6V | 08:30:00 | 01:31:20 | 00:00:00 | |
| IW2NTF | 2026-08-31 12:05:52 | 45.78392 | 9.79946 | 91° | 66km/h | 17012m | 3.4m/s | -57.2°C | 5% | 0hPa | 2.6V | 08:30:00 | 01:31:10 | 00:00:00 | |
| IW2NTF | 2026-08-31 12:05:42 | 45.78382 | 9.79712 | 83° | 66km/h | 16969m | 4.2m/s | -57.3°C | 5.1% | 0hPa | 2.7V | 08:30:00 | 01:31:00 | 00:00:00 | |
| IW2NTF | 2026-08-31 12:05:32 | 45.78368 | 9.79471 | 83° | 68km/h | 16925m | 5.1m/s | -57.8°C | 5.1% | 0hPa | 2.6V | 08:30:00 | 01:30:50 | 00:00:00 | |
| IW2NTF | 2026-08-31 12:05:22 | 45.78332 | 9.79221 | 74° | 69km/h | 16884m | 4.5m/s | -58.1°C | 5.2% | 0hPa | 2.6V | 08:30:00 | 01:30:40 | 00:00:00 | |
| IW2NTF | 2026-08-31 12:05:12 | 45.78280 | 9.78968 | 70° | 73km/h | 16840m | 4.3m/s | -58.8°C | 5.6% | 0hPa | 2.7V | 08:30:00 | 01:30:30 | 00:00:00 | |
| IW2NTF | 2026-08-31 12:05:02 | 45.78218 | 9.78706 | 69° | 80km/h | 16797m | 3.6m/s | -59.1°C | 5.7% | 0hPa | 2.6V | 08:30:00 | 01:30:20 | 00:00:00 | |
| IW2NTF | 2026-08-31 12:04:52 | 45.78135 | 9.78438 | 64° | 80km/h | 16753m | 3.6m/s | -59.2°C | 5.8% | 0hPa | 2.7V | 08:30:00 | 01:30:10 | 00:00:00 | |
| IW2NTF | 2026-08-31 12:04:42 | 45.78046 | 9.78187 | 64° | 75km/h | 16710m | 4.6m/s | -58.9°C | 5.7% | 0hPa | 2.7V | 08:30:00 | 01:30:00 | 00:00:00 | |
| IW2NTF | 2026-08-31 12:04:32 | 45.77954 | 9.77956 | 58° | 73km/h | 16665m | 5.4m/s | -59.2°C | 5.7% | 0hPa | 2.7V | 08:30:00 | 01:29:50 | 00:00:00 | |
| IW2NTF | 2026-08-31 12:04:22 | 45.77851 | 9.77734 | 54° | 68km/h | 16621m | 3.8m/s | -59.4°C | 6% | 0hPa | 2.6V | 08:30:00 | 01:29:40 | 00:00:00 | |
| IW2NTF | 2026-08-31 12:04:12 | 45.77743 | 9.77536 | 50° | 73km/h | 16580m | 3.7m/s | -59.3°C | 6% | 0hPa | 2.7V | 08:30:00 | 01:29:30 | 00:00:00 | |
| IW2NTF | 2026-08-31 12:04:02 | 45.77633 | 9.77359 | 50° | 64km/h | 16534m | 5.2m/s | -59.4°C | 6.1% | 0hPa | 2.6V | 08:30:00 | 01:29:20 | 00:00:00 | |
| IW2NTF | 2026-08-31 12:03:52 | 45.77516 | 9.77179 | 43° | 57km/h | 16493m | 3.5m/s | -59.2°C | 5.9% | 0hPa | 2.6V | 08:30:00 | 01:29:10 | 00:00:00 | |
| IW2NTF | 2026-08-31 12:03:43 | 45.77412 | 9.77021 | 43° | 66km/h | 16451m | 4.7m/s | -58.8°C | 6.1% | 0hPa | 2.6V | 08:30:00 | 01:29:00 | 00:00:00 | |
| IW2NTF | 2026-08-31 12:03:32 | 45.77302 | 9.76877 | 43° | 64km/h | 16412m | 4.8m/s | -58.7°C | 5.7% | 0hPa | 2.7V | 08:30:00 | 01:28:50 | 00:00:00 | |
| IW2NTF | 2026-08-31 12:03:20 | 45.77196 | 9.76741 | 40° | 55km/h | 16371m | 4.9m/s | -58.4°C | 5.8% | 0hPa | 2.6V | 08:30:00 | 01:28:40 | 00:00:00 | |
| IW2NTF | 2026-08-31 12:03:13 | 45.77092 | 9.76600 | 41° | 51km/h | 16332m | 5m/s | -58.3°C | 5.8% | 0hPa | 2.6V | 08:30:00 | 01:28:30 | 00:00:00 | |
| IW2NTF | 2026-08-31 12:02:57 | 45.76996 | 9.76486 | 38° | 53km/h | 16291m | 4.8m/s | -58.2°C | 5.8% | 0hPa | 2.6V | 08:30:00 | 01:28:20 | 00:00:00 | |
| IW2NTF | 2026-08-31 12:02:52 | 45.76903 | 9.76390 | 37° | 44km/h | 16251m | 4.6m/s | -58°C | 5.9% | 0hPa | 2.7V | 08:30:00 | 01:28:10 | 00:00:00 | |
| IW2NTF | 2026-08-31 12:02:41 | 45.76800 | 9.76304 | 27° | 44km/h | 16213m | 4m/s | -57.9°C | 5.9% | 0hPa | 2.6V | 08:30:00 | 01:28:00 | 00:00:00 | |
| IW2NTF | 2026-08-31 12:02:31 | 45.76707 | 9.76233 | 31° | 40km/h | 16173m | 4m/s | -57.6°C | 5.8% | 0hPa | 2.6V | 08:30:00 | 01:27:50 | 00:00:00 | |
| IW2NTF | 2026-08-31 12:02:21 | 45.76622 | 9.76170 | 25° | 42km/h | 16134m | 4.2m/s | -57.9°C | 5.9% | 0hPa | 2.6V | 08:30:00 | 01:27:40 | 00:00:00 | |
| IW2NTF | 2026-08-31 12:02:10 | 45.76518 | 9.76084 | 38° | 38km/h | 16085m | 2.7m/s | -58.4°C | 6.2% | 0hPa | 2.6V | 08:30:00 | 01:27:28 | 00:00:00 | |
| IW2NTF | 2026-08-31 12:02:00 | 45.76447 | 9.75985 | 49° | 38km/h | 16046m | 4.8m/s | -58.4°C | 6.5% | 0hPa | 2.6V | 08:30:00 | 01:27:18 | 00:00:00 | |
| IW2NTF | 2026-08-31 12:01:50 | 45.76379 | 9.75870 | 46° | 47km/h | 16005m | 3.7m/s | -58.4°C | 6.4% | 0hPa | 2.7V | 08:30:00 | 01:27:08 | 00:00:00 | |
| IW2NTF | 2026-08-31 12:01:40 | 45.76310 | 9.75743 | 56° | 44km/h | 15965m | 4.6m/s | -58.1°C | 6.3% | 0hPa | 2.8V | 08:30:00 | 01:26:58 | 00:00:00 | |
| IW2NTF | 2026-08-31 12:01:30 | 45.76223 | 9.75610 | 39° | 57km/h | 15927m | 3.3m/s | -58°C | 6.1% | 0hPa | 2.8V | 08:30:00 | 01:26:48 | 00:00:00 | |
| IW2NTF | 2026-08-31 12:01:20 | 45.76176 | 9.75462 | 72° | 44km/h | 15886m | 4.5m/s | -58.4°C | 6% | 0hPa | 2.7V | 08:30:00 | 01:26:38 | 00:00:00 | |
| IW2NTF | 2026-08-31 12:01:10 | 45.76130 | 9.75315 | 63° | 44km/h | 15841m | 4.1m/s | -59.1°C | 6.4% | 0hPa | 2.6V | 08:30:00 | 01:26:28 | 00:00:00 | |
| IW2NTF | 2026-08-31 12:01:00 | 45.76085 | 9.75148 | 71° | 47km/h | 15802m | 3.2m/s | -59.8°C | 6.7% | 0hPa | 2.6V | 08:30:00 | 01:26:18 | 00:00:00 | |
| IW2NTF | 2026-08-31 12:00:50 | 45.76053 | 9.74967 | 79° | 53km/h | 15764m | 3.8m/s | -59.7°C | 6.8% | 0hPa | 2.7V | 08:30:00 | 01:26:08 | 00:00:00 | |
| IW2NTF | 2026-08-31 12:00:41 | 45.76025 | 9.74777 | 79° | 53km/h | 15725m | 4.3m/s | -59.9°C | 6.8% | 0hPa | 2.8V | 08:30:00 | 01:25:58 | 00:00:00 | |
| IW2NTF | 2026-08-31 12:00:30 | 45.76001 | 9.74587 | 88° | 57km/h | 15684m | 3.6m/s | -60.1°C | 7% | 0hPa | 2.8V | 08:30:00 | 01:25:48 | 00:00:00 | |
| IW2NTF | 2026-08-31 12:00:21 | 45.75993 | 9.74377 | 84° | 60km/h | 15643m | 3.9m/s | -60.2°C | 7.2% | 0hPa | 2.6V | 08:30:00 | 01:25:38 | 00:00:00 | |
| IW2NTF | 2026-08-31 12:00:10 | 45.75997 | 9.74139 | 91° | 71km/h | 15603m | 4.6m/s | -59.9°C | 7.1% | 0hPa | 2.8V | 08:30:00 | 01:25:28 | 00:00:00 | |
| IW2NTF | 2026-08-31 12:00:01 | 45.75992 | 9.73889 | 88° | 68km/h | 15564m | 4.7m/s | -59.7°C | 7.3% | 0hPa | 2.6V | 08:30:00 | 01:25:18 | 00:00:00 | |
| IW2NTF | 2026-08-31 11:59:50 | 45.75979 | 9.73639 | 84° | 71km/h | 15522m | 4.2m/s | -59.4°C | 7.2% | 0hPa | 2.8V | 08:30:00 | 01:25:08 | 00:00:00 | |
| IW2NTF | 2026-08-31 11:59:40 | 45.75962 | 9.73394 | 84° | 69km/h | 15481m | 4.6m/s | -59.7°C | 7% | 0hPa | 2.7V | 08:30:00 | 01:24:58 | 00:00:00 | |
| IW2NTF | 2026-08-31 11:59:31 | 45.75937 | 9.73129 | 79° | 73km/h | 15440m | 3.5m/s | -59.6°C | 7.2% | 0hPa | 2.8V | 08:30:00 | 01:24:48 | 00:00:00 | |
| IW2NTF | 2026-08-31 11:59:20 | 45.75918 | 9.72864 | 84° | 80km/h | 15400m | 4.6m/s | -59.6°C | 7.3% | 0hPa | 2.7V | 08:30:00 | 01:24:38 | 00:00:00 | |
| IW2NTF | 2026-08-31 11:59:10 | 45.75890 | 9.72576 | 83° | 78km/h | 15360m | 4.6m/s | -60°C | 7.4% | 0hPa | 2.6V | 08:30:00 | 01:24:28 | 00:00:00 | |
| IW2NTF | 2026-08-31 11:59:00 | 45.75856 | 9.72278 | 77° | 84km/h | 15319m | 3.7m/s | -59.8°C | 7.7% | 0hPa | 2.8V | 08:30:00 | 01:24:18 | 00:00:00 | |
| IW2NTF | 2026-08-31 11:58:50 | 45.75811 | 9.71983 | 72° | 82km/h | 15277m | 4.2m/s | -59.9°C | 7.6% | 0hPa | 2.7V | 08:30:00 | 01:24:08 | 00:00:00 | |
| IW2NTF | 2026-08-31 11:58:41 | 45.75753 | 9.71691 | 76° | 82km/h | 15235m | 3.8m/s | -59.6°C | 7.7% | 0hPa | 2.8V | 08:30:00 | 01:23:58 | 00:00:00 | |
| IW2NTF | 2026-08-31 11:58:30 | 45.75688 | 9.71404 | 71° | 84km/h | 15197m | 4.2m/s | -59.2°C | 7.3% | 0hPa | 2.8V | 08:30:00 | 01:23:48 | 00:00:00 | |
| IW2NTF | 2026-08-31 11:58:21 | 45.75639 | 9.71115 | 73° | 89km/h | 15155m | 3.8m/s | -59.3°C | 7.8% | 0hPa | 2.7V | 08:30:00 | 01:23:38 | 00:00:00 | |
| IW2NTF | 2026-08-31 11:58:10 | 45.75591 | 9.70824 | 81° | 80km/h | 15114m | 3.5m/s | -59.2°C | 7.2% | 0hPa | 2.8V | 08:30:00 | 01:23:28 | 00:00:00 | |
| IW2NTF | 2026-08-31 11:58:01 | 45.75542 | 9.70530 | 74° | 88km/h | 15073m | 4.2m/s | -59.3°C | 7.5% | 0hPa | 2.8V | 08:30:00 | 01:23:18 | 00:00:00 | |
| IW2NTF | 2026-08-31 11:57:50 | 45.75489 | 9.70221 | 73° | 88km/h | 15031m | 4m/s | -59.3°C | 7.4% | 0hPa | 2.7V | 08:30:00 | 01:23:08 | 00:00:00 | |
| IW2NTF | 2026-08-31 11:57:40 | 45.75417 | 9.69914 | 71° | 93km/h | 14989m | 5.2m/s | -59.1°C | 7.4% | 0hPa | 2.8V | 08:30:00 | 01:22:58 | 00:00:00 | |
| IW2NTF | 2026-08-31 11:57:31 | 45.75342 | 9.69608 | 67° | 88km/h | 14946m | 3.4m/s | -58.8°C | 7.2% | 0hPa | 2.8V | 08:30:00 | 01:22:48 | 00:00:00 | |
| IW2NTF | 2026-08-31 11:57:20 | 45.75273 | 9.69294 | 74° | 91km/h | 14907m | 3.4m/s | -58.5°C | 7% | 0hPa | 2.7V | 08:30:00 | 01:22:38 | 00:00:00 | |
| IW2NTF | 2026-08-31 11:57:11 | 45.75200 | 9.68986 | 74° | 95km/h | 14866m | 4m/s | -58.4°C | 6.9% | 0hPa | 2.7V | 08:30:00 | 01:22:28 | 00:00:00 | |
| IW2NTF | 2026-08-31 11:57:01 | 45.75132 | 9.68657 | 71° | 99km/h | 14825m | 5.1m/s | -58.5°C | 7.1% | 0hPa | 2.7V | 08:30:00 | 01:22:18 | 00:00:00 | |
| IW2NTF | 2026-08-31 11:56:50 | 45.75056 | 9.68322 | 70° | 97km/h | 14783m | 3.4m/s | -58.3°C | 7.1% | 0hPa | 2.8V | 08:30:00 | 01:22:08 | 00:00:00 | |
| IW2NTF | 2026-08-31 11:56:40 | 45.74970 | 9.68000 | 69° | 97km/h | 14743m | 4.8m/s | -58.3°C | 7.2% | 0hPa | 2.8V | 08:30:00 | 01:21:58 | 00:00:00 | |
| IW2NTF | 2026-08-31 11:56:30 | 45.74877 | 9.67674 | 66° | 93km/h | 14702m | 3.6m/s | -58.4°C | 7.3% | 0hPa | 2.7V | 08:30:00 | 01:21:48 | 00:00:00 | |
| IW2NTF | 2026-08-31 11:56:21 | 45.74779 | 9.67360 | 60° | 95km/h | 14662m | 3.5m/s | -58.2°C | 7.3% | 0hPa | 2.8V | 08:30:00 | 01:21:38 | 00:00:00 | |
| IW2NTF | 2026-08-31 11:56:09 | 45.74672 | 9.67042 | 65° | 99km/h | 14620m | 4.6m/s | -58.2°C | 7.4% | 0hPa | 2.7V | 08:30:00 | 01:21:28 | 00:00:00 | |
| IW2NTF | 2026-08-31 11:56:00 | 45.74568 | 9.66732 | 66° | 99km/h | 14580m | 3.4m/s | -58°C | 7.5% | 0hPa | 2.7V | 08:30:00 | 01:21:18 | 00:00:00 | |
| IW2NTF | 2026-08-31 11:55:49 | 45.74461 | 9.66418 | 63° | 93km/h | 14540m | 4.8m/s | -58.2°C | 7.9% | 0hPa | 2.7V | 08:30:00 | 01:21:08 | 00:00:00 | |
| IW2NTF | 2026-08-31 11:55:38 | 45.74358 | 9.66105 | 64° | 97km/h | 14497m | 3.8m/s | -58.3°C | 7.8% | 0hPa | 2.7V | 08:30:00 | 01:20:58 | 00:00:00 | |
| IW2NTF | 2026-08-31 11:55:27 | 45.74265 | 9.65789 | 68° | 95km/h | 14457m | 4.9m/s | -58.3°C | 8.3% | 0hPa | 2.7V | 08:30:00 | 01:20:48 | 00:00:00 | |
| IW2NTF | 2026-08-31 11:55:20 | 45.74181 | 9.65474 | 70° | 91km/h | 14415m | 4.5m/s | -58.5°C | 8.4% | 0hPa | 2.7V | 08:30:00 | 01:20:38 | 00:00:00 | |
| IW2NTF | 2026-08-31 11:55:10 | 45.74112 | 9.65142 | 73° | 93km/h | 14373m | 3.5m/s | -58.5°C | 9.1% | 0hPa | 2.7V | 08:30:00 | 01:20:28 | 00:00:00 | |
| IW2NTF | 2026-08-31 11:55:00 | 45.74052 | 9.64802 | 76° | 102km/h | 14331m | 4.7m/s | -58.7°C | 9.3% | 0hPa | 2.7V | 08:30:00 | 01:20:18 | 00:00:00 | |
| IW2NTF | 2026-08-31 11:54:50 | 45.73998 | 9.64461 | 77° | 99km/h | 14289m | 5.2m/s | -58.9°C | 9.7% | 0hPa | 2.8V | 08:30:00 | 01:20:08 | 00:00:00 | |
| IW2NTF | 2026-08-31 11:54:39 | 45.73944 | 9.64034 | 79° | 102km/h | 14238m | 4.3m/s | -58.8°C | 10.1% | 0hPa | 2.8V | 08:30:00 | 01:19:56 | 00:00:00 | |
| IW2NTF | 2026-08-31 11:54:27 | 45.73883 | 9.63584 | 79° | 111km/h | 14188m | 4.8m/s | -59.2°C | 10.9% | 0hPa | 2.8V | 08:30:00 | 01:19:44 | 00:00:00 | |
| IW2NTF | 2026-08-31 11:54:12 | 45.73819 | 9.63191 | 76° | 106km/h | 14145m | 4m/s | -59.2°C | 11.4% | 0hPa | 2.7V | 08:30:00 | 01:19:34 | 00:00:00 | |
| IW2NTF | 2026-08-31 11:54:01 | 45.73750 | 9.62805 | 75° | 113km/h | 14106m | 4.6m/s | -59.3°C | 12% | 0hPa | 2.8V | 08:30:00 | 01:19:24 | 00:00:00 | |
| IW2NTF | 2026-08-31 11:53:52 | 45.73693 | 9.62408 | 79° | 113km/h | 14065m | 3.9m/s | -59.2°C | 12.1% | 0hPa | 2.8V | 08:30:00 | 01:19:14 | 00:00:00 | |
| IW2NTF | 2026-08-31 11:53:42 | 45.73641 | 9.61983 | 83° | 122km/h | 14024m | 3.3m/s | -58.9°C | 12.4% | 0hPa | 2.7V | 08:30:00 | 01:19:04 | 00:00:00 | |
| IW2NTF | 2026-08-31 11:53:31 | 45.73594 | 9.61543 | 80° | 126km/h | 13986m | 4.4m/s | -58.6°C | 12.9% | 0hPa | 2.7V | 08:30:00 | 01:18:54 | 00:00:00 | |
| IW2NTF | 2026-08-31 11:53:21 | 45.73545 | 9.61103 | 82° | 126km/h | 13946m | 3.5m/s | -58.6°C | 13.8% | 0hPa | 2.8V | 08:30:00 | 01:18:44 | 00:00:00 | |
| IW2NTF | 2026-08-31 11:53:12 | 45.73486 | 9.60649 | 76° | 124km/h | 13909m | 3m/s | -59.3°C | 14.4% | 0hPa | 2.7V | 08:30:00 | 01:18:34 | 00:00:00 | |
| IW2NTF | 2026-08-31 11:53:02 | 45.73421 | 9.60196 | 79° | 131km/h | 13873m | 3.8m/s | -59.5°C | 15.2% | 0hPa | 2.7V | 08:30:00 | 01:18:24 | 00:00:00 | |
| IW2NTF | 2026-08-31 11:52:51 | 45.73365 | 9.59719 | 79° | 139km/h | 13835m | 3.2m/s | -59.4°C | 15.4% | 0hPa | 2.8V | 08:30:00 | 01:18:14 | 00:00:00 | |
| IW2NTF | 2026-08-31 11:52:41 | 45.73294 | 9.59236 | 78° | 139km/h | 13798m | 4.1m/s | -59.4°C | 15.1% | 0hPa | 2.7V | 08:30:00 | 01:18:04 | 00:00:00 | |
| IW2NTF | 2026-08-31 11:52:31 | 45.73214 | 9.58652 | 77° | 135km/h | 13753m | 4.7m/s | -59.4°C | 15.8% | 0hPa | 2.7V | 08:30:00 | 01:17:52 | 00:00:00 | |
| IW2NTF | 2026-08-31 11:52:21 | 45.73140 | 9.58155 | 77° | 139km/h | 13716m | 4.2m/s | -59.4°C | 15.8% | 0hPa | 2.7V | 08:30:00 | 01:17:42 | 00:00:00 | |
| IW2NTF | 2026-08-31 11:52:11 | 45.73047 | 9.57683 | 73° | 137km/h | 13677m | 4.6m/s | -59.4°C | 15.9% | 0hPa | 2.8V | 08:30:00 | 01:17:32 | 00:00:00 | |
| IW2NTF | 2026-08-31 11:52:01 | 45.72941 | 9.57211 | 73° | 131km/h | 13642m | 2.8m/s | -59.3°C | 16.4% | 0hPa | 2.7V | 08:30:00 | 01:17:22 | 00:00:00 | |
| IW2NTF | 2026-08-31 11:51:51 | 45.72841 | 9.56749 | 73° | 137km/h | 13607m | 3.1m/s | -59.6°C | 17% | 0hPa | 2.7V | 08:30:00 | 01:17:12 | 00:00:00 | |
| IW2NTF | 2026-08-31 11:51:42 | 45.72746 | 9.56281 | 72° | 135km/h | 13569m | 3.6m/s | -59.6°C | 16.6% | 0hPa | 2.8V | 08:30:00 | 01:17:02 | 00:00:00 | |
| IW2NTF | 2026-08-31 11:51:32 | 45.72647 | 9.55828 | 74° | 130km/h | 13533m | 4.2m/s | -59.8°C | 17.2% | 0hPa | 2.7V | 08:30:00 | 01:16:52 | 00:00:00 | |
| IW2NTF | 2026-08-31 11:51:22 | 45.72549 | 9.55374 | 69° | 126km/h | 13496m | 4m/s | -59.9°C | 17.4% | 0hPa | 2.8V | 08:30:00 | 01:16:42 | 00:00:00 | |
| IW2NTF | 2026-08-31 11:51:12 | 45.72441 | 9.54931 | 71° | 137km/h | 13461m | 2.8m/s | -59.8°C | 17.1% | 0hPa | 2.8V | 08:30:00 | 01:16:32 | 00:00:00 | |
| IW2NTF | 2026-08-31 11:51:05 | 45.72334 | 9.54474 | 74° | 128km/h | 13425m | 3.4m/s | -59.4°C | 16.7% | 0hPa | 2.7V | 08:30:00 | 01:16:22 | 00:00:00 | |
| IW2NTF | 2026-08-31 11:50:52 | 45.72236 | 9.54000 | 72° | 139km/h | 13387m | 4.4m/s | -59.3°C | 16.9% | 0hPa | 2.7V | 08:30:00 | 01:16:12 | 00:00:00 | |
| IW2NTF | 2026-08-31 11:50:41 | 45.72135 | 9.53520 | 72° | 141km/h | 13350m | 3.5m/s | -58.9°C | 16.8% | 0hPa | 2.7V | 08:30:00 | 01:16:02 | 00:00:00 | |
| IW2NTF | 2026-08-31 11:50:32 | 45.72034 | 9.53028 | 73° | 142km/h | 13309m | 3.4m/s | -58.6°C | 17.5% | 0hPa | 2.7V | 08:30:00 | 01:15:52 | 00:00:00 | |
| IW2NTF | 2026-08-31 11:50:24 | 45.71937 | 9.52530 | 76° | 144km/h | 13273m | 2.8m/s | -58.6°C | 18.6% | 0hPa | 2.7V | 08:30:00 | 01:15:42 | 00:00:00 | |
| IW2NTF | 2026-08-31 11:50:11 | 45.71833 | 9.52035 | 72° | 144km/h | 13236m | 3.4m/s | -58.6°C | 18.7% | 0hPa | 2.8V | 08:30:00 | 01:15:32 | 00:00:00 | |
| IW2NTF | 2026-08-31 11:50:02 | 45.71719 | 9.51536 | 71° | 144km/h | 13196m | 3.6m/s | -58.8°C | 20.2% | 0hPa | 2.7V | 08:30:00 | 01:15:22 | 00:00:00 | |
| IW2NTF | 2026-08-31 11:49:52 | 45.71610 | 9.51038 | 72° | 144km/h | 13159m | 4.7m/s | -58.6°C | 20.6% | 0hPa | 2.8V | 08:30:00 | 01:15:12 | 00:00:00 | |
| IW2NTF | 2026-08-31 11:49:42 | 45.71506 | 9.50540 | 74° | 146km/h | 13118m | 3.5m/s | -58.4°C | 19.5% | 0hPa | 2.8V | 08:30:00 | 01:15:02 | 00:00:00 | |
| IW2NTF | 2026-08-31 11:49:31 | 45.71401 | 9.50031 | 74° | 146km/h | 13079m | 4.8m/s | -58.1°C | 18.9% | 0hPa | 2.8V | 08:30:00 | 01:14:52 | 00:00:00 | |
| IW2NTF | 2026-08-31 11:49:21 | 45.71304 | 9.49526 | 75° | 148km/h | 13038m | 3.7m/s | -58.4°C | 18.6% | 0hPa | 2.8V | 08:30:00 | 01:14:42 | 00:00:00 | |
| IW2NTF | 2026-08-31 11:49:11 | 45.71203 | 9.49014 | 73° | 148km/h | 12996m | 4.5m/s | -58°C | 17.4% | 0hPa | 2.8V | 08:30:00 | 01:14:32 | 00:00:00 | |
| IW2NTF | 2026-08-31 11:49:02 | 45.71098 | 9.48500 | 71° | 148km/h | 12953m | 3.8m/s | -57.7°C | 17.2% | 0hPa | 2.8V | 08:30:00 | 01:14:22 | 00:00:00 | |
| IW2NTF | 2026-08-31 11:48:52 | 45.70989 | 9.47986 | 72° | 144km/h | 12910m | 4.1m/s | -57.5°C | 16.4% | 0hPa | 2.8V | 08:30:00 | 01:14:12 | 00:00:00 | |
| IW2NTF | 2026-08-31 11:48:41 | 45.70885 | 9.47471 | 73° | 150km/h | 12869m | 4.2m/s | -57.1°C | 16% | 0hPa | 2.8V | 08:30:00 | 01:14:02 | 00:00:00 | |
| IW2NTF | 2026-08-31 11:48:31 | 45.70777 | 9.46945 | 74° | 151km/h | 12824m | 4.1m/s | -57°C | 16.7% | 0hPa | 2.7V | 08:30:00 | 01:13:52 | 00:00:00 | |
| IW2NTF | 2026-08-31 11:48:22 | 45.70664 | 9.46422 | 73° | 151km/h | 12783m | 4.5m/s | -57.1°C | 16.5% | 0hPa | 2.7V | 08:30:00 | 01:13:42 | 00:00:00 | |
| IW2NTF | 2026-08-31 11:48:12 | 45.70559 | 9.45897 | 72° | 153km/h | 12741m | 4.9m/s | -57.1°C | 17.2% | 0hPa | 2.7V | 08:30:00 | 01:13:32 | 00:00:00 | |
| IW2NTF | 2026-08-31 11:48:01 | 45.70444 | 9.45371 | 73° | 155km/h | 12699m | 3.7m/s | -57°C | 18.3% | 0hPa | 2.8V | 08:30:00 | 01:13:22 | 00:00:00 | |
| IW2NTF | 2026-08-31 11:47:52 | 45.70323 | 9.44832 | 72° | 153km/h | 12658m | 3.8m/s | -56.9°C | 19.3% | 0hPa | 2.8V | 08:30:00 | 01:13:12 | 00:00:00 | |
| IW2NTF | 2026-08-31 11:47:42 | 45.70200 | 9.44296 | 71° | 162km/h | 12617m | 4.1m/s | -56.9°C | 20% | 0hPa | 2.7V | 08:30:00 | 01:13:02 | 00:00:00 | |
| IW2NTF | 2026-08-31 11:47:32 | 45.70074 | 9.43749 | 72° | 157km/h | 12576m | 5m/s | -56.6°C | 21.1% | 0hPa | 2.7V | 08:30:00 | 01:12:52 | 00:00:00 | |
| IW2NTF | 2026-08-31 11:47:21 | 45.69953 | 9.43198 | 71° | 159km/h | 12534m | 3.1m/s | -56.4°C | 21.6% | 0hPa | 2.8V | 08:30:00 | 01:12:42 | 00:00:00 | |
| IW2NTF | 2026-08-31 11:47:11 | 45.69832 | 9.42635 | 70° | 168km/h | 12493m | 5m/s | -56.2°C | 21.8% | 0hPa | 2.7V | 08:30:00 | 01:12:32 | 00:00:00 | |
| IW2NTF | 2026-08-31 11:47:02 | 45.69694 | 9.42069 | 71° | 168km/h | 12454m | 2.9m/s | -55.9°C | 21.6% | 0hPa | 2.8V | 08:30:00 | 01:12:22 | 00:00:00 | |
| IW2NTF | 2026-08-31 11:46:51 | 45.69556 | 9.41509 | 70° | 166km/h | 12416m | 4m/s | -55.6°C | 21.9% | 0hPa | 2.8V | 08:30:00 | 01:12:12 | 00:00:00 | |
| IW2NTF | 2026-08-31 11:46:42 | 45.69421 | 9.40960 | 70° | 161km/h | 12378m | 3.8m/s | -55.5°C | 22.6% | 0hPa | 2.7V | 08:30:00 | 01:12:02 | 00:00:00 | |
| IW2NTF | 2026-08-31 11:46:31 | 45.69279 | 9.40409 | 71° | 159km/h | 12342m | 3.7m/s | -55.4°C | 23.3% | 0hPa | 2.7V | 08:30:00 | 01:11:52 | 00:00:00 | |
| IW2NTF | 2026-08-31 11:46:22 | 45.69141 | 9.39862 | 69° | 161km/h | 12305m | 3.3m/s | -55.2°C | 23.1% | 0hPa | 2.8V | 08:30:00 | 01:11:42 | 00:00:00 | |
| IW2NTF | 2026-08-31 11:46:11 | 45.69003 | 9.39299 | 70° | 164km/h | 12269m | 3.9m/s | -55°C | 23.5% | 0hPa | 2.7V | 08:30:00 | 01:11:32 | 00:00:00 | |
| IW2NTF | 2026-08-31 11:46:01 | 45.68861 | 9.38743 | 69° | 166km/h | 12234m | 4.5m/s | -54.8°C | 23.6% | 0hPa | 2.8V | 08:30:00 | 01:11:22 | 00:00:00 | |
| IW2NTF | 2026-08-31 11:45:50 | 45.68710 | 9.38127 | 70° | 166km/h | 12195m | 3.4m/s | -54.6°C | 22.6% | 0hPa | 2.7V | 08:30:00 | 01:11:11 | 00:00:00 | |
| IW2NTF | 2026-08-31 11:45:39 | 45.68533 | 9.37465 | 68° | 159km/h | 12149m | 3.7m/s | -54.5°C | 23.4% | 0hPa | 2.8V | 08:30:00 | 01:10:59 | 00:00:00 | |
| IW2NTF | 2026-08-31 11:45:28 | 45.68378 | 9.36915 | 69° | 164km/h | 12112m | 4.5m/s | -54.3°C | 22.5% | 0hPa | 2.7V | 08:30:00 | 01:10:49 | 00:00:00 | |
| IW2NTF | 2026-08-31 11:45:19 | 45.68230 | 9.36355 | 68° | 162km/h | 12076m | 4.5m/s | -54°C | 22% | 0hPa | 2.8V | 08:30:00 | 01:10:39 | 00:00:00 | |
| IW2NTF | 2026-08-31 11:45:08 | 45.68086 | 9.35797 | 70° | 168km/h | 12041m | 3.1m/s | -53.7°C | 21.7% | 0hPa | 2.8V | 08:30:00 | 01:10:29 | 00:00:00 | |
| IW2NTF | 2026-08-31 11:44:59 | 45.67936 | 9.35248 | 69° | 162km/h | 12007m | 3.8m/s | -53.5°C | 21.7% | 0hPa | 2.7V | 08:30:00 | 01:10:19 | 00:00:00 | |
| IW2NTF | 2026-08-31 11:44:49 | 45.67791 | 9.34694 | 68° | 159km/h | 11973m | 2.8m/s | -53.1°C | 21.8% | 0hPa | 2.7V | 08:30:00 | 01:10:09 | 00:00:00 | |
| IW2NTF | 2026-08-31 11:44:38 | 45.67640 | 9.34139 | 69° | 168km/h | 11939m | 2.7m/s | -53°C | 21.6% | 0hPa | 2.8V | 08:30:00 | 01:09:59 | 00:00:00 | |
| IW2NTF | 2026-08-31 11:44:28 | 45.67482 | 9.33579 | 68° | 166km/h | 11903m | 3.8m/s | -52.7°C | 21.4% | 0hPa | 2.8V | 08:30:00 | 01:09:49 | 00:00:00 | |
| IW2NTF | 2026-08-31 11:44:18 | 45.67328 | 9.33026 | 68° | 166km/h | 11867m | 4.5m/s | -52.5°C | 21.2% | 0hPa | 2.8V | 08:30:00 | 01:09:39 | 00:00:00 | |
| IW2NTF | 2026-08-31 11:44:09 | 45.67175 | 9.32468 | 68° | 162km/h | 11830m | 4m/s | -52.5°C | 21.6% | 0hPa | 2.8V | 08:30:00 | 01:09:29 | 00:00:00 | |
| IW2NTF | 2026-08-31 11:43:59 | 45.67023 | 9.31920 | 68° | 166km/h | 11795m | 3.8m/s | -52.4°C | 21.9% | 0hPa | 2.8V | 08:30:00 | 01:09:19 | 00:00:00 | |
| IW2NTF | 2026-08-31 11:43:49 | 45.66866 | 9.31381 | 67° | 161km/h | 11759m | 4.2m/s | -52.2°C | 21.3% | 0hPa | 2.8V | 08:30:00 | 01:09:09 | 00:00:00 | |
| IW2NTF | 2026-08-31 11:43:39 | 45.66712 | 9.30845 | 66° | 159km/h | 11721m | 3.5m/s | -51.9°C | 21.5% | 0hPa | 2.8V | 08:30:00 | 01:08:59 | 00:00:00 | |
| IW2NTF | 2026-08-31 11:43:30 | 45.66553 | 9.30302 | 67° | 155km/h | 11683m | 4.8m/s | -51.5°C | 20.1% | 0hPa | 2.8V | 08:30:00 | 01:08:49 | 00:00:00 | |
| IW2NTF | 2026-08-31 11:43:19 | 45.66404 | 9.29776 | 68° | 164km/h | 11644m | 4.9m/s | -51.2°C | 20.8% | 0hPa | 2.8V | 08:30:00 | 01:08:39 | 00:00:00 | |
| IW2NTF | 2026-08-31 11:43:09 | 45.66257 | 9.29232 | 69° | 162km/h | 11601m | 4.8m/s | -51°C | 21.7% | 0hPa | 2.7V | 08:30:00 | 01:08:29 | 00:00:00 | |
| IW2NTF | 2026-08-31 11:43:00 | 45.66106 | 9.28630 | 69° | 162km/h | 11558m | 4m/s | -50.9°C | 23.7% | 0hPa | 2.9V | 08:30:00 | 01:08:18 | 00:00:00 | |
| IW2NTF | 2026-08-31 11:42:49 | 45.65971 | 9.28076 | 71° | 164km/h | 11517m | 4.9m/s | -50.7°C | 24.1% | 0hPa | 2.8V | 08:30:00 | 01:08:08 | 00:00:00 | |
| IW2NTF | 2026-08-31 11:42:39 | 45.65845 | 9.27513 | 70° | 164km/h | 11477m | 3m/s | -50.4°C | 24% | 0hPa | 2.9V | 08:30:00 | 01:07:58 | 00:00:00 | |
| IW2NTF | 2026-08-31 11:42:29 | 45.65707 | 9.26950 | 72° | 164km/h | 11438m | 4.2m/s | -50.1°C | 23.2% | 0hPa | 2.7V | 08:30:00 | 01:07:48 | 00:00:00 | |
| IW2NTF | 2026-08-31 11:42:19 | 45.65576 | 9.26391 | 71° | 166km/h | 11398m | 3.4m/s | -49.9°C | 22.5% | 0hPa | 2.9V | 08:30:00 | 01:07:38 | 00:00:00 | |
| IW2NTF | 2026-08-31 11:42:09 | 45.65442 | 9.25836 | 71° | 161km/h | 11358m | 4.7m/s | -49.6°C | 21.3% | 0hPa | 2.9V | 08:30:00 | 01:07:28 | 00:00:00 | |
| IW2NTF | 2026-08-31 11:41:59 | 45.65302 | 9.25285 | 68° | 161km/h | 11320m | 3.8m/s | -49.3°C | 20.6% | 0hPa | 2.9V | 08:30:00 | 01:07:18 | 00:00:00 | |
| IW2NTF | 2026-08-31 11:41:50 | 45.65160 | 9.24742 | 70° | 168km/h | 11281m | 3m/s | -49°C | 20.5% | 0hPa | 2.8V | 08:30:00 | 01:07:08 | 00:00:00 | |
| IW2NTF | 2026-08-31 11:41:39 | 45.65033 | 9.24181 | 71° | 162km/h | 11241m | 3.9m/s | -48.9°C | 21.9% | 0hPa | 2.8V | 08:30:00 | 01:06:58 | 00:00:00 | |
| IW2NTF | 2026-08-31 11:41:29 | 45.64901 | 9.23627 | 71° | 162km/h | 11202m | 3.4m/s | -48.6°C | 20.9% | 0hPa | 2.8V | 08:30:00 | 01:06:48 | 00:00:00 | |
| IW2NTF | 2026-08-31 11:41:19 | 45.64770 | 9.23066 | 71° | 161km/h | 11162m | 3.9m/s | -48.4°C | 22.3% | 0hPa | 2.9V | 08:30:00 | 01:06:38 | 00:00:00 | |
| IW2NTF | 2026-08-31 11:41:09 | 45.64638 | 9.22510 | 69° | 164km/h | 11120m | 4.9m/s | -48.2°C | 22% | 0hPa | 2.9V | 08:30:00 | 01:06:28 | 00:00:00 | |
| IW2NTF | 2026-08-31 11:40:59 | 45.64510 | 9.21958 | 70° | 162km/h | 11081m | 3.8m/s | -47.9°C | 21.8% | 0hPa | 2.9V | 08:30:00 | 01:06:18 | 00:00:00 | |
| IW2NTF | 2026-08-31 11:40:49 | 45.64373 | 9.21420 | 70° | 155km/h | 11043m | 4.2m/s | -47.6°C | 22.1% | 0hPa | 2.8V | 08:30:00 | 01:06:08 | 00:00:00 | |
| IW2NTF | 2026-08-31 11:40:40 | 45.64236 | 9.20877 | 70° | 162km/h | 11003m | 3.7m/s | -47.3°C | 22% | 0hPa | 2.8V | 08:30:00 | 01:05:58 | 00:00:00 | |
| IW2NTF | 2026-08-31 11:40:29 | 45.64098 | 9.20340 | 70° | 159km/h | 10965m | 3.2m/s | -47°C | 22.7% | 0hPa | 2.9V | 08:30:00 | 01:05:48 | 00:00:00 | |
| IW2NTF | 2026-08-31 11:40:19 | 45.63958 | 9.19809 | 70° | 155km/h | 10927m | 4.6m/s | -46.9°C | 23.8% | 0hPa | 2.9V | 08:30:00 | 01:05:38 | 00:00:00 | |
| IW2NTF | 2026-08-31 11:40:10 | 45.63823 | 9.19284 | 68° | 157km/h | 10891m | 2.8m/s | -46.6°C | 25.2% | 0hPa | 2.9V | 08:30:00 | 01:05:28 | 00:00:00 | |
| IW2NTF | 2026-08-31 11:39:59 | 45.63673 | 9.18708 | 69° | 155km/h | 10852m | 3m/s | -46.4°C | 27.2% | 0hPa | 2.9V | 08:30:00 | 01:05:17 | 00:00:00 | |
| IW2NTF | 2026-08-31 11:39:50 | 45.63537 | 9.18190 | 70° | 153km/h | 10813m | 2.7m/s | -46.2°C | 28.4% | 0hPa | 2.8V | 08:30:00 | 01:05:07 | 00:00:00 | |
| IW2NTF | 2026-08-31 11:39:39 | 45.63399 | 9.17675 | 69° | 151km/h | 10778m | 2.6m/s | -46°C | 28.1% | 0hPa | 2.9V | 08:30:00 | 01:04:57 | 00:00:00 | |
| IW2NTF | 2026-08-31 11:39:29 | 45.63271 | 9.17161 | 69° | 151km/h | 10742m | 3.6m/s | -45.6°C | 28.8% | 0hPa | 2.9V | 08:30:00 | 01:04:47 | 00:00:00 | |
| IW2NTF | 2026-08-31 11:39:19 | 45.63144 | 9.16660 | 71° | 150km/h | 10708m | 2.8m/s | -45.6°C | 28.7% | 0hPa | 2.8V | 08:30:00 | 01:04:37 | 00:00:00 | |
| IW2NTF | 2026-08-31 11:39:09 | 45.63023 | 9.16159 | 70° | 144km/h | 10674m | 4m/s | -45.4°C | 28.9% | 0hPa | 2.9V | 08:30:00 | 01:04:27 | 00:00:00 | |
| IW2NTF | 2026-08-31 11:38:59 | 45.62905 | 9.15666 | 71° | 146km/h | 10640m | 3m/s | -45.2°C | 28.5% | 0hPa | 2.9V | 08:30:00 | 01:04:17 | 00:00:00 | |
| IW2NTF | 2026-08-31 11:38:49 | 45.62783 | 9.15175 | 69° | 144km/h | 10604m | 2.8m/s | -45°C | 28.9% | 0hPa | 2.8V | 08:30:00 | 01:04:07 | 00:00:00 | |
| IW2NTF | 2026-08-31 11:38:40 | 45.62662 | 9.14685 | 68° | 146km/h | 10570m | 3.6m/s | -45°C | 30.1% | 0hPa | 2.9V | 08:30:00 | 01:03:57 | 00:00:00 | |
| IW2NTF | 2026-08-31 11:38:29 | 45.62531 | 9.14205 | 70° | 141km/h | 10536m | 3.4m/s | -44.6°C | 29.6% | 0hPa | 2.9V | 08:30:00 | 01:03:47 | 00:00:00 | |
| IW2NTF | 2026-08-31 11:38:19 | 45.62406 | 9.13719 | 69° | 142km/h | 10501m | 3.4m/s | -44.3°C | 28.8% | 0hPa | 2.8V | 08:30:00 | 01:03:37 | 00:00:00 | |
| IW2NTF | 2026-08-31 11:38:09 | 45.62275 | 9.13230 | 69° | 144km/h | 10467m | 3.6m/s | -44°C | 29.3% | 0hPa | 2.9V | 08:30:00 | 01:03:27 | 00:00:00 | |
| IW2NTF | 2026-08-31 11:37:59 | 45.62141 | 9.12737 | 68° | 144km/h | 10433m | 3.6m/s | -44°C | 30.7% | 0hPa | 2.9V | 08:30:00 | 01:03:17 | 00:00:00 | |
| IW2NTF | 2026-08-31 11:37:49 | 45.62012 | 9.12236 | 69° | 151km/h | 10399m | 1.9m/s | -43.9°C | 31.5% | 0hPa | 2.8V | 08:30:00 | 01:03:07 | 00:00:00 | |
| IW2NTF | 2026-08-31 11:37:38 | 45.61882 | 9.11742 | 71° | 142km/h | 10368m | 3.3m/s | -43.7°C | 33.9% | 0hPa | 2.9V | 08:30:00 | 01:02:57 | 00:00:00 | |
| IW2NTF | 2026-08-31 11:37:27 | 45.61755 | 9.11263 | 70° | 141km/h | 10333m | 3m/s | -43.6°C | 36.9% | 0hPa | 2.8V | 08:30:00 | 01:02:47 | 00:00:00 | |
| IW2NTF | 2026-08-31 11:37:17 | 45.61637 | 9.10796 | 69° | 139km/h | 10298m | 3.3m/s | -43.4°C | 39.8% | 0hPa | 2.9V | 08:30:00 | 01:02:37 | 00:00:00 | |
| IW2NTF | 2026-08-31 11:37:07 | 45.61520 | 9.10352 | 70° | 130km/h | 10261m | 4.7m/s | -43.2°C | 42.3% | 0hPa | 2.8V | 08:30:00 | 01:02:27 | 00:00:00 | |
| IW2NTF | 2026-08-31 11:36:57 | 45.61416 | 9.09899 | 73° | 131km/h | 10226m | 4m/s | -43.1°C | 46.6% | 0hPa | 2.9V | 08:30:00 | 01:02:17 | 00:00:00 | |
| IW2NTF | 2026-08-31 11:36:49 | 45.61318 | 9.09445 | 72° | 131km/h | 10190m | 4.2m/s | -42.8°C | 48.6% | 0hPa | 2.9V | 08:30:00 | 01:02:07 | 00:00:00 | |
| IW2NTF | 2026-08-31 11:36:39 | 45.61223 | 9.09005 | 71° | 130km/h | 10155m | 3.4m/s | -42.5°C | 48.6% | 0hPa | 2.9V | 08:30:00 | 01:01:57 | 00:00:00 | |
| IW2NTF | 2026-08-31 11:36:21 | 45.61070 | 9.08344 | 71° | 126km/h | 10102m | 3.2m/s | -42°C | 52.7% | 0hPa | 2.8V | 08:30:00 | 01:01:42 | 00:00:00 | |
| IW2NTF | 2026-08-31 11:36:11 | 45.60968 | 9.07906 | 70° | 122km/h | 10068m | 3.4m/s | -41.8°C | 52.2% | 0hPa | 2.9V | 08:30:00 | 01:01:32 | 00:00:00 | |
| IW2NTF | 2026-08-31 11:36:01 | 45.60867 | 9.07475 | 73° | 124km/h | 10032m | 3m/s | -41.4°C | 51.1% | 0hPa | 2.8V | 08:30:00 | 01:01:22 | 00:00:00 | |
| IW2NTF | 2026-08-31 11:35:51 | 45.60772 | 9.07039 | 71° | 126km/h | 9997m | 3.3m/s | -41.1°C | 50.6% | 0hPa | 2.9V | 08:30:00 | 01:01:12 | 00:00:00 | |
| IW2NTF | 2026-08-31 11:35:41 | 45.60678 | 9.06604 | 72° | 126km/h | 9960m | 4.5m/s | -40.8°C | 49.4% | 0hPa | 2.9V | 08:30:00 | 01:01:02 | 00:00:00 | |
| IW2NTF | 2026-08-31 11:35:34 | 45.60582 | 9.06168 | 74° | 124km/h | 9922m | 3m/s | -40.4°C | 48.8% | 0hPa | 2.9V | 08:30:00 | 01:00:52 | 00:00:00 | |
| IW2NTF | 2026-08-31 11:35:22 | 45.60488 | 9.05731 | 73° | 126km/h | 9884m | 4.1m/s | -40.1°C | 47.9% | 0hPa | 2.9V | 08:30:00 | 01:00:42 | 00:00:00 | |
| IW2NTF | 2026-08-31 11:35:14 | 45.60400 | 9.05296 | 74° | 133km/h | 9846m | 3.3m/s | -39.8°C | 49.2% | 0hPa | 2.8V | 08:30:00 | 01:00:32 | 00:00:00 | |
| IW2NTF | 2026-08-31 11:35:02 | 45.60320 | 9.04864 | 74° | 124km/h | 9807m | 3.6m/s | -39.5°C | 47.3% | 0hPa | 2.9V | 08:30:00 | 01:00:22 | 00:00:00 | |
| IW2NTF | 2026-08-31 11:34:54 | 45.60238 | 9.04422 | 74° | 128km/h | 9768m | 3.1m/s | -39.1°C | 44.4% | 0hPa | 2.9V | 08:30:00 | 01:00:12 | 00:00:00 | |
| IW2NTF | 2026-08-31 11:34:42 | 45.60155 | 9.03985 | 76° | 128km/h | 9732m | 2.9m/s | -38.8°C | 40.1% | 0hPa | 2.9V | 08:30:00 | 01:00:02 | 00:00:00 | |
| IW2NTF | 2026-08-31 11:34:34 | 45.60075 | 9.03548 | 74° | 124km/h | 9695m | 4m/s | -38.5°C | 36% | 0hPa | 2.9V | 08:30:00 | 00:59:52 | 00:00:00 | |
| IW2NTF | 2026-08-31 11:34:22 | 45.59989 | 9.03114 | 75° | 126km/h | 9655m | 4.6m/s | -38.3°C | 42.4% | 0hPa | 2.8V | 08:30:00 | 00:59:42 | 00:00:00 | |
| IW2NTF | 2026-08-31 11:34:14 | 45.59904 | 9.02678 | 72° | 124km/h | 9617m | 3.6m/s | -38°C | 38% | 0hPa | 2.9V | 08:30:00 | 00:59:32 | 00:00:00 | |
| IW2NTF | 2026-08-31 11:34:02 | 45.59810 | 9.02257 | 71° | 124km/h | 9579m | 4m/s | -37.6°C | 31.1% | 0hPa | 2.9V | 08:30:00 | 00:59:22 | 00:00:00 | |
| IW2NTF | 2026-08-31 11:33:54 | 45.59714 | 9.01834 | 69° | 117km/h | 9541m | 4m/s | -37.4°C | 26.7% | 0hPa | 2.9V | 08:30:00 | 00:59:12 | 00:00:00 | |
| IW2NTF | 2026-08-31 11:33:43 | 45.59601 | 9.01392 | 70° | 120km/h | 9496m | 3.4m/s | -37°C | 33.3% | 0hPa | 2.9V | 08:30:00 | 00:59:01 | 00:00:00 | |
| IW2NTF | 2026-08-31 11:33:33 | 45.59500 | 9.00986 | 70° | 122km/h | 9458m | 3m/s | -36.9°C | 39.9% | 0hPa | 2.8V | 08:30:00 | 00:58:51 | 00:00:00 | |
| IW2NTF | 2026-08-31 11:33:19 | 45.59372 | 9.00505 | 71° | 120km/h | 9409m | 3.7m/s | -36.5°C | 33.8% | 0hPa | 2.9V | 08:30:00 | 00:58:39 | 00:00:00 | |
| IW2NTF | 2026-08-31 11:33:08 | 45.59258 | 9.00108 | 68° | 117km/h | 9363m | 6m/s | -36.1°C | 31.5% | 0hPa | 2.9V | 08:30:00 | 00:58:29 | 00:00:00 | |
| IW2NTF | 2026-08-31 11:32:58 | 45.59150 | 8.99698 | 69° | 115km/h | 9304m | 6.7m/s | -35.8°C | 22.5% | 0hPa | 2.8V | 08:30:00 | 00:58:19 | 00:00:00 | |
| IW2NTF | 2026-08-31 11:32:48 | 45.59045 | 8.99304 | 72° | 120km/h | 9248m | 7.5m/s | -35.4°C | 33% | 0hPa | 2.9V | 08:30:00 | 00:58:09 | 00:00:00 | |
| IW2NTF | 2026-08-31 11:32:39 | 45.58962 | 8.98901 | 71° | 113km/h | 9195m | 3m/s | -34.9°C | 34.4% | 0hPa | 2.9V | 08:30:00 | 00:57:59 | 00:00:00 | |
| IW2NTF | 2026-08-31 11:32:28 | 45.58861 | 8.98511 | 70° | 120km/h | 9139m | 6.3m/s | -34.4°C | 32% | 0hPa | 2.9V | 08:30:00 | 00:57:49 | 00:00:00 | |
| IW2NTF | 2026-08-31 11:32:18 | 45.58766 | 8.98100 | 70° | 110km/h | 9088m | 6.4m/s | -34°C | 44.4% | 0hPa | 2.8V | 08:30:00 | 00:57:39 | 00:00:00 | |
| IW2NTF | 2026-08-31 11:32:08 | 45.58677 | 8.97693 | 70° | 113km/h | 9034m | 4.8m/s | -33.7°C | 47.7% | 0hPa | 2.9V | 08:30:00 | 00:57:29 | 00:00:00 | |
| IW2NTF | 2026-08-31 11:31:58 | 45.58596 | 8.97298 | 79° | 115km/h | 8975m | 4.8m/s | -33.3°C | 47.6% | 0hPa | 2.9V | 08:30:00 | 00:57:19 | 00:00:00 | |
| IW2NTF | 2026-08-31 11:31:48 | 45.58524 | 8.96911 | 74° | 110km/h | 8924m | 8.3m/s | -32.9°C | 43.8% | 0hPa | 2.9V | 08:30:00 | 00:57:09 | 00:00:00 | |
| IW2NTF | 2026-08-31 11:31:38 | 45.58440 | 8.96518 | 73° | 113km/h | 8870m | 4.2m/s | -32.5°C | 42.5% | 0hPa | 2.8V | 08:30:00 | 00:56:59 | 00:00:00 | |
| IW2NTF | 2026-08-31 11:31:28 | 45.58353 | 8.96124 | 70° | 108km/h | 8816m | 4.2m/s | -32°C | 41.2% | 0hPa | 2.9V | 08:30:00 | 00:56:49 | 00:00:00 | |
| IW2NTF | 2026-08-31 11:31:18 | 45.58279 | 8.95740 | 72° | 117km/h | 8770m | 6m/s | -31.7°C | 42.6% | 0hPa | 2.9V | 08:30:00 | 00:56:39 | 00:00:00 | |
| IW2NTF | 2026-08-31 11:31:09 | 45.58187 | 8.95333 | 76° | 115km/h | 8720m | 3.2m/s | -31.4°C | 43% | 0hPa | 2.9V | 08:30:00 | 00:56:29 | 00:00:00 | |
| IW2NTF | 2026-08-31 11:30:58 | 45.58114 | 8.94947 | 77° | 113km/h | 8663m | 5.1m/s | -30.9°C | 39.4% | 0hPa | 2.9V | 08:30:00 | 00:56:19 | 00:00:00 | |
| IW2NTF | 2026-08-31 11:30:48 | 45.58046 | 8.94561 | 76° | 110km/h | 8609m | 7m/s | -30.4°C | 34.7% | 0hPa | 2.9V | 08:30:00 | 00:56:09 | 00:00:00 | |
| IW2NTF | 2026-08-31 11:30:39 | 45.57967 | 8.94179 | 76° | 106km/h | 8558m | 3.6m/s | -29.8°C | 24.7% | 0hPa | 2.9V | 08:30:00 | 00:55:59 | 00:00:00 | |
| IW2NTF | 2026-08-31 11:30:28 | 45.57899 | 8.93791 | 71° | 117km/h | 8504m | 6.1m/s | -29.4°C | 21.8% | 0hPa | 2.9V | 08:30:00 | 00:55:49 | 00:00:00 | |
| IW2NTF | 2026-08-31 11:30:18 | 45.57812 | 8.93410 | 72° | 108km/h | 8453m | 7.6m/s | -29°C | 19.1% | 0hPa | 2.9V | 08:30:00 | 00:55:39 | 00:00:00 | |
| IW2NTF | 2026-08-31 11:30:08 | 45.57725 | 8.93031 | 70° | 115km/h | 8399m | 2.4m/s | -28.6°C | 19.4% | 0hPa | 2.9V | 08:30:00 | 00:55:29 | 00:00:00 | |
| IW2NTF | 2026-08-31 11:29:58 | 45.57638 | 8.92671 | 72° | 106km/h | 8349m | 5.4m/s | -28.2°C | 17.5% | 0hPa | 2.9V | 08:30:00 | 00:55:19 | 00:00:00 | |
| IW2NTF | 2026-08-31 11:29:49 | 45.57563 | 8.92289 | 75° | 119km/h | 8293m | 6.7m/s | -27.7°C | 18.2% | 0hPa | 2.9V | 08:30:00 | 00:55:09 | 00:00:00 | |
| IW2NTF | 2026-08-31 11:29:38 | 45.57487 | 8.91903 | 72° | 111km/h | 8242m | 5m/s | -27.2°C | 15.4% | 0hPa | 2.9V | 08:30:00 | 00:54:59 | 00:00:00 | |
| IW2NTF | 2026-08-31 11:29:28 | 45.57410 | 8.91528 | 71° | 102km/h | 8195m | 3.9m/s | -26.8°C | 13.9% | 0hPa | 2.8V | 08:30:00 | 00:54:49 | 00:00:00 | |
| IW2NTF | 2026-08-31 11:29:18 | 45.57327 | 8.91157 | 72° | 113km/h | 8148m | 7.2m/s | -26.4°C | 14.1% | 0hPa | 2.9V | 08:30:00 | 00:54:39 | 00:00:00 | |
| IW2NTF | 2026-08-31 11:29:08 | 45.57246 | 8.90793 | 69° | 108km/h | 8091m | 3.8m/s | -25.9°C | 13.1% | 0hPa | 2.9V | 08:30:00 | 00:54:29 | 00:00:00 | |
| IW2NTF | 2026-08-31 11:28:58 | 45.57168 | 8.90405 | 72° | 115km/h | 8044m | 7.1m/s | -25.5°C | 13.5% | 0hPa | 2.9V | 08:30:00 | 00:54:19 | 00:00:00 | |
| IW2NTF | 2026-08-31 11:28:48 | 45.57085 | 8.90039 | 77° | 106km/h | 7985m | 5.4m/s | -25°C | 12.2% | 0hPa | 2.9V | 08:30:00 | 00:54:09 | 00:00:00 | |
| IW2NTF | 2026-08-31 11:28:37 | 45.57008 | 8.89652 | 72° | 115km/h | 7930m | 8.2m/s | -24.5°C | 10.5% | 0hPa | 2.9V | 08:30:00 | 00:53:59 | 00:00:00 | |
| IW2NTF | 2026-08-31 11:28:27 | 45.56921 | 8.89288 | 71° | 100km/h | 7875m | 3.8m/s | -24.1°C | 9.1% | 0hPa | 2.9V | 08:30:00 | 00:53:49 | 00:00:00 | |
| IW2NTF | 2026-08-31 11:28:17 | 45.56847 | 8.88902 | 71° | 111km/h | 7826m | 4.2m/s | -23.7°C | 8.2% | 0hPa | 2.9V | 08:30:00 | 00:53:39 | 00:00:00 | |
| IW2NTF | 2026-08-31 11:28:07 | 45.56758 | 8.88532 | 74° | 110km/h | 7774m | 6.3m/s | -23.3°C | 7.9% | 0hPa | 3V | 08:30:00 | 00:53:29 | 00:00:00 | |
| IW2NTF | 2026-08-31 11:27:57 | 45.56678 | 8.88083 | 75° | 110km/h | 7715m | 3.6m/s | -22.9°C | 6.9% | 0hPa | 2.9V | 08:30:00 | 00:53:17 | 00:00:00 | |
| IW2NTF | 2026-08-31 11:27:47 | 45.56617 | 8.87695 | 77° | 110km/h | 7672m | 5.7m/s | -22.9°C | 5.6% | 0hPa | 2.9V | 08:30:00 | 00:53:07 | 00:00:00 | |
| IW2NTF | 2026-08-31 11:27:38 | 45.56564 | 8.87319 | 80° | 106km/h | 7627m | 4.9m/s | -22.9°C | 6.7% | 0hPa | 3V | 08:30:00 | 00:52:57 | 00:00:00 | |
| IW2NTF | 2026-08-31 11:27:28 | 45.56541 | 8.86954 | 83° | 106km/h | 7573m | 6.9m/s | -22.5°C | 6.7% | 0hPa | 2.9V | 08:30:00 | 00:52:47 | 00:00:00 | |
| IW2NTF | 2026-08-31 11:27:17 | 45.56492 | 8.86576 | 79° | 97km/h | 7527m | 3.8m/s | -22.5°C | 7.1% | 0hPa | 3V | 08:30:00 | 00:52:37 | 00:00:00 | |
| IW2NTF | 2026-08-31 11:27:07 | 45.56450 | 8.86236 | 82° | 99km/h | 7474m | 5.2m/s | -22.5°C | 7.3% | 0hPa | 3V | 08:30:00 | 00:52:27 | 00:00:00 | |
| IW2NTF | 2026-08-31 11:26:58 | 45.56418 | 8.85907 | 80° | 91km/h | 7430m | 2.7m/s | -22.4°C | 7.8% | 0hPa | 3V | 08:30:00 | 00:52:17 | 00:00:00 | |
| IW2NTF | 2026-08-31 11:26:45 | 45.56362 | 8.85560 | 74° | 89km/h | 7381m | 1.7m/s | -22.4°C | 10.5% | 0hPa | 3V | 08:30:00 | 00:52:06 | 00:00:00 | |
| IW2NTF | 2026-08-31 11:26:35 | 45.56315 | 8.85246 | 78° | 80km/h | 7337m | 5.6m/s | -22.3°C | 12.2% | 0hPa | 3V | 08:30:00 | 00:51:56 | 00:00:00 | |
| IW2NTF | 2026-08-31 11:26:26 | 45.56282 | 8.84936 | 82° | 95km/h | 7290m | 4.4m/s | -22.2°C | 15.1% | 0hPa | 3V | 08:30:00 | 00:51:46 | 00:00:00 | |
| IW2NTF | 2026-08-31 11:26:15 | 45.56237 | 8.84611 | 79° | 84km/h | 7242m | 4.6m/s | -21.9°C | 16.7% | 0hPa | 3V | 08:30:00 | 00:51:36 | 00:00:00 | |
| IW2NTF | 2026-08-31 11:26:06 | 45.56205 | 8.84266 | 78° | 78km/h | 7182m | 6.2m/s | -21.5°C | 17.7% | 0hPa | 3V | 08:30:00 | 00:51:24 | 00:00:00 | |
| IW2NTF | 2026-08-31 11:25:55 | 45.56155 | 8.83913 | 83° | 84km/h | 7125m | 5.9m/s | -21.1°C | 19.2% | 0hPa | 3V | 08:30:00 | 00:51:12 | 00:00:00 | |
| IW2NTF | 2026-08-31 11:25:38 | 45.56106 | 8.83595 | 73° | 80km/h | 7079m | 3.3m/s | -20.8°C | 19.9% | 0hPa | 3V | 08:30:00 | 00:51:01 | 00:00:00 | |
| IW2NTF | 2026-08-31 11:25:28 | 45.56064 | 8.83311 | 75° | 86km/h | 7031m | 6.7m/s | -20.6°C | 22.4% | 0hPa | 3V | 08:30:00 | 00:50:51 | 00:00:00 | |
| IW2NTF | 2026-08-31 11:25:18 | 45.56011 | 8.83031 | 76° | 84km/h | 6986m | 3.6m/s | -20.2°C | 19.7% | 0hPa | 3V | 08:30:00 | 00:50:41 | 00:00:00 | |
| IW2NTF | 2026-08-31 11:25:13 | 45.55964 | 8.82751 | 75° | 71km/h | 6938m | 3.8m/s | -19.8°C | 19.2% | 0hPa | 3V | 08:30:00 | 00:50:31 | 00:00:00 | |
| IW2NTF | 2026-08-31 11:24:59 | 45.55919 | 8.82473 | 74° | 69km/h | 6892m | 5.7m/s | -19.4°C | 18.8% | 0hPa | 3V | 08:30:00 | 00:50:21 | 00:00:00 | |
| IW2NTF | 2026-08-31 11:24:48 | 45.55866 | 8.82167 | 76° | 78km/h | 6833m | 4.3m/s | -18.9°C | 14.9% | 0hPa | 3V | 08:30:00 | 00:50:09 | 00:00:00 | |
| IW2NTF | 2026-08-31 11:24:38 | 45.55817 | 8.81903 | 76° | 73km/h | 6782m | 4.2m/s | -18.4°C | 16.1% | 0hPa | 3V | 08:30:00 | 00:49:59 | 00:00:00 | |
| IW2NTF | 2026-08-31 11:24:29 | 45.55767 | 8.81643 | 76° | 78km/h | 6728m | 7.5m/s | -17.9°C | 13.2% | 0hPa | 3V | 08:30:00 | 00:49:49 | 00:00:00 | |
| IW2NTF | 2026-08-31 11:24:19 | 45.55733 | 8.81358 | 83° | 80km/h | 6673m | 3.5m/s | -17.4°C | 12% | 0hPa | 3V | 08:30:00 | 00:49:39 | 00:00:00 | |
| IW2NTF | 2026-08-31 11:24:08 | 45.55695 | 8.81089 | 83° | 80km/h | 6628m | 6.2m/s | -17°C | 5.6% | 0hPa | 3V | 08:30:00 | 00:49:29 | 00:00:00 | |
| IW2NTF | 2026-08-31 11:24:01 | 45.55650 | 8.80819 | 80° | 73km/h | 6577m | 5.2m/s | -16.9°C | 3.9% | 0hPa | 3V | 08:30:00 | 00:49:19 | 00:00:00 | |
| IW2NTF | 2026-08-31 11:23:48 | 45.55617 | 8.80503 | 77° | 66km/h | 6519m | 5.6m/s | -16.7°C | 4.8% | 0hPa | 3V | 08:30:00 | 00:49:07 | 00:00:00 | |
| IW2NTF | 2026-08-31 11:23:38 | 45.55584 | 8.80271 | 76° | 68km/h | 6472m | 5.8m/s | -16.5°C | 5.8% | 0hPa | 3V | 08:30:00 | 00:48:57 | 00:00:00 | |
| IW2NTF | 2026-08-31 11:23:33 | 45.55546 | 8.80025 | 83° | 62km/h | 6420m | 4.4m/s | -16.2°C | 7.2% | 0hPa | 3V | 08:30:00 | 00:48:47 | 00:00:00 | |
| IW2NTF | 2026-08-31 11:23:18 | 45.55522 | 8.79776 | 81° | 66km/h | 6368m | 4.1m/s | -15.7°C | 7.9% | 0hPa | 3V | 08:30:00 | 00:48:37 | 00:00:00 | |
| IW2NTF | 2026-08-31 11:23:08 | 45.55491 | 8.79545 | 76° | 68km/h | 6311m | 6.5m/s | -15.4°C | 8.5% | 0hPa | 3V | 08:30:00 | 00:48:27 | 00:00:00 | |
| IW2NTF | 2026-08-31 11:22:58 | 45.55454 | 8.79315 | 72° | 62km/h | 6259m | 4.2m/s | -15.1°C | 9% | 0hPa | 3V | 08:30:00 | 00:48:17 | 00:00:00 | |
| IW2NTF | 2026-08-31 11:22:48 | 45.55428 | 8.79092 | 83° | 66km/h | 6203m | 5.4m/s | -14.6°C | 8.3% | 0hPa | 2.9V | 08:30:00 | 00:48:07 | 00:00:00 | |
| IW2NTF | 2026-08-31 11:22:38 | 45.55396 | 8.78861 | 84° | 68km/h | 6147m | 6.2m/s | -14.2°C | 7.6% | 0hPa | 3V | 08:30:00 | 00:47:57 | 00:00:00 | |
| IW2NTF | 2026-08-31 11:22:28 | 45.55368 | 8.78649 | 78° | 64km/h | 6102m | 3.9m/s | -13.8°C | 7.9% | 0hPa | 3V | 08:30:00 | 00:47:47 | 00:00:00 | |
| IW2NTF | 2026-08-31 11:22:18 | 45.55328 | 8.78431 | 78° | 62km/h | 6051m | 6.7m/s | -13.4°C | 7.1% | 0hPa | 3V | 08:30:00 | 00:47:37 | 00:00:00 | |
| IW2NTF | 2026-08-31 11:22:08 | 45.55311 | 8.78226 | 83° | 51km/h | 5991m | 6m/s | -12.9°C | 6.3% | 0hPa | 3V | 08:30:00 | 00:47:27 | 00:00:00 | |
| IW2NTF | 2026-08-31 11:21:58 | 45.55295 | 8.78014 | 82° | 62km/h | 5938m | 6.3m/s | -12.5°C | 6.7% | 0hPa | 3V | 08:30:00 | 00:47:17 | 00:00:00 | |
| IW2NTF | 2026-08-31 11:21:48 | 45.55276 | 8.77793 | 85° | 69km/h | 5888m | 5.4m/s | -12.1°C | 5.9% | 0hPa | 3V | 08:30:00 | 00:47:07 | 00:00:00 | |
| IW2NTF | 2026-08-31 11:21:38 | 45.55255 | 8.77597 | 79° | 62km/h | 5838m | 4.7m/s | -11.8°C | 5.9% | 0hPa | 3V | 08:30:00 | 00:46:57 | 00:00:00 | |
| IW2NTF | 2026-08-31 11:21:28 | 45.55226 | 8.77372 | 80° | 66km/h | 5785m | 5.4m/s | -11.4°C | 6.2% | 0hPa | 3V | 08:30:00 | 00:46:47 | 00:00:00 | |
| IW2NTF | 2026-08-31 11:21:18 | 45.55195 | 8.77172 | 74° | 53km/h | 5731m | 6.2m/s | -11.1°C | 6.2% | 0hPa | 3V | 08:30:00 | 00:46:37 | 00:00:00 | |
| IW2NTF | 2026-08-31 11:21:08 | 45.55179 | 8.76989 | 81° | 51km/h | 5678m | 6.8m/s | -10.6°C | 6.2% | 0hPa | 3V | 08:30:00 | 00:46:27 | 00:00:00 | |
| IW2NTF | 2026-08-31 11:20:58 | 45.55164 | 8.76806 | 78° | 49km/h | 5623m | 6.3m/s | -10.1°C | 6% | 0hPa | 3V | 08:30:00 | 00:46:17 | 00:00:00 | |
| IW2NTF | 2026-08-31 11:20:48 | 45.55137 | 8.76631 | 78° | 42km/h | 5569m | 3m/s | -9.6°C | 5.9% | 0hPa | 3V | 08:30:00 | 00:46:07 | 00:00:00 | |
| IW2NTF | 2026-08-31 11:20:38 | 45.55113 | 8.76449 | 83° | 57km/h | 5519m | 5.3m/s | -9.1°C | 5.8% | 0hPa | 3V | 08:30:00 | 00:45:57 | 00:00:00 | |
| IW2NTF | 2026-08-31 11:20:28 | 45.55090 | 8.76262 | 76° | 47km/h | 5467m | 5.9m/s | -8.7°C | 6% | 0hPa | 3V | 08:30:00 | 00:45:47 | 00:00:00 | |
| IW2NTF | 2026-08-31 11:20:18 | 45.55059 | 8.76111 | 77° | 46km/h | 5409m | 5.7m/s | -8.1°C | 6% | 0hPa | 3V | 08:30:00 | 00:45:37 | 00:00:00 | |
| IW2NTF | 2026-08-31 11:20:08 | 45.55040 | 8.75935 | 79° | 49km/h | 5355m | 4m/s | -7.6°C | 7.3% | 0hPa | 3V | 08:30:00 | 00:45:27 | 00:00:00 | |
| IW2NTF | 2026-08-31 11:19:58 | 45.55011 | 8.75764 | 78° | 55km/h | 5300m | 4.9m/s | -7.2°C | 9.2% | 0hPa | 3V | 08:30:00 | 00:45:17 | 00:00:00 | |
| IW2NTF | 2026-08-31 11:19:48 | 45.54983 | 8.75607 | 80° | 44km/h | 5249m | 5.8m/s | -6.7°C | 8.9% | 0hPa | 3V | 08:30:00 | 00:45:07 | 00:00:00 | |
| IW2NTF | 2026-08-31 11:19:38 | 45.54953 | 8.75427 | 85° | 47km/h | 5197m | 5.9m/s | -6.2°C | 7.8% | 0hPa | 3V | 08:30:00 | 00:44:57 | 00:00:00 | |
| IW2NTF | 2026-08-31 11:19:28 | 45.54934 | 8.75239 | 75° | 57km/h | 5149m | 5m/s | -5.7°C | 5.6% | 0hPa | 3V | 08:30:00 | 00:44:47 | 00:00:00 | |
| IW2NTF | 2026-08-31 11:19:18 | 45.54905 | 8.75084 | 84° | 42km/h | 5097m | 4.2m/s | -5.3°C | 4.9% | 0hPa | 3V | 08:30:00 | 00:44:37 | 00:00:00 | |
| IW2NTF | 2026-08-31 11:19:07 | 45.54889 | 8.74884 | 72° | 44km/h | 5034m | 6.7m/s | -4.8°C | 4.7% | 0hPa | 3V | 08:30:00 | 00:44:25 | 00:00:00 | |
| IW2NTF | 2026-08-31 11:18:57 | 45.54884 | 8.74754 | 84° | 31km/h | 4979m | 5.7m/s | -4.4°C | 4.7% | 0hPa | 3V | 08:30:00 | 00:44:15 | 00:00:00 | |
| IW2NTF | 2026-08-31 11:18:51 | 45.54872 | 8.74668 | 80° | 44km/h | 4948m | 5m/s | -4.2°C | 5% | 0hPa | 3V | 08:30:00 | 00:44:09 | 00:00:00 | |
| IW2NTF | 2026-08-31 11:18:45 | 45.54860 | 8.74580 | 76° | 38km/h | 4920m | 2.7m/s | -4°C | 5.8% | 0hPa | 3V | 08:30:00 | 00:44:03 | 00:00:00 | |
| IW2NTF | 2026-08-31 11:18:38 | 45.54861 | 8.74504 | 96° | 33km/h | 4894m | 5.7m/s | -3.8°C | 6.1% | 0hPa | 3V | 08:30:00 | 00:43:57 | 00:00:00 | |
| IW2NTF | 2026-08-31 11:18:33 | 45.54858 | 8.74420 | 84° | 44km/h | 4865m | 5m/s | -3.6°C | 10.9% | 0hPa | 3V | 08:30:00 | 00:43:51 | 00:00:00 | |
| IW2NTF | 2026-08-31 11:18:26 | 45.54849 | 8.74326 | 77° | 46km/h | 4836m | 5.2m/s | -3.3°C | 10.7% | 0hPa | 3V | 08:30:00 | 00:43:45 | 00:00:00 | |
| IW2NTF | 2026-08-31 11:18:16 | 45.54843 | 8.74240 | 92° | 35km/h | 4802m | 4m/s | -3°C | 11.8% | 0hPa | 3V | 08:30:00 | 00:43:39 | 00:00:00 | |
| IW2NTF | 2026-08-31 11:18:16 | 45.54838 | 8.74173 | 75° | 38km/h | 4777m | 3.5m/s | -2.9°C | 15.7% | 0hPa | 3V | 08:30:00 | 00:43:34 | 00:00:00 | |
| IW2NTF | 2026-08-31 11:18:10 | 45.54829 | 8.74098 | 86° | 40km/h | 4750m | 6.7m/s | -3.2°C | 45% | 0hPa | 3V | 08:30:00 | 00:43:28 | 00:00:00 | |
| IW2NTF | 2026-08-31 11:18:04 | 45.54823 | 8.74006 | 83° | 38km/h | 4722m | 5.1m/s | -3°C | 46.1% | 0hPa | 3V | 08:30:00 | 00:43:22 | 00:00:00 | |
| IW2NTF | 2026-08-31 11:17:58 | 45.54816 | 8.73934 | 82° | 37km/h | 4695m | 3.2m/s | -2.8°C | 46.6% | 0hPa | 3V | 08:30:00 | 00:43:16 | 00:00:00 | |
| IW2NTF | 2026-08-31 11:17:52 | 45.54806 | 8.73854 | 74° | 38km/h | 4674m | 3.5m/s | -2.7°C | 48.6% | 0hPa | 3V | 08:30:00 | 00:43:10 | 00:00:00 | |
| IW2NTF | 2026-08-31 11:17:46 | 45.54789 | 8.73773 | 76° | 42km/h | 4654m | 3.8m/s | -2.5°C | 48.5% | 0hPa | 3V | 08:30:00 | 00:43:04 | 00:00:00 | |
| IW2NTF | 2026-08-31 11:17:40 | 45.54778 | 8.73689 | 79° | 31km/h | 4635m | 3.9m/s | -2.3°C | 48.1% | 0hPa | 3V | 08:30:00 | 00:42:58 | 00:00:00 | |
| IW2NTF | 2026-08-31 11:17:34 | 45.54767 | 8.73616 | 77° | 38km/h | 4612m | 3.7m/s | -2.1°C | 47.7% | 0hPa | 3V | 08:30:00 | 00:42:52 | 00:00:00 | |
| IW2NTF | 2026-08-31 11:17:28 | 45.54755 | 8.73542 | 79° | 33km/h | 4591m | 3.2m/s | -2°C | 49.5% | 0hPa | 3V | 08:30:00 | 00:42:46 | 00:00:00 | |
| IW2NTF | 2026-08-31 11:17:22 | 45.54743 | 8.73471 | 79° | 38km/h | 4568m | 3.7m/s | -1.8°C | 50.2% | 0hPa | 3V | 08:30:00 | 00:42:40 | 00:00:00 | |
| IW2NTF | 2026-08-31 11:17:16 | 45.54732 | 8.73391 | 72° | 31km/h | 4550m | 3.7m/s | -1.6°C | 45.6% | 0hPa | 3V | 08:30:00 | 00:42:34 | 00:00:00 | |
| IW2NTF | 2026-08-31 11:17:10 | 45.54718 | 8.73320 | 86° | 40km/h | 4531m | 3.1m/s | -1.5°C | 39.2% | 0hPa | 3V | 08:30:00 | 00:42:28 | 00:00:00 | |
| IW2NTF | 2026-08-31 11:17:04 | 45.54719 | 8.73228 | 83° | 42km/h | 4510m | 2.9m/s | -1.3°C | 36.7% | 0hPa | 3V | 08:30:00 | 00:42:22 | 00:00:00 | |
| IW2NTF | 2026-08-31 11:16:59 | 45.54708 | 8.73148 | 82° | 35km/h | 4477m | 6.1m/s | -1.2°C | 46.9% | 0hPa | 3V | 08:30:00 | 00:42:16 | 00:00:00 | |
| IW2NTF | 2026-08-31 11:16:53 | 45.54710 | 8.73067 | 90° | 42km/h | 4443m | 5.8m/s | -1.1°C | 52.9% | 0hPa | 3V | 08:30:00 | 00:42:10 | 00:00:00 | |
| IW2NTF | 2026-08-31 11:16:46 | 45.54700 | 8.72975 | 74° | 40km/h | 4413m | 6.2m/s | -0.9°C | 48.5% | 0hPa | 3V | 08:30:00 | 00:42:04 | 00:00:00 | |
| IW2NTF | 2026-08-31 11:16:40 | 45.54690 | 8.72904 | 90° | 33km/h | 4383m | 4.7m/s | -0.9°C | 57.3% | 0hPa | 3V | 08:30:00 | 00:41:58 | 00:00:00 | |
| IW2NTF | 2026-08-31 11:16:34 | 45.54688 | 8.72818 | 86° | 44km/h | 4358m | 4m/s | -0.7°C | 56.7% | 0hPa | 3V | 08:30:00 | 00:41:52 | 00:00:00 | |
| IW2NTF | 2026-08-31 11:16:28 | 45.54684 | 8.72748 | 81° | 26km/h | 4333m | 5.1m/s | -0.4°C | 56% | 0hPa | 3V | 08:30:00 | 00:41:46 | 00:00:00 | |
| IW2NTF | 2026-08-31 11:16:22 | 45.54681 | 8.72682 | 81° | 35km/h | 4310m | 4.7m/s | -0.1°C | 43.5% | 0hPa | 3V | 08:30:00 | 00:41:40 | 00:00:00 | |
| IW2NTF | 2026-08-31 11:16:16 | 45.54671 | 8.72611 | 81° | 33km/h | 4286m | 3.8m/s | -0°C | 42.8% | 0hPa | 3V | 08:30:00 | 00:41:34 | 00:00:00 | |
| IW2NTF | 2026-08-31 11:16:10 | 45.54663 | 8.72543 | 76° | 29km/h | 4266m | 3m/s | 0°C | 44% | 0hPa | 3V | 08:30:00 | 00:41:28 | 00:00:00 | |
| IW2NTF | 2026-08-31 11:16:03 | 45.54655 | 8.72479 | 83° | 29km/h | 4247m | 3.4m/s | 0.1°C | 44.2% | 0hPa | 3V | 08:30:00 | 00:41:22 | 00:00:00 | |
| IW2NTF | 2026-08-31 11:15:58 | 45.54651 | 8.72413 | 82° | 27km/h | 4227m | 3.2m/s | 0.2°C | 41.8% | 0hPa | 3V | 08:30:00 | 00:41:16 | 00:00:00 | |
| IW2NTF | 2026-08-31 11:15:52 | 45.54642 | 8.72346 | 76° | 33km/h | 4209m | 3.5m/s | 0.4°C | 42.5% | 0hPa | 3V | 08:30:00 | 00:41:10 | 00:00:00 | |
| IW2NTF | 2026-08-31 11:15:46 | 45.54635 | 8.72282 | 83° | 27km/h | 4190m | 3.5m/s | 0.5°C | 38.4% | 0hPa | 3V | 08:30:00 | 00:41:04 | 00:00:00 | |
| IW2NTF | 2026-08-31 11:15:40 | 45.54631 | 8.72221 | 81° | 29km/h | 4171m | 3.2m/s | 0.3°C | 61.2% | 0hPa | 3V | 08:30:00 | 00:40:58 | 00:00:00 | |
| IW2NTF | 2026-08-31 11:15:33 | 45.54621 | 8.72157 | 79° | 27km/h | 4154m | 2.9m/s | 0.1°C | 70.3% | 0hPa | 3V | 08:30:00 | 00:40:52 | 00:00:00 | |
| IW2NTF | 2026-08-31 11:15:28 | 45.54618 | 8.72095 | 84° | 29km/h | 4134m | 2.8m/s | -0.1°C | 75.4% | 0hPa | 3V | 08:30:00 | 00:40:46 | 00:00:00 | |
| IW2NTF | 2026-08-31 11:15:22 | 45.54614 | 8.72031 | 78° | 29km/h | 4116m | 2.8m/s | -0.4°C | 77.9% | 0hPa | 3V | 08:30:00 | 00:40:40 | 00:00:00 | |
| IW2NTF | 2026-08-31 11:15:17 | 45.54601 | 8.71959 | 71° | 38km/h | 4099m | 3.7m/s | -0.3°C | 77.1% | 0hPa | 3V | 08:30:00 | 00:40:34 | 00:00:00 | |
| IW2NTF | 2026-08-31 11:15:10 | 45.54590 | 8.71899 | 93° | 26km/h | 4069m | 6.9m/s | -0.1°C | 66.8% | 0hPa | 3V | 08:30:00 | 00:40:28 | 00:00:00 | |
| IW2NTF | 2026-08-31 11:15:04 | 45.54590 | 8.71840 | 80° | 27km/h | 4036m | 4.5m/s | -0°C | 68.2% | 0hPa | 3V | 08:30:00 | 00:40:22 | 00:00:00 | |
| IW2NTF | 2026-08-31 11:14:58 | 45.54585 | 8.71781 | 74° | 27km/h | 4011m | 5.1m/s | -0.1°C | 70.5% | 0hPa | 3V | 08:30:00 | 00:40:16 | 00:00:00 | |
| IW2NTF | 2026-08-31 11:14:47 | 45.54581 | 8.71728 | 96° | 29km/h | 3991m | 2.9m/s | -0.1°C | 71.6% | 0hPa | 3V | 08:30:00 | 00:40:10 | 00:00:00 | |
| IW2NTF | 2026-08-31 11:14:47 | 45.54580 | 8.71677 | 77° | 26km/h | 3974m | 3.2m/s | 0.1°C | 71.2% | 0hPa | 3V | 08:30:00 | 00:40:05 | 00:00:00 | |
| IW2NTF | 2026-08-31 11:14:41 | 45.54566 | 8.71626 | 61° | 29km/h | 3953m | 4m/s | 0.2°C | 71.2% | 0hPa | 3V | 08:30:00 | 00:39:59 | 00:00:00 | |
| IW2NTF | 2026-08-31 11:14:35 | 45.54565 | 8.71558 | 100° | 33km/h | 3924m | 6.6m/s | 0.1°C | 77.3% | 0hPa | 3V | 08:30:00 | 00:39:53 | 00:00:00 | |
| IW2NTF | 2026-08-31 11:14:29 | 45.54564 | 8.71495 | 86° | 27km/h | 3888m | 4.4m/s | -0.1°C | 90.6% | 0hPa | 3V | 08:30:00 | 00:39:47 | 00:00:00 | |
| IW2NTF | 2026-08-31 11:14:23 | 45.54554 | 8.71442 | 78° | 24km/h | 3866m | 2.3m/s | 0.1°C | 91% | 0hPa | 3V | 08:30:00 | 00:39:41 | 00:00:00 | |
| IW2NTF | 2026-08-31 11:14:17 | 45.54552 | 8.71374 | 84° | 38km/h | 3841m | 2.6m/s | 0.3°C | 89.1% | 0hPa | 3V | 08:30:00 | 00:39:35 | 00:00:00 | |
| IW2NTF | 2026-08-31 11:14:11 | 45.54549 | 8.71305 | 102° | 29km/h | 3822m | 3.2m/s | 0.4°C | 88.1% | 0hPa | 3V | 08:30:00 | 00:39:29 | 00:00:00 | |
| IW2NTF | 2026-08-31 11:14:05 | 45.54553 | 8.71225 | 80° | 35km/h | 3798m | 6.7m/s | 0.6°C | 86% | 0hPa | 3V | 08:30:00 | 00:39:23 | 00:00:00 | |
| IW2NTF | 2026-08-31 11:13:59 | 45.54535 | 8.71167 | 61° | 35km/h | 3761m | 4m/s | 1°C | 83.1% | 0hPa | 3V | 08:30:00 | 00:39:17 | 00:00:00 | |
| IW2NTF | 2026-08-31 11:13:53 | 45.54504 | 8.71092 | 68° | 44km/h | 3742m | 3.8m/s | 1.2°C | 82.2% | 0hPa | 3V | 08:30:00 | 00:39:11 | 00:00:00 | |
| IW2NTF | 2026-08-31 11:13:47 | 45.54490 | 8.71002 | 82° | 42km/h | 3720m | 6m/s | 1.4°C | 80.6% | 0hPa | 3V | 08:30:00 | 00:39:05 | 00:00:00 | |
| IW2NTF | 2026-08-31 11:13:39 | 45.54472 | 8.70883 | 73° | 40km/h | 3690m | 2.7m/s | 1.7°C | 79.2% | 0hPa | 3V | 08:30:00 | 00:38:57 | 00:00:00 | |
| IW2NTF | 2026-08-31 11:13:34 | 45.54456 | 8.70811 | 74° | 35km/h | 3666m | 4.1m/s | 1.9°C | 76.8% | 0hPa | 3V | 08:30:00 | 00:38:52 | 00:00:00 | |
| IW2NTF | 2026-08-31 11:13:28 | 45.54454 | 8.70765 | 96° | 20km/h | 3635m | 3.6m/s | 2.2°C | 75.4% | 0hPa | 3V | 08:30:00 | 00:38:46 | 00:00:00 | |
| IW2NTF | 2026-08-31 11:13:21 | 45.54437 | 8.70705 | 53° | 38km/h | 3604m | 5.6m/s | 2.5°C | 74.3% | 0hPa | 3V | 08:30:00 | 00:38:40 | 00:00:00 | |
| IW2NTF | 2026-08-31 11:13:16 | 45.54404 | 8.70652 | 49° | 27km/h | 3579m | 4.5m/s | 2.7°C | 72.8% | 0hPa | 3V | 08:30:00 | 00:38:34 | 00:00:00 | |
| IW2NTF | 2026-08-31 11:13:10 | 45.54385 | 8.70606 | 64° | 18km/h | 3544m | 6.9m/s | 3°C | 72% | 0hPa | 3V | 08:30:00 | 00:38:28 | 00:00:00 | |
| IW2NTF | 2026-08-31 11:13:04 | 45.54375 | 8.70561 | 71° | 20km/h | 3513m | 6.4m/s | 3.2°C | 71.7% | 0hPa | 3V | 08:30:00 | 00:38:22 | 00:00:00 | |
| IW2NTF | 2026-08-31 11:12:58 | 45.54366 | 8.70525 | 75° | 22km/h | 3485m | 5.8m/s | 3.5°C | 70.4% | 0hPa | 3V | 08:30:00 | 00:38:16 | 00:00:00 | |
| IW2NTF | 2026-08-31 11:12:51 | 45.54348 | 8.70466 | 54° | 33km/h | 3456m | 2.9m/s | 3.8°C | 69.4% | 0hPa | 3V | 08:30:00 | 00:38:10 | 00:00:00 | |
| IW2NTF | 2026-08-31 11:12:46 | 45.54317 | 8.70413 | 62° | 27km/h | 3434m | 3.8m/s | 3.9°C | 68.9% | 0hPa | 3V | 08:30:00 | 00:38:04 | 00:00:00 | |
| IW2NTF | 2026-08-31 11:12:40 | 45.54297 | 8.70366 | 48° | 27km/h | 3406m | 4.1m/s | 4.2°C | 67.4% | 0hPa | 3V | 08:30:00 | 00:37:58 | 00:00:00 | |
| IW2NTF | 2026-08-31 11:12:34 | 45.54283 | 8.70320 | 91° | 18km/h | 3384m | 3.7m/s | 4.4°C | 67.3% | 0hPa | 3V | 08:30:00 | 00:37:52 | 00:00:00 | |
| IW2NTF | 2026-08-31 11:12:28 | 45.54277 | 8.70258 | 69° | 35km/h | 3360m | 4m/s | 4.6°C | 66.6% | 0hPa | 3V | 08:30:00 | 00:37:46 | 00:00:00 | |
| IW2NTF | 2026-08-31 11:12:21 | 45.54260 | 8.70216 | 53° | 13km/h | 3334m | 3.4m/s | 4.9°C | 65.6% | 0hPa | 3V | 08:30:00 | 00:37:40 | 00:00:00 | |
| IW2NTF | 2026-08-31 11:12:16 | 45.54240 | 8.70186 | 56° | 24km/h | 3310m | 5.3m/s | 5.1°C | 64.8% | 0hPa | 3V | 08:30:00 | 00:37:34 | 00:00:00 | |
| IW2NTF | 2026-08-31 11:12:10 | 45.54236 | 8.70148 | 98° | 22km/h | 3282m | 2.9m/s | 5.4°C | 63.8% | 0hPa | 3V | 08:30:00 | 00:37:28 | 00:00:00 | |
| IW2NTF | 2026-08-31 11:12:04 | 45.54237 | 8.70090 | 73° | 29km/h | 3261m | 6.1m/s | 5.6°C | 63.1% | 0hPa | 3V | 08:30:00 | 00:37:22 | 00:00:00 | |
| IW2NTF | 2026-08-31 11:11:58 | 45.54222 | 8.70038 | 83° | 22km/h | 3228m | 3.9m/s | 5.9°C | 62.3% | 0hPa | 3V | 08:30:00 | 00:37:16 | 00:00:00 | |
| IW2NTF | 2026-08-31 11:11:51 | 45.54214 | 8.70000 | 66° | 20km/h | 3205m | 3.3m/s | 6.1°C | 61.9% | 0hPa | 3V | 08:30:00 | 00:37:10 | 00:00:00 | |
| IW2NTF | 2026-08-31 11:11:46 | 45.54207 | 8.69952 | 76° | 24km/h | 3185m | 1.9m/s | 6.2°C | 61.6% | 0hPa | 3V | 08:30:00 | 00:37:04 | 00:00:00 | |
| IW2NTF | 2026-08-31 11:11:41 | 45.54200 | 8.69903 | 67° | 24km/h | 3164m | 2m/s | 6.4°C | 60.8% | 0hPa | 3V | 08:30:00 | 00:36:58 | 00:00:00 | |
| IW2NTF | 2026-08-31 11:11:34 | 45.54190 | 8.69859 | 80° | 24km/h | 3145m | 4.1m/s | 6.6°C | 60.2% | 0hPa | 3V | 08:30:00 | 00:36:52 | 00:00:00 | |
| IW2NTF | 2026-08-31 11:11:28 | 45.54188 | 8.69806 | 103° | 24km/h | 3123m | 2.5m/s | 6.8°C | 59.7% | 0hPa | 3V | 08:30:00 | 00:36:46 | 00:00:00 | |
| IW2NTF | 2026-08-31 11:11:21 | 45.54182 | 8.69764 | 68° | 27km/h | 3098m | 6.7m/s | 6.9°C | 59.4% | 0hPa | 3V | 08:30:00 | 00:36:40 | 00:00:00 | |
| IW2NTF | 2026-08-31 11:11:16 | 45.54181 | 8.69709 | 103° | 27km/h | 3065m | 4.2m/s | 7.2°C | 59% | 0hPa | 3V | 08:30:00 | 00:36:34 | 00:00:00 | |
| IW2NTF | 2026-08-31 11:11:11 | 45.54169 | 8.69652 | 53° | 31km/h | 3036m | 5.4m/s | 7.3°C | 59% | 0hPa | 3V | 08:30:00 | 00:36:28 | 00:00:00 | |
| IW2NTF | 2026-08-31 11:11:04 | 45.54149 | 8.69581 | 76° | 40km/h | 3010m | 3.9m/s | 7.5°C | 58.8% | 0hPa | 3V | 08:30:00 | 00:36:22 | 00:00:00 | |
| IW2NTF | 2026-08-31 11:10:58 | 45.54132 | 8.69509 | 60° | 27km/h | 2983m | 5.7m/s | 7.5°C | 61.6% | 0hPa | 3V | 08:30:00 | 00:36:16 | 00:00:00 | |
| IW2NTF | 2026-08-31 11:10:51 | 45.54110 | 8.69462 | 58° | 29km/h | 2952m | 3.5m/s | 7.6°C | 63% | 0hPa | 3V | 08:30:00 | 00:36:10 | 00:00:00 | |
| IW2NTF | 2026-08-31 11:10:46 | 45.54096 | 8.69394 | 76° | 33km/h | 2923m | 3.2m/s | 7.8°C | 63.3% | 0hPa | 3V | 08:30:00 | 00:36:04 | 00:00:00 | |
| IW2NTF | 2026-08-31 11:10:40 | 45.54081 | 8.69328 | 71° | 27km/h | 2900m | 2.6m/s | 7.9°C | 63.8% | 0hPa | 3V | 08:30:00 | 00:35:58 | 00:00:00 | |
| IW2NTF | 2026-08-31 11:10:34 | 45.54064 | 8.69264 | 67° | 31km/h | 2880m | 1.9m/s | 7.9°C | 64.6% | 0hPa | 3V | 08:30:00 | 00:35:52 | 00:00:00 | |
| IW2NTF | 2026-08-31 11:10:28 | 45.54050 | 8.69197 | 83° | 31km/h | 2858m | 3.2m/s | 8.1°C | 63.7% | 0hPa | 3V | 08:30:00 | 00:35:46 | 00:00:00 | |
| IW2NTF | 2026-08-31 11:10:21 | 45.54052 | 8.69131 | 89° | 26km/h | 2840m | 2.9m/s | 8.3°C | 62.9% | 0hPa | 3V | 08:30:00 | 00:35:40 | 00:00:00 | |
| IW2NTF | 2026-08-31 11:10:16 | 45.54036 | 8.69071 | 66° | 40km/h | 2808m | 5.7m/s | 8.5°C | 61.8% | 0hPa | 3V | 08:30:00 | 00:35:34 | 00:00:00 | |
| IW2NTF | 2026-08-31 11:10:10 | 45.54012 | 8.68988 | 77° | 38km/h | 2779m | 5m/s | 8.8°C | 60.6% | 0hPa | 3V | 08:30:00 | 00:35:28 | 00:00:00 | |
| IW2NTF | 2026-08-31 11:10:04 | 45.54005 | 8.68915 | 77° | 37km/h | 2747m | 3.1m/s | 9.2°C | 59.6% | 0hPa | 3V | 08:30:00 | 00:35:22 | 00:00:00 | |
| IW2NTF | 2026-08-31 11:09:58 | 45.53992 | 8.68851 | 80° | 24km/h | 2722m | 3.2m/s | 9.4°C | 58.5% | 0hPa | 3V | 08:30:00 | 00:35:16 | 00:00:00 | |
| IW2NTF | 2026-08-31 11:09:51 | 45.53984 | 8.68780 | 82° | 42km/h | 2701m | 3.9m/s | 9.4°C | 59.4% | 0hPa | 3V | 08:30:00 | 00:35:10 | 00:00:00 | |
| IW2NTF | 2026-08-31 11:09:46 | 45.53966 | 8.68699 | 56° | 38km/h | 2680m | 5.5m/s | 9.5°C | 60.8% | 0hPa | 3V | 08:30:00 | 00:35:04 | 00:00:00 | |
| IW2NTF | 2026-08-31 11:09:40 | 45.53952 | 8.68642 | 101° | 27km/h | 2646m | 6.3m/s | 9.8°C | 60.1% | 0hPa | 3V | 08:30:00 | 00:34:58 | 00:00:00 | |
| IW2NTF | 2026-08-31 11:09:34 | 45.53955 | 8.68579 | 76° | 27km/h | 2621m | 4.7m/s | 10°C | 59.5% | 0hPa | 3V | 08:30:00 | 00:34:52 | 00:00:00 | |
| IW2NTF | 2026-08-31 11:09:28 | 45.53946 | 8.68520 | 83° | 37km/h | 2596m | 2.8m/s | 10.2°C | 58.8% | 0hPa | 3V | 08:30:00 | 00:34:46 | 00:00:00 | |
| IW2NTF | 2026-08-31 11:09:20 | 45.53942 | 8.68420 | 97° | 31km/h | 2566m | 4.5m/s | 10.5°C | 58.1% | 0hPa | 3V | 08:30:00 | 00:34:38 | 00:00:00 | |
| IW2NTF | 2026-08-31 11:09:14 | 45.53944 | 8.68346 | 82° | 38km/h | 2545m | 4.5m/s | 10.7°C | 57.3% | 0hPa | 3V | 08:30:00 | 00:34:32 | 00:00:00 | |
| IW2NTF | 2026-08-31 11:09:08 | 45.53941 | 8.68278 | 103° | 29km/h | 2513m | 6.8m/s | 10.9°C | 56.4% | 0hPa | 3V | 08:30:00 | 00:34:26 | 00:00:00 | |
| IW2NTF | 2026-08-31 11:09:01 | 45.53946 | 8.68199 | 90° | 38km/h | 2491m | 4.9m/s | 11.1°C | 55.9% | 0hPa | 3V | 08:30:00 | 00:34:20 | 00:00:00 | |
| IW2NTF | 2026-08-31 11:08:56 | 45.53940 | 8.68124 | 61° | 27km/h | 2462m | 4.5m/s | 11.3°C | 55.8% | 0hPa | 3V | 08:30:00 | 00:34:14 | 00:00:00 | |
| IW2NTF | 2026-08-31 11:08:50 | 45.53925 | 8.68089 | 74° | 20km/h | 2434m | 4.7m/s | 11.3°C | 56.9% | 0hPa | 3V | 08:30:00 | 00:34:08 | 00:00:00 | |
| IW2NTF | 2026-08-31 11:08:44 | 45.53916 | 8.68041 | 68° | 18km/h | 2403m | 4.6m/s | 11.5°C | 56.3% | 0hPa | 3V | 08:30:00 | 00:34:02 | 00:00:00 | |
| IW2NTF | 2026-08-31 11:08:38 | 45.53907 | 8.68003 | 67° | 18km/h | 2379m | 3.5m/s | 11.7°C | 55.8% | 0hPa | 3V | 08:30:00 | 00:33:56 | 00:00:00 | |
| IW2NTF | 2026-08-31 11:08:31 | 45.53889 | 8.67965 | 41° | 22km/h | 2358m | 3.2m/s | 11.9°C | 55.1% | 0hPa | 3V | 08:30:00 | 00:33:50 | 00:00:00 | |
| IW2NTF | 2026-08-31 11:08:26 | 45.53868 | 8.67918 | 62° | 22km/h | 2334m | 6.2m/s | 12.1°C | 55.3% | 0hPa | 3V | 08:30:00 | 00:33:44 | 00:00:00 | |
| IW2NTF | 2026-08-31 11:08:20 | 45.53851 | 8.67885 | 65° | 22km/h | 2302m | 5m/s | 12.3°C | 55.6% | 0hPa | 3V | 08:30:00 | 00:33:38 | 00:00:00 | |
| IW2NTF | 2026-08-31 11:08:14 | 45.53846 | 8.67845 | 87° | 13km/h | 2271m | 6.9m/s | 12.6°C | 55.9% | 0hPa | 3V | 08:30:00 | 00:33:32 | 00:00:00 | |
| IW2NTF | 2026-08-31 11:08:08 | 45.53844 | 8.67818 | 92° | 15km/h | 2241m | 5.6m/s | 12.8°C | 55.8% | 0hPa | 3V | 08:30:00 | 00:33:26 | 00:00:00 | |
| IW2NTF | 2026-08-31 11:08:01 | 45.53846 | 8.67792 | 96° | 11km/h | 2212m | 5m/s | 13°C | 56.8% | 0hPa | 3V | 08:30:00 | 00:33:20 | 00:00:00 | |
| IW2NTF | 2026-08-31 11:07:56 | 45.53855 | 8.67757 | 115° | 20km/h | 2183m | 6.3m/s | 13.2°C | 56.2% | 0hPa | 3V | 08:30:00 | 00:33:14 | 00:00:00 | |
| IW2NTF | 2026-08-31 11:07:50 | 45.53855 | 8.67711 | 71° | 26km/h | 2154m | 5.1m/s | 13.5°C | 53.8% | 0hPa | 3V | 08:30:00 | 00:33:08 | 00:00:00 | |
| IW2NTF | 2026-08-31 11:07:44 | 45.53846 | 8.67673 | 81° | 13km/h | 2126m | 4.7m/s | 13.7°C | 52.6% | 0hPa | 3V | 08:30:00 | 00:33:02 | 00:00:00 | |
| IW2NTF | 2026-08-31 11:07:38 | 45.53845 | 8.67640 | 85° | 18km/h | 2101m | 3.9m/s | 13.9°C | 51.7% | 0hPa | 3V | 08:30:00 | 00:32:56 | 00:00:00 | |
| IW2NTF | 2026-08-31 11:07:31 | 45.53849 | 8.67605 | 118° | 16km/h | 2080m | 4.2m/s | 13.9°C | 52.5% | 0hPa | 3V | 08:30:00 | 00:32:50 | 00:00:00 | |
| IW2NTF | 2026-08-31 11:07:26 | 45.53852 | 8.67569 | 76° | 22km/h | 2056m | 4.8m/s | 14.2°C | 51.6% | 0hPa | 3V | 08:30:00 | 00:32:44 | 00:00:00 | |
| IW2NTF | 2026-08-31 11:07:20 | 45.53848 | 8.67533 | 83° | 15km/h | 2036m | 2.4m/s | 14.2°C | 52.8% | 0hPa | 3V | 08:30:00 | 00:32:38 | 00:00:00 | |
| IW2NTF | 2026-08-31 11:07:11 | 45.53844 | 8.67491 | 86° | 24km/h | 2017m | 3.2m/s | 14.2°C | 53.8% | 0hPa | 3V | 08:30:00 | 00:32:32 | 00:00:00 | |
| IW2NTF | 2026-08-31 11:07:06 | 45.53844 | 8.67438 | 82° | 18km/h | 1997m | 4.4m/s | 14.2°C | 55.3% | 0hPa | 3V | 08:30:00 | 00:32:26 | 00:00:00 | |
| IW2NTF | 2026-08-31 11:07:06 | 45.53842 | 8.67427 | 65° | 13km/h | 1986m | 5.4m/s | 14.3°C | 55.3% | 0hPa | 3V | 08:30:00 | 00:32:24 | 00:00:00 | |
| IW2NTF | 2026-08-31 11:07:00 | 45.53839 | 8.67420 | 72° | 9km/h | 1973m | 6.6m/s | 14.4°C | 55.1% | 0hPa | 3V | 08:30:00 | 00:32:22 | 00:00:00 | |
| IW2NTF | 2026-08-31 11:07:00 | 45.53841 | 8.67413 | 126° | 9km/h | 1963m | 3.7m/s | 14.5°C | 54.9% | 0hPa | 3V | 08:30:00 | 00:32:20 | 00:00:00 | |
| IW2NTF | 2026-08-31 11:07:00 | 45.53843 | 8.67408 | 123° | 9km/h | 1954m | 3.2m/s | 14.6°C | 55% | 0hPa | 3V | 08:30:00 | 00:32:18 | 00:00:00 | |
| IW2NTF | 2026-08-31 11:06:54 | 45.53843 | 8.67398 | 43° | 11km/h | 1938m | 5.8m/s | 14.7°C | 54.9% | 0hPa | 3V | 08:30:00 | 00:32:14 | 00:00:00 | |
| IW2NTF | 2026-08-31 11:06:54 | 45.53836 | 8.67391 | 29° | 20km/h | 1927m | 3.2m/s | 14.8°C | 54.8% | 0hPa | 3V | 08:30:00 | 00:32:12 | 00:00:00 | |
| IW2NTF | 2026-08-31 11:06:48 | 45.53827 | 8.67384 | 27° | 20km/h | 1921m | 3.4m/s | 14.9°C | 54.5% | 0hPa | 3V | 08:30:00 | 00:32:10 | 00:00:00 | |
| IW2NTF | 2026-08-31 11:06:48 | 45.53818 | 8.67377 | 24° | 22km/h | 1915m | 4.2m/s | 14.9°C | 54.5% | 0hPa | 3V | 08:30:00 | 00:32:08 | 00:00:00 | |
| IW2NTF | 2026-08-31 11:06:48 | 45.53809 | 8.67371 | 30° | 18km/h | 1907m | 3.2m/s | 15°C | 54.3% | 0hPa | 3V | 08:30:00 | 00:32:06 | 00:00:00 | |
| IW2NTF | 2026-08-31 11:06:41 | 45.53802 | 8.67365 | 37° | 15km/h | 1900m | 5m/s | 15°C | 54.1% | 0hPa | 3V | 08:30:00 | 00:32:04 | 00:00:00 | |
| IW2NTF | 2026-08-31 11:06:41 | 45.53797 | 8.67358 | 47° | 11km/h | 1890m | 4.6m/s | 15.1°C | 53.8% | 0hPa | 3V | 08:30:00 | 00:32:02 | 00:00:00 | |
| IW2NTF | 2026-08-31 11:06:41 | 45.53793 | 8.67352 | 45° | 11km/h | 1880m | 4.8m/s | 15.1°C | 54.4% | 0hPa | 3V | 08:30:00 | 00:32:00 | 00:00:00 | |
| IW2NTF | 2026-08-31 11:06:36 | 45.53787 | 8.67340 | 65° | 7km/h | 1865m | 2.6m/s | 15.2°C | 54.8% | 0hPa | 3V | 08:30:00 | 00:31:56 | 00:00:00 | |
| IW2NTF | 2026-08-31 11:06:36 | 45.53785 | 8.67335 | 60° | 9km/h | 1859m | 2.9m/s | 15.3°C | 54.7% | 0hPa | 3V | 08:30:00 | 00:31:54 | 00:00:00 | |
| IW2NTF | 2026-08-31 11:06:28 | 45.53780 | 8.67321 | 80° | 11km/h | 1845m | 3.5m/s | 15.4°C | 54.4% | 0hPa | 3V | 08:30:00 | 00:31:50 | 00:00:00 | |
| IW2NTF | 2026-08-31 11:06:28 | 45.53780 | 8.67315 | 68° | 9km/h | 1840m | 2.9m/s | 15.4°C | 54.4% | 0hPa | 3V | 08:30:00 | 00:31:48 | 00:00:00 | |
| IW2NTF | 2026-08-31 11:06:28 | 45.53777 | 8.67309 | 44° | 15km/h | 1833m | 3.8m/s | 15.5°C | 54.1% | 0hPa | 3V | 08:30:00 | 00:31:46 | 00:00:00 | |
| IW2NTF | 2026-08-31 11:06:21 | 45.53770 | 8.67303 | 19° | 16km/h | 1826m | 3.1m/s | 15.5°C | 54% | 0hPa | 3V | 08:30:00 | 00:31:44 | 00:00:00 | |
| IW2NTF | 2026-08-31 11:06:21 | 45.53761 | 8.67300 | 18° | 18km/h | 1821m | 2.3m/s | 15.6°C | 53.8% | 0hPa | 3V | 08:30:00 | 00:31:42 | 00:00:00 | |
| IW2NTF | 2026-08-31 11:06:16 | 45.53749 | 8.67282 | 60° | 18km/h | 1805m | 7m/s | 15.7°C | 53.9% | 0hPa | 3V | 08:30:00 | 00:31:38 | 00:00:00 | |
| IW2NTF | 2026-08-31 11:06:16 | 45.53745 | 8.67271 | 62° | 15km/h | 1791m | 7.1m/s | 15.7°C | 53.9% | 0hPa | 3V | 08:30:00 | 00:31:36 | 00:00:00 | |
| IW2NTF | 2026-08-31 11:06:16 | 45.53740 | 8.67263 | 38° | 15km/h | 1777m | 6.5m/s | 15.8°C | 54.3% | 0hPa | 3V | 08:30:00 | 00:31:34 | 00:00:00 | |
| IW2NTF | 2026-08-31 11:06:10 | 45.53734 | 8.67257 | 28° | 15km/h | 1767m | 3.7m/s | 15.9°C | 54.4% | 0hPa | 3V | 08:30:00 | 00:31:32 | 00:00:00 | |
| IW2NTF | 2026-08-31 11:06:10 | 45.53729 | 8.67252 | 52° | 11km/h | 1760m | 2.3m/s | 16°C | 54.2% | 0hPa | 3V | 08:30:00 | 00:31:30 | 00:00:00 | |
| IW2NTF | 2026-08-31 11:06:10 | 45.53727 | 8.67246 | 96° | 7km/h | 1754m | 3.8m/s | 16°C | 53.7% | 0hPa | 3V | 08:30:00 | 00:31:28 | 00:00:00 | |
| IW2NTF | 2026-08-31 11:06:04 | 45.53728 | 8.67239 | 105° | 13km/h | 1747m | 4m/s | 15.8°C | 56.3% | 0hPa | 3V | 08:30:00 | 00:31:26 | 00:00:00 | |
| IW2NTF | 2026-08-31 11:06:04 | 45.53728 | 8.67229 | 82° | 18km/h | 1742m | 2.8m/s | 15.8°C | 57.5% | 0hPa | 3V | 08:30:00 | 00:31:24 | 00:00:00 | |
| IW2NTF | 2026-08-31 11:06:04 | 45.53725 | 8.67216 | 63° | 18km/h | 1735m | 4.1m/s | 15.6°C | 60.3% | 0hPa | 3V | 08:30:00 | 00:31:22 | 00:00:00 | |
| IW2NTF | 2026-08-31 11:05:58 | 45.53719 | 8.67206 | 37° | 18km/h | 1725m | 4.8m/s | 15.6°C | 61.4% | 0hPa | 3V | 08:30:00 | 00:31:20 | 00:00:00 | |
| IW2NTF | 2026-08-31 11:05:58 | 45.53711 | 8.67198 | 27° | 20km/h | 1716m | 5.3m/s | 15.7°C | 62.3% | 0hPa | 3V | 08:30:00 | 00:31:18 | 00:00:00 | |
| IW2NTF | 2026-08-31 11:05:58 | 45.53703 | 8.67190 | 36° | 20km/h | 1708m | 2.2m/s | 15.7°C | 62.5% | 0hPa | 3V | 08:30:00 | 00:31:16 | 00:00:00 | |
| IW2NTF | 2026-08-31 11:05:51 | 45.53696 | 8.67180 | 57° | 15km/h | 1701m | 4m/s | 15.7°C | 64% | 0hPa | 3V | 08:30:00 | 00:31:14 | 00:00:00 | |
| IW2NTF | 2026-08-31 11:05:51 | 45.53695 | 8.67173 | 91° | 9km/h | 1692m | 4m/s | 15.7°C | 65% | 0hPa | 3V | 08:30:00 | 00:31:12 | 00:00:00 | |
| IW2NTF | 2026-08-31 11:05:51 | 45.53697 | 8.67166 | 134° | 11km/h | 1683m | 4.6m/s | 15.8°C | 64.1% | 0hPa | 3V | 08:30:00 | 00:31:10 | 00:00:00 | |
| IW2NTF | 2026-08-31 11:05:46 | 45.53699 | 8.67160 | 88° | 9km/h | 1674m | 4.2m/s | 15.8°C | 65.7% | 0hPa | 3V | 08:30:00 | 00:31:08 | 00:00:00 | |
| IW2NTF | 2026-08-31 11:05:46 | 45.53696 | 8.67152 | 52° | 18km/h | 1666m | 4.5m/s | 15.9°C | 66.3% | 0hPa | 3V | 08:30:00 | 00:31:06 | 00:00:00 | |
| IW2NTF | 2026-08-31 11:05:46 | 45.53689 | 8.67140 | 52° | 22km/h | 1657m | 4.9m/s | 16°C | 65.6% | 0hPa | 3V | 08:30:00 | 00:31:04 | 00:00:00 | |
| IW2NTF | 2026-08-31 11:05:40 | 45.53681 | 8.67126 | 52° | 22km/h | 1649m | 2.7m/s | 15.9°C | 67.7% | 0hPa | 3V | 08:30:00 | 00:31:02 | 00:00:00 | |
| IW2NTF | 2026-08-31 11:05:40 | 45.53676 | 8.67112 | 71° | 24km/h | 1644m | 3.8m/s | 15.9°C | 68.8% | 0hPa | 3V | 08:30:00 | 00:31:00 | 00:00:00 | |
| IW2NTF | 2026-08-31 11:05:40 | 45.53675 | 8.67098 | 96° | 18km/h | 1636m | 4m/s | 16°C | 68.9% | 0hPa | 3V | 08:30:00 | 00:30:58 | 00:00:00 | |
| IW2NTF | 2026-08-31 11:05:34 | 45.53678 | 8.67088 | 125° | 11km/h | 1628m | 5.3m/s | 16.1°C | 68.9% | 0hPa | 3V | 08:30:00 | 00:30:56 | 00:00:00 | |
| IW2NTF | 2026-08-31 11:05:34 | 45.53681 | 8.67086 | 189° | 4km/h | 1617m | 4.6m/s | 16.1°C | 69.7% | 0hPa | 3V | 08:30:00 | 00:30:54 | 00:00:00 | |
| IW2NTF | 2026-08-31 11:05:34 | 45.53680 | 8.67087 | 333° | 5km/h | 1608m | 4.7m/s | 16.2°C | 69.4% | 0hPa | 3V | 08:30:00 | 00:30:52 | 00:00:00 | |
| IW2NTF | 2026-08-31 11:05:28 | 45.53676 | 8.67088 | 359° | 11km/h | 1597m | 5.9m/s | 16.3°C | 69.1% | 0hPa | 3V | 08:30:00 | 00:30:50 | 00:00:00 | |
| IW2NTF | 2026-08-31 11:05:28 | 45.53670 | 8.67086 | 36° | 13km/h | 1585m | 6.1m/s | 16.4°C | 0% | 0hPa | 3V | 08:30:00 | 00:30:48 | 00:00:00 | |
| IW2NTF | 2026-08-31 11:05:28 | 45.53666 | 8.67077 | 66° | 16km/h | 1576m | 4.2m/s | 16.5°C | 0% | 0hPa | 3V | 08:30:00 | 00:30:46 | 00:00:00 | |
| IW2NTF | 2026-08-31 11:05:21 | 45.53665 | 8.67065 | 89° | 16km/h | 1569m | 3.2m/s | 16.6°C | 0% | 0hPa | 3V | 08:30:00 | 00:30:44 | 00:00:00 | |
| IW2NTF | 2026-08-31 11:05:21 | 45.53664 | 8.67052 | 89° | 18km/h | 1563m | 2.2m/s | 16.6°C | 0% | 0hPa | 3V | 08:30:00 | 00:30:42 | 00:00:00 | |
| IW2NTF | 2026-08-31 11:05:21 | 45.53663 | 8.67039 | 74° | 18km/h | 1557m | 3.5m/s | 16.6°C | 0% | 0hPa | 3V | 08:30:00 | 00:30:40 | 00:00:00 | |
| IW2NTF | 2026-08-31 11:05:16 | 45.53659 | 8.67029 | 39° | 15km/h | 1549m | 4.4m/s | 0°C | 0% | 0hPa | 3V | 08:30:00 | 00:30:38 | 00:00:00 | |
| IW2NTF | 2026-08-31 11:05:16 | 45.53654 | 8.67026 | 357° | 9km/h | 1539m | 5.4m/s | 0°C | 0% | 0hPa | 3V | 08:30:00 | 00:30:36 | 00:00:00 | |
| IW2NTF | 2026-08-31 11:05:16 | 45.53650 | 8.67028 | 339° | 7km/h | 1529m | 4.3m/s | 0°C | 0% | 0hPa | 3V | 08:30:00 | 00:30:34 | 00:00:00 | |
| IW2NTF | 2026-08-31 11:05:08 | 45.53642 | 8.67029 | 3° | 13km/h | 1514m | 5.1m/s | 0°C | 0% | 0hPa | 3V | 08:30:00 | 00:30:30 | 00:00:00 | |
| IW2NTF | 2026-08-31 11:05:08 | 45.53635 | 8.67027 | 17° | 13km/h | 1504m | 5.8m/s | 0°C | 0% | 0hPa | 3V | 08:30:00 | 00:30:28 | 00:00:00 | |
| IW2NTF | 2026-08-31 11:05:08 | 45.53630 | 8.67024 | 48° | 9km/h | 1493m | 4.3m/s | 0°C | 0% | 0hPa | 3V | 08:30:00 | 00:30:26 | 00:00:00 | |
| IW2NTF | 2026-08-31 11:05:00 | 45.53626 | 8.67015 | 23° | 9km/h | 1472m | 4.9m/s | 0°C | 0% | 0hPa | 3V | 08:30:00 | 00:30:22 | 00:00:00 | |
| IW2NTF | 2026-08-31 11:05:00 | 45.53620 | 8.67012 | 33° | 15km/h | 1462m | 6.3m/s | 0°C | 0% | 0hPa | 3V | 08:30:00 | 00:30:20 | 00:00:00 | |
| IW2NTF | 2026-08-31 11:05:00 | 45.53613 | 8.67005 | 44° | 16km/h | 1451m | 5m/s | 0°C | 0% | 0hPa | 3V | 08:30:00 | 00:30:18 | 00:00:00 | |
| IW2NTF | 2026-08-31 11:04:54 | 45.53609 | 8.66994 | 66° | 16km/h | 1444m | 3.4m/s | 0°C | 0% | 0hPa | 3V | 08:30:00 | 00:30:16 | 00:00:00 | |
| IW2NTF | 2026-08-31 11:04:54 | 45.53606 | 8.66983 | 74° | 20km/h | 1439m | 2.5m/s | 0°C | 0% | 0hPa | 3V | 08:30:00 | 00:30:14 | 00:00:00 | |
| IW2NTF | 2026-08-31 11:04:54 | 45.53602 | 8.66968 | 69° | 24km/h | 1433m | 3.1m/s | 0°C | 0% | 0hPa | 3V | 08:30:00 | 00:30:12 | 00:00:00 | |
| IW2NTF | 2026-08-31 11:04:49 | 45.53598 | 8.66953 | 68° | 22km/h | 1428m | 3.4m/s | 0°C | 0% | 0hPa | 3V | 08:30:00 | 00:30:10 | 00:00:00 | |
| IW2NTF | 2026-08-31 11:04:49 | 45.53596 | 8.66939 | 82° | 18km/h | 1421m | 3.1m/s | 0°C | 0% | 0hPa | 3V | 08:30:00 | 00:30:08 | 00:00:00 | |
| IW2NTF | 2026-08-31 11:04:49 | 45.53596 | 8.66929 | 95° | 9km/h | 1413m | 5.5m/s | 0°C | 0% | 0hPa | 3V | 08:30:00 | 00:30:06 | 00:00:00 | |
| IW2NTF | 2026-08-31 11:04:41 | 45.53593 | 8.66928 | 337° | 9km/h | 1392m | 6.1m/s | 0°C | 0% | 0hPa | 3V | 08:30:00 | 00:30:02 | 00:00:00 | |
| IW2NTF | 2026-08-31 11:04:41 | 45.53588 | 8.66928 | 5° | 13km/h | 1381m | 5.4m/s | 0°C | 0% | 0hPa | 3V | 08:30:00 | 00:30:00 | 00:00:00 | |
| IW2NTF | 2026-08-31 11:04:36 | 45.53580 | 8.66926 | 25° | 18km/h | 1370m | 4.5m/s | 0°C | 0% | 0hPa | 3V | 08:30:00 | 00:29:58 | 00:00:00 | |
| IW2NTF | 2026-08-31 11:04:36 | 45.53571 | 8.66917 | 39° | 22km/h | 1362m | 4.8m/s | 0°C | 0% | 0hPa | 3V | 08:30:00 | 00:29:56 | 00:00:00 | |
| IW2NTF | 2026-08-31 11:04:36 | 45.53563 | 8.66907 | 43° | 20km/h | 1355m | 3.5m/s | 0°C | 0% | 0hPa | 3V | 08:30:00 | 00:29:54 | 00:00:00 | |
| IW2NTF | 2026-08-31 11:04:30 | 45.53556 | 8.66899 | 23° | 15km/h | 1347m | 3.5m/s | 0°C | 0% | 0hPa | 3V | 08:30:00 | 00:29:52 | 00:00:00 | |
| IW2NTF | 2026-08-31 11:04:30 | 45.53550 | 8.66898 | 6° | 7km/h | 1340m | 3.5m/s | 0°C | 0% | 0hPa | 3V | 08:30:00 | 00:29:50 | 00:00:00 | |
| IW2NTF | 2026-08-31 11:04:30 | 45.53547 | 8.66898 | 23° | 4km/h | 1333m | 4m/s | 0°C | 0% | 0hPa | 3V | 08:30:00 | 00:29:48 | 00:00:00 | |
| IW2NTF | 2026-08-31 11:04:24 | 45.53546 | 8.66891 | 78° | 9km/h | 1318m | 5.2m/s | 0°C | 0% | 0hPa | 3V | 08:30:00 | 00:29:44 | 00:00:00 | |
| IW2NTF | 2026-08-31 11:04:24 | 45.53544 | 8.66882 | 66° | 15km/h | 1308m | 5.4m/s | 0°C | 0% | 0hPa | 3V | 08:30:00 | 00:29:42 | 00:00:00 | |
| IW2NTF | 2026-08-31 11:04:19 | 45.53539 | 8.66871 | 54° | 22km/h | 1298m | 4.5m/s | 0°C | 0% | 0hPa | 3V | 08:30:00 | 00:29:40 | 00:00:00 | |
| IW2NTF | 2026-08-31 11:04:19 | 45.53532 | 8.66859 | 43° | 24km/h | 1290m | 4.3m/s | 0°C | 0% | 0hPa | 3V | 08:30:00 | 00:29:38 | 00:00:00 | |
| IW2NTF | 2026-08-31 11:04:19 | 45.53522 | 8.66848 | 36° | 22km/h | 1280m | 5.1m/s | 0°C | 0% | 0hPa | 3V | 08:30:00 | 00:29:36 | 00:00:00 | |
| IW2NTF | 2026-08-31 11:04:11 | 45.53513 | 8.66841 | 21° | 18km/h | 1270m | 4.3m/s | 0°C | 0% | 0hPa | 3V | 08:30:00 | 00:29:34 | 00:00:00 | |
| IW2NTF | 2026-08-31 11:04:11 | 45.53505 | 8.66836 | 19° | 16km/h | 1261m | 4.7m/s | 0°C | 0% | 0hPa | 3V | 08:30:00 | 00:29:32 | 00:00:00 | |
| IW2NTF | 2026-08-31 11:04:11 | 45.53499 | 8.66836 | 346° | 9km/h | 1252m | 4.5m/s | 0°C | 0% | 0hPa | 3V | 08:30:00 | 00:29:30 | 00:00:00 | |
| IW2NTF | 2026-08-31 11:04:06 | 45.53494 | 8.66841 | 319° | 11km/h | 1245m | 3.6m/s | 0°C | 0% | 0hPa | 3V | 08:30:00 | 00:29:28 | 00:00:00 | |
| IW2NTF | 2026-08-31 11:04:06 | 45.53488 | 8.66844 | 355° | 13km/h | 1240m | 3.6m/s | 0°C | 0% | 0hPa | 3V | 08:30:00 | 00:29:26 | 00:00:00 | |
| IW2NTF | 2026-08-31 11:04:06 | 45.53481 | 8.66840 | 29° | 18km/h | 1229m | 6m/s | 0°C | 0% | 0hPa | 3V | 08:30:00 | 00:29:24 | 00:00:00 | |
| IW2NTF | 2026-08-31 11:04:00 | 45.53474 | 8.66831 | 55° | 18km/h | 1217m | 6.9m/s | 0°C | 0% | 0hPa | 3V | 08:30:00 | 00:29:22 | 00:00:00 | |
| IW2NTF | 2026-08-31 11:04:00 | 45.53470 | 8.66820 | 73° | 18km/h | 1205m | 6.8m/s | 0°C | 0% | 0hPa | 3V | 08:30:00 | 00:29:20 | 00:00:00 | |
| IW2NTF | 2026-08-31 11:04:00 | 45.53466 | 8.66809 | 37° | 16km/h | 1194m | 5.1m/s | 0°C | 0% | 0hPa | 3V | 08:30:00 | 00:29:18 | 00:00:00 | |
| IW2NTF | 2026-08-31 11:03:54 | 45.53457 | 8.66804 | 16° | 22km/h | 1183m | 6.2m/s | 0°C | 0% | 0hPa | 3V | 08:30:00 | 00:29:16 | 00:00:00 | |
| IW2NTF | 2026-08-31 11:03:54 | 45.53446 | 8.66802 | 354° | 22km/h | 1170m | 6m/s | 0°C | 0% | 0hPa | 3V | 08:30:00 | 00:29:14 | 00:00:00 | |
| IW2NTF | 2026-08-31 11:03:54 | 45.53437 | 8.66805 | 341° | 16km/h | 1159m | 5.4m/s | 0°C | 0% | 0hPa | 3V | 08:30:00 | 00:29:12 | 00:00:00 | |
| IW2NTF | 2026-08-31 11:03:48 | 45.53428 | 8.66809 | 334° | 22km/h | 1148m | 5.4m/s | 0°C | 0% | 0hPa | 3V | 08:30:00 | 00:29:10 | 00:00:00 | |
| IW2NTF | 2026-08-31 11:03:48 | 45.53408 | 8.66812 | 9° | 22km/h | 1132m | 4.9m/s | 0°C | 0% | 0hPa | 3V | 08:30:00 | 00:29:06 | 00:00:00 | |
| IW2NTF | 2026-08-31 11:03:42 | 45.53397 | 8.66806 | 37° | 22km/h | 1121m | 5.6m/s | 0°C | 0% | 0hPa | 3V | 08:30:00 | 00:29:04 | 00:00:00 | |
| IW2NTF | 2026-08-31 11:03:42 | 45.53389 | 8.66795 | 45° | 20km/h | 1114m | 2.5m/s | 0°C | 0% | 0hPa | 3V | 08:30:00 | 00:29:02 | 00:00:00 | |
| IW2NTF | 2026-08-31 11:03:42 | 45.53383 | 8.66785 | 57° | 15km/h | 1106m | 5.2m/s | 0°C | 0% | 0hPa | 3V | 08:30:00 | 00:29:00 | 00:00:00 | |
| IW2NTF | 2026-08-31 11:03:36 | 45.53375 | 8.66781 | 339° | 13km/h | 1082m | 4.5m/s | 0°C | 0% | 0hPa | 3V | 08:30:00 | 00:28:56 | 00:00:00 | |
| IW2NTF | 2026-08-31 11:03:36 | 45.53368 | 8.66783 | 357° | 20km/h | 1072m | 5m/s | 0°C | 0% | 0hPa | 3V | 08:30:00 | 00:28:54 | 00:00:00 | |
| IW2NTF | 2026-08-31 11:03:30 | 45.53358 | 8.66780 | 26° | 20km/h | 1063m | 4.7m/s | 0°C | 0% | 0hPa | 3V | 00:00:00 | 00:28:52 | 00:00:00 | |
| IW2NTF | 2026-08-31 11:03:30 | 45.53350 | 8.66773 | 40° | 15km/h | 1052m | 5.8m/s | 0°C | 0% | 0hPa | 3V | 00:00:00 | 00:28:50 | 00:00:00 | |
| IW2NTF | 2026-08-31 11:03:30 | 45.53347 | 8.66769 | 352° | 2km/h | 1040m | 5.4m/s | 0°C | 0% | 0hPa | 3V | 00:00:00 | 00:28:48 | 00:00:00 | |
| IW2NTF | 2026-08-31 11:03:24 | 45.53346 | 8.66772 | 311° | 9km/h | 1027m | 7.6m/s | 0°C | 0% | 0hPa | 3V | 00:00:00 | 00:28:46 | 00:00:00 | |
| IW2NTF | 2026-08-31 11:03:24 | 45.53340 | 8.66777 | 341° | 18km/h | 1014m | 7m/s | 0°C | 0% | 0hPa | 3V | 00:00:00 | 00:28:44 | 00:00:00 | |
| IW2NTF | 2026-08-31 11:03:24 | 45.53331 | 8.66780 | 347° | 22km/h | 1002m | 4.5m/s | 0°C | 0% | 0hPa | 3V | 00:00:00 | 00:28:42 | 00:00:00 | |
| IW2NTF | 2026-08-31 11:03:19 | 45.53321 | 8.66784 | 340° | 18km/h | 993m | 4m/s | 0°C | 0% | 0hPa | 3V | 00:00:00 | 00:28:40 | 00:00:00 | |
| IW2NTF | 2026-08-31 11:03:19 | 45.53314 | 8.66789 | 326° | 15km/h | 986m | 5m/s | 0°C | 0% | 0hPa | 3V | 00:00:00 | 00:28:38 | 00:00:00 | |
| IW2NTF | 2026-08-31 11:03:19 | 45.53310 | 8.66794 | 313° | 9km/h | 975m | 5m/s | 0°C | 0% | 0hPa | 3V | 00:00:00 | 00:28:36 | 00:00:00 | |
| IW2NTF | 2026-08-31 11:03:11 | 45.53307 | 8.66796 | 20° | 4km/h | 968m | 3.9m/s | 0°C | 0% | 0hPa | 3V | 00:00:00 | 00:28:34 | 00:00:00 | |
| IW2NTF | 2026-08-31 11:03:11 | 45.53306 | 8.66792 | 74° | 7km/h | 960m | 4.6m/s | 0°C | 0% | 0hPa | 3V | 00:00:00 | 00:28:32 | 00:00:00 | |
| IW2NTF | 2026-08-31 11:03:11 | 45.53305 | 8.66786 | 74° | 7km/h | 952m | 5.5m/s | 0°C | 0% | 0hPa | 3V | 00:00:00 | 00:28:30 | 00:00:00 | |
| IW2NTF | 2026-08-31 11:03:06 | 45.53304 | 8.66786 | 285° | 5km/h | 942m | 4.9m/s | 0°C | 0% | 0hPa | 3V | 00:00:00 | 00:28:28 | 00:00:00 | |
| IW2NTF | 2026-08-31 11:03:06 | 45.53304 | 8.66794 | 277° | 15km/h | 931m | 5m/s | 0°C | 0% | 0hPa | 3V | 00:00:00 | 00:28:26 | 00:00:00 | |
| IW2NTF | 2026-08-31 11:03:06 | 45.53302 | 8.66806 | 291° | 18km/h | 923m | 3.7m/s | 0°C | 0% | 0hPa | 3V | 00:00:00 | 00:28:24 | 00:00:00 | |
| IW2NTF | 2026-08-31 11:03:00 | 45.53296 | 8.66817 | 317° | 20km/h | 916m | 3.7m/s | 0°C | 0% | 0hPa | 3V | 00:00:00 | 00:28:22 | 00:00:00 | |
| IW2NTF | 2026-08-31 11:03:00 | 45.53286 | 8.66825 | 340° | 24km/h | 907m | 4.6m/s | 0°C | 0% | 0hPa | 3V | 00:00:00 | 00:28:20 | 00:00:00 | |
| IW2NTF | 2026-08-31 11:03:00 | 45.53275 | 8.66827 | 8° | 20km/h | 898m | 4.8m/s | 0°C | 0% | 0hPa | 3V | 00:00:00 | 00:28:18 | 00:00:00 | |
| IW2NTF | 2026-08-31 11:02:54 | 45.53268 | 8.66824 | 37° | 9km/h | 890m | 3.4m/s | 0°C | 0% | 0hPa | 3V | 00:00:00 | 00:28:16 | 00:00:00 | |
| IW2NTF | 2026-08-31 11:02:54 | 45.53266 | 8.66820 | 82° | 4km/h | 881m | 5.6m/s | 0°C | 0% | 0hPa | 3V | 00:00:00 | 00:28:14 | 00:00:00 | |
| IW2NTF | 2026-08-31 11:02:54 | 45.53265 | 8.66820 | 313° | 7km/h | 871m | 3.6m/s | 0°C | 0% | 0hPa | 3V | 00:00:00 | 00:28:12 | 00:00:00 | |
| IW2NTF | 2026-08-31 11:02:49 | 45.53260 | 8.66824 | 336° | 15km/h | 865m | 4.7m/s | 0°C | 0% | 0hPa | 3V | 00:00:00 | 00:28:10 | 00:00:00 | |
| IW2NTF | 2026-08-31 11:02:49 | 45.53252 | 8.66829 | 338° | 20km/h | 854m | 6.1m/s | 0°C | 0% | 0hPa | 3V | 00:00:00 | 00:28:08 | 00:00:00 | |
| IW2NTF | 2026-08-31 11:02:49 | 45.53245 | 8.66834 | 333° | 9km/h | 843m | 4.5m/s | 0°C | 0% | 0hPa | 3V | 00:00:00 | 00:28:06 | 00:00:00 | |
| IW2NTF | 2026-08-31 11:02:41 | 45.53243 | 8.66835 | 185° | 2km/h | 837m | 3.8m/s | 0°C | 0% | 0hPa | 3V | 00:00:00 | 00:28:04 | 00:00:00 | |
| IW2NTF | 2026-08-31 11:02:41 | 45.53244 | 8.66836 | 273° | 5km/h | 828m | 4.1m/s | 0°C | 0% | 0hPa | 3V | 00:00:00 | 00:28:02 | 00:00:00 |